<?xml version="1.0" encoding="UTF-8" standalone="no" ?>
<gpx xmlns="http://www.topografix.com/GPX/1/1" xmlns:xsi="http://www.w3.org/2001/XMLSchema-instance" xsi:schemaLocation="http://www.topografix.com/GPX/1/1 http://www.topografix.com/GPX/1/1/gpx.xsd" version="1.1" creator="VisuGPX - https://www.visugpx.com">
  <metadata>
    <name>Rando en groupe du 21 février 2012</name>
    <desc><![CDATA[Avec le groupe 3 du Col de Brouis à Piène Haute et retour]]></desc>
  </metadata>
  <trk>
    <name><![CDATA[Rando en groupe du 21 février 2012_1]]></name>
    <trkseg>
      <trkpt lat="43.92443" lon="7.47684">
        <ele>917.00000002417</ele>
        <time>2012-02-21T09:11:38Z</time>
      </trkpt>
      <trkpt lat="43.92443" lon="7.47685">
        <ele>917.00000026269</ele>
        <time>2012-02-21T09:11:53Z</time>
      </trkpt>
      <trkpt lat="43.92443" lon="7.47686">
        <ele>917.00000057419</ele>
        <time>2012-02-21T09:11:58Z</time>
      </trkpt>
      <trkpt lat="43.92442" lon="7.4769">
        <ele>929.00000004942</ele>
        <time>2012-02-21T09:13:58Z</time>
      </trkpt>
      <trkpt lat="43.92446" lon="7.47691">
        <ele>932.00000034856</ele>
        <time>2012-02-21T09:14:03Z</time>
      </trkpt>
      <trkpt lat="43.92446" lon="7.4769">
        <ele>932.99999974092</ele>
        <time>2012-02-21T09:14:08Z</time>
      </trkpt>
      <trkpt lat="43.92444" lon="7.4769">
        <ele>926.9999997158</ele>
        <time>2012-02-21T09:14:28Z</time>
      </trkpt>
      <trkpt lat="43.92441" lon="7.47691">
        <ele>928.00000161555</ele>
        <time>2012-02-21T09:14:33Z</time>
      </trkpt>
      <trkpt lat="43.92442" lon="7.47687">
        <ele>929.99999990753</ele>
        <time>2012-02-21T09:14:38Z</time>
      </trkpt>
      <trkpt lat="43.92443" lon="7.47687">
        <ele>930.00000007904</ele>
        <time>2012-02-21T09:14:43Z</time>
      </trkpt>
      <trkpt lat="43.9244" lon="7.47686">
        <ele>929.00000054927</ele>
        <time>2012-02-21T09:14:48Z</time>
      </trkpt>
      <trkpt lat="43.92437" lon="7.47686">
        <ele>919.0000006738</ele>
        <time>2012-02-21T09:14:53Z</time>
      </trkpt>
      <trkpt lat="43.92439" lon="7.47692">
        <ele>928.99999958108</ele>
        <time>2012-02-21T09:14:58Z</time>
      </trkpt>
      <trkpt lat="43.92441" lon="7.47698">
        <ele>928.00000168096</ele>
        <time>2012-02-21T09:15:03Z</time>
      </trkpt>
      <trkpt lat="43.92443" lon="7.47701">
        <ele>927.00000093923</ele>
        <time>2012-02-21T09:15:08Z</time>
      </trkpt>
      <trkpt lat="43.92447" lon="7.47706">
        <ele>927.00000092357</ele>
        <time>2012-02-21T09:15:13Z</time>
      </trkpt>
      <trkpt lat="43.92448" lon="7.47707">
        <ele>928.00000020508</ele>
        <time>2012-02-21T09:15:18Z</time>
      </trkpt>
      <trkpt lat="43.92446" lon="7.4771">
        <ele>923.00000461727</ele>
        <time>2012-02-21T09:15:23Z</time>
      </trkpt>
      <trkpt lat="43.92445" lon="7.47714">
        <ele>927.00000417013</ele>
        <time>2012-02-21T09:15:28Z</time>
      </trkpt>
      <trkpt lat="43.92443" lon="7.47718">
        <ele>929.0000025312</ele>
        <time>2012-02-21T09:15:33Z</time>
      </trkpt>
      <trkpt lat="43.92442" lon="7.47722">
        <ele>932.00000522433</ele>
        <time>2012-02-21T09:15:38Z</time>
      </trkpt>
      <trkpt lat="43.92441" lon="7.47724">
        <ele>934.00001055897</ele>
        <time>2012-02-21T09:15:43Z</time>
      </trkpt>
      <trkpt lat="43.92442" lon="7.47725">
        <ele>933.00000143946</ele>
        <time>2012-02-21T09:15:48Z</time>
      </trkpt>
      <trkpt lat="43.92444" lon="7.47732">
        <ele>929.00000597327</ele>
        <time>2012-02-21T09:15:53Z</time>
      </trkpt>
      <trkpt lat="43.92445" lon="7.47737">
        <ele>932.00000745703</ele>
        <time>2012-02-21T09:15:58Z</time>
      </trkpt>
      <trkpt lat="43.92446" lon="7.47741">
        <ele>934.00001312229</ele>
        <time>2012-02-21T09:16:03Z</time>
      </trkpt>
      <trkpt lat="43.92447" lon="7.47746">
        <ele>930.00001141301</ele>
        <time>2012-02-21T09:16:08Z</time>
      </trkpt>
      <trkpt lat="43.92449" lon="7.47752">
        <ele>927.00001195761</ele>
        <time>2012-02-21T09:16:13Z</time>
      </trkpt>
      <trkpt lat="43.92449" lon="7.47757">
        <ele>923.0000136451</ele>
        <time>2012-02-21T09:16:18Z</time>
      </trkpt>
      <trkpt lat="43.92449" lon="7.47763">
        <ele>924.00003593406</ele>
        <time>2012-02-21T09:16:23Z</time>
      </trkpt>
      <trkpt lat="43.9245" lon="7.47766">
        <ele>922.00001877541</ele>
        <time>2012-02-21T09:16:28Z</time>
      </trkpt>
      <trkpt lat="43.92452" lon="7.4777">
        <ele>920.0000188761</ele>
        <time>2012-02-21T09:16:33Z</time>
      </trkpt>
      <trkpt lat="43.92453" lon="7.47775">
        <ele>925.00003190978</ele>
        <time>2012-02-21T09:16:38Z</time>
      </trkpt>
      <trkpt lat="43.92453" lon="7.47781">
        <ele>924.00003262857</ele>
        <time>2012-02-21T09:16:43Z</time>
      </trkpt>
      <trkpt lat="43.92451" lon="7.47782">
        <ele>920.00001433043</ele>
        <time>2012-02-21T09:16:48Z</time>
      </trkpt>
      <trkpt lat="43.92451" lon="7.47783">
        <ele>920.00002443093</ele>
        <time>2012-02-21T09:16:53Z</time>
      </trkpt>
      <trkpt lat="43.92451" lon="7.47782">
        <ele>926.00000613084</ele>
        <time>2012-02-21T09:17:08Z</time>
      </trkpt>
      <trkpt lat="43.92451" lon="7.4778">
        <ele>925.99998119262</ele>
        <time>2012-02-21T09:17:13Z</time>
      </trkpt>
      <trkpt lat="43.92451" lon="7.4778">
        <ele>930.99998166374</ele>
        <time>2012-02-21T09:17:48Z</time>
      </trkpt>
      <trkpt lat="43.92451" lon="7.47781">
        <ele>930.99998420523</ele>
        <time>2012-02-21T09:17:53Z</time>
      </trkpt>
      <trkpt lat="43.92451" lon="7.47781">
        <ele>927.99998532245</ele>
        <time>2012-02-21T09:18:28Z</time>
      </trkpt>
      <trkpt lat="43.92451" lon="7.47781">
        <ele>931.99998686469</ele>
        <time>2012-02-21T09:18:33Z</time>
      </trkpt>
      <trkpt lat="43.92451" lon="7.4778">
        <ele>927.99998250091</ele>
        <time>2012-02-21T09:18:43Z</time>
      </trkpt>
      <trkpt lat="43.92452" lon="7.47777">
        <ele>928.99999286901</ele>
        <time>2012-02-21T09:18:48Z</time>
      </trkpt>
      <trkpt lat="43.9245" lon="7.47772">
        <ele>924.99996061134</ele>
        <time>2012-02-21T09:18:53Z</time>
      </trkpt>
      <trkpt lat="43.92448" lon="7.47771">
        <ele>921.99998645994</ele>
        <time>2012-02-21T09:18:58Z</time>
      </trkpt>
      <trkpt lat="43.92445" lon="7.47767">
        <ele>922.99999056231</ele>
        <time>2012-02-21T09:19:03Z</time>
      </trkpt>
      <trkpt lat="43.92444" lon="7.47762">
        <ele>923.99999436261</ele>
        <time>2012-02-21T09:19:08Z</time>
      </trkpt>
      <trkpt lat="43.92443" lon="7.47756">
        <ele>923.99999448782</ele>
        <time>2012-02-21T09:19:13Z</time>
      </trkpt>
      <trkpt lat="43.92443" lon="7.47751">
        <ele>925.99998984677</ele>
        <time>2012-02-21T09:19:18Z</time>
      </trkpt>
      <trkpt lat="43.92443" lon="7.47746">
        <ele>923.99999062527</ele>
        <time>2012-02-21T09:19:23Z</time>
      </trkpt>
      <trkpt lat="43.92444" lon="7.47746">
        <ele>926.00000052769</ele>
        <time>2012-02-21T09:19:28Z</time>
      </trkpt>
      <trkpt lat="43.92443" lon="7.47739">
        <ele>927.99999490353</ele>
        <time>2012-02-21T09:19:33Z</time>
      </trkpt>
      <trkpt lat="43.92439" lon="7.47731">
        <ele>923.00000245346</ele>
        <time>2012-02-21T09:19:38Z</time>
      </trkpt>
      <trkpt lat="43.9244" lon="7.47724">
        <ele>924.99999945188</ele>
        <time>2012-02-21T09:19:43Z</time>
      </trkpt>
      <trkpt lat="43.9244" lon="7.47721">
        <ele>928.99999654439</ele>
        <time>2012-02-21T09:19:48Z</time>
      </trkpt>
      <trkpt lat="43.92439" lon="7.47716">
        <ele>929.00000204218</ele>
        <time>2012-02-21T09:19:53Z</time>
      </trkpt>
      <trkpt lat="43.9244" lon="7.47707">
        <ele>932.00000282429</ele>
        <time>2012-02-21T09:19:58Z</time>
      </trkpt>
      <trkpt lat="43.92441" lon="7.47699">
        <ele>936.00000034891</ele>
        <time>2012-02-21T09:20:03Z</time>
      </trkpt>
      <trkpt lat="43.9244" lon="7.4769">
        <ele>933.99999979308</ele>
        <time>2012-02-21T09:20:08Z</time>
      </trkpt>
      <trkpt lat="43.92443" lon="7.47685">
        <ele>931.99999960614</ele>
        <time>2012-02-21T09:20:13Z</time>
      </trkpt>
      <trkpt lat="43.92445" lon="7.47684">
        <ele>923.99999941137</ele>
        <time>2012-02-21T09:20:18Z</time>
      </trkpt>
      <trkpt lat="43.92444" lon="7.47687">
        <ele>926.99999934319</ele>
        <time>2012-02-21T09:20:23Z</time>
      </trkpt>
      <trkpt lat="43.92444" lon="7.47688">
        <ele>927.99999938747</ele>
        <time>2012-02-21T09:20:28Z</time>
      </trkpt>
      <trkpt lat="43.92443" lon="7.47689">
        <ele>920.99999966936</ele>
        <time>2012-02-21T09:20:33Z</time>
      </trkpt>
      <trkpt lat="43.92443" lon="7.47689">
        <ele>924.99999977912</ele>
        <time>2012-02-21T09:20:38Z</time>
      </trkpt>
      <trkpt lat="43.92442" lon="7.47688">
        <ele>925.99999884829</ele>
        <time>2012-02-21T09:20:43Z</time>
      </trkpt>
      <trkpt lat="43.92442" lon="7.47688">
        <ele>926.99999888479</ele>
        <time>2012-02-21T09:20:48Z</time>
      </trkpt>
      <trkpt lat="43.92442" lon="7.47687">
        <ele>930.99999911106</ele>
        <time>2012-02-21T09:20:53Z</time>
      </trkpt>
      <trkpt lat="43.9244" lon="7.47688">
        <ele>929.00000038593</ele>
        <time>2012-02-21T09:20:58Z</time>
      </trkpt>
      <trkpt lat="43.92439" lon="7.47688">
        <ele>929.00000110101</ele>
        <time>2012-02-21T09:21:03Z</time>
      </trkpt>
      <trkpt lat="43.92441" lon="7.4769">
        <ele>925.00000041602</ele>
        <time>2012-02-21T09:21:08Z</time>
      </trkpt>
      <trkpt lat="43.92441" lon="7.47693">
        <ele>925.99999948589</ele>
        <time>2012-02-21T09:21:13Z</time>
      </trkpt>
      <trkpt lat="43.92439" lon="7.47699">
        <ele>926.99999978351</ele>
        <time>2012-02-21T09:21:18Z</time>
      </trkpt>
      <trkpt lat="43.92438" lon="7.47705">
        <ele>926.00000039378</ele>
        <time>2012-02-21T09:21:23Z</time>
      </trkpt>
      <trkpt lat="43.92438" lon="7.4771">
        <ele>927.00000400065</ele>
        <time>2012-02-21T09:21:28Z</time>
      </trkpt>
      <trkpt lat="43.92438" lon="7.47716">
        <ele>926.99999780086</ele>
        <time>2012-02-21T09:21:33Z</time>
      </trkpt>
      <trkpt lat="43.92438" lon="7.47723">
        <ele>927.99999979406</ele>
        <time>2012-02-21T09:21:38Z</time>
      </trkpt>
      <trkpt lat="43.92438" lon="7.4773">
        <ele>929.00000009665</ele>
        <time>2012-02-21T09:21:43Z</time>
      </trkpt>
      <trkpt lat="43.92438" lon="7.47737">
        <ele>930.00000104132</ele>
        <time>2012-02-21T09:21:48Z</time>
      </trkpt>
      <trkpt lat="43.92437" lon="7.47742">
        <ele>927.00000293527</ele>
        <time>2012-02-21T09:21:53Z</time>
      </trkpt>
      <trkpt lat="43.92437" lon="7.47745">
        <ele>923.00001321358</ele>
        <time>2012-02-21T09:21:58Z</time>
      </trkpt>
      <trkpt lat="43.92437" lon="7.47748">
        <ele>923.99999611157</ele>
        <time>2012-02-21T09:22:03Z</time>
      </trkpt>
      <trkpt lat="43.92435" lon="7.47755">
        <ele>925.99999922691</ele>
        <time>2012-02-21T09:22:08Z</time>
      </trkpt>
      <trkpt lat="43.92435" lon="7.47763">
        <ele>927.00000019882</ele>
        <time>2012-02-21T09:22:13Z</time>
      </trkpt>
      <trkpt lat="43.92435" lon="7.4777">
        <ele>921.99999750315</ele>
        <time>2012-02-21T09:22:18Z</time>
      </trkpt>
      <trkpt lat="43.92434" lon="7.47777">
        <ele>925.00000397377</ele>
        <time>2012-02-21T09:22:23Z</time>
      </trkpt>
      <trkpt lat="43.92433" lon="7.47783">
        <ele>926.00000327213</ele>
        <time>2012-02-21T09:22:28Z</time>
      </trkpt>
      <trkpt lat="43.92434" lon="7.47791">
        <ele>927.00000278684</ele>
        <time>2012-02-21T09:22:33Z</time>
      </trkpt>
      <trkpt lat="43.92433" lon="7.47799">
        <ele>927.99999633872</ele>
        <time>2012-02-21T09:22:38Z</time>
      </trkpt>
      <trkpt lat="43.92432" lon="7.47807">
        <ele>927.99999882986</ele>
        <time>2012-02-21T09:22:43Z</time>
      </trkpt>
      <trkpt lat="43.92431" lon="7.47814">
        <ele>928.00001152243</ele>
        <time>2012-02-21T09:22:48Z</time>
      </trkpt>
      <trkpt lat="43.92429" lon="7.4782">
        <ele>928.00000492104</ele>
        <time>2012-02-21T09:22:53Z</time>
      </trkpt>
      <trkpt lat="43.92427" lon="7.47826">
        <ele>927.00001964945</ele>
        <time>2012-02-21T09:22:58Z</time>
      </trkpt>
      <trkpt lat="43.92425" lon="7.4783">
        <ele>926.00001254982</ele>
        <time>2012-02-21T09:23:03Z</time>
      </trkpt>
      <trkpt lat="43.92423" lon="7.47838">
        <ele>924.99999047764</ele>
        <time>2012-02-21T09:23:08Z</time>
      </trkpt>
      <trkpt lat="43.92421" lon="7.47848">
        <ele>927.99998731526</ele>
        <time>2012-02-21T09:23:13Z</time>
      </trkpt>
      <trkpt lat="43.92419" lon="7.47856">
        <ele>930.00001229468</ele>
        <time>2012-02-21T09:23:18Z</time>
      </trkpt>
      <trkpt lat="43.92418" lon="7.47858">
        <ele>931.0000375703</ele>
        <time>2012-02-21T09:23:23Z</time>
      </trkpt>
      <trkpt lat="43.92419" lon="7.47859">
        <ele>925.00001874916</ele>
        <time>2012-02-21T09:23:28Z</time>
      </trkpt>
      <trkpt lat="43.92419" lon="7.47865">
        <ele>934.00000237064</ele>
        <time>2012-02-21T09:23:33Z</time>
      </trkpt>
      <trkpt lat="43.92419" lon="7.47873">
        <ele>933.99998642748</ele>
        <time>2012-02-21T09:23:38Z</time>
      </trkpt>
      <trkpt lat="43.92419" lon="7.47881">
        <ele>933.00000588001</ele>
        <time>2012-02-21T09:23:43Z</time>
      </trkpt>
      <trkpt lat="43.92419" lon="7.47886">
        <ele>936.00000562538</ele>
        <time>2012-02-21T09:23:48Z</time>
      </trkpt>
      <trkpt lat="43.92417" lon="7.47891">
        <ele>935.00001696975</ele>
        <time>2012-02-21T09:23:53Z</time>
      </trkpt>
      <trkpt lat="43.92415" lon="7.47898">
        <ele>934.99999459589</ele>
        <time>2012-02-21T09:23:58Z</time>
      </trkpt>
      <trkpt lat="43.92415" lon="7.47906">
        <ele>931.000014397</ele>
        <time>2012-02-21T09:24:03Z</time>
      </trkpt>
      <trkpt lat="43.92415" lon="7.47912">
        <ele>939.00000616605</ele>
        <time>2012-02-21T09:24:08Z</time>
      </trkpt>
      <trkpt lat="43.92413" lon="7.47919">
        <ele>937.00000209782</ele>
        <time>2012-02-21T09:24:13Z</time>
      </trkpt>
      <trkpt lat="43.92412" lon="7.47926">
        <ele>939.99999977098</ele>
        <time>2012-02-21T09:24:18Z</time>
      </trkpt>
      <trkpt lat="43.92411" lon="7.47933">
        <ele>937.00001060152</ele>
        <time>2012-02-21T09:24:23Z</time>
      </trkpt>
      <trkpt lat="43.92409" lon="7.4794">
        <ele>940.00000738316</ele>
        <time>2012-02-21T09:24:28Z</time>
      </trkpt>
      <trkpt lat="43.92408" lon="7.47947">
        <ele>937.99999596351</ele>
        <time>2012-02-21T09:24:33Z</time>
      </trkpt>
      <trkpt lat="43.92407" lon="7.47954">
        <ele>935.99999827403</ele>
        <time>2012-02-21T09:24:38Z</time>
      </trkpt>
      <trkpt lat="43.92406" lon="7.4796">
        <ele>933.99999938934</ele>
        <time>2012-02-21T09:24:43Z</time>
      </trkpt>
      <trkpt lat="43.92405" lon="7.47967">
        <ele>939.99999096918</ele>
        <time>2012-02-21T09:24:48Z</time>
      </trkpt>
      <trkpt lat="43.92403" lon="7.47974">
        <ele>944.9999946285</ele>
        <time>2012-02-21T09:24:53Z</time>
      </trkpt>
      <trkpt lat="43.92402" lon="7.4798">
        <ele>942.00001212704</ele>
        <time>2012-02-21T09:24:58Z</time>
      </trkpt>
      <trkpt lat="43.92402" lon="7.47987">
        <ele>940.99998991167</ele>
        <time>2012-02-21T09:25:03Z</time>
      </trkpt>
      <trkpt lat="43.92401" lon="7.47994">
        <ele>944.9999999987</ele>
        <time>2012-02-21T09:25:08Z</time>
      </trkpt>
      <trkpt lat="43.924" lon="7.48001">
        <ele>946.99999956483</ele>
        <time>2012-02-21T09:25:13Z</time>
      </trkpt>
      <trkpt lat="43.92399" lon="7.48008">
        <ele>946.99999682562</ele>
        <time>2012-02-21T09:25:18Z</time>
      </trkpt>
      <trkpt lat="43.92397" lon="7.48015">
        <ele>948.00000746706</ele>
        <time>2012-02-21T09:25:23Z</time>
      </trkpt>
      <trkpt lat="43.92397" lon="7.48021">
        <ele>943.99998945035</ele>
        <time>2012-02-21T09:25:28Z</time>
      </trkpt>
      <trkpt lat="43.92395" lon="7.48027">
        <ele>943.0000124851</ele>
        <time>2012-02-21T09:25:33Z</time>
      </trkpt>
      <trkpt lat="43.92393" lon="7.48032">
        <ele>943.00000667422</ele>
        <time>2012-02-21T09:25:38Z</time>
      </trkpt>
      <trkpt lat="43.9239" lon="7.48039">
        <ele>944.99999364788</ele>
        <time>2012-02-21T09:25:43Z</time>
      </trkpt>
      <trkpt lat="43.92386" lon="7.48043">
        <ele>948.00000409934</ele>
        <time>2012-02-21T09:25:48Z</time>
      </trkpt>
      <trkpt lat="43.92382" lon="7.48047">
        <ele>948.00000893515</ele>
        <time>2012-02-21T09:25:53Z</time>
      </trkpt>
      <trkpt lat="43.92378" lon="7.4805">
        <ele>950.00000368761</ele>
        <time>2012-02-21T09:25:58Z</time>
      </trkpt>
      <trkpt lat="43.92375" lon="7.48053">
        <ele>951.0000038091</ele>
        <time>2012-02-21T09:26:03Z</time>
      </trkpt>
      <trkpt lat="43.92372" lon="7.48056">
        <ele>947.00002244123</ele>
        <time>2012-02-21T09:26:08Z</time>
      </trkpt>
      <trkpt lat="43.92367" lon="7.48059">
        <ele>950.00001769799</ele>
        <time>2012-02-21T09:26:13Z</time>
      </trkpt>
      <trkpt lat="43.92362" lon="7.48059">
        <ele>949.00000434974</ele>
        <time>2012-02-21T09:26:18Z</time>
      </trkpt>
      <trkpt lat="43.92358" lon="7.48062">
        <ele>948.99999735213</ele>
        <time>2012-02-21T09:26:23Z</time>
      </trkpt>
      <trkpt lat="43.92355" lon="7.48067">
        <ele>952.99998750056</ele>
        <time>2012-02-21T09:26:28Z</time>
      </trkpt>
      <trkpt lat="43.92352" lon="7.48072">
        <ele>952.00000930427</ele>
        <time>2012-02-21T09:26:33Z</time>
      </trkpt>
      <trkpt lat="43.92349" lon="7.48076">
        <ele>952.00001836801</ele>
        <time>2012-02-21T09:26:38Z</time>
      </trkpt>
      <trkpt lat="43.92346" lon="7.4808">
        <ele>952.00001579444</ele>
        <time>2012-02-21T09:26:43Z</time>
      </trkpt>
      <trkpt lat="43.92342" lon="7.48084">
        <ele>953.00001765218</ele>
        <time>2012-02-21T09:26:48Z</time>
      </trkpt>
      <trkpt lat="43.92339" lon="7.48087">
        <ele>951.0000147315</ele>
        <time>2012-02-21T09:26:53Z</time>
      </trkpt>
      <trkpt lat="43.92334" lon="7.4809">
        <ele>952.00006244422</ele>
        <time>2012-02-21T09:26:58Z</time>
      </trkpt>
      <trkpt lat="43.92331" lon="7.48092">
        <ele>952.00003732631</ele>
        <time>2012-02-21T09:27:03Z</time>
      </trkpt>
      <trkpt lat="43.92326" lon="7.48093">
        <ele>948.00001053656</ele>
        <time>2012-02-21T09:27:08Z</time>
      </trkpt>
      <trkpt lat="43.9232" lon="7.48094">
        <ele>939.00002341886</ele>
        <time>2012-02-21T09:27:13Z</time>
      </trkpt>
      <trkpt lat="43.92315" lon="7.48096">
        <ele>943.00002332447</ele>
        <time>2012-02-21T09:27:18Z</time>
      </trkpt>
      <trkpt lat="43.9231" lon="7.48095">
        <ele>945.00006037451</ele>
        <time>2012-02-21T09:27:23Z</time>
      </trkpt>
      <trkpt lat="43.92305" lon="7.48094">
        <ele>944.00005050474</ele>
        <time>2012-02-21T09:27:28Z</time>
      </trkpt>
      <trkpt lat="43.92299" lon="7.48094">
        <ele>946.00002904618</ele>
        <time>2012-02-21T09:27:33Z</time>
      </trkpt>
      <trkpt lat="43.92294" lon="7.48093">
        <ele>947.00001699522</ele>
        <time>2012-02-21T09:27:38Z</time>
      </trkpt>
      <trkpt lat="43.92289" lon="7.48092">
        <ele>950.00002816096</ele>
        <time>2012-02-21T09:27:43Z</time>
      </trkpt>
      <trkpt lat="43.92285" lon="7.48092">
        <ele>954.00003352595</ele>
        <time>2012-02-21T09:27:48Z</time>
      </trkpt>
      <trkpt lat="43.92281" lon="7.48092">
        <ele>957.00004080436</ele>
        <time>2012-02-21T09:27:53Z</time>
      </trkpt>
      <trkpt lat="43.92276" lon="7.48092">
        <ele>955.00003189042</ele>
        <time>2012-02-21T09:27:58Z</time>
      </trkpt>
      <trkpt lat="43.92271" lon="7.48093">
        <ele>956.00004302921</ele>
        <time>2012-02-21T09:28:03Z</time>
      </trkpt>
      <trkpt lat="43.92266" lon="7.48095">
        <ele>953.00000549241</ele>
        <time>2012-02-21T09:28:08Z</time>
      </trkpt>
      <trkpt lat="43.92261" lon="7.48097">
        <ele>958.00001436333</ele>
        <time>2012-02-21T09:28:13Z</time>
      </trkpt>
      <trkpt lat="43.92256" lon="7.48098">
        <ele>960.99999929727</ele>
        <time>2012-02-21T09:28:18Z</time>
      </trkpt>
      <trkpt lat="43.92251" lon="7.48099">
        <ele>964.00000660984</ele>
        <time>2012-02-21T09:28:23Z</time>
      </trkpt>
      <trkpt lat="43.92246" lon="7.481">
        <ele>967.99999041692</ele>
        <time>2012-02-21T09:28:28Z</time>
      </trkpt>
      <trkpt lat="43.92242" lon="7.48102">
        <ele>965.00002092046</ele>
        <time>2012-02-21T09:28:33Z</time>
      </trkpt>
      <trkpt lat="43.92237" lon="7.48103">
        <ele>963.99996079441</ele>
        <time>2012-02-21T09:28:38Z</time>
      </trkpt>
      <trkpt lat="43.92231" lon="7.48104">
        <ele>963.99997625887</ele>
        <time>2012-02-21T09:28:43Z</time>
      </trkpt>
      <trkpt lat="43.92226" lon="7.48105">
        <ele>965.00002325633</ele>
        <time>2012-02-21T09:28:48Z</time>
      </trkpt>
      <trkpt lat="43.92221" lon="7.48106">
        <ele>961.00005644847</ele>
        <time>2012-02-21T09:28:53Z</time>
      </trkpt>
      <trkpt lat="43.92217" lon="7.48104">
        <ele>959.00006370462</ele>
        <time>2012-02-21T09:28:58Z</time>
      </trkpt>
      <trkpt lat="43.92212" lon="7.48105">
        <ele>958.00008053896</ele>
        <time>2012-02-21T09:29:03Z</time>
      </trkpt>
      <trkpt lat="43.92209" lon="7.48104">
        <ele>962.00003438666</ele>
        <time>2012-02-21T09:29:08Z</time>
      </trkpt>
      <trkpt lat="43.92202" lon="7.48104">
        <ele>960.99998769735</ele>
        <time>2012-02-21T09:29:13Z</time>
      </trkpt>
      <trkpt lat="43.92197" lon="7.48105">
        <ele>961.0000166247</ele>
        <time>2012-02-21T09:29:18Z</time>
      </trkpt>
      <trkpt lat="43.92192" lon="7.48106">
        <ele>962.99998039065</ele>
        <time>2012-02-21T09:29:23Z</time>
      </trkpt>
      <trkpt lat="43.92186" lon="7.48105">
        <ele>963.00001026975</ele>
        <time>2012-02-21T09:29:28Z</time>
      </trkpt>
      <trkpt lat="43.92181" lon="7.48106">
        <ele>965.00000287819</ele>
        <time>2012-02-21T09:29:33Z</time>
      </trkpt>
      <trkpt lat="43.92178" lon="7.48105">
        <ele>962.00004121776</ele>
        <time>2012-02-21T09:29:38Z</time>
      </trkpt>
      <trkpt lat="43.92175" lon="7.48105">
        <ele>961.00004310374</ele>
        <time>2012-02-21T09:29:43Z</time>
      </trkpt>
      <trkpt lat="43.9217" lon="7.48105">
        <ele>964.99999071277</ele>
        <time>2012-02-21T09:29:48Z</time>
      </trkpt>
      <trkpt lat="43.92165" lon="7.48105">
        <ele>964.99997881014</ele>
        <time>2012-02-21T09:29:53Z</time>
      </trkpt>
      <trkpt lat="43.9216" lon="7.48104">
        <ele>962.00004422562</ele>
        <time>2012-02-21T09:29:58Z</time>
      </trkpt>
      <trkpt lat="43.92156" lon="7.48105">
        <ele>967.00005797113</ele>
        <time>2012-02-21T09:30:03Z</time>
      </trkpt>
      <trkpt lat="43.92155" lon="7.48107">
        <ele>968.00013112339</ele>
        <time>2012-02-21T09:30:08Z</time>
      </trkpt>
      <trkpt lat="43.92152" lon="7.48108">
        <ele>970.99999950241</ele>
        <time>2012-02-21T09:30:13Z</time>
      </trkpt>
      <trkpt lat="43.92148" lon="7.48112">
        <ele>968.99997712968</ele>
        <time>2012-02-21T09:30:18Z</time>
      </trkpt>
      <trkpt lat="43.92147" lon="7.48116">
        <ele>965.00012084747</ele>
        <time>2012-02-21T09:30:23Z</time>
      </trkpt>
      <trkpt lat="43.92146" lon="7.48115">
        <ele>959.00002801565</ele>
        <time>2012-02-21T09:30:28Z</time>
      </trkpt>
      <trkpt lat="43.92146" lon="7.48118">
        <ele>962.99993482009</ele>
        <time>2012-02-21T09:30:33Z</time>
      </trkpt>
      <trkpt lat="43.92146" lon="7.48119">
        <ele>966.99993698084</ele>
        <time>2012-02-21T09:30:43Z</time>
      </trkpt>
      <trkpt lat="43.92146" lon="7.48119">
        <ele>965.99996050318</ele>
        <time>2012-02-21T09:30:53Z</time>
      </trkpt>
      <trkpt lat="43.92145" lon="7.48122">
        <ele>965.99998330343</ele>
        <time>2012-02-21T09:31:03Z</time>
      </trkpt>
      <trkpt lat="43.92145" lon="7.48129">
        <ele>961.99995467046</ele>
        <time>2012-02-21T09:31:08Z</time>
      </trkpt>
      <trkpt lat="43.92144" lon="7.48137">
        <ele>958.99993575098</ele>
        <time>2012-02-21T09:31:13Z</time>
      </trkpt>
      <trkpt lat="43.92145" lon="7.48144">
        <ele>964.0000099993</ele>
        <time>2012-02-21T09:31:18Z</time>
      </trkpt>
      <trkpt lat="43.92146" lon="7.48151">
        <ele>962.00000136909</ele>
        <time>2012-02-21T09:31:23Z</time>
      </trkpt>
      <trkpt lat="43.92147" lon="7.48154">
        <ele>961.00004338009</ele>
        <time>2012-02-21T09:31:28Z</time>
      </trkpt>
      <trkpt lat="43.92147" lon="7.48158">
        <ele>964.00007304832</ele>
        <time>2012-02-21T09:31:33Z</time>
      </trkpt>
      <trkpt lat="43.92148" lon="7.48159">
        <ele>964.0000904556</ele>
        <time>2012-02-21T09:31:38Z</time>
      </trkpt>
      <trkpt lat="43.92148" lon="7.48159">
        <ele>965.00004771773</ele>
        <time>2012-02-21T09:31:48Z</time>
      </trkpt>
      <trkpt lat="43.92148" lon="7.4816">
        <ele>968.99999896044</ele>
        <time>2012-02-21T09:31:53Z</time>
      </trkpt>
      <trkpt lat="43.92149" lon="7.4816">
        <ele>969.00002414256</ele>
        <time>2012-02-21T09:32:03Z</time>
      </trkpt>
      <trkpt lat="43.92151" lon="7.48163">
        <ele>968.99996700166</ele>
        <time>2012-02-21T09:32:08Z</time>
      </trkpt>
      <trkpt lat="43.92149" lon="7.48165">
        <ele>968.0001055135</ele>
        <time>2012-02-21T09:32:13Z</time>
      </trkpt>
      <trkpt lat="43.92152" lon="7.48167">
        <ele>966.00004251552</ele>
        <time>2012-02-21T09:32:58Z</time>
      </trkpt>
      <trkpt lat="43.92154" lon="7.4817">
        <ele>960.00002852308</ele>
        <time>2012-02-21T09:33:03Z</time>
      </trkpt>
      <trkpt lat="43.92155" lon="7.48176">
        <ele>959.99997513978</ele>
        <time>2012-02-21T09:33:08Z</time>
      </trkpt>
      <trkpt lat="43.92156" lon="7.48182">
        <ele>959.99997353728</ele>
        <time>2012-02-21T09:33:13Z</time>
      </trkpt>
      <trkpt lat="43.92158" lon="7.48188">
        <ele>959.99997542414</ele>
        <time>2012-02-21T09:33:18Z</time>
      </trkpt>
      <trkpt lat="43.92161" lon="7.48194">
        <ele>962.0000460367</ele>
        <time>2012-02-21T09:33:23Z</time>
      </trkpt>
      <trkpt lat="43.92165" lon="7.48198">
        <ele>960.00004688062</ele>
        <time>2012-02-21T09:33:28Z</time>
      </trkpt>
      <trkpt lat="43.92168" lon="7.48202">
        <ele>959.00004930804</ele>
        <time>2012-02-21T09:33:33Z</time>
      </trkpt>
      <trkpt lat="43.9217" lon="7.48208">
        <ele>959.00002003691</ele>
        <time>2012-02-21T09:33:38Z</time>
      </trkpt>
      <trkpt lat="43.92173" lon="7.48212">
        <ele>959.00000933273</ele>
        <time>2012-02-21T09:33:43Z</time>
      </trkpt>
      <trkpt lat="43.92176" lon="7.48219">
        <ele>960.00002011285</ele>
        <time>2012-02-21T09:33:48Z</time>
      </trkpt>
      <trkpt lat="43.92179" lon="7.48224">
        <ele>960.00000224225</ele>
        <time>2012-02-21T09:33:53Z</time>
      </trkpt>
      <trkpt lat="43.92182" lon="7.48231">
        <ele>960.00002946394</ele>
        <time>2012-02-21T09:33:58Z</time>
      </trkpt>
      <trkpt lat="43.92187" lon="7.48235">
        <ele>959.00006498764</ele>
        <time>2012-02-21T09:34:03Z</time>
      </trkpt>
      <trkpt lat="43.92193" lon="7.4824">
        <ele>959.0000338048</ele>
        <time>2012-02-21T09:34:08Z</time>
      </trkpt>
      <trkpt lat="43.92195" lon="7.48246">
        <ele>957.99998048459</ele>
        <time>2012-02-21T09:34:13Z</time>
      </trkpt>
      <trkpt lat="43.92199" lon="7.48251">
        <ele>958.00002360124</ele>
        <time>2012-02-21T09:34:18Z</time>
      </trkpt>
      <trkpt lat="43.92204" lon="7.48254">
        <ele>957.00001768513</ele>
        <time>2012-02-21T09:34:23Z</time>
      </trkpt>
      <trkpt lat="43.92208" lon="7.48259">
        <ele>956.00001372998</ele>
        <time>2012-02-21T09:34:28Z</time>
      </trkpt>
      <trkpt lat="43.92212" lon="7.48264">
        <ele>954.00002473827</ele>
        <time>2012-02-21T09:34:33Z</time>
      </trkpt>
      <trkpt lat="43.92216" lon="7.48269">
        <ele>959.0000224849</ele>
        <time>2012-02-21T09:34:38Z</time>
      </trkpt>
      <trkpt lat="43.92219" lon="7.48275">
        <ele>959.00002562986</ele>
        <time>2012-02-21T09:34:43Z</time>
      </trkpt>
      <trkpt lat="43.92223" lon="7.48282">
        <ele>955.99998427997</ele>
        <time>2012-02-21T09:34:48Z</time>
      </trkpt>
      <trkpt lat="43.92225" lon="7.48289">
        <ele>964.99999233374</ele>
        <time>2012-02-21T09:34:53Z</time>
      </trkpt>
      <trkpt lat="43.92228" lon="7.48296">
        <ele>965.00001450714</ele>
        <time>2012-02-21T09:34:58Z</time>
      </trkpt>
      <trkpt lat="43.92232" lon="7.48302">
        <ele>956.99994144032</ele>
        <time>2012-02-21T09:35:03Z</time>
      </trkpt>
      <trkpt lat="43.92233" lon="7.48309">
        <ele>964.99997925228</ele>
        <time>2012-02-21T09:35:08Z</time>
      </trkpt>
      <trkpt lat="43.92237" lon="7.48316">
        <ele>961.9999749648</ele>
        <time>2012-02-21T09:35:13Z</time>
      </trkpt>
      <trkpt lat="43.9224" lon="7.48323">
        <ele>963.00000069924</ele>
        <time>2012-02-21T09:35:18Z</time>
      </trkpt>
      <trkpt lat="43.92243" lon="7.4833">
        <ele>963.00000616483</ele>
        <time>2012-02-21T09:35:23Z</time>
      </trkpt>
      <trkpt lat="43.92247" lon="7.48335">
        <ele>961.00005934669</ele>
        <time>2012-02-21T09:35:28Z</time>
      </trkpt>
      <trkpt lat="43.9225" lon="7.4834">
        <ele>958.00003433561</ele>
        <time>2012-02-21T09:35:33Z</time>
      </trkpt>
      <trkpt lat="43.92252" lon="7.48346">
        <ele>958.0000322246</ele>
        <time>2012-02-21T09:35:38Z</time>
      </trkpt>
      <trkpt lat="43.92253" lon="7.48352">
        <ele>957.9999782462</ele>
        <time>2012-02-21T09:35:43Z</time>
      </trkpt>
      <trkpt lat="43.92254" lon="7.48361">
        <ele>964.9999907856</ele>
        <time>2012-02-21T09:35:48Z</time>
      </trkpt>
      <trkpt lat="43.92255" lon="7.48368">
        <ele>969.99996950666</ele>
        <time>2012-02-21T09:35:53Z</time>
      </trkpt>
      <trkpt lat="43.92255" lon="7.48377">
        <ele>971.99997622906</ele>
        <time>2012-02-21T09:35:58Z</time>
      </trkpt>
      <trkpt lat="43.92255" lon="7.48384">
        <ele>974.00004514315</ele>
        <time>2012-02-21T09:36:03Z</time>
      </trkpt>
      <trkpt lat="43.92255" lon="7.4839">
        <ele>972.0000261921</ele>
        <time>2012-02-21T09:36:08Z</time>
      </trkpt>
      <trkpt lat="43.92255" lon="7.48397">
        <ele>968.00003224509</ele>
        <time>2012-02-21T09:36:13Z</time>
      </trkpt>
      <trkpt lat="43.92255" lon="7.48405">
        <ele>971.00000378344</ele>
        <time>2012-02-21T09:36:18Z</time>
      </trkpt>
      <trkpt lat="43.92256" lon="7.48411">
        <ele>968.0000428931</ele>
        <time>2012-02-21T09:36:23Z</time>
      </trkpt>
      <trkpt lat="43.92256" lon="7.48419">
        <ele>962.99999000267</ele>
        <time>2012-02-21T09:36:28Z</time>
      </trkpt>
      <trkpt lat="43.92258" lon="7.48428">
        <ele>965.99996038722</ele>
        <time>2012-02-21T09:36:33Z</time>
      </trkpt>
      <trkpt lat="43.92259" lon="7.48436">
        <ele>964.9999781377</ele>
        <time>2012-02-21T09:36:38Z</time>
      </trkpt>
      <trkpt lat="43.9226" lon="7.48446">
        <ele>966.99996292711</ele>
        <time>2012-02-21T09:36:43Z</time>
      </trkpt>
      <trkpt lat="43.92261" lon="7.48452">
        <ele>976.00004679505</ele>
        <time>2012-02-21T09:36:48Z</time>
      </trkpt>
      <trkpt lat="43.92261" lon="7.48458">
        <ele>971.00005405185</ele>
        <time>2012-02-21T09:36:53Z</time>
      </trkpt>
      <trkpt lat="43.92262" lon="7.48465">
        <ele>970.00002394271</ele>
        <time>2012-02-21T09:36:58Z</time>
      </trkpt>
      <trkpt lat="43.92264" lon="7.48473">
        <ele>972.99999784728</ele>
        <time>2012-02-21T09:37:03Z</time>
      </trkpt>
      <trkpt lat="43.92267" lon="7.4848">
        <ele>969.00001012252</ele>
        <time>2012-02-21T09:37:08Z</time>
      </trkpt>
      <trkpt lat="43.92271" lon="7.48485">
        <ele>972.00001793455</ele>
        <time>2012-02-21T09:37:13Z</time>
      </trkpt>
      <trkpt lat="43.92274" lon="7.48491">
        <ele>968.00010268937</ele>
        <time>2012-02-21T09:37:18Z</time>
      </trkpt>
      <trkpt lat="43.9228" lon="7.48495">
        <ele>971.00007663667</ele>
        <time>2012-02-21T09:37:23Z</time>
      </trkpt>
      <trkpt lat="43.92284" lon="7.485">
        <ele>968.00006460427</ele>
        <time>2012-02-21T09:37:28Z</time>
      </trkpt>
      <trkpt lat="43.92288" lon="7.48505">
        <ele>966.00004291915</ele>
        <time>2012-02-21T09:37:33Z</time>
      </trkpt>
      <trkpt lat="43.92292" lon="7.48511">
        <ele>963.00008289155</ele>
        <time>2012-02-21T09:37:38Z</time>
      </trkpt>
      <trkpt lat="43.92297" lon="7.48516">
        <ele>963.00010247854</ele>
        <time>2012-02-21T09:37:43Z</time>
      </trkpt>
      <trkpt lat="43.92301" lon="7.48521">
        <ele>965.00009469002</ele>
        <time>2012-02-21T09:37:48Z</time>
      </trkpt>
      <trkpt lat="43.92305" lon="7.48527">
        <ele>966.00006191703</ele>
        <time>2012-02-21T09:37:53Z</time>
      </trkpt>
      <trkpt lat="43.92307" lon="7.48534">
        <ele>968.0000061119</ele>
        <time>2012-02-21T09:37:58Z</time>
      </trkpt>
      <trkpt lat="43.9231" lon="7.48541">
        <ele>968.00000295001</ele>
        <time>2012-02-21T09:38:03Z</time>
      </trkpt>
      <trkpt lat="43.92311" lon="7.48548">
        <ele>970.00003999689</ele>
        <time>2012-02-21T09:38:08Z</time>
      </trkpt>
      <trkpt lat="43.92311" lon="7.48555">
        <ele>969.00005922207</ele>
        <time>2012-02-21T09:38:13Z</time>
      </trkpt>
      <trkpt lat="43.92309" lon="7.48562">
        <ele>971.00000279797</ele>
        <time>2012-02-21T09:38:18Z</time>
      </trkpt>
      <trkpt lat="43.92307" lon="7.48572">
        <ele>968.99986693283</ele>
        <time>2012-02-21T09:38:23Z</time>
      </trkpt>
      <trkpt lat="43.92307" lon="7.48581">
        <ele>971.0000000324</ele>
        <time>2012-02-21T09:38:28Z</time>
      </trkpt>
      <trkpt lat="43.92307" lon="7.48589">
        <ele>968.99999476256</ele>
        <time>2012-02-21T09:38:33Z</time>
      </trkpt>
      <trkpt lat="43.92309" lon="7.48596">
        <ele>968.00007877569</ele>
        <time>2012-02-21T09:38:38Z</time>
      </trkpt>
      <trkpt lat="43.92311" lon="7.48603">
        <ele>961.00002555097</ele>
        <time>2012-02-21T09:38:43Z</time>
      </trkpt>
      <trkpt lat="43.92313" lon="7.4861">
        <ele>955.00007431362</ele>
        <time>2012-02-21T09:38:48Z</time>
      </trkpt>
      <trkpt lat="43.92316" lon="7.48616">
        <ele>959.00004068347</ele>
        <time>2012-02-21T09:38:53Z</time>
      </trkpt>
      <trkpt lat="43.92318" lon="7.48624">
        <ele>960.99994408751</ele>
        <time>2012-02-21T09:38:58Z</time>
      </trkpt>
      <trkpt lat="43.92319" lon="7.48632">
        <ele>960.99998081466</ele>
        <time>2012-02-21T09:39:03Z</time>
      </trkpt>
      <trkpt lat="43.92322" lon="7.4864">
        <ele>959.9999418218</ele>
        <time>2012-02-21T09:39:08Z</time>
      </trkpt>
      <trkpt lat="43.92323" lon="7.48648">
        <ele>962.99998690275</ele>
        <time>2012-02-21T09:39:13Z</time>
      </trkpt>
      <trkpt lat="43.92325" lon="7.48654">
        <ele>964.99996496042</ele>
        <time>2012-02-21T09:39:18Z</time>
      </trkpt>
      <trkpt lat="43.92328" lon="7.48661">
        <ele>964.99996048862</ele>
        <time>2012-02-21T09:39:23Z</time>
      </trkpt>
      <trkpt lat="43.92332" lon="7.48666">
        <ele>964.99996498135</ele>
        <time>2012-02-21T09:39:28Z</time>
      </trkpt>
      <trkpt lat="43.92337" lon="7.48672">
        <ele>958.00003042858</ele>
        <time>2012-02-21T09:39:33Z</time>
      </trkpt>
      <trkpt lat="43.92341" lon="7.48678">
        <ele>962.00002831041</ele>
        <time>2012-02-21T09:39:38Z</time>
      </trkpt>
      <trkpt lat="43.92344" lon="7.48683">
        <ele>958.00008635797</ele>
        <time>2012-02-21T09:39:43Z</time>
      </trkpt>
      <trkpt lat="43.92348" lon="7.48687">
        <ele>959.00001861952</ele>
        <time>2012-02-21T09:39:48Z</time>
      </trkpt>
      <trkpt lat="43.92352" lon="7.48693">
        <ele>957.00007041451</ele>
        <time>2012-02-21T09:39:53Z</time>
      </trkpt>
      <trkpt lat="43.92354" lon="7.48699">
        <ele>957.00007301822</ele>
        <time>2012-02-21T09:39:58Z</time>
      </trkpt>
      <trkpt lat="43.92354" lon="7.48707">
        <ele>958.00002879866</ele>
        <time>2012-02-21T09:40:03Z</time>
      </trkpt>
      <trkpt lat="43.92351" lon="7.48713">
        <ele>965.00004274126</ele>
        <time>2012-02-21T09:40:08Z</time>
      </trkpt>
      <trkpt lat="43.92347" lon="7.48721">
        <ele>965.99991723523</ele>
        <time>2012-02-21T09:40:13Z</time>
      </trkpt>
      <trkpt lat="43.92344" lon="7.4873">
        <ele>965.99992518564</ele>
        <time>2012-02-21T09:40:18Z</time>
      </trkpt>
      <trkpt lat="43.92343" lon="7.48737">
        <ele>961.99999453347</ele>
        <time>2012-02-21T09:40:23Z</time>
      </trkpt>
      <trkpt lat="43.92344" lon="7.48745">
        <ele>956.00007014249</ele>
        <time>2012-02-21T09:40:28Z</time>
      </trkpt>
      <trkpt lat="43.92347" lon="7.48751">
        <ele>957.00006805943</ele>
        <time>2012-02-21T09:40:33Z</time>
      </trkpt>
      <trkpt lat="43.92351" lon="7.48757">
        <ele>957.00007105625</ele>
        <time>2012-02-21T09:40:38Z</time>
      </trkpt>
      <trkpt lat="43.92356" lon="7.48764">
        <ele>962.00004684114</ele>
        <time>2012-02-21T09:40:43Z</time>
      </trkpt>
      <trkpt lat="43.92362" lon="7.48769">
        <ele>959.00019769465</ele>
        <time>2012-02-21T09:40:48Z</time>
      </trkpt>
      <trkpt lat="43.92367" lon="7.48774">
        <ele>962.00011868282</ele>
        <time>2012-02-21T09:40:53Z</time>
      </trkpt>
      <trkpt lat="43.92369" lon="7.48782">
        <ele>963.99979862214</ele>
        <time>2012-02-21T09:40:58Z</time>
      </trkpt>
      <trkpt lat="43.92366" lon="7.48792">
        <ele>964.99990089917</ele>
        <time>2012-02-21T09:41:03Z</time>
      </trkpt>
      <trkpt lat="43.92363" lon="7.48801">
        <ele>962.9997527064</ele>
        <time>2012-02-21T09:41:08Z</time>
      </trkpt>
      <trkpt lat="43.92362" lon="7.48811">
        <ele>963.99984369939</ele>
        <time>2012-02-21T09:41:13Z</time>
      </trkpt>
      <trkpt lat="43.92363" lon="7.4882">
        <ele>964.00001667749</ele>
        <time>2012-02-21T09:41:18Z</time>
      </trkpt>
      <trkpt lat="43.92366" lon="7.48825">
        <ele>966.00041116354</ele>
        <time>2012-02-21T09:41:23Z</time>
      </trkpt>
      <trkpt lat="43.92372" lon="7.48828">
        <ele>959.00044071859</ele>
        <time>2012-02-21T09:41:28Z</time>
      </trkpt>
      <trkpt lat="43.92379" lon="7.4883">
        <ele>959.00046072524</ele>
        <time>2012-02-21T09:41:33Z</time>
      </trkpt>
      <trkpt lat="43.92383" lon="7.48836">
        <ele>962.00012862172</ele>
        <time>2012-02-21T09:41:38Z</time>
      </trkpt>
      <trkpt lat="43.92383" lon="7.48844">
        <ele>968.99993058564</ele>
        <time>2012-02-21T09:41:43Z</time>
      </trkpt>
      <trkpt lat="43.92379" lon="7.48852">
        <ele>970.00001646535</ele>
        <time>2012-02-21T09:41:48Z</time>
      </trkpt>
      <trkpt lat="43.92376" lon="7.48856">
        <ele>969.00013845792</ele>
        <time>2012-02-21T09:41:53Z</time>
      </trkpt>
      <trkpt lat="43.92374" lon="7.4886">
        <ele>969.00014916518</ele>
        <time>2012-02-21T09:41:58Z</time>
      </trkpt>
      <trkpt lat="43.9237" lon="7.48863">
        <ele>959.00004306157</ele>
        <time>2012-02-21T09:42:03Z</time>
      </trkpt>
      <trkpt lat="43.92365" lon="7.48866">
        <ele>960.000010164</ele>
        <time>2012-02-21T09:42:08Z</time>
      </trkpt>
      <trkpt lat="43.9236" lon="7.48867">
        <ele>964.00000073393</ele>
        <time>2012-02-21T09:42:13Z</time>
      </trkpt>
      <trkpt lat="43.92354" lon="7.48868">
        <ele>964.00005292598</ele>
        <time>2012-02-21T09:42:18Z</time>
      </trkpt>
      <trkpt lat="43.92349" lon="7.4887">
        <ele>965.00005156634</ele>
        <time>2012-02-21T09:42:23Z</time>
      </trkpt>
      <trkpt lat="43.92346" lon="7.48871">
        <ele>962.00028794577</ele>
        <time>2012-02-21T09:42:28Z</time>
      </trkpt>
      <trkpt lat="43.92352" lon="7.48873">
        <ele>968.999853528</ele>
        <time>2012-02-21T09:42:38Z</time>
      </trkpt>
      <trkpt lat="43.92354" lon="7.48877">
        <ele>959.99991332705</ele>
        <time>2012-02-21T09:42:43Z</time>
      </trkpt>
      <trkpt lat="43.92353" lon="7.4888">
        <ele>955.99997603565</ele>
        <time>2012-02-21T09:42:48Z</time>
      </trkpt>
      <trkpt lat="43.9235" lon="7.48883">
        <ele>959.99993654051</ele>
        <time>2012-02-21T09:42:53Z</time>
      </trkpt>
      <trkpt lat="43.92344" lon="7.48886">
        <ele>962.99996689041</ele>
        <time>2012-02-21T09:42:58Z</time>
      </trkpt>
      <trkpt lat="43.92339" lon="7.48888">
        <ele>960.0000381164</ele>
        <time>2012-02-21T09:43:03Z</time>
      </trkpt>
      <trkpt lat="43.92334" lon="7.48891">
        <ele>959.00024990714</ele>
        <time>2012-02-21T09:43:08Z</time>
      </trkpt>
      <trkpt lat="43.92329" lon="7.48891">
        <ele>958.0001888945</ele>
        <time>2012-02-21T09:43:13Z</time>
      </trkpt>
      <trkpt lat="43.92327" lon="7.48894">
        <ele>959.0000377269</ele>
        <time>2012-02-21T09:43:18Z</time>
      </trkpt>
      <trkpt lat="43.92324" lon="7.48894">
        <ele>962.00002527538</ele>
        <time>2012-02-21T09:43:23Z</time>
      </trkpt>
      <trkpt lat="43.92321" lon="7.48895">
        <ele>961.00009551003</ele>
        <time>2012-02-21T09:43:28Z</time>
      </trkpt>
      <trkpt lat="43.92318" lon="7.48896">
        <ele>961.0002005394</ele>
        <time>2012-02-21T09:43:33Z</time>
      </trkpt>
      <trkpt lat="43.92316" lon="7.48897">
        <ele>960.0000779591</ele>
        <time>2012-02-21T09:43:38Z</time>
      </trkpt>
      <trkpt lat="43.92314" lon="7.48901">
        <ele>956.99997470273</ele>
        <time>2012-02-21T09:43:43Z</time>
      </trkpt>
      <trkpt lat="43.92308" lon="7.48905">
        <ele>955.99982206132</ele>
        <time>2012-02-21T09:43:48Z</time>
      </trkpt>
      <trkpt lat="43.92304" lon="7.48908">
        <ele>959.00002166475</ele>
        <time>2012-02-21T09:43:53Z</time>
      </trkpt>
      <trkpt lat="43.923" lon="7.48909">
        <ele>965.00008468112</ele>
        <time>2012-02-21T09:43:58Z</time>
      </trkpt>
      <trkpt lat="43.92296" lon="7.48911">
        <ele>967.00007996726</ele>
        <time>2012-02-21T09:44:03Z</time>
      </trkpt>
      <trkpt lat="43.92292" lon="7.48912">
        <ele>969.00004938847</ele>
        <time>2012-02-21T09:44:08Z</time>
      </trkpt>
      <trkpt lat="43.92287" lon="7.48912">
        <ele>967.00003554518</ele>
        <time>2012-02-21T09:44:13Z</time>
      </trkpt>
      <trkpt lat="43.92281" lon="7.48913">
        <ele>963.99995665514</ele>
        <time>2012-02-21T09:44:18Z</time>
      </trkpt>
      <trkpt lat="43.92276" lon="7.48916">
        <ele>964.00003636943</ele>
        <time>2012-02-21T09:44:23Z</time>
      </trkpt>
      <trkpt lat="43.92272" lon="7.48916">
        <ele>962.00009377246</ele>
        <time>2012-02-21T09:44:28Z</time>
      </trkpt>
      <trkpt lat="43.92267" lon="7.48917">
        <ele>965.00007168346</ele>
        <time>2012-02-21T09:44:33Z</time>
      </trkpt>
      <trkpt lat="43.92264" lon="7.48919">
        <ele>967.00004973552</ele>
        <time>2012-02-21T09:44:38Z</time>
      </trkpt>
      <trkpt lat="43.9226" lon="7.4892">
        <ele>968.99999980635</ele>
        <time>2012-02-21T09:44:43Z</time>
      </trkpt>
      <trkpt lat="43.92256" lon="7.48924">
        <ele>967.99991943204</ele>
        <time>2012-02-21T09:44:48Z</time>
      </trkpt>
      <trkpt lat="43.92251" lon="7.48926">
        <ele>971.99994782519</ele>
        <time>2012-02-21T09:44:53Z</time>
      </trkpt>
      <trkpt lat="43.92247" lon="7.4893">
        <ele>968.99986154992</ele>
        <time>2012-02-21T09:44:58Z</time>
      </trkpt>
      <trkpt lat="43.92244" lon="7.48936">
        <ele>960.99997316836</ele>
        <time>2012-02-21T09:45:03Z</time>
      </trkpt>
      <trkpt lat="43.9224" lon="7.48939">
        <ele>964.00007454125</ele>
        <time>2012-02-21T09:45:08Z</time>
      </trkpt>
      <trkpt lat="43.92237" lon="7.4894">
        <ele>966.00010490535</ele>
        <time>2012-02-21T09:45:13Z</time>
      </trkpt>
      <trkpt lat="43.92236" lon="7.4894">
        <ele>968.00011221737</ele>
        <time>2012-02-21T09:45:18Z</time>
      </trkpt>
      <trkpt lat="43.92235" lon="7.48941">
        <ele>965.99990045262</ele>
        <time>2012-02-21T09:45:23Z</time>
      </trkpt>
      <trkpt lat="43.92233" lon="7.48942">
        <ele>971.00007419353</ele>
        <time>2012-02-21T09:45:28Z</time>
      </trkpt>
      <trkpt lat="43.92236" lon="7.48943">
        <ele>969.00002097281</ele>
        <time>2012-02-21T09:45:33Z</time>
      </trkpt>
      <trkpt lat="43.92238" lon="7.48943">
        <ele>965.9999083025</ele>
        <time>2012-02-21T09:45:38Z</time>
      </trkpt>
      <trkpt lat="43.92233" lon="7.48943">
        <ele>964.000080144</ele>
        <time>2012-02-21T09:45:43Z</time>
      </trkpt>
      <trkpt lat="43.92232" lon="7.48944">
        <ele>961.00024002459</ele>
        <time>2012-02-21T09:45:48Z</time>
      </trkpt>
      <trkpt lat="43.92232" lon="7.48944">
        <ele>969.00017888775</ele>
        <time>2012-02-21T09:46:13Z</time>
      </trkpt>
      <trkpt lat="43.92231" lon="7.48941">
        <ele>967.00003187086</ele>
        <time>2012-02-21T09:46:18Z</time>
      </trkpt>
      <trkpt lat="43.92231" lon="7.4894">
        <ele>959.99996144103</ele>
        <time>2012-02-21T09:46:23Z</time>
      </trkpt>
      <trkpt lat="43.92229" lon="7.4894">
        <ele>963.99985196771</ele>
        <time>2012-02-21T09:46:28Z</time>
      </trkpt>
      <trkpt lat="43.92228" lon="7.4894">
        <ele>969.9998850769</ele>
        <time>2012-02-21T09:47:08Z</time>
      </trkpt>
      <trkpt lat="43.92224" lon="7.48939">
        <ele>966.99994862339</ele>
        <time>2012-02-21T09:47:13Z</time>
      </trkpt>
      <trkpt lat="43.92222" lon="7.48939">
        <ele>971.00005205491</ele>
        <time>2012-02-21T09:47:18Z</time>
      </trkpt>
      <trkpt lat="43.92222" lon="7.48938">
        <ele>969.00005319914</ele>
        <time>2012-02-21T09:47:23Z</time>
      </trkpt>
      <trkpt lat="43.92221" lon="7.48938">
        <ele>968.00004953882</ele>
        <time>2012-02-21T09:47:28Z</time>
      </trkpt>
      <trkpt lat="43.92221" lon="7.48936">
        <ele>963.0001067883</ele>
        <time>2012-02-21T09:47:43Z</time>
      </trkpt>
      <trkpt lat="43.92221" lon="7.48935">
        <ele>967.000106376</ele>
        <time>2012-02-21T09:47:48Z</time>
      </trkpt>
      <trkpt lat="43.92221" lon="7.48931">
        <ele>978.00014507176</ele>
        <time>2012-02-21T09:47:53Z</time>
      </trkpt>
      <trkpt lat="43.92218" lon="7.48928">
        <ele>966.99997081489</ele>
        <time>2012-02-21T09:47:58Z</time>
      </trkpt>
      <trkpt lat="43.92215" lon="7.48925">
        <ele>965.0001415487</ele>
        <time>2012-02-21T09:48:03Z</time>
      </trkpt>
      <trkpt lat="43.92214" lon="7.48927">
        <ele>969.00029981333</ele>
        <time>2012-02-21T09:48:08Z</time>
      </trkpt>
      <trkpt lat="43.92216" lon="7.48924">
        <ele>976.00003265904</ele>
        <time>2012-02-21T09:48:18Z</time>
      </trkpt>
      <trkpt lat="43.92213" lon="7.48921">
        <ele>969.99991217231</ele>
        <time>2012-02-21T09:48:23Z</time>
      </trkpt>
      <trkpt lat="43.92208" lon="7.48918">
        <ele>964.99992273364</ele>
        <time>2012-02-21T09:48:28Z</time>
      </trkpt>
      <trkpt lat="43.92204" lon="7.48917">
        <ele>965.99991307456</ele>
        <time>2012-02-21T09:48:33Z</time>
      </trkpt>
      <trkpt lat="43.92203" lon="7.48916">
        <ele>962.99994945392</ele>
        <time>2012-02-21T09:48:38Z</time>
      </trkpt>
      <trkpt lat="43.92197" lon="7.48916">
        <ele>962.00000095461</ele>
        <time>2012-02-21T09:48:43Z</time>
      </trkpt>
      <trkpt lat="43.92196" lon="7.48916">
        <ele>961.99995485059</ele>
        <time>2012-02-21T09:48:48Z</time>
      </trkpt>
      <trkpt lat="43.9219" lon="7.48915">
        <ele>960.99999317745</ele>
        <time>2012-02-21T09:48:53Z</time>
      </trkpt>
      <trkpt lat="43.92183" lon="7.48915">
        <ele>964.99996582233</ele>
        <time>2012-02-21T09:48:58Z</time>
      </trkpt>
      <trkpt lat="43.92178" lon="7.48916">
        <ele>960.00002484824</ele>
        <time>2012-02-21T09:49:03Z</time>
      </trkpt>
      <trkpt lat="43.92174" lon="7.48917">
        <ele>958.0000489157</ele>
        <time>2012-02-21T09:49:08Z</time>
      </trkpt>
      <trkpt lat="43.92169" lon="7.48917">
        <ele>956.00001163731</ele>
        <time>2012-02-21T09:49:13Z</time>
      </trkpt>
      <trkpt lat="43.92164" lon="7.48919">
        <ele>956.00001005251</ele>
        <time>2012-02-21T09:49:18Z</time>
      </trkpt>
      <trkpt lat="43.92158" lon="7.48919">
        <ele>957.00001597084</ele>
        <time>2012-02-21T09:49:23Z</time>
      </trkpt>
      <trkpt lat="43.92154" lon="7.48922">
        <ele>958.00012247343</ele>
        <time>2012-02-21T09:49:28Z</time>
      </trkpt>
      <trkpt lat="43.92149" lon="7.48922">
        <ele>959.00004798084</ele>
        <time>2012-02-21T09:49:33Z</time>
      </trkpt>
      <trkpt lat="43.92144" lon="7.48922">
        <ele>957.00010978511</ele>
        <time>2012-02-21T09:49:38Z</time>
      </trkpt>
      <trkpt lat="43.92139" lon="7.48923">
        <ele>952.00007985368</ele>
        <time>2012-02-21T09:49:43Z</time>
      </trkpt>
      <trkpt lat="43.92135" lon="7.48924">
        <ele>957.00002620791</ele>
        <time>2012-02-21T09:49:48Z</time>
      </trkpt>
      <trkpt lat="43.92132" lon="7.48926">
        <ele>955.00006143601</ele>
        <time>2012-02-21T09:49:53Z</time>
      </trkpt>
      <trkpt lat="43.92128" lon="7.48927">
        <ele>953.00007947671</ele>
        <time>2012-02-21T09:49:58Z</time>
      </trkpt>
      <trkpt lat="43.92124" lon="7.48927">
        <ele>951.00005321684</ele>
        <time>2012-02-21T09:50:03Z</time>
      </trkpt>
      <trkpt lat="43.92121" lon="7.48927">
        <ele>950.00005802827</ele>
        <time>2012-02-21T09:50:08Z</time>
      </trkpt>
      <trkpt lat="43.92116" lon="7.48929">
        <ele>950.00005318321</ele>
        <time>2012-02-21T09:50:13Z</time>
      </trkpt>
      <trkpt lat="43.92112" lon="7.48931">
        <ele>948.0000338563</ele>
        <time>2012-02-21T09:50:18Z</time>
      </trkpt>
      <trkpt lat="43.92109" lon="7.48931">
        <ele>945.99998625267</ele>
        <time>2012-02-21T09:50:23Z</time>
      </trkpt>
      <trkpt lat="43.92106" lon="7.48933">
        <ele>939.00035639868</ele>
        <time>2012-02-21T09:50:28Z</time>
      </trkpt>
      <trkpt lat="43.92107" lon="7.48933">
        <ele>942.00020641339</ele>
        <time>2012-02-21T09:50:33Z</time>
      </trkpt>
      <trkpt lat="43.92106" lon="7.48934">
        <ele>947.00003531616</ele>
        <time>2012-02-21T09:50:38Z</time>
      </trkpt>
      <trkpt lat="43.92103" lon="7.48933">
        <ele>946.99996636756</ele>
        <time>2012-02-21T09:50:43Z</time>
      </trkpt>
      <trkpt lat="43.92103" lon="7.48934">
        <ele>949.99992700688</ele>
        <time>2012-02-21T09:50:48Z</time>
      </trkpt>
      <trkpt lat="43.92098" lon="7.48935">
        <ele>945.99996069442</ele>
        <time>2012-02-21T09:50:53Z</time>
      </trkpt>
      <trkpt lat="43.92093" lon="7.48938">
        <ele>944.00005372787</ele>
        <time>2012-02-21T09:50:58Z</time>
      </trkpt>
      <trkpt lat="43.92089" lon="7.48937">
        <ele>942.00013288383</ele>
        <time>2012-02-21T09:51:03Z</time>
      </trkpt>
      <trkpt lat="43.92084" lon="7.48937">
        <ele>943.00011881377</ele>
        <time>2012-02-21T09:51:08Z</time>
      </trkpt>
      <trkpt lat="43.92079" lon="7.48936">
        <ele>940.00003714822</ele>
        <time>2012-02-21T09:51:13Z</time>
      </trkpt>
      <trkpt lat="43.92075" lon="7.48936">
        <ele>943.00005452942</ele>
        <time>2012-02-21T09:51:18Z</time>
      </trkpt>
      <trkpt lat="43.92071" lon="7.48936">
        <ele>942.00002851285</ele>
        <time>2012-02-21T09:51:23Z</time>
      </trkpt>
      <trkpt lat="43.92067" lon="7.48936">
        <ele>940.0000329514</ele>
        <time>2012-02-21T09:51:28Z</time>
      </trkpt>
      <trkpt lat="43.92062" lon="7.48935">
        <ele>939.00002264318</ele>
        <time>2012-02-21T09:51:33Z</time>
      </trkpt>
      <trkpt lat="43.92058" lon="7.48934">
        <ele>934.00001710942</ele>
        <time>2012-02-21T09:51:38Z</time>
      </trkpt>
      <trkpt lat="43.92054" lon="7.48933">
        <ele>937.00001096966</ele>
        <time>2012-02-21T09:51:43Z</time>
      </trkpt>
      <trkpt lat="43.9205" lon="7.48934">
        <ele>937.00004969116</ele>
        <time>2012-02-21T09:51:48Z</time>
      </trkpt>
      <trkpt lat="43.92046" lon="7.48934">
        <ele>936.00004981347</ele>
        <time>2012-02-21T09:51:53Z</time>
      </trkpt>
      <trkpt lat="43.92042" lon="7.48936">
        <ele>935.00008028327</ele>
        <time>2012-02-21T09:51:58Z</time>
      </trkpt>
      <trkpt lat="43.92039" lon="7.48936">
        <ele>938.00008990412</ele>
        <time>2012-02-21T09:52:03Z</time>
      </trkpt>
      <trkpt lat="43.92035" lon="7.48937">
        <ele>937.00002648155</ele>
        <time>2012-02-21T09:52:08Z</time>
      </trkpt>
      <trkpt lat="43.92032" lon="7.48938">
        <ele>937.00007586866</ele>
        <time>2012-02-21T09:52:13Z</time>
      </trkpt>
      <trkpt lat="43.92028" lon="7.48938">
        <ele>935.00004492126</ele>
        <time>2012-02-21T09:52:18Z</time>
      </trkpt>
      <trkpt lat="43.92025" lon="7.48938">
        <ele>937.00005643821</ele>
        <time>2012-02-21T09:52:23Z</time>
      </trkpt>
      <trkpt lat="43.92022" lon="7.48938">
        <ele>934.00005456781</ele>
        <time>2012-02-21T09:52:28Z</time>
      </trkpt>
      <trkpt lat="43.9202" lon="7.4894">
        <ele>934.00023069288</ele>
        <time>2012-02-21T09:52:33Z</time>
      </trkpt>
      <trkpt lat="43.92018" lon="7.48939">
        <ele>930.00002612275</ele>
        <time>2012-02-21T09:52:38Z</time>
      </trkpt>
      <trkpt lat="43.9202" lon="7.48938">
        <ele>926.99981829146</ele>
        <time>2012-02-21T09:52:43Z</time>
      </trkpt>
      <trkpt lat="43.92017" lon="7.48939">
        <ele>929.99993400623</ele>
        <time>2012-02-21T09:52:48Z</time>
      </trkpt>
      <trkpt lat="43.92012" lon="7.4894">
        <ele>930.99995805966</ele>
        <time>2012-02-21T09:52:53Z</time>
      </trkpt>
      <trkpt lat="43.92008" lon="7.48941">
        <ele>930.00003813625</ele>
        <time>2012-02-21T09:52:58Z</time>
      </trkpt>
      <trkpt lat="43.92003" lon="7.48944">
        <ele>928.0000600474</ele>
        <time>2012-02-21T09:53:03Z</time>
      </trkpt>
      <trkpt lat="43.91998" lon="7.48945">
        <ele>929.0001276459</ele>
        <time>2012-02-21T09:53:08Z</time>
      </trkpt>
      <trkpt lat="43.91994" lon="7.48945">
        <ele>924.00010337317</ele>
        <time>2012-02-21T09:53:13Z</time>
      </trkpt>
      <trkpt lat="43.91991" lon="7.48945">
        <ele>927.00001960442</ele>
        <time>2012-02-21T09:53:18Z</time>
      </trkpt>
      <trkpt lat="43.91987" lon="7.48946">
        <ele>922.00006927234</ele>
        <time>2012-02-21T09:53:23Z</time>
      </trkpt>
      <trkpt lat="43.91983" lon="7.48949">
        <ele>926.00013488866</ele>
        <time>2012-02-21T09:53:28Z</time>
      </trkpt>
      <trkpt lat="43.91979" lon="7.48947">
        <ele>927.00017500204</ele>
        <time>2012-02-21T09:53:33Z</time>
      </trkpt>
      <trkpt lat="43.91976" lon="7.48946">
        <ele>923.00017444736</ele>
        <time>2012-02-21T09:53:38Z</time>
      </trkpt>
      <trkpt lat="43.91971" lon="7.48945">
        <ele>922.0000477049</ele>
        <time>2012-02-21T09:53:43Z</time>
      </trkpt>
      <trkpt lat="43.91967" lon="7.48943">
        <ele>919.00004878144</ele>
        <time>2012-02-21T09:53:48Z</time>
      </trkpt>
      <trkpt lat="43.91962" lon="7.48942">
        <ele>926.00001805565</ele>
        <time>2012-02-21T09:53:53Z</time>
      </trkpt>
      <trkpt lat="43.91958" lon="7.48943">
        <ele>928.00010940061</ele>
        <time>2012-02-21T09:53:58Z</time>
      </trkpt>
      <trkpt lat="43.91954" lon="7.48944">
        <ele>925.00003358629</ele>
        <time>2012-02-21T09:54:03Z</time>
      </trkpt>
      <trkpt lat="43.91949" lon="7.48946">
        <ele>923.00006386722</ele>
        <time>2012-02-21T09:54:08Z</time>
      </trkpt>
      <trkpt lat="43.91945" lon="7.48949">
        <ele>922.00013571113</ele>
        <time>2012-02-21T09:54:13Z</time>
      </trkpt>
      <trkpt lat="43.91941" lon="7.4895">
        <ele>932.00008243963</ele>
        <time>2012-02-21T09:54:18Z</time>
      </trkpt>
      <trkpt lat="43.91938" lon="7.48951">
        <ele>930.00010165621</ele>
        <time>2012-02-21T09:54:23Z</time>
      </trkpt>
      <trkpt lat="43.91939" lon="7.4895">
        <ele>923.9998992098</ele>
        <time>2012-02-21T09:54:28Z</time>
      </trkpt>
      <trkpt lat="43.91936" lon="7.48951">
        <ele>923.00005006605</ele>
        <time>2012-02-21T09:54:33Z</time>
      </trkpt>
      <trkpt lat="43.91936" lon="7.48952">
        <ele>924.00019095893</ele>
        <time>2012-02-21T09:54:38Z</time>
      </trkpt>
      <trkpt lat="43.91936" lon="7.48952">
        <ele>918.00013781425</ele>
        <time>2012-02-21T09:54:43Z</time>
      </trkpt>
      <trkpt lat="43.91935" lon="7.48954">
        <ele>915.9998968369</ele>
        <time>2012-02-21T09:54:48Z</time>
      </trkpt>
      <trkpt lat="43.91931" lon="7.48958">
        <ele>921.00009664411</ele>
        <time>2012-02-21T09:54:53Z</time>
      </trkpt>
      <trkpt lat="43.91928" lon="7.48961">
        <ele>914.00007702834</ele>
        <time>2012-02-21T09:54:58Z</time>
      </trkpt>
      <trkpt lat="43.91925" lon="7.48963">
        <ele>917.00011167887</ele>
        <time>2012-02-21T09:55:03Z</time>
      </trkpt>
      <trkpt lat="43.91921" lon="7.48966">
        <ele>917.00002516445</ele>
        <time>2012-02-21T09:55:08Z</time>
      </trkpt>
      <trkpt lat="43.91919" lon="7.48968">
        <ele>922.00022886974</ele>
        <time>2012-02-21T09:55:13Z</time>
      </trkpt>
      <trkpt lat="43.91918" lon="7.48969">
        <ele>919.00035811469</ele>
        <time>2012-02-21T09:55:18Z</time>
      </trkpt>
      <trkpt lat="43.91917" lon="7.48967">
        <ele>923.9999874335</ele>
        <time>2012-02-21T09:55:23Z</time>
      </trkpt>
      <trkpt lat="43.91913" lon="7.4897">
        <ele>920.00005486986</ele>
        <time>2012-02-21T09:55:28Z</time>
      </trkpt>
      <trkpt lat="43.9191" lon="7.48972">
        <ele>920.00014527133</ele>
        <time>2012-02-21T09:55:33Z</time>
      </trkpt>
      <trkpt lat="43.91906" lon="7.48972">
        <ele>923.00011062739</ele>
        <time>2012-02-21T09:55:38Z</time>
      </trkpt>
      <trkpt lat="43.91903" lon="7.48969">
        <ele>914.00010605882</ele>
        <time>2012-02-21T09:55:43Z</time>
      </trkpt>
      <trkpt lat="43.91901" lon="7.48964">
        <ele>913.00006235289</ele>
        <time>2012-02-21T09:55:48Z</time>
      </trkpt>
      <trkpt lat="43.91898" lon="7.48961">
        <ele>912.00003258493</ele>
        <time>2012-02-21T09:55:53Z</time>
      </trkpt>
      <trkpt lat="43.91897" lon="7.48962">
        <ele>912.0002521355</ele>
        <time>2012-02-21T09:55:58Z</time>
      </trkpt>
      <trkpt lat="43.91898" lon="7.48963">
        <ele>914.99994392977</ele>
        <time>2012-02-21T09:56:03Z</time>
      </trkpt>
      <trkpt lat="43.91898" lon="7.48966">
        <ele>908.99984231679</ele>
        <time>2012-02-21T09:56:08Z</time>
      </trkpt>
      <trkpt lat="43.91895" lon="7.48972">
        <ele>913.99993723972</ele>
        <time>2012-02-21T09:56:13Z</time>
      </trkpt>
      <trkpt lat="43.91891" lon="7.48975">
        <ele>914.00013598217</ele>
        <time>2012-02-21T09:56:18Z</time>
      </trkpt>
      <trkpt lat="43.91887" lon="7.48978">
        <ele>917.00009967418</ele>
        <time>2012-02-21T09:56:23Z</time>
      </trkpt>
      <trkpt lat="43.91883" lon="7.48981">
        <ele>912.00006747761</ele>
        <time>2012-02-21T09:56:28Z</time>
      </trkpt>
      <trkpt lat="43.91878" lon="7.48985">
        <ele>914.00010115969</ele>
        <time>2012-02-21T09:56:33Z</time>
      </trkpt>
      <trkpt lat="43.91874" lon="7.48987">
        <ele>914.00009884026</ele>
        <time>2012-02-21T09:56:38Z</time>
      </trkpt>
      <trkpt lat="43.91868" lon="7.48988">
        <ele>911.99998913683</ele>
        <time>2012-02-21T09:56:43Z</time>
      </trkpt>
      <trkpt lat="43.91863" lon="7.4899">
        <ele>907.99999766681</ele>
        <time>2012-02-21T09:56:48Z</time>
      </trkpt>
      <trkpt lat="43.91858" lon="7.48991">
        <ele>909.00009708195</ele>
        <time>2012-02-21T09:56:53Z</time>
      </trkpt>
      <trkpt lat="43.91852" lon="7.48991">
        <ele>912.00006430275</ele>
        <time>2012-02-21T09:56:58Z</time>
      </trkpt>
      <trkpt lat="43.91846" lon="7.48993">
        <ele>910.00006041561</ele>
        <time>2012-02-21T09:57:03Z</time>
      </trkpt>
      <trkpt lat="43.9184" lon="7.48995">
        <ele>904.00002054654</ele>
        <time>2012-02-21T09:57:08Z</time>
      </trkpt>
      <trkpt lat="43.91836" lon="7.48997">
        <ele>903.00004400051</ele>
        <time>2012-02-21T09:57:13Z</time>
      </trkpt>
      <trkpt lat="43.91831" lon="7.48999">
        <ele>906.00000998767</ele>
        <time>2012-02-21T09:57:18Z</time>
      </trkpt>
      <trkpt lat="43.91825" lon="7.49">
        <ele>908.9999288071</ele>
        <time>2012-02-21T09:57:23Z</time>
      </trkpt>
      <trkpt lat="43.9182" lon="7.49001">
        <ele>909.99998767938</ele>
        <time>2012-02-21T09:57:28Z</time>
      </trkpt>
      <trkpt lat="43.91814" lon="7.49">
        <ele>910.99998779812</ele>
        <time>2012-02-21T09:57:33Z</time>
      </trkpt>
      <trkpt lat="43.91808" lon="7.49">
        <ele>912.00007068625</ele>
        <time>2012-02-21T09:57:38Z</time>
      </trkpt>
      <trkpt lat="43.91804" lon="7.48999">
        <ele>911.00011335131</ele>
        <time>2012-02-21T09:57:43Z</time>
      </trkpt>
      <trkpt lat="43.918" lon="7.48998">
        <ele>906.00005327755</ele>
        <time>2012-02-21T09:57:48Z</time>
      </trkpt>
      <trkpt lat="43.91794" lon="7.48998">
        <ele>907.99999826732</ele>
        <time>2012-02-21T09:57:53Z</time>
      </trkpt>
      <trkpt lat="43.91789" lon="7.48998">
        <ele>908.00001174028</ele>
        <time>2012-02-21T09:57:58Z</time>
      </trkpt>
      <trkpt lat="43.91783" lon="7.48997">
        <ele>908.00004705801</ele>
        <time>2012-02-21T09:58:03Z</time>
      </trkpt>
      <trkpt lat="43.91778" lon="7.48997">
        <ele>899.00008319693</ele>
        <time>2012-02-21T09:58:08Z</time>
      </trkpt>
      <trkpt lat="43.91773" lon="7.48997">
        <ele>902.00006492685</ele>
        <time>2012-02-21T09:58:13Z</time>
      </trkpt>
      <trkpt lat="43.91767" lon="7.48997">
        <ele>899.99998025326</ele>
        <time>2012-02-21T09:58:18Z</time>
      </trkpt>
      <trkpt lat="43.91761" lon="7.48997">
        <ele>902.99993352934</ele>
        <time>2012-02-21T09:58:23Z</time>
      </trkpt>
      <trkpt lat="43.91754" lon="7.48997">
        <ele>906.00002543819</ele>
        <time>2012-02-21T09:58:28Z</time>
      </trkpt>
      <trkpt lat="43.91748" lon="7.48997">
        <ele>911.99999133378</ele>
        <time>2012-02-21T09:58:33Z</time>
      </trkpt>
      <trkpt lat="43.91743" lon="7.48999">
        <ele>910.99994465357</ele>
        <time>2012-02-21T09:58:38Z</time>
      </trkpt>
      <trkpt lat="43.91738" lon="7.49004">
        <ele>908.0001141228</ele>
        <time>2012-02-21T09:58:43Z</time>
      </trkpt>
      <trkpt lat="43.91734" lon="7.49008">
        <ele>900.0000237128</ele>
        <time>2012-02-21T09:58:48Z</time>
      </trkpt>
      <trkpt lat="43.91731" lon="7.49013">
        <ele>900.0000821725</ele>
        <time>2012-02-21T09:58:53Z</time>
      </trkpt>
      <trkpt lat="43.91729" lon="7.4902">
        <ele>902.00013582863</ele>
        <time>2012-02-21T09:58:58Z</time>
      </trkpt>
      <trkpt lat="43.91728" lon="7.49027">
        <ele>899.00015284055</ele>
        <time>2012-02-21T09:59:03Z</time>
      </trkpt>
      <trkpt lat="43.91727" lon="7.49035">
        <ele>897.00001938294</ele>
        <time>2012-02-21T09:59:08Z</time>
      </trkpt>
      <trkpt lat="43.91729" lon="7.49044">
        <ele>892.99996977677</ele>
        <time>2012-02-21T09:59:13Z</time>
      </trkpt>
      <trkpt lat="43.91731" lon="7.49051">
        <ele>897.00016083025</ele>
        <time>2012-02-21T09:59:18Z</time>
      </trkpt>
      <trkpt lat="43.91733" lon="7.49058">
        <ele>897.00020040138</ele>
        <time>2012-02-21T09:59:23Z</time>
      </trkpt>
      <trkpt lat="43.91736" lon="7.49065">
        <ele>895.00016686021</ele>
        <time>2012-02-21T09:59:28Z</time>
      </trkpt>
      <trkpt lat="43.91737" lon="7.49071">
        <ele>895.00003339996</ele>
        <time>2012-02-21T09:59:33Z</time>
      </trkpt>
      <trkpt lat="43.91739" lon="7.49078">
        <ele>894.0000516564</ele>
        <time>2012-02-21T09:59:38Z</time>
      </trkpt>
      <trkpt lat="43.91741" lon="7.49085">
        <ele>896.00013482956</ele>
        <time>2012-02-21T09:59:43Z</time>
      </trkpt>
      <trkpt lat="43.91742" lon="7.49092">
        <ele>891.00000092639</ele>
        <time>2012-02-21T09:59:48Z</time>
      </trkpt>
      <trkpt lat="43.91742" lon="7.491">
        <ele>888.00000800461</ele>
        <time>2012-02-21T09:59:53Z</time>
      </trkpt>
      <trkpt lat="43.91744" lon="7.49106">
        <ele>890.99997604322</ele>
        <time>2012-02-21T09:59:58Z</time>
      </trkpt>
      <trkpt lat="43.91746" lon="7.49113">
        <ele>889.99995000445</ele>
        <time>2012-02-21T10:00:03Z</time>
      </trkpt>
      <trkpt lat="43.91748" lon="7.4912">
        <ele>888.99989443604</ele>
        <time>2012-02-21T10:00:08Z</time>
      </trkpt>
      <trkpt lat="43.91752" lon="7.49124">
        <ele>885.99994054651</ele>
        <time>2012-02-21T10:00:13Z</time>
      </trkpt>
      <trkpt lat="43.91757" lon="7.49126">
        <ele>885.99996770119</ele>
        <time>2012-02-21T10:00:18Z</time>
      </trkpt>
      <trkpt lat="43.91762" lon="7.49127">
        <ele>881.99996674478</ele>
        <time>2012-02-21T10:00:23Z</time>
      </trkpt>
      <trkpt lat="43.91767" lon="7.49127">
        <ele>886.99992282322</ele>
        <time>2012-02-21T10:00:28Z</time>
      </trkpt>
      <trkpt lat="43.91771" lon="7.49128">
        <ele>878.99992161302</ele>
        <time>2012-02-21T10:00:33Z</time>
      </trkpt>
      <trkpt lat="43.91777" lon="7.4913">
        <ele>882.99993466153</ele>
        <time>2012-02-21T10:00:38Z</time>
      </trkpt>
      <trkpt lat="43.91782" lon="7.49131">
        <ele>882.99994730167</ele>
        <time>2012-02-21T10:00:43Z</time>
      </trkpt>
      <trkpt lat="43.91786" lon="7.49134">
        <ele>882.00000340235</ele>
        <time>2012-02-21T10:00:48Z</time>
      </trkpt>
      <trkpt lat="43.91792" lon="7.49136">
        <ele>883.00000504244</ele>
        <time>2012-02-21T10:00:53Z</time>
      </trkpt>
      <trkpt lat="43.91799" lon="7.49138">
        <ele>885.99999335231</ele>
        <time>2012-02-21T10:00:58Z</time>
      </trkpt>
      <trkpt lat="43.91805" lon="7.49141">
        <ele>886.00001962451</ele>
        <time>2012-02-21T10:01:03Z</time>
      </trkpt>
      <trkpt lat="43.9181" lon="7.49142">
        <ele>887.99996500915</ele>
        <time>2012-02-21T10:01:08Z</time>
      </trkpt>
      <trkpt lat="43.91814" lon="7.49143">
        <ele>885.9998510759</ele>
        <time>2012-02-21T10:01:13Z</time>
      </trkpt>
      <trkpt lat="43.91817" lon="7.49144">
        <ele>884.99991826612</ele>
        <time>2012-02-21T10:01:18Z</time>
      </trkpt>
      <trkpt lat="43.91821" lon="7.49148">
        <ele>884.99999398728</ele>
        <time>2012-02-21T10:01:23Z</time>
      </trkpt>
      <trkpt lat="43.91824" lon="7.49155">
        <ele>888.00000970392</ele>
        <time>2012-02-21T10:01:28Z</time>
      </trkpt>
      <trkpt lat="43.91828" lon="7.49161">
        <ele>887.00003407818</ele>
        <time>2012-02-21T10:01:33Z</time>
      </trkpt>
      <trkpt lat="43.91832" lon="7.49165">
        <ele>882.00007789271</ele>
        <time>2012-02-21T10:01:38Z</time>
      </trkpt>
      <trkpt lat="43.91836" lon="7.4917">
        <ele>882.00004126562</ele>
        <time>2012-02-21T10:01:43Z</time>
      </trkpt>
      <trkpt lat="43.9184" lon="7.49172">
        <ele>879.00008750643</ele>
        <time>2012-02-21T10:01:48Z</time>
      </trkpt>
      <trkpt lat="43.91845" lon="7.49174">
        <ele>883.99998097051</ele>
        <time>2012-02-21T10:01:53Z</time>
      </trkpt>
      <trkpt lat="43.91851" lon="7.49174">
        <ele>881.99993293591</ele>
        <time>2012-02-21T10:01:58Z</time>
      </trkpt>
      <trkpt lat="43.91856" lon="7.49175">
        <ele>884.9999188978</ele>
        <time>2012-02-21T10:02:03Z</time>
      </trkpt>
      <trkpt lat="43.9186" lon="7.49179">
        <ele>880.99997688151</ele>
        <time>2012-02-21T10:02:08Z</time>
      </trkpt>
      <trkpt lat="43.91862" lon="7.49186">
        <ele>881.99999749985</ele>
        <time>2012-02-21T10:02:13Z</time>
      </trkpt>
      <trkpt lat="43.91858" lon="7.49192">
        <ele>883.00011176067</ele>
        <time>2012-02-21T10:02:18Z</time>
      </trkpt>
      <trkpt lat="43.91855" lon="7.49191">
        <ele>879.00023900888</ele>
        <time>2012-02-21T10:02:23Z</time>
      </trkpt>
      <trkpt lat="43.91851" lon="7.49188">
        <ele>877.00014792989</ele>
        <time>2012-02-21T10:02:28Z</time>
      </trkpt>
      <trkpt lat="43.91846" lon="7.49185">
        <ele>878.00007111227</ele>
        <time>2012-02-21T10:02:33Z</time>
      </trkpt>
      <trkpt lat="43.91841" lon="7.49184">
        <ele>878.00004672223</ele>
        <time>2012-02-21T10:02:38Z</time>
      </trkpt>
      <trkpt lat="43.91836" lon="7.49183">
        <ele>876.00004625078</ele>
        <time>2012-02-21T10:02:43Z</time>
      </trkpt>
      <trkpt lat="43.91832" lon="7.49182">
        <ele>875.9999869298</ele>
        <time>2012-02-21T10:02:48Z</time>
      </trkpt>
      <trkpt lat="43.91827" lon="7.49182">
        <ele>877.00002619148</ele>
        <time>2012-02-21T10:02:53Z</time>
      </trkpt>
      <trkpt lat="43.91823" lon="7.49182">
        <ele>873.00003763079</ele>
        <time>2012-02-21T10:02:58Z</time>
      </trkpt>
      <trkpt lat="43.91819" lon="7.49182">
        <ele>872.00005179116</ele>
        <time>2012-02-21T10:03:03Z</time>
      </trkpt>
      <trkpt lat="43.91814" lon="7.49182">
        <ele>873.00001190799</ele>
        <time>2012-02-21T10:03:08Z</time>
      </trkpt>
      <trkpt lat="43.9181" lon="7.49183">
        <ele>874.00001237812</ele>
        <time>2012-02-21T10:03:13Z</time>
      </trkpt>
      <trkpt lat="43.91804" lon="7.49183">
        <ele>875.00004459116</ele>
        <time>2012-02-21T10:03:18Z</time>
      </trkpt>
      <trkpt lat="43.918" lon="7.49186">
        <ele>873.00002958869</ele>
        <time>2012-02-21T10:03:23Z</time>
      </trkpt>
      <trkpt lat="43.91795" lon="7.49188">
        <ele>865.99997950057</ele>
        <time>2012-02-21T10:03:28Z</time>
      </trkpt>
      <trkpt lat="43.9179" lon="7.49192">
        <ele>870.00003032985</ele>
        <time>2012-02-21T10:03:33Z</time>
      </trkpt>
      <trkpt lat="43.91785" lon="7.49194">
        <ele>872.00005432804</ele>
        <time>2012-02-21T10:03:38Z</time>
      </trkpt>
      <trkpt lat="43.9178" lon="7.49196">
        <ele>872.00013067495</ele>
        <time>2012-02-21T10:03:43Z</time>
      </trkpt>
      <trkpt lat="43.91776" lon="7.49196">
        <ele>866.0001211991</ele>
        <time>2012-02-21T10:03:48Z</time>
      </trkpt>
      <trkpt lat="43.91771" lon="7.49196">
        <ele>868.00007632232</ele>
        <time>2012-02-21T10:03:53Z</time>
      </trkpt>
      <trkpt lat="43.91765" lon="7.49195">
        <ele>868.00003766625</ele>
        <time>2012-02-21T10:03:58Z</time>
      </trkpt>
      <trkpt lat="43.9176" lon="7.49194">
        <ele>869.00007028611</ele>
        <time>2012-02-21T10:04:03Z</time>
      </trkpt>
      <trkpt lat="43.91756" lon="7.49196">
        <ele>865.9999914791</ele>
        <time>2012-02-21T10:04:08Z</time>
      </trkpt>
      <trkpt lat="43.9175" lon="7.49197">
        <ele>865.999924169</ele>
        <time>2012-02-21T10:04:13Z</time>
      </trkpt>
      <trkpt lat="43.91745" lon="7.49201">
        <ele>862.99996539536</ele>
        <time>2012-02-21T10:04:18Z</time>
      </trkpt>
      <trkpt lat="43.91739" lon="7.49202">
        <ele>865.00004162095</ele>
        <time>2012-02-21T10:04:23Z</time>
      </trkpt>
      <trkpt lat="43.91735" lon="7.49204">
        <ele>864.00000969143</ele>
        <time>2012-02-21T10:04:28Z</time>
      </trkpt>
      <trkpt lat="43.9173" lon="7.49208">
        <ele>862.00015193455</ele>
        <time>2012-02-21T10:04:33Z</time>
      </trkpt>
      <trkpt lat="43.91725" lon="7.49211">
        <ele>866.00013687853</ele>
        <time>2012-02-21T10:04:38Z</time>
      </trkpt>
      <trkpt lat="43.91721" lon="7.49214">
        <ele>862.00020115684</ele>
        <time>2012-02-21T10:04:43Z</time>
      </trkpt>
      <trkpt lat="43.91718" lon="7.49217">
        <ele>862.00020247525</ele>
        <time>2012-02-21T10:04:48Z</time>
      </trkpt>
      <trkpt lat="43.91714" lon="7.49221">
        <ele>863.9999791426</ele>
        <time>2012-02-21T10:04:53Z</time>
      </trkpt>
      <trkpt lat="43.91709" lon="7.49225">
        <ele>862.00007750898</ele>
        <time>2012-02-21T10:04:58Z</time>
      </trkpt>
      <trkpt lat="43.91705" lon="7.49228">
        <ele>858.00016125163</ele>
        <time>2012-02-21T10:05:03Z</time>
      </trkpt>
      <trkpt lat="43.91701" lon="7.49232">
        <ele>854.00027072835</ele>
        <time>2012-02-21T10:05:08Z</time>
      </trkpt>
      <trkpt lat="43.91698" lon="7.49235">
        <ele>853.00026836037</ele>
        <time>2012-02-21T10:05:13Z</time>
      </trkpt>
      <trkpt lat="43.91696" lon="7.4924">
        <ele>862.00015997563</ele>
        <time>2012-02-21T10:05:18Z</time>
      </trkpt>
      <trkpt lat="43.9169" lon="7.49244">
        <ele>863.99995019113</ele>
        <time>2012-02-21T10:05:23Z</time>
      </trkpt>
      <trkpt lat="43.91686" lon="7.49247">
        <ele>861.00005928683</ele>
        <time>2012-02-21T10:05:28Z</time>
      </trkpt>
      <trkpt lat="43.91681" lon="7.4925">
        <ele>860.00004499734</ele>
        <time>2012-02-21T10:05:33Z</time>
      </trkpt>
      <trkpt lat="43.91676" lon="7.49252">
        <ele>859.00008412115</ele>
        <time>2012-02-21T10:05:38Z</time>
      </trkpt>
      <trkpt lat="43.91671" lon="7.49255">
        <ele>858.00006482274</ele>
        <time>2012-02-21T10:05:43Z</time>
      </trkpt>
      <trkpt lat="43.91666" lon="7.49256">
        <ele>855.99997280325</ele>
        <time>2012-02-21T10:05:48Z</time>
      </trkpt>
      <trkpt lat="43.9166" lon="7.49258">
        <ele>859.00004953617</ele>
        <time>2012-02-21T10:05:53Z</time>
      </trkpt>
      <trkpt lat="43.91656" lon="7.49259">
        <ele>858.00009836583</ele>
        <time>2012-02-21T10:05:58Z</time>
      </trkpt>
      <trkpt lat="43.91651" lon="7.4926">
        <ele>858.00004042979</ele>
        <time>2012-02-21T10:06:03Z</time>
      </trkpt>
      <trkpt lat="43.91646" lon="7.49261">
        <ele>857.00011165095</ele>
        <time>2012-02-21T10:06:08Z</time>
      </trkpt>
      <trkpt lat="43.91642" lon="7.49262">
        <ele>858.00013761859</ele>
        <time>2012-02-21T10:06:13Z</time>
      </trkpt>
      <trkpt lat="43.91637" lon="7.49264">
        <ele>858.99998261356</ele>
        <time>2012-02-21T10:06:18Z</time>
      </trkpt>
      <trkpt lat="43.91633" lon="7.49266">
        <ele>860.00010543319</ele>
        <time>2012-02-21T10:06:23Z</time>
      </trkpt>
      <trkpt lat="43.91629" lon="7.49267">
        <ele>856.00013885894</ele>
        <time>2012-02-21T10:06:28Z</time>
      </trkpt>
      <trkpt lat="43.91624" lon="7.49268">
        <ele>857.00008696523</ele>
        <time>2012-02-21T10:06:33Z</time>
      </trkpt>
      <trkpt lat="43.91619" lon="7.49271">
        <ele>852.99999363483</ele>
        <time>2012-02-21T10:06:38Z</time>
      </trkpt>
      <trkpt lat="43.91614" lon="7.49273">
        <ele>854.00008376646</ele>
        <time>2012-02-21T10:06:43Z</time>
      </trkpt>
      <trkpt lat="43.91611" lon="7.49274">
        <ele>853.00019382442</ele>
        <time>2012-02-21T10:06:48Z</time>
      </trkpt>
      <trkpt lat="43.91607" lon="7.49276">
        <ele>855.00016376807</ele>
        <time>2012-02-21T10:06:53Z</time>
      </trkpt>
      <trkpt lat="43.91603" lon="7.49277">
        <ele>852.00001125007</ele>
        <time>2012-02-21T10:06:58Z</time>
      </trkpt>
      <trkpt lat="43.91599" lon="7.49278">
        <ele>850.00013421588</ele>
        <time>2012-02-21T10:07:03Z</time>
      </trkpt>
      <trkpt lat="43.91595" lon="7.49277">
        <ele>856.00021614219</ele>
        <time>2012-02-21T10:07:08Z</time>
      </trkpt>
      <trkpt lat="43.91591" lon="7.49275">
        <ele>853.00010857807</ele>
        <time>2012-02-21T10:07:13Z</time>
      </trkpt>
      <trkpt lat="43.91587" lon="7.49275">
        <ele>850.00020566263</ele>
        <time>2012-02-21T10:07:18Z</time>
      </trkpt>
      <trkpt lat="43.91583" lon="7.49272">
        <ele>850.00004240979</ele>
        <time>2012-02-21T10:07:23Z</time>
      </trkpt>
      <trkpt lat="43.9158" lon="7.49268">
        <ele>847.99993902761</ele>
        <time>2012-02-21T10:07:28Z</time>
      </trkpt>
      <trkpt lat="43.9158" lon="7.49268">
        <ele>849.99997097044</ele>
        <time>2012-02-21T10:07:33Z</time>
      </trkpt>
      <trkpt lat="43.91581" lon="7.49266">
        <ele>850.99987125319</ele>
        <time>2012-02-21T10:07:38Z</time>
      </trkpt>
      <trkpt lat="43.91582" lon="7.49265">
        <ele>850.99960829555</ele>
        <time>2012-02-21T10:07:43Z</time>
      </trkpt>
      <trkpt lat="43.91581" lon="7.49266">
        <ele>847.9996957388</ele>
        <time>2012-02-21T10:07:58Z</time>
      </trkpt>
      <trkpt lat="43.91581" lon="7.49266">
        <ele>843.99976421814</ele>
        <time>2012-02-21T10:08:08Z</time>
      </trkpt>
      <trkpt lat="43.91582" lon="7.49267">
        <ele>846.9998826011</ele>
        <time>2012-02-21T10:08:18Z</time>
      </trkpt>
      <trkpt lat="43.91582" lon="7.49268">
        <ele>844.99987017287</ele>
        <time>2012-02-21T10:08:23Z</time>
      </trkpt>
      <trkpt lat="43.9158" lon="7.49268">
        <ele>848.99980047519</ele>
        <time>2012-02-21T10:08:28Z</time>
      </trkpt>
      <trkpt lat="43.91579" lon="7.49269">
        <ele>850.99988672506</ele>
        <time>2012-02-21T10:08:53Z</time>
      </trkpt>
      <trkpt lat="43.91576" lon="7.4927">
        <ele>848.99990462176</ele>
        <time>2012-02-21T10:08:58Z</time>
      </trkpt>
      <trkpt lat="43.9157" lon="7.49268">
        <ele>847.0000158202</ele>
        <time>2012-02-21T10:09:03Z</time>
      </trkpt>
      <trkpt lat="43.91564" lon="7.49265">
        <ele>847.00005031094</ele>
        <time>2012-02-21T10:09:08Z</time>
      </trkpt>
      <trkpt lat="43.9156" lon="7.49263">
        <ele>849.00003409796</ele>
        <time>2012-02-21T10:09:13Z</time>
      </trkpt>
      <trkpt lat="43.91557" lon="7.49262">
        <ele>846.00014424031</ele>
        <time>2012-02-21T10:09:18Z</time>
      </trkpt>
      <trkpt lat="43.91557" lon="7.49262">
        <ele>846.00016146231</ele>
        <time>2012-02-21T10:09:23Z</time>
      </trkpt>
      <trkpt lat="43.91556" lon="7.49262">
        <ele>846.99994259823</ele>
        <time>2012-02-21T10:09:33Z</time>
      </trkpt>
      <trkpt lat="43.91552" lon="7.49261">
        <ele>846.99995688158</ele>
        <time>2012-02-21T10:09:38Z</time>
      </trkpt>
      <trkpt lat="43.91547" lon="7.4926">
        <ele>849.99991842663</ele>
        <time>2012-02-21T10:09:43Z</time>
      </trkpt>
      <trkpt lat="43.91542" lon="7.49259">
        <ele>849.00001069442</ele>
        <time>2012-02-21T10:09:48Z</time>
      </trkpt>
      <trkpt lat="43.91537" lon="7.49258">
        <ele>847.00011391935</ele>
        <time>2012-02-21T10:09:53Z</time>
      </trkpt>
      <trkpt lat="43.91534" lon="7.49257">
        <ele>845.00002322661</ele>
        <time>2012-02-21T10:09:58Z</time>
      </trkpt>
      <trkpt lat="43.91529" lon="7.49254">
        <ele>846.00003996869</ele>
        <time>2012-02-21T10:10:03Z</time>
      </trkpt>
      <trkpt lat="43.91525" lon="7.49254">
        <ele>848.00016862312</ele>
        <time>2012-02-21T10:10:08Z</time>
      </trkpt>
      <trkpt lat="43.91524" lon="7.49254">
        <ele>845.00006310065</ele>
        <time>2012-02-21T10:10:13Z</time>
      </trkpt>
      <trkpt lat="43.91521" lon="7.49254">
        <ele>845.00026318478</ele>
        <time>2012-02-21T10:10:18Z</time>
      </trkpt>
      <trkpt lat="43.9152" lon="7.49252">
        <ele>845.00010382633</ele>
        <time>2012-02-21T10:10:23Z</time>
      </trkpt>
      <trkpt lat="43.91521" lon="7.49251">
        <ele>845.9999205471</ele>
        <time>2012-02-21T10:10:28Z</time>
      </trkpt>
      <trkpt lat="43.91521" lon="7.49251">
        <ele>843.99984741625</ele>
        <time>2012-02-21T10:10:38Z</time>
      </trkpt>
      <trkpt lat="43.91521" lon="7.49251">
        <ele>842.0000572855</ele>
        <time>2012-02-21T10:10:43Z</time>
      </trkpt>
      <trkpt lat="43.91523" lon="7.49252">
        <ele>841.00005562156</ele>
        <time>2012-02-21T10:10:48Z</time>
      </trkpt>
      <trkpt lat="43.91524" lon="7.49254">
        <ele>841.9998711694</ele>
        <time>2012-02-21T10:10:53Z</time>
      </trkpt>
      <trkpt lat="43.91524" lon="7.49255">
        <ele>846.9998012727</ele>
        <time>2012-02-21T10:11:03Z</time>
      </trkpt>
      <trkpt lat="43.91519" lon="7.49256">
        <ele>841.99996395391</ele>
        <time>2012-02-21T10:11:08Z</time>
      </trkpt>
      <trkpt lat="43.91514" lon="7.49257">
        <ele>844.0000829314</ele>
        <time>2012-02-21T10:11:13Z</time>
      </trkpt>
      <trkpt lat="43.9151" lon="7.49256">
        <ele>842.00011415888</ele>
        <time>2012-02-21T10:11:18Z</time>
      </trkpt>
      <trkpt lat="43.91503" lon="7.49254">
        <ele>843.99995444228</ele>
        <time>2012-02-21T10:11:23Z</time>
      </trkpt>
      <trkpt lat="43.91497" lon="7.49253">
        <ele>843.00001828109</ele>
        <time>2012-02-21T10:11:28Z</time>
      </trkpt>
      <trkpt lat="43.91492" lon="7.49251">
        <ele>841.00006982921</ele>
        <time>2012-02-21T10:11:33Z</time>
      </trkpt>
      <trkpt lat="43.91487" lon="7.4925">
        <ele>843.0000629374</ele>
        <time>2012-02-21T10:11:38Z</time>
      </trkpt>
      <trkpt lat="43.91482" lon="7.49249">
        <ele>846.00002838458</ele>
        <time>2012-02-21T10:11:43Z</time>
      </trkpt>
      <trkpt lat="43.91479" lon="7.49248">
        <ele>844.00003396956</ele>
        <time>2012-02-21T10:11:48Z</time>
      </trkpt>
      <trkpt lat="43.91475" lon="7.49248">
        <ele>844.99997654389</ele>
        <time>2012-02-21T10:11:53Z</time>
      </trkpt>
      <trkpt lat="43.9147" lon="7.49248">
        <ele>845.99998355409</ele>
        <time>2012-02-21T10:11:58Z</time>
      </trkpt>
      <trkpt lat="43.91465" lon="7.49246">
        <ele>846.00003424537</ele>
        <time>2012-02-21T10:12:03Z</time>
      </trkpt>
      <trkpt lat="43.91459" lon="7.49245">
        <ele>846.00000057322</ele>
        <time>2012-02-21T10:12:08Z</time>
      </trkpt>
      <trkpt lat="43.91455" lon="7.49245">
        <ele>844.00014115617</ele>
        <time>2012-02-21T10:12:13Z</time>
      </trkpt>
      <trkpt lat="43.91454" lon="7.49245">
        <ele>846.00026934706</ele>
        <time>2012-02-21T10:12:18Z</time>
      </trkpt>
      <trkpt lat="43.91455" lon="7.49246">
        <ele>843.00001673502</ele>
        <time>2012-02-21T10:12:23Z</time>
      </trkpt>
      <trkpt lat="43.91457" lon="7.49251">
        <ele>836.99991280529</ele>
        <time>2012-02-21T10:12:28Z</time>
      </trkpt>
      <trkpt lat="43.91457" lon="7.49249">
        <ele>841.99981366858</ele>
        <time>2012-02-21T10:12:33Z</time>
      </trkpt>
      <trkpt lat="43.91455" lon="7.49248">
        <ele>834.99997224809</ele>
        <time>2012-02-21T10:12:38Z</time>
      </trkpt>
      <trkpt lat="43.91455" lon="7.49246">
        <ele>838.99980518399</ele>
        <time>2012-02-21T10:12:43Z</time>
      </trkpt>
      <trkpt lat="43.91454" lon="7.49244">
        <ele>840.99982322374</ele>
        <time>2012-02-21T10:12:48Z</time>
      </trkpt>
      <trkpt lat="43.91451" lon="7.49239">
        <ele>844.99997107171</ele>
        <time>2012-02-21T10:12:53Z</time>
      </trkpt>
      <trkpt lat="43.91449" lon="7.49234">
        <ele>844.00004047707</ele>
        <time>2012-02-21T10:12:58Z</time>
      </trkpt>
      <trkpt lat="43.91446" lon="7.49231">
        <ele>843.00000544282</ele>
        <time>2012-02-21T10:13:03Z</time>
      </trkpt>
      <trkpt lat="43.91443" lon="7.49227">
        <ele>845.00001307245</ele>
        <time>2012-02-21T10:13:08Z</time>
      </trkpt>
      <trkpt lat="43.91442" lon="7.49223">
        <ele>843.99996447902</ele>
        <time>2012-02-21T10:13:13Z</time>
      </trkpt>
      <trkpt lat="43.91444" lon="7.49218">
        <ele>842.99969488383</ele>
        <time>2012-02-21T10:13:18Z</time>
      </trkpt>
      <trkpt lat="43.91441" lon="7.49214">
        <ele>844.99989690489</ele>
        <time>2012-02-21T10:13:23Z</time>
      </trkpt>
      <trkpt lat="43.91438" lon="7.4921">
        <ele>842.99986020546</ele>
        <time>2012-02-21T10:13:28Z</time>
      </trkpt>
      <trkpt lat="43.91436" lon="7.49205">
        <ele>842.99997449034</ele>
        <time>2012-02-21T10:13:33Z</time>
      </trkpt>
      <trkpt lat="43.91433" lon="7.49201">
        <ele>844.99995479302</ele>
        <time>2012-02-21T10:13:38Z</time>
      </trkpt>
      <trkpt lat="43.91431" lon="7.49199">
        <ele>842.99992601583</ele>
        <time>2012-02-21T10:13:43Z</time>
      </trkpt>
      <trkpt lat="43.91429" lon="7.49197">
        <ele>838.99995009798</ele>
        <time>2012-02-21T10:13:48Z</time>
      </trkpt>
      <trkpt lat="43.91427" lon="7.49194">
        <ele>839.99982137159</ele>
        <time>2012-02-21T10:13:53Z</time>
      </trkpt>
      <trkpt lat="43.91427" lon="7.49191">
        <ele>838.99994667275</ele>
        <time>2012-02-21T10:13:58Z</time>
      </trkpt>
      <trkpt lat="43.91425" lon="7.4919">
        <ele>840.00001000876</ele>
        <time>2012-02-21T10:14:03Z</time>
      </trkpt>
      <trkpt lat="43.91425" lon="7.4919">
        <ele>841.99997571398</ele>
        <time>2012-02-21T10:14:08Z</time>
      </trkpt>
      <trkpt lat="43.91423" lon="7.4919">
        <ele>841.00022483261</ele>
        <time>2012-02-21T10:14:13Z</time>
      </trkpt>
      <trkpt lat="43.91421" lon="7.4919">
        <ele>844.00056775543</ele>
        <time>2012-02-21T10:14:18Z</time>
      </trkpt>
      <trkpt lat="43.91421" lon="7.4919">
        <ele>849.00040084232</ele>
        <time>2012-02-21T10:14:48Z</time>
      </trkpt>
      <trkpt lat="43.91422" lon="7.49189">
        <ele>839.00029408289</ele>
        <time>2012-02-21T10:15:03Z</time>
      </trkpt>
      <trkpt lat="43.91422" lon="7.49189">
        <ele>840.99946081532</ele>
        <time>2012-02-21T10:15:23Z</time>
      </trkpt>
      <trkpt lat="43.91422" lon="7.49189">
        <ele>840.99962170398</ele>
        <time>2012-02-21T10:15:28Z</time>
      </trkpt>
      <trkpt lat="43.91421" lon="7.49189">
        <ele>840.99987179629</ele>
        <time>2012-02-21T10:15:33Z</time>
      </trkpt>
      <trkpt lat="43.91421" lon="7.49189">
        <ele>847.99992453843</ele>
        <time>2012-02-21T10:15:48Z</time>
      </trkpt>
      <trkpt lat="43.91421" lon="7.49189">
        <ele>843.99997944507</ele>
        <time>2012-02-21T10:15:53Z</time>
      </trkpt>
      <trkpt lat="43.91421" lon="7.4919">
        <ele>839.99996426267</ele>
        <time>2012-02-21T10:16:09Z</time>
      </trkpt>
      <trkpt lat="43.9142" lon="7.4919">
        <ele>840.99992628853</ele>
        <time>2012-02-21T10:16:13Z</time>
      </trkpt>
      <trkpt lat="43.91419" lon="7.4919">
        <ele>843.00020436276</ele>
        <time>2012-02-21T10:16:18Z</time>
      </trkpt>
      <trkpt lat="43.91423" lon="7.49191">
        <ele>839</ele>
        <time>2012-02-21T10:25:49Z</time>
      </trkpt>
      <trkpt lat="43.91423" lon="7.49191">
        <ele>835</ele>
        <time>2012-02-21T10:25:54Z</time>
      </trkpt>
      <trkpt lat="43.91423" lon="7.49191">
        <ele>838</ele>
        <time>2012-02-21T10:26:04Z</time>
      </trkpt>
      <trkpt lat="43.91422" lon="7.49191">
        <ele>840</ele>
        <time>2012-02-21T10:26:09Z</time>
      </trkpt>
      <trkpt lat="43.91422" lon="7.49191">
        <ele>840</ele>
        <time>2012-02-21T10:26:14Z</time>
      </trkpt>
      <trkpt lat="43.91422" lon="7.49191">
        <ele>837</ele>
        <time>2012-02-21T10:26:19Z</time>
      </trkpt>
      <trkpt lat="43.91422" lon="7.49191">
        <ele>840</ele>
        <time>2012-02-21T10:26:24Z</time>
      </trkpt>
      <trkpt lat="43.91422" lon="7.49191">
        <ele>840</ele>
        <time>2012-02-21T10:26:29Z</time>
      </trkpt>
      <trkpt lat="43.91422" lon="7.49191">
        <ele>837</ele>
        <time>2012-02-21T10:26:34Z</time>
      </trkpt>
      <trkpt lat="43.91422" lon="7.49191">
        <ele>838</ele>
        <time>2012-02-21T10:26:39Z</time>
      </trkpt>
      <trkpt lat="43.91422" lon="7.49195">
        <ele>837</ele>
        <time>2012-02-21T10:26:49Z</time>
      </trkpt>
      <trkpt lat="43.91422" lon="7.49198">
        <ele>838.00000004179</ele>
        <time>2012-02-21T10:26:54Z</time>
      </trkpt>
      <trkpt lat="43.91422" lon="7.49202">
        <ele>840.00000054059</ele>
        <time>2012-02-21T10:26:59Z</time>
      </trkpt>
      <trkpt lat="43.91425" lon="7.49205">
        <ele>843.00000091693</ele>
        <time>2012-02-21T10:27:04Z</time>
      </trkpt>
      <trkpt lat="43.91429" lon="7.49208">
        <ele>840.00000036596</ele>
        <time>2012-02-21T10:27:09Z</time>
      </trkpt>
      <trkpt lat="43.91432" lon="7.49214">
        <ele>839.00000168364</ele>
        <time>2012-02-21T10:27:14Z</time>
      </trkpt>
      <trkpt lat="43.91436" lon="7.49219">
        <ele>838.00000079829</ele>
        <time>2012-02-21T10:27:19Z</time>
      </trkpt>
      <trkpt lat="43.91439" lon="7.49224">
        <ele>839.00000107126</ele>
        <time>2012-02-21T10:27:24Z</time>
      </trkpt>
      <trkpt lat="43.91443" lon="7.49231">
        <ele>836.99999802001</ele>
        <time>2012-02-21T10:27:29Z</time>
      </trkpt>
      <trkpt lat="43.91446" lon="7.49238">
        <ele>836.99999981713</ele>
        <time>2012-02-21T10:27:34Z</time>
      </trkpt>
      <trkpt lat="43.91449" lon="7.49243">
        <ele>839.0000039963</ele>
        <time>2012-02-21T10:27:39Z</time>
      </trkpt>
      <trkpt lat="43.91452" lon="7.49247">
        <ele>834.00000761831</ele>
        <time>2012-02-21T10:27:44Z</time>
      </trkpt>
      <trkpt lat="43.91453" lon="7.49253">
        <ele>840.00000568488</ele>
        <time>2012-02-21T10:27:49Z</time>
      </trkpt>
      <trkpt lat="43.91449" lon="7.49256">
        <ele>837.99999873744</ele>
        <time>2012-02-21T10:27:54Z</time>
      </trkpt>
      <trkpt lat="43.91444" lon="7.49259">
        <ele>837.99999601262</ele>
        <time>2012-02-21T10:27:59Z</time>
      </trkpt>
      <trkpt lat="43.91439" lon="7.49264">
        <ele>838.99999684029</ele>
        <time>2012-02-21T10:28:04Z</time>
      </trkpt>
      <trkpt lat="43.91433" lon="7.49268">
        <ele>835.99999794931</ele>
        <time>2012-02-21T10:28:09Z</time>
      </trkpt>
      <trkpt lat="43.91427" lon="7.49269">
        <ele>836.00000164439</ele>
        <time>2012-02-21T10:28:14Z</time>
      </trkpt>
      <trkpt lat="43.91421" lon="7.49271">
        <ele>836.99999855441</ele>
        <time>2012-02-21T10:28:19Z</time>
      </trkpt>
      <trkpt lat="43.91416" lon="7.49273">
        <ele>838.99999841389</ele>
        <time>2012-02-21T10:28:24Z</time>
      </trkpt>
      <trkpt lat="43.91411" lon="7.49276">
        <ele>836.00000157461</ele>
        <time>2012-02-21T10:28:29Z</time>
      </trkpt>
      <trkpt lat="43.91406" lon="7.49276">
        <ele>835.00000130053</ele>
        <time>2012-02-21T10:28:34Z</time>
      </trkpt>
      <trkpt lat="43.91401" lon="7.49276">
        <ele>835.00000785444</ele>
        <time>2012-02-21T10:28:39Z</time>
      </trkpt>
      <trkpt lat="43.91397" lon="7.4928">
        <ele>835.99999925805</ele>
        <time>2012-02-21T10:28:44Z</time>
      </trkpt>
      <trkpt lat="43.91394" lon="7.49287">
        <ele>832.00000373723</ele>
        <time>2012-02-21T10:28:49Z</time>
      </trkpt>
      <trkpt lat="43.91396" lon="7.49291">
        <ele>832.00000104434</ele>
        <time>2012-02-21T10:28:54Z</time>
      </trkpt>
      <trkpt lat="43.91397" lon="7.4929">
        <ele>832.00000339135</ele>
        <time>2012-02-21T10:28:59Z</time>
      </trkpt>
      <trkpt lat="43.914" lon="7.49292">
        <ele>830.99999948738</ele>
        <time>2012-02-21T10:29:04Z</time>
      </trkpt>
      <trkpt lat="43.91402" lon="7.49291">
        <ele>831.00000054459</ele>
        <time>2012-02-21T10:29:09Z</time>
      </trkpt>
      <trkpt lat="43.91405" lon="7.4929">
        <ele>831.99999880463</ele>
        <time>2012-02-21T10:29:14Z</time>
      </trkpt>
      <trkpt lat="43.91408" lon="7.49289">
        <ele>833.99999846606</ele>
        <time>2012-02-21T10:29:19Z</time>
      </trkpt>
      <trkpt lat="43.91411" lon="7.49289">
        <ele>829.99999558983</ele>
        <time>2012-02-21T10:29:24Z</time>
      </trkpt>
      <trkpt lat="43.91414" lon="7.49295">
        <ele>829.00000165184</ele>
        <time>2012-02-21T10:29:29Z</time>
      </trkpt>
      <trkpt lat="43.91418" lon="7.49299">
        <ele>830.00001082198</ele>
        <time>2012-02-21T10:29:34Z</time>
      </trkpt>
      <trkpt lat="43.91417" lon="7.49298">
        <ele>826.99999969946</ele>
        <time>2012-02-21T10:29:39Z</time>
      </trkpt>
      <trkpt lat="43.91416" lon="7.49296">
        <ele>832.99998297603</ele>
        <time>2012-02-21T10:29:49Z</time>
      </trkpt>
      <trkpt lat="43.91416" lon="7.49295">
        <ele>831.99997487725</ele>
        <time>2012-02-21T10:29:54Z</time>
      </trkpt>
      <trkpt lat="43.91415" lon="7.49297">
        <ele>833.99998616354</ele>
        <time>2012-02-21T10:29:59Z</time>
      </trkpt>
      <trkpt lat="43.91416" lon="7.49297">
        <ele>832.99998895715</ele>
        <time>2012-02-21T10:30:04Z</time>
      </trkpt>
      <trkpt lat="43.91416" lon="7.49296">
        <ele>829.00000581909</ele>
        <time>2012-02-21T10:30:29Z</time>
      </trkpt>
      <trkpt lat="43.91413" lon="7.49294">
        <ele>830.00000823791</ele>
        <time>2012-02-21T10:30:34Z</time>
      </trkpt>
      <trkpt lat="43.91409" lon="7.49292">
        <ele>833.00000317139</ele>
        <time>2012-02-21T10:30:39Z</time>
      </trkpt>
      <trkpt lat="43.91404" lon="7.49291">
        <ele>833.99999999092</ele>
        <time>2012-02-21T10:30:44Z</time>
      </trkpt>
      <trkpt lat="43.914" lon="7.4929">
        <ele>832.99999545141</ele>
        <time>2012-02-21T10:30:49Z</time>
      </trkpt>
      <trkpt lat="43.91395" lon="7.49289">
        <ele>833.99999593267</ele>
        <time>2012-02-21T10:30:54Z</time>
      </trkpt>
      <trkpt lat="43.91391" lon="7.49288">
        <ele>833.00000041313</ele>
        <time>2012-02-21T10:30:59Z</time>
      </trkpt>
      <trkpt lat="43.9139" lon="7.49287">
        <ele>838.00000701568</ele>
        <time>2012-02-21T10:31:04Z</time>
      </trkpt>
      <trkpt lat="43.91387" lon="7.49284">
        <ele>836.00000978882</ele>
        <time>2012-02-21T10:31:09Z</time>
      </trkpt>
      <trkpt lat="43.91387" lon="7.49281">
        <ele>830.99999754196</ele>
        <time>2012-02-21T10:31:14Z</time>
      </trkpt>
      <trkpt lat="43.91385" lon="7.49279">
        <ele>831.00000346831</ele>
        <time>2012-02-21T10:31:19Z</time>
      </trkpt>
      <trkpt lat="43.91384" lon="7.49279">
        <ele>833.99999823359</ele>
        <time>2012-02-21T10:31:24Z</time>
      </trkpt>
      <trkpt lat="43.9138" lon="7.49278">
        <ele>832.99999902618</ele>
        <time>2012-02-21T10:31:29Z</time>
      </trkpt>
      <trkpt lat="43.91375" lon="7.4928">
        <ele>832.99999812101</ele>
        <time>2012-02-21T10:31:34Z</time>
      </trkpt>
      <trkpt lat="43.9137" lon="7.49283">
        <ele>840.00000116714</ele>
        <time>2012-02-21T10:31:39Z</time>
      </trkpt>
      <trkpt lat="43.91366" lon="7.49285">
        <ele>837.99999978157</ele>
        <time>2012-02-21T10:31:44Z</time>
      </trkpt>
      <trkpt lat="43.91362" lon="7.49285">
        <ele>837.00001150618</ele>
        <time>2012-02-21T10:31:49Z</time>
      </trkpt>
      <trkpt lat="43.91357" lon="7.49283">
        <ele>831.00000341703</ele>
        <time>2012-02-21T10:31:54Z</time>
      </trkpt>
      <trkpt lat="43.91352" lon="7.49281">
        <ele>834.00000505625</ele>
        <time>2012-02-21T10:31:59Z</time>
      </trkpt>
      <trkpt lat="43.91349" lon="7.49279">
        <ele>827.00001014307</ele>
        <time>2012-02-21T10:32:04Z</time>
      </trkpt>
      <trkpt lat="43.91348" lon="7.49279">
        <ele>831.0000147561</ele>
        <time>2012-02-21T10:32:09Z</time>
      </trkpt>
      <trkpt lat="43.91347" lon="7.49279">
        <ele>828.0000124863</ele>
        <time>2012-02-21T10:32:14Z</time>
      </trkpt>
      <trkpt lat="43.91347" lon="7.4928">
        <ele>824.00000092026</ele>
        <time>2012-02-21T10:32:24Z</time>
      </trkpt>
      <trkpt lat="43.91343" lon="7.49277">
        <ele>826.00001276516</ele>
        <time>2012-02-21T10:32:29Z</time>
      </trkpt>
      <trkpt lat="43.91339" lon="7.49274">
        <ele>826.00000674908</ele>
        <time>2012-02-21T10:32:34Z</time>
      </trkpt>
      <trkpt lat="43.91335" lon="7.49271">
        <ele>831.00000463655</ele>
        <time>2012-02-21T10:32:39Z</time>
      </trkpt>
      <trkpt lat="43.91329" lon="7.49269">
        <ele>833.99999753174</ele>
        <time>2012-02-21T10:32:44Z</time>
      </trkpt>
      <trkpt lat="43.91325" lon="7.49268">
        <ele>827.00000299013</ele>
        <time>2012-02-21T10:32:49Z</time>
      </trkpt>
      <trkpt lat="43.91321" lon="7.49267">
        <ele>828.00000824576</ele>
        <time>2012-02-21T10:32:54Z</time>
      </trkpt>
      <trkpt lat="43.91317" lon="7.49265">
        <ele>830.00001512464</ele>
        <time>2012-02-21T10:32:59Z</time>
      </trkpt>
      <trkpt lat="43.91313" lon="7.49262">
        <ele>830.00001600055</ele>
        <time>2012-02-21T10:33:04Z</time>
      </trkpt>
      <trkpt lat="43.91309" lon="7.49261">
        <ele>833.00001518883</ele>
        <time>2012-02-21T10:33:09Z</time>
      </trkpt>
      <trkpt lat="43.91305" lon="7.49261">
        <ele>831.00001328322</ele>
        <time>2012-02-21T10:33:14Z</time>
      </trkpt>
      <trkpt lat="43.913" lon="7.49261">
        <ele>824.00000866839</ele>
        <time>2012-02-21T10:33:19Z</time>
      </trkpt>
      <trkpt lat="43.91293" lon="7.49261">
        <ele>829.00000440244</ele>
        <time>2012-02-21T10:33:24Z</time>
      </trkpt>
      <trkpt lat="43.91289" lon="7.49262">
        <ele>827.0000091618</ele>
        <time>2012-02-21T10:33:29Z</time>
      </trkpt>
      <trkpt lat="43.91284" lon="7.49261">
        <ele>821.0000119081</ele>
        <time>2012-02-21T10:33:34Z</time>
      </trkpt>
      <trkpt lat="43.9128" lon="7.49261">
        <ele>829.00002160106</ele>
        <time>2012-02-21T10:33:39Z</time>
      </trkpt>
      <trkpt lat="43.91276" lon="7.49261">
        <ele>829.00003194211</ele>
        <time>2012-02-21T10:33:44Z</time>
      </trkpt>
      <trkpt lat="43.91272" lon="7.4926">
        <ele>827.00003091517</ele>
        <time>2012-02-21T10:33:49Z</time>
      </trkpt>
      <trkpt lat="43.9127" lon="7.4926">
        <ele>825.00003030595</ele>
        <time>2012-02-21T10:33:54Z</time>
      </trkpt>
      <trkpt lat="43.91267" lon="7.4926">
        <ele>825.00002753028</ele>
        <time>2012-02-21T10:33:59Z</time>
      </trkpt>
      <trkpt lat="43.91262" lon="7.49263">
        <ele>826.00002204711</ele>
        <time>2012-02-21T10:34:04Z</time>
      </trkpt>
      <trkpt lat="43.91258" lon="7.49265">
        <ele>832.0000163138</ele>
        <time>2012-02-21T10:34:09Z</time>
      </trkpt>
      <trkpt lat="43.91251" lon="7.49266">
        <ele>822.99998704056</ele>
        <time>2012-02-21T10:34:14Z</time>
      </trkpt>
      <trkpt lat="43.91245" lon="7.49266">
        <ele>822.00000511166</ele>
        <time>2012-02-21T10:34:19Z</time>
      </trkpt>
      <trkpt lat="43.9124" lon="7.49268">
        <ele>824.00003655091</ele>
        <time>2012-02-21T10:34:24Z</time>
      </trkpt>
      <trkpt lat="43.91236" lon="7.49272">
        <ele>824.00001910644</ele>
        <time>2012-02-21T10:34:29Z</time>
      </trkpt>
      <trkpt lat="43.91231" lon="7.49275">
        <ele>823.00001318893</ele>
        <time>2012-02-21T10:34:34Z</time>
      </trkpt>
      <trkpt lat="43.91227" lon="7.49278">
        <ele>827.00003904618</ele>
        <time>2012-02-21T10:34:39Z</time>
      </trkpt>
      <trkpt lat="43.91223" lon="7.49278">
        <ele>824.00005434159</ele>
        <time>2012-02-21T10:34:44Z</time>
      </trkpt>
      <trkpt lat="43.91219" lon="7.49281">
        <ele>823.99999501721</ele>
        <time>2012-02-21T10:34:49Z</time>
      </trkpt>
      <trkpt lat="43.91215" lon="7.49288">
        <ele>825.99999338716</ele>
        <time>2012-02-21T10:34:54Z</time>
      </trkpt>
      <trkpt lat="43.91211" lon="7.4929">
        <ele>824.00005274621</ele>
        <time>2012-02-21T10:34:59Z</time>
      </trkpt>
      <trkpt lat="43.91208" lon="7.4929">
        <ele>822.00007447137</ele>
        <time>2012-02-21T10:35:04Z</time>
      </trkpt>
      <trkpt lat="43.91205" lon="7.49291">
        <ele>821.00008306701</ele>
        <time>2012-02-21T10:35:09Z</time>
      </trkpt>
      <trkpt lat="43.91203" lon="7.49295">
        <ele>825.00004023578</ele>
        <time>2012-02-21T10:35:14Z</time>
      </trkpt>
      <trkpt lat="43.912" lon="7.49298">
        <ele>817.00004552828</ele>
        <time>2012-02-21T10:35:19Z</time>
      </trkpt>
      <trkpt lat="43.91195" lon="7.493">
        <ele>824.00001968761</ele>
        <time>2012-02-21T10:35:24Z</time>
      </trkpt>
      <trkpt lat="43.91191" lon="7.49304">
        <ele>820.00004664479</ele>
        <time>2012-02-21T10:35:29Z</time>
      </trkpt>
      <trkpt lat="43.91189" lon="7.49308">
        <ele>820.00003353703</ele>
        <time>2012-02-21T10:35:34Z</time>
      </trkpt>
      <trkpt lat="43.91185" lon="7.49311">
        <ele>821.00003677072</ele>
        <time>2012-02-21T10:35:39Z</time>
      </trkpt>
      <trkpt lat="43.91182" lon="7.49314">
        <ele>821.00006580172</ele>
        <time>2012-02-21T10:35:44Z</time>
      </trkpt>
      <trkpt lat="43.91178" lon="7.49317">
        <ele>818.00005098396</ele>
        <time>2012-02-21T10:35:49Z</time>
      </trkpt>
      <trkpt lat="43.91175" lon="7.49319">
        <ele>816.00004942186</ele>
        <time>2012-02-21T10:35:54Z</time>
      </trkpt>
      <trkpt lat="43.9117" lon="7.49322">
        <ele>814.0000235159</ele>
        <time>2012-02-21T10:35:59Z</time>
      </trkpt>
      <trkpt lat="43.91165" lon="7.49326">
        <ele>814.00005727747</ele>
        <time>2012-02-21T10:36:04Z</time>
      </trkpt>
      <trkpt lat="43.9116" lon="7.49325">
        <ele>815.00002411716</ele>
        <time>2012-02-21T10:36:09Z</time>
      </trkpt>
      <trkpt lat="43.91155" lon="7.49327">
        <ele>818.00003212357</ele>
        <time>2012-02-21T10:36:14Z</time>
      </trkpt>
      <trkpt lat="43.91149" lon="7.49327">
        <ele>809.00004575795</ele>
        <time>2012-02-21T10:36:19Z</time>
      </trkpt>
      <trkpt lat="43.91144" lon="7.49327">
        <ele>810.00012722822</ele>
        <time>2012-02-21T10:36:24Z</time>
      </trkpt>
      <trkpt lat="43.91141" lon="7.49329">
        <ele>814.00009862551</ele>
        <time>2012-02-21T10:36:29Z</time>
      </trkpt>
      <trkpt lat="43.91139" lon="7.49333">
        <ele>816.00008627812</ele>
        <time>2012-02-21T10:36:34Z</time>
      </trkpt>
      <trkpt lat="43.91136" lon="7.49336">
        <ele>811.00008430056</ele>
        <time>2012-02-21T10:36:39Z</time>
      </trkpt>
      <trkpt lat="43.91131" lon="7.49336">
        <ele>806.00008254365</ele>
        <time>2012-02-21T10:36:44Z</time>
      </trkpt>
      <trkpt lat="43.91127" lon="7.49331">
        <ele>803.00006750103</ele>
        <time>2012-02-21T10:36:49Z</time>
      </trkpt>
      <trkpt lat="43.91124" lon="7.4933">
        <ele>803.00009065009</ele>
        <time>2012-02-21T10:36:54Z</time>
      </trkpt>
      <trkpt lat="43.9112" lon="7.49329">
        <ele>799.00017497012</ele>
        <time>2012-02-21T10:36:59Z</time>
      </trkpt>
      <trkpt lat="43.91118" lon="7.49328">
        <ele>803.00006191168</ele>
        <time>2012-02-21T10:37:04Z</time>
      </trkpt>
      <trkpt lat="43.91115" lon="7.4933">
        <ele>804.00010508072</ele>
        <time>2012-02-21T10:37:09Z</time>
      </trkpt>
      <trkpt lat="43.91111" lon="7.49332">
        <ele>800.00017418586</ele>
        <time>2012-02-21T10:37:14Z</time>
      </trkpt>
      <trkpt lat="43.91108" lon="7.49335">
        <ele>802.00005306738</ele>
        <time>2012-02-21T10:37:19Z</time>
      </trkpt>
      <trkpt lat="43.91104" lon="7.49339">
        <ele>806.00002766641</ele>
        <time>2012-02-21T10:37:24Z</time>
      </trkpt>
      <trkpt lat="43.911" lon="7.49342">
        <ele>807.00010908182</ele>
        <time>2012-02-21T10:37:29Z</time>
      </trkpt>
      <trkpt lat="43.91096" lon="7.49344">
        <ele>804.0001664341</ele>
        <time>2012-02-21T10:37:34Z</time>
      </trkpt>
      <trkpt lat="43.91092" lon="7.49347">
        <ele>800.00006073587</ele>
        <time>2012-02-21T10:37:39Z</time>
      </trkpt>
      <trkpt lat="43.91091" lon="7.49345">
        <ele>792.00008249101</ele>
        <time>2012-02-21T10:37:44Z</time>
      </trkpt>
      <trkpt lat="43.91091" lon="7.49344">
        <ele>787.00005069806</ele>
        <time>2012-02-21T10:37:49Z</time>
      </trkpt>
      <trkpt lat="43.91088" lon="7.49344">
        <ele>794.99993390787</ele>
        <time>2012-02-21T10:37:54Z</time>
      </trkpt>
      <trkpt lat="43.91082" lon="7.49348">
        <ele>795.00002061176</ele>
        <time>2012-02-21T10:37:59Z</time>
      </trkpt>
      <trkpt lat="43.91077" lon="7.49352">
        <ele>798.00002593083</ele>
        <time>2012-02-21T10:38:04Z</time>
      </trkpt>
      <trkpt lat="43.91073" lon="7.49354">
        <ele>799.00005312705</ele>
        <time>2012-02-21T10:38:09Z</time>
      </trkpt>
      <trkpt lat="43.91069" lon="7.49354">
        <ele>796.00006435193</ele>
        <time>2012-02-21T10:38:14Z</time>
      </trkpt>
      <trkpt lat="43.91069" lon="7.49351">
        <ele>800.99996907485</ele>
        <time>2012-02-21T10:38:19Z</time>
      </trkpt>
      <trkpt lat="43.91069" lon="7.4935">
        <ele>800.99990806688</ele>
        <time>2012-02-21T10:38:29Z</time>
      </trkpt>
      <trkpt lat="43.91063" lon="7.49352">
        <ele>797.99984946969</ele>
        <time>2012-02-21T10:38:34Z</time>
      </trkpt>
      <trkpt lat="43.91056" lon="7.49351">
        <ele>793.0000148694</ele>
        <time>2012-02-21T10:38:39Z</time>
      </trkpt>
      <trkpt lat="43.9105" lon="7.49353">
        <ele>792.00001628932</ele>
        <time>2012-02-21T10:38:44Z</time>
      </trkpt>
      <trkpt lat="43.91044" lon="7.49355">
        <ele>789.99998973003</ele>
        <time>2012-02-21T10:38:49Z</time>
      </trkpt>
      <trkpt lat="43.91037" lon="7.49356">
        <ele>795.00000502763</ele>
        <time>2012-02-21T10:38:54Z</time>
      </trkpt>
      <trkpt lat="43.91031" lon="7.49357">
        <ele>793.00001874187</ele>
        <time>2012-02-21T10:38:59Z</time>
      </trkpt>
      <trkpt lat="43.91025" lon="7.49358">
        <ele>796.00003448463</ele>
        <time>2012-02-21T10:39:04Z</time>
      </trkpt>
      <trkpt lat="43.91019" lon="7.49359">
        <ele>786.99999430143</ele>
        <time>2012-02-21T10:39:09Z</time>
      </trkpt>
      <trkpt lat="43.91013" lon="7.49361">
        <ele>792.00000440671</ele>
        <time>2012-02-21T10:39:14Z</time>
      </trkpt>
      <trkpt lat="43.91006" lon="7.49364">
        <ele>792.99996667386</ele>
        <time>2012-02-21T10:39:19Z</time>
      </trkpt>
      <trkpt lat="43.90999" lon="7.49366">
        <ele>796.00001910173</ele>
        <time>2012-02-21T10:39:24Z</time>
      </trkpt>
      <trkpt lat="43.90993" lon="7.49366">
        <ele>787.000030171</ele>
        <time>2012-02-21T10:39:29Z</time>
      </trkpt>
      <trkpt lat="43.90988" lon="7.49368">
        <ele>789.00005488793</ele>
        <time>2012-02-21T10:39:34Z</time>
      </trkpt>
      <trkpt lat="43.90983" lon="7.4937">
        <ele>791.00001025856</ele>
        <time>2012-02-21T10:39:39Z</time>
      </trkpt>
      <trkpt lat="43.90978" lon="7.49371">
        <ele>790.00005452415</ele>
        <time>2012-02-21T10:39:44Z</time>
      </trkpt>
      <trkpt lat="43.90973" lon="7.49373">
        <ele>790.00003607954</ele>
        <time>2012-02-21T10:39:49Z</time>
      </trkpt>
      <trkpt lat="43.90967" lon="7.49373">
        <ele>790.00001611998</ele>
        <time>2012-02-21T10:39:54Z</time>
      </trkpt>
      <trkpt lat="43.9096" lon="7.49371">
        <ele>790.00000712847</ele>
        <time>2012-02-21T10:39:59Z</time>
      </trkpt>
      <trkpt lat="43.90956" lon="7.49369">
        <ele>792.00017230959</ele>
        <time>2012-02-21T10:40:04Z</time>
      </trkpt>
      <trkpt lat="43.90955" lon="7.49369">
        <ele>790.00000052409</ele>
        <time>2012-02-21T10:40:09Z</time>
      </trkpt>
      <trkpt lat="43.90951" lon="7.49366">
        <ele>788.00006418148</ele>
        <time>2012-02-21T10:40:14Z</time>
      </trkpt>
      <trkpt lat="43.90947" lon="7.49367">
        <ele>787.00007153296</ele>
        <time>2012-02-21T10:40:19Z</time>
      </trkpt>
      <trkpt lat="43.90941" lon="7.49369">
        <ele>788.99999596239</ele>
        <time>2012-02-21T10:40:24Z</time>
      </trkpt>
      <trkpt lat="43.90937" lon="7.4937">
        <ele>785.00002720899</ele>
        <time>2012-02-21T10:40:29Z</time>
      </trkpt>
      <trkpt lat="43.90931" lon="7.49368">
        <ele>789.00001521131</ele>
        <time>2012-02-21T10:40:34Z</time>
      </trkpt>
      <trkpt lat="43.90927" lon="7.49363">
        <ele>782.99998668613</ele>
        <time>2012-02-21T10:40:39Z</time>
      </trkpt>
      <trkpt lat="43.90925" lon="7.49366">
        <ele>790.00006679608</ele>
        <time>2012-02-21T10:40:44Z</time>
      </trkpt>
      <trkpt lat="43.90922" lon="7.4937">
        <ele>787.00008749982</ele>
        <time>2012-02-21T10:40:49Z</time>
      </trkpt>
      <trkpt lat="43.90918" lon="7.49373">
        <ele>786.00010022307</ele>
        <time>2012-02-21T10:40:54Z</time>
      </trkpt>
      <trkpt lat="43.90917" lon="7.49373">
        <ele>788.00018026333</ele>
        <time>2012-02-21T10:40:59Z</time>
      </trkpt>
      <trkpt lat="43.90917" lon="7.49374">
        <ele>786.00006382298</ele>
        <time>2012-02-21T10:41:04Z</time>
      </trkpt>
      <trkpt lat="43.90913" lon="7.49377">
        <ele>789.99990664996</ele>
        <time>2012-02-21T10:41:09Z</time>
      </trkpt>
      <trkpt lat="43.90909" lon="7.4938">
        <ele>787.0000363103</ele>
        <time>2012-02-21T10:41:14Z</time>
      </trkpt>
      <trkpt lat="43.90904" lon="7.49384">
        <ele>791.00003131734</ele>
        <time>2012-02-21T10:41:19Z</time>
      </trkpt>
      <trkpt lat="43.90898" lon="7.49387">
        <ele>786.00002176218</ele>
        <time>2012-02-21T10:41:24Z</time>
      </trkpt>
      <trkpt lat="43.90893" lon="7.4939">
        <ele>787.00000367848</ele>
        <time>2012-02-21T10:41:29Z</time>
      </trkpt>
      <trkpt lat="43.90887" lon="7.49393">
        <ele>787.00001373095</ele>
        <time>2012-02-21T10:41:34Z</time>
      </trkpt>
      <trkpt lat="43.90884" lon="7.49394">
        <ele>796.00026762112</ele>
        <time>2012-02-21T10:41:39Z</time>
      </trkpt>
      <trkpt lat="43.90882" lon="7.49395">
        <ele>789.9999238517</ele>
        <time>2012-02-21T10:41:44Z</time>
      </trkpt>
      <trkpt lat="43.90876" lon="7.49397">
        <ele>787.00002420329</ele>
        <time>2012-02-21T10:41:49Z</time>
      </trkpt>
      <trkpt lat="43.9087" lon="7.49398">
        <ele>783.00000627542</ele>
        <time>2012-02-21T10:41:54Z</time>
      </trkpt>
      <trkpt lat="43.90863" lon="7.49399">
        <ele>787.00001443797</ele>
        <time>2012-02-21T10:41:59Z</time>
      </trkpt>
      <trkpt lat="43.90857" lon="7.49398">
        <ele>789.00000896916</ele>
        <time>2012-02-21T10:42:04Z</time>
      </trkpt>
      <trkpt lat="43.90852" lon="7.49396">
        <ele>783.00001672779</ele>
        <time>2012-02-21T10:42:09Z</time>
      </trkpt>
      <trkpt lat="43.90846" lon="7.49393">
        <ele>780.00004280723</ele>
        <time>2012-02-21T10:42:14Z</time>
      </trkpt>
      <trkpt lat="43.90841" lon="7.49389">
        <ele>785.00006043976</ele>
        <time>2012-02-21T10:42:19Z</time>
      </trkpt>
      <trkpt lat="43.90835" lon="7.49383">
        <ele>779.00004858526</ele>
        <time>2012-02-21T10:42:24Z</time>
      </trkpt>
      <trkpt lat="43.90829" lon="7.4938">
        <ele>779.00004880403</ele>
        <time>2012-02-21T10:42:29Z</time>
      </trkpt>
      <trkpt lat="43.90824" lon="7.49379">
        <ele>786.00004276271</ele>
        <time>2012-02-21T10:42:34Z</time>
      </trkpt>
      <trkpt lat="43.90818" lon="7.49378">
        <ele>783.00001851517</ele>
        <time>2012-02-21T10:42:39Z</time>
      </trkpt>
      <trkpt lat="43.90812" lon="7.49379">
        <ele>780.00007626741</ele>
        <time>2012-02-21T10:42:44Z</time>
      </trkpt>
      <trkpt lat="43.90808" lon="7.49381">
        <ele>782.00009660418</ele>
        <time>2012-02-21T10:42:49Z</time>
      </trkpt>
      <trkpt lat="43.90803" lon="7.49384">
        <ele>781.00004504337</ele>
        <time>2012-02-21T10:42:54Z</time>
      </trkpt>
      <trkpt lat="43.90797" lon="7.49386">
        <ele>778.00003694163</ele>
        <time>2012-02-21T10:42:59Z</time>
      </trkpt>
      <trkpt lat="43.90792" lon="7.4939">
        <ele>788.00000819816</ele>
        <time>2012-02-21T10:43:04Z</time>
      </trkpt>
      <trkpt lat="43.90786" lon="7.49393">
        <ele>779.99998699671</ele>
        <time>2012-02-21T10:43:09Z</time>
      </trkpt>
      <trkpt lat="43.9078" lon="7.49396">
        <ele>778.00002309194</ele>
        <time>2012-02-21T10:43:14Z</time>
      </trkpt>
      <trkpt lat="43.90775" lon="7.494">
        <ele>783.00017970435</ele>
        <time>2012-02-21T10:43:19Z</time>
      </trkpt>
      <trkpt lat="43.90768" lon="7.49405">
        <ele>786.99984913864</ele>
        <time>2012-02-21T10:43:24Z</time>
      </trkpt>
      <trkpt lat="43.90761" lon="7.49411">
        <ele>787.99998270193</ele>
        <time>2012-02-21T10:43:29Z</time>
      </trkpt>
      <trkpt lat="43.90756" lon="7.49417">
        <ele>783.00004895329</ele>
        <time>2012-02-21T10:43:34Z</time>
      </trkpt>
      <trkpt lat="43.90753" lon="7.49421">
        <ele>777.0001120507</ele>
        <time>2012-02-21T10:43:39Z</time>
      </trkpt>
      <trkpt lat="43.90748" lon="7.49423">
        <ele>779.00002164036</ele>
        <time>2012-02-21T10:43:44Z</time>
      </trkpt>
      <trkpt lat="43.90742" lon="7.49421">
        <ele>779.00002570879</ele>
        <time>2012-02-21T10:43:49Z</time>
      </trkpt>
      <trkpt lat="43.90736" lon="7.49414">
        <ele>778.00006663319</ele>
        <time>2012-02-21T10:43:54Z</time>
      </trkpt>
      <trkpt lat="43.90733" lon="7.49405">
        <ele>775.00007545697</ele>
        <time>2012-02-21T10:43:59Z</time>
      </trkpt>
      <trkpt lat="43.90728" lon="7.49399">
        <ele>769.99996513503</ele>
        <time>2012-02-21T10:44:04Z</time>
      </trkpt>
      <trkpt lat="43.90722" lon="7.49395">
        <ele>770.00002467013</ele>
        <time>2012-02-21T10:44:09Z</time>
      </trkpt>
      <trkpt lat="43.90717" lon="7.49396">
        <ele>774.00011418895</ele>
        <time>2012-02-21T10:44:14Z</time>
      </trkpt>
      <trkpt lat="43.90711" lon="7.49398">
        <ele>773.00001902048</ele>
        <time>2012-02-21T10:44:19Z</time>
      </trkpt>
      <trkpt lat="43.90704" lon="7.49403">
        <ele>779.99993868337</ele>
        <time>2012-02-21T10:44:24Z</time>
      </trkpt>
      <trkpt lat="43.90699" lon="7.49407">
        <ele>769.00016786388</ele>
        <time>2012-02-21T10:44:29Z</time>
      </trkpt>
      <trkpt lat="43.90695" lon="7.49408">
        <ele>766.00011508796</ele>
        <time>2012-02-21T10:44:34Z</time>
      </trkpt>
      <trkpt lat="43.90689" lon="7.4941">
        <ele>768.00011712006</ele>
        <time>2012-02-21T10:44:39Z</time>
      </trkpt>
      <trkpt lat="43.90683" lon="7.49407">
        <ele>763.00005119973</ele>
        <time>2012-02-21T10:44:44Z</time>
      </trkpt>
      <trkpt lat="43.90678" lon="7.49402">
        <ele>769.00007801415</ele>
        <time>2012-02-21T10:44:49Z</time>
      </trkpt>
      <trkpt lat="43.90673" lon="7.49398">
        <ele>767.00010953508</ele>
        <time>2012-02-21T10:44:54Z</time>
      </trkpt>
      <trkpt lat="43.90669" lon="7.49394">
        <ele>759.00009305652</ele>
        <time>2012-02-21T10:44:59Z</time>
      </trkpt>
      <trkpt lat="43.90664" lon="7.49388">
        <ele>756.99997978018</ele>
        <time>2012-02-21T10:45:04Z</time>
      </trkpt>
      <trkpt lat="43.9066" lon="7.49384">
        <ele>756.00014000772</ele>
        <time>2012-02-21T10:45:09Z</time>
      </trkpt>
      <trkpt lat="43.90655" lon="7.49381">
        <ele>765.99995741354</ele>
        <time>2012-02-21T10:45:14Z</time>
      </trkpt>
      <trkpt lat="43.9065" lon="7.49378">
        <ele>770.00002394003</ele>
        <time>2012-02-21T10:45:19Z</time>
      </trkpt>
      <trkpt lat="43.90646" lon="7.49382">
        <ele>765.99998141489</ele>
        <time>2012-02-21T10:45:24Z</time>
      </trkpt>
      <trkpt lat="43.9064" lon="7.49389">
        <ele>773.99978624015</ele>
        <time>2012-02-21T10:45:29Z</time>
      </trkpt>
      <trkpt lat="43.90635" lon="7.49395">
        <ele>775.99995599221</ele>
        <time>2012-02-21T10:45:34Z</time>
      </trkpt>
      <trkpt lat="43.90633" lon="7.49403">
        <ele>772.00012166054</ele>
        <time>2012-02-21T10:45:39Z</time>
      </trkpt>
      <trkpt lat="43.90633" lon="7.4941">
        <ele>770.00007150829</ele>
        <time>2012-02-21T10:45:44Z</time>
      </trkpt>
      <trkpt lat="43.90632" lon="7.49418">
        <ele>771.99992854366</ele>
        <time>2012-02-21T10:45:49Z</time>
      </trkpt>
      <trkpt lat="43.90631" lon="7.49427">
        <ele>772.99995011047</ele>
        <time>2012-02-21T10:45:54Z</time>
      </trkpt>
      <trkpt lat="43.90629" lon="7.49434">
        <ele>772.00000762864</ele>
        <time>2012-02-21T10:45:59Z</time>
      </trkpt>
      <trkpt lat="43.90628" lon="7.49441">
        <ele>766.00008435566</ele>
        <time>2012-02-21T10:46:04Z</time>
      </trkpt>
      <trkpt lat="43.90626" lon="7.49447">
        <ele>768.99997985461</ele>
        <time>2012-02-21T10:46:09Z</time>
      </trkpt>
      <trkpt lat="43.90623" lon="7.49454">
        <ele>770.00004335754</ele>
        <time>2012-02-21T10:46:14Z</time>
      </trkpt>
      <trkpt lat="43.90622" lon="7.49461">
        <ele>772.99999625998</ele>
        <time>2012-02-21T10:46:19Z</time>
      </trkpt>
      <trkpt lat="43.9062" lon="7.49468">
        <ele>772.00007088798</ele>
        <time>2012-02-21T10:46:24Z</time>
      </trkpt>
      <trkpt lat="43.90618" lon="7.49475">
        <ele>774.00007607504</ele>
        <time>2012-02-21T10:46:29Z</time>
      </trkpt>
      <trkpt lat="43.90617" lon="7.49481">
        <ele>771.00011142322</ele>
        <time>2012-02-21T10:46:34Z</time>
      </trkpt>
      <trkpt lat="43.90616" lon="7.49488">
        <ele>764.00002439377</ele>
        <time>2012-02-21T10:46:39Z</time>
      </trkpt>
      <trkpt lat="43.90614" lon="7.49495">
        <ele>768.00012681049</ele>
        <time>2012-02-21T10:46:44Z</time>
      </trkpt>
      <trkpt lat="43.90614" lon="7.49502">
        <ele>772.00006968484</ele>
        <time>2012-02-21T10:46:49Z</time>
      </trkpt>
      <trkpt lat="43.90613" lon="7.4951">
        <ele>767.99995475736</ele>
        <time>2012-02-21T10:46:54Z</time>
      </trkpt>
      <trkpt lat="43.90613" lon="7.49517">
        <ele>768.99998550567</ele>
        <time>2012-02-21T10:46:59Z</time>
      </trkpt>
      <trkpt lat="43.9061" lon="7.49524">
        <ele>770.99995885638</ele>
        <time>2012-02-21T10:47:04Z</time>
      </trkpt>
      <trkpt lat="43.9061" lon="7.49532">
        <ele>765.99997046153</ele>
        <time>2012-02-21T10:47:09Z</time>
      </trkpt>
      <trkpt lat="43.90608" lon="7.49539">
        <ele>766.00011398753</ele>
        <time>2012-02-21T10:47:14Z</time>
      </trkpt>
      <trkpt lat="43.90608" lon="7.49547">
        <ele>772.00005622465</ele>
        <time>2012-02-21T10:47:19Z</time>
      </trkpt>
      <trkpt lat="43.90607" lon="7.49552">
        <ele>765.0000930069</ele>
        <time>2012-02-21T10:47:24Z</time>
      </trkpt>
      <trkpt lat="43.90606" lon="7.49557">
        <ele>766.00005690889</ele>
        <time>2012-02-21T10:47:29Z</time>
      </trkpt>
      <trkpt lat="43.90606" lon="7.49563">
        <ele>765.00003402366</ele>
        <time>2012-02-21T10:47:34Z</time>
      </trkpt>
      <trkpt lat="43.90605" lon="7.49571">
        <ele>765.00005399499</ele>
        <time>2012-02-21T10:47:39Z</time>
      </trkpt>
      <trkpt lat="43.90605" lon="7.49578">
        <ele>760.00011680591</ele>
        <time>2012-02-21T10:47:44Z</time>
      </trkpt>
      <trkpt lat="43.90605" lon="7.49584">
        <ele>760.00016549109</ele>
        <time>2012-02-21T10:47:49Z</time>
      </trkpt>
      <trkpt lat="43.90604" lon="7.49592">
        <ele>757.00013537833</ele>
        <time>2012-02-21T10:47:54Z</time>
      </trkpt>
      <trkpt lat="43.90602" lon="7.49599">
        <ele>763.00007589292</ele>
        <time>2012-02-21T10:47:59Z</time>
      </trkpt>
      <trkpt lat="43.906" lon="7.49605">
        <ele>762.00015133479</ele>
        <time>2012-02-21T10:48:04Z</time>
      </trkpt>
      <trkpt lat="43.90597" lon="7.4961">
        <ele>761.00011767237</ele>
        <time>2012-02-21T10:48:09Z</time>
      </trkpt>
      <trkpt lat="43.90594" lon="7.49617">
        <ele>761.00005089721</ele>
        <time>2012-02-21T10:48:14Z</time>
      </trkpt>
      <trkpt lat="43.90591" lon="7.49622">
        <ele>762.00011570616</ele>
        <time>2012-02-21T10:48:19Z</time>
      </trkpt>
      <trkpt lat="43.90589" lon="7.49628">
        <ele>759.00011372109</ele>
        <time>2012-02-21T10:48:24Z</time>
      </trkpt>
      <trkpt lat="43.90586" lon="7.49633">
        <ele>760.0000682508</ele>
        <time>2012-02-21T10:48:29Z</time>
      </trkpt>
      <trkpt lat="43.90583" lon="7.49639">
        <ele>763.00007319445</ele>
        <time>2012-02-21T10:48:34Z</time>
      </trkpt>
      <trkpt lat="43.90579" lon="7.49645">
        <ele>761.00001178322</ele>
        <time>2012-02-21T10:48:39Z</time>
      </trkpt>
      <trkpt lat="43.90574" lon="7.49649">
        <ele>761.00002949315</ele>
        <time>2012-02-21T10:48:44Z</time>
      </trkpt>
      <trkpt lat="43.90571" lon="7.49653">
        <ele>764.00018307268</ele>
        <time>2012-02-21T10:48:49Z</time>
      </trkpt>
      <trkpt lat="43.90566" lon="7.49655">
        <ele>759.00006920149</ele>
        <time>2012-02-21T10:48:54Z</time>
      </trkpt>
      <trkpt lat="43.90561" lon="7.49655">
        <ele>762.00009823322</ele>
        <time>2012-02-21T10:48:59Z</time>
      </trkpt>
      <trkpt lat="43.90556" lon="7.49655">
        <ele>759.00006376469</ele>
        <time>2012-02-21T10:49:04Z</time>
      </trkpt>
      <trkpt lat="43.90551" lon="7.49654">
        <ele>756.00002477949</ele>
        <time>2012-02-21T10:49:09Z</time>
      </trkpt>
      <trkpt lat="43.90546" lon="7.49654">
        <ele>754.00015833607</ele>
        <time>2012-02-21T10:49:14Z</time>
      </trkpt>
      <trkpt lat="43.90541" lon="7.49658">
        <ele>753.00006501944</ele>
        <time>2012-02-21T10:49:19Z</time>
      </trkpt>
      <trkpt lat="43.90536" lon="7.49663">
        <ele>756.00003181455</ele>
        <time>2012-02-21T10:49:24Z</time>
      </trkpt>
      <trkpt lat="43.90531" lon="7.49669">
        <ele>755.00001599432</ele>
        <time>2012-02-21T10:49:29Z</time>
      </trkpt>
      <trkpt lat="43.90527" lon="7.49672">
        <ele>752.00023071807</ele>
        <time>2012-02-21T10:49:34Z</time>
      </trkpt>
      <trkpt lat="43.90523" lon="7.49676">
        <ele>757.00013463711</ele>
        <time>2012-02-21T10:49:39Z</time>
      </trkpt>
      <trkpt lat="43.90517" lon="7.49682">
        <ele>755.99987480403</ele>
        <time>2012-02-21T10:49:44Z</time>
      </trkpt>
      <trkpt lat="43.90513" lon="7.49687">
        <ele>757.0001385038</ele>
        <time>2012-02-21T10:49:49Z</time>
      </trkpt>
      <trkpt lat="43.9051" lon="7.49691">
        <ele>753.00009004129</ele>
        <time>2012-02-21T10:49:54Z</time>
      </trkpt>
      <trkpt lat="43.90506" lon="7.49695">
        <ele>748.00018804591</ele>
        <time>2012-02-21T10:49:59Z</time>
      </trkpt>
      <trkpt lat="43.90502" lon="7.49697">
        <ele>751.00012948939</ele>
        <time>2012-02-21T10:50:04Z</time>
      </trkpt>
      <trkpt lat="43.90498" lon="7.49701">
        <ele>750.00011644831</ele>
        <time>2012-02-21T10:50:09Z</time>
      </trkpt>
      <trkpt lat="43.90494" lon="7.49705">
        <ele>748.00015721325</ele>
        <time>2012-02-21T10:50:14Z</time>
      </trkpt>
      <trkpt lat="43.9049" lon="7.49709">
        <ele>746.00011199318</ele>
        <time>2012-02-21T10:50:19Z</time>
      </trkpt>
      <trkpt lat="43.90486" lon="7.49712">
        <ele>747.00003979085</ele>
        <time>2012-02-21T10:50:24Z</time>
      </trkpt>
      <trkpt lat="43.90482" lon="7.49718">
        <ele>753.00006791518</ele>
        <time>2012-02-21T10:50:29Z</time>
      </trkpt>
      <trkpt lat="43.9048" lon="7.49724">
        <ele>751.00006894175</ele>
        <time>2012-02-21T10:50:34Z</time>
      </trkpt>
      <trkpt lat="43.90477" lon="7.49729">
        <ele>753.00007690762</ele>
        <time>2012-02-21T10:50:39Z</time>
      </trkpt>
      <trkpt lat="43.90474" lon="7.49735">
        <ele>755.00002222144</ele>
        <time>2012-02-21T10:50:44Z</time>
      </trkpt>
      <trkpt lat="43.90473" lon="7.49742">
        <ele>754.99998358992</ele>
        <time>2012-02-21T10:50:49Z</time>
      </trkpt>
      <trkpt lat="43.90473" lon="7.4975">
        <ele>751.00002205023</ele>
        <time>2012-02-21T10:50:54Z</time>
      </trkpt>
      <trkpt lat="43.90474" lon="7.49758">
        <ele>750.00012572844</ele>
        <time>2012-02-21T10:50:59Z</time>
      </trkpt>
      <trkpt lat="43.90475" lon="7.49764">
        <ele>750.00011105688</ele>
        <time>2012-02-21T10:51:04Z</time>
      </trkpt>
      <trkpt lat="43.90477" lon="7.49771">
        <ele>747.00005607949</ele>
        <time>2012-02-21T10:51:09Z</time>
      </trkpt>
      <trkpt lat="43.90476" lon="7.49777">
        <ele>745.00010108736</ele>
        <time>2012-02-21T10:51:14Z</time>
      </trkpt>
      <trkpt lat="43.90476" lon="7.49783">
        <ele>750.00007958821</ele>
        <time>2012-02-21T10:51:19Z</time>
      </trkpt>
      <trkpt lat="43.90475" lon="7.4979">
        <ele>745.00008663567</ele>
        <time>2012-02-21T10:51:24Z</time>
      </trkpt>
      <trkpt lat="43.90471" lon="7.49796">
        <ele>742.00015428812</ele>
        <time>2012-02-21T10:51:29Z</time>
      </trkpt>
      <trkpt lat="43.9047" lon="7.498">
        <ele>745.00015239942</ele>
        <time>2012-02-21T10:51:34Z</time>
      </trkpt>
      <trkpt lat="43.90469" lon="7.49801">
        <ele>746.00035578223</ele>
        <time>2012-02-21T10:51:39Z</time>
      </trkpt>
      <trkpt lat="43.90468" lon="7.49799">
        <ele>744.9999616833</ele>
        <time>2012-02-21T10:51:49Z</time>
      </trkpt>
      <trkpt lat="43.90465" lon="7.49804">
        <ele>743.00011730452</ele>
        <time>2012-02-21T10:51:54Z</time>
      </trkpt>
      <trkpt lat="43.90464" lon="7.49811">
        <ele>741.00016615981</ele>
        <time>2012-02-21T10:51:59Z</time>
      </trkpt>
      <trkpt lat="43.90461" lon="7.49815">
        <ele>741.00012246107</ele>
        <time>2012-02-21T10:52:04Z</time>
      </trkpt>
      <trkpt lat="43.90458" lon="7.49819">
        <ele>745.0000821142</ele>
        <time>2012-02-21T10:52:09Z</time>
      </trkpt>
      <trkpt lat="43.90457" lon="7.49823">
        <ele>739.00035071294</ele>
        <time>2012-02-21T10:52:14Z</time>
      </trkpt>
      <trkpt lat="43.90455" lon="7.49828">
        <ele>736.00019837711</ele>
        <time>2012-02-21T10:52:19Z</time>
      </trkpt>
      <trkpt lat="43.90451" lon="7.49833">
        <ele>737.000070807</ele>
        <time>2012-02-21T10:52:24Z</time>
      </trkpt>
      <trkpt lat="43.90449" lon="7.49839">
        <ele>738.00016119421</ele>
        <time>2012-02-21T10:52:29Z</time>
      </trkpt>
      <trkpt lat="43.90449" lon="7.49845">
        <ele>734.00023029166</ele>
        <time>2012-02-21T10:52:34Z</time>
      </trkpt>
      <trkpt lat="43.90448" lon="7.49849">
        <ele>737.00022270632</ele>
        <time>2012-02-21T10:52:39Z</time>
      </trkpt>
      <trkpt lat="43.90447" lon="7.49853">
        <ele>736.00013284589</ele>
        <time>2012-02-21T10:52:44Z</time>
      </trkpt>
      <trkpt lat="43.90446" lon="7.49856">
        <ele>741.00022340744</ele>
        <time>2012-02-21T10:52:49Z</time>
      </trkpt>
      <trkpt lat="43.90444" lon="7.49857">
        <ele>737.99993624824</ele>
        <time>2012-02-21T10:52:54Z</time>
      </trkpt>
      <trkpt lat="43.90442" lon="7.49863">
        <ele>737.00004772079</ele>
        <time>2012-02-21T10:52:59Z</time>
      </trkpt>
      <trkpt lat="43.90441" lon="7.49868">
        <ele>736.00021796307</ele>
        <time>2012-02-21T10:53:04Z</time>
      </trkpt>
      <trkpt lat="43.90442" lon="7.49869">
        <ele>737.99995471576</ele>
        <time>2012-02-21T10:53:09Z</time>
      </trkpt>
      <trkpt lat="43.90443" lon="7.49868">
        <ele>738.99987791935</ele>
        <time>2012-02-21T10:53:14Z</time>
      </trkpt>
      <trkpt lat="43.90443" lon="7.49868">
        <ele>731.99974962906</ele>
        <time>2012-02-21T10:53:34Z</time>
      </trkpt>
      <trkpt lat="43.90442" lon="7.49869">
        <ele>735.99990103381</ele>
        <time>2012-02-21T10:53:44Z</time>
      </trkpt>
      <trkpt lat="43.9044" lon="7.49873">
        <ele>735.00015346447</ele>
        <time>2012-02-21T10:53:49Z</time>
      </trkpt>
      <trkpt lat="43.9044" lon="7.49878">
        <ele>734.00024264896</ele>
        <time>2012-02-21T10:53:54Z</time>
      </trkpt>
      <trkpt lat="43.90439" lon="7.49884">
        <ele>732.00017042727</ele>
        <time>2012-02-21T10:53:59Z</time>
      </trkpt>
      <trkpt lat="43.90442" lon="7.4989">
        <ele>731.99997924353</ele>
        <time>2012-02-21T10:54:04Z</time>
      </trkpt>
      <trkpt lat="43.90442" lon="7.49893">
        <ele>727.99999054389</ele>
        <time>2012-02-21T10:54:09Z</time>
      </trkpt>
      <trkpt lat="43.90443" lon="7.49892">
        <ele>728.99989283105</ele>
        <time>2012-02-21T10:54:14Z</time>
      </trkpt>
      <trkpt lat="43.90443" lon="7.49892">
        <ele>739.99984993439</ele>
        <time>2012-02-21T10:54:39Z</time>
      </trkpt>
      <trkpt lat="43.90441" lon="7.49891">
        <ele>740.99978342143</ele>
        <time>2012-02-21T10:54:44Z</time>
      </trkpt>
      <trkpt lat="43.90437" lon="7.4989">
        <ele>730.99979869257</ele>
        <time>2012-02-21T10:55:34Z</time>
      </trkpt>
      <trkpt lat="43.90433" lon="7.49889">
        <ele>736.00032905358</ele>
        <time>2012-02-21T10:55:39Z</time>
      </trkpt>
      <trkpt lat="43.90433" lon="7.4989">
        <ele>736.00016406068</ele>
        <time>2012-02-21T10:55:44Z</time>
      </trkpt>
      <trkpt lat="43.90431" lon="7.49892">
        <ele>735.00047835033</ele>
        <time>2012-02-21T10:55:49Z</time>
      </trkpt>
      <trkpt lat="43.90431" lon="7.49893">
        <ele>733.99995904322</ele>
        <time>2012-02-21T10:55:54Z</time>
      </trkpt>
      <trkpt lat="43.90425" lon="7.49899">
        <ele>734.99999536203</ele>
        <time>2012-02-21T10:55:59Z</time>
      </trkpt>
      <trkpt lat="43.9042" lon="7.49904">
        <ele>734.00058774917</ele>
        <time>2012-02-21T10:56:04Z</time>
      </trkpt>
      <trkpt lat="43.90417" lon="7.49906">
        <ele>731.0002450498</ele>
        <time>2012-02-21T10:56:09Z</time>
      </trkpt>
      <trkpt lat="43.90413" lon="7.4991">
        <ele>732.00017438079</ele>
        <time>2012-02-21T10:56:14Z</time>
      </trkpt>
      <trkpt lat="43.90409" lon="7.49914">
        <ele>727.00014240102</ele>
        <time>2012-02-21T10:56:19Z</time>
      </trkpt>
      <trkpt lat="43.90408" lon="7.49919">
        <ele>729.00048259804</ele>
        <time>2012-02-21T10:56:24Z</time>
      </trkpt>
      <trkpt lat="43.90406" lon="7.49923">
        <ele>730.00026356407</ele>
        <time>2012-02-21T10:56:29Z</time>
      </trkpt>
      <trkpt lat="43.90404" lon="7.49929">
        <ele>731.00016148595</ele>
        <time>2012-02-21T10:56:34Z</time>
      </trkpt>
      <trkpt lat="43.90402" lon="7.49933">
        <ele>725.00030357987</ele>
        <time>2012-02-21T10:56:39Z</time>
      </trkpt>
      <trkpt lat="43.90401" lon="7.49937">
        <ele>727.00014199613</ele>
        <time>2012-02-21T10:56:44Z</time>
      </trkpt>
      <trkpt lat="43.90398" lon="7.49942">
        <ele>724.00024945651</ele>
        <time>2012-02-21T10:56:49Z</time>
      </trkpt>
      <trkpt lat="43.90396" lon="7.49946">
        <ele>728.00021862572</ele>
        <time>2012-02-21T10:56:54Z</time>
      </trkpt>
      <trkpt lat="43.90394" lon="7.49951">
        <ele>725.00007904141</ele>
        <time>2012-02-21T10:56:59Z</time>
      </trkpt>
      <trkpt lat="43.90391" lon="7.49957">
        <ele>724.00007670876</ele>
        <time>2012-02-21T10:57:04Z</time>
      </trkpt>
      <trkpt lat="43.90389" lon="7.49962">
        <ele>721.00006721478</ele>
        <time>2012-02-21T10:57:09Z</time>
      </trkpt>
      <trkpt lat="43.90386" lon="7.49967">
        <ele>721.00014379706</ele>
        <time>2012-02-21T10:57:14Z</time>
      </trkpt>
      <trkpt lat="43.90384" lon="7.49972">
        <ele>728.00013290125</ele>
        <time>2012-02-21T10:57:19Z</time>
      </trkpt>
      <trkpt lat="43.9038" lon="7.49977">
        <ele>725.00016846148</ele>
        <time>2012-02-21T10:57:24Z</time>
      </trkpt>
      <trkpt lat="43.90377" lon="7.49981">
        <ele>725.00011799092</ele>
        <time>2012-02-21T10:57:29Z</time>
      </trkpt>
      <trkpt lat="43.90376" lon="7.49987">
        <ele>726.00031201027</ele>
        <time>2012-02-21T10:57:34Z</time>
      </trkpt>
      <trkpt lat="43.90374" lon="7.49992">
        <ele>727.00008749842</ele>
        <time>2012-02-21T10:57:39Z</time>
      </trkpt>
      <trkpt lat="43.90371" lon="7.49998">
        <ele>719.00016961895</ele>
        <time>2012-02-21T10:57:44Z</time>
      </trkpt>
      <trkpt lat="43.9037" lon="7.50003">
        <ele>719.00020923191</ele>
        <time>2012-02-21T10:57:49Z</time>
      </trkpt>
      <trkpt lat="43.90369" lon="7.50011">
        <ele>717.00001209022</ele>
        <time>2012-02-21T10:57:54Z</time>
      </trkpt>
      <trkpt lat="43.90368" lon="7.50021">
        <ele>715.99988826718</ele>
        <time>2012-02-21T10:57:59Z</time>
      </trkpt>
      <trkpt lat="43.90365" lon="7.50027">
        <ele>722.00013133126</ele>
        <time>2012-02-21T10:58:04Z</time>
      </trkpt>
      <trkpt lat="43.90363" lon="7.50033">
        <ele>720.00038623836</ele>
        <time>2012-02-21T10:58:09Z</time>
      </trkpt>
      <trkpt lat="43.9036" lon="7.50037">
        <ele>721.0001728805</ele>
        <time>2012-02-21T10:58:14Z</time>
      </trkpt>
      <trkpt lat="43.90358" lon="7.50044">
        <ele>722.00005455363</ele>
        <time>2012-02-21T10:58:19Z</time>
      </trkpt>
      <trkpt lat="43.90355" lon="7.50051">
        <ele>721.00010292203</ele>
        <time>2012-02-21T10:58:24Z</time>
      </trkpt>
      <trkpt lat="43.90351" lon="7.50057">
        <ele>722.0000562066</ele>
        <time>2012-02-21T10:58:29Z</time>
      </trkpt>
      <trkpt lat="43.90347" lon="7.50062">
        <ele>722.000083663</ele>
        <time>2012-02-21T10:58:34Z</time>
      </trkpt>
      <trkpt lat="43.90343" lon="7.50067">
        <ele>722.9999905994</ele>
        <time>2012-02-21T10:58:39Z</time>
      </trkpt>
      <trkpt lat="43.90343" lon="7.50073">
        <ele>715.00042355378</ele>
        <time>2012-02-21T10:58:44Z</time>
      </trkpt>
      <trkpt lat="43.90343" lon="7.50077">
        <ele>715.00043578092</ele>
        <time>2012-02-21T10:58:49Z</time>
      </trkpt>
      <trkpt lat="43.90341" lon="7.50081">
        <ele>713.00019059876</ele>
        <time>2012-02-21T10:58:54Z</time>
      </trkpt>
      <trkpt lat="43.90337" lon="7.50085">
        <ele>715.00019146559</ele>
        <time>2012-02-21T10:58:59Z</time>
      </trkpt>
      <trkpt lat="43.90333" lon="7.5009">
        <ele>713.00018197612</ele>
        <time>2012-02-21T10:59:04Z</time>
      </trkpt>
      <trkpt lat="43.9033" lon="7.50093">
        <ele>717.00029484608</ele>
        <time>2012-02-21T10:59:09Z</time>
      </trkpt>
      <trkpt lat="43.90329" lon="7.50098">
        <ele>713.00062324354</ele>
        <time>2012-02-21T10:59:14Z</time>
      </trkpt>
      <trkpt lat="43.90329" lon="7.50101">
        <ele>710.00033639937</ele>
        <time>2012-02-21T10:59:19Z</time>
      </trkpt>
      <trkpt lat="43.90329" lon="7.50106">
        <ele>708.00007578205</ele>
        <time>2012-02-21T10:59:24Z</time>
      </trkpt>
      <trkpt lat="43.9033" lon="7.50113">
        <ele>708.99994008363</ele>
        <time>2012-02-21T10:59:29Z</time>
      </trkpt>
      <trkpt lat="43.90331" lon="7.5012">
        <ele>712.9999914986</ele>
        <time>2012-02-21T10:59:34Z</time>
      </trkpt>
      <trkpt lat="43.90333" lon="7.50123">
        <ele>710.99988237784</ele>
        <time>2012-02-21T10:59:39Z</time>
      </trkpt>
      <trkpt lat="43.90334" lon="7.50126">
        <ele>708.00020776471</ele>
        <time>2012-02-21T10:59:44Z</time>
      </trkpt>
      <trkpt lat="43.90334" lon="7.50128">
        <ele>708.00002505928</ele>
        <time>2012-02-21T10:59:49Z</time>
      </trkpt>
      <trkpt lat="43.90336" lon="7.50134">
        <ele>705.00003421754</ele>
        <time>2012-02-21T10:59:54Z</time>
      </trkpt>
      <trkpt lat="43.9034" lon="7.50141">
        <ele>709.00005918143</ele>
        <time>2012-02-21T10:59:59Z</time>
      </trkpt>
      <trkpt lat="43.90342" lon="7.50148">
        <ele>705.00017337021</ele>
        <time>2012-02-21T11:00:04Z</time>
      </trkpt>
      <trkpt lat="43.90341" lon="7.50151">
        <ele>700.00046765384</ele>
        <time>2012-02-21T11:00:09Z</time>
      </trkpt>
      <trkpt lat="43.90341" lon="7.5015">
        <ele>701.00036038575</ele>
        <time>2012-02-21T11:00:19Z</time>
      </trkpt>
      <trkpt lat="43.90341" lon="7.50149">
        <ele>705.00024867425</ele>
        <time>2012-02-21T11:01:19Z</time>
      </trkpt>
      <trkpt lat="43.90341" lon="7.5015">
        <ele>701.00039661634</ele>
        <time>2012-02-21T11:01:39Z</time>
      </trkpt>
      <trkpt lat="43.90341" lon="7.50148">
        <ele>702.00025043342</ele>
        <time>2012-02-21T11:01:44Z</time>
      </trkpt>
      <trkpt lat="43.90341" lon="7.50147">
        <ele>703.0000731503</ele>
        <time>2012-02-21T11:01:49Z</time>
      </trkpt>
      <trkpt lat="43.90342" lon="7.50153">
        <ele>702.00013891883</ele>
        <time>2012-02-21T11:01:54Z</time>
      </trkpt>
      <trkpt lat="43.90343" lon="7.50158">
        <ele>700.00006662101</ele>
        <time>2012-02-21T11:01:59Z</time>
      </trkpt>
      <trkpt lat="43.90345" lon="7.50164">
        <ele>699.00005333545</ele>
        <time>2012-02-21T11:02:04Z</time>
      </trkpt>
      <trkpt lat="43.90348" lon="7.50168">
        <ele>702.00009072106</ele>
        <time>2012-02-21T11:02:09Z</time>
      </trkpt>
      <trkpt lat="43.90349" lon="7.50173">
        <ele>702.00017698101</ele>
        <time>2012-02-21T11:02:14Z</time>
      </trkpt>
      <trkpt lat="43.9035" lon="7.5018">
        <ele>705.00005024166</ele>
        <time>2012-02-21T11:02:19Z</time>
      </trkpt>
      <trkpt lat="43.90349" lon="7.50187">
        <ele>699.00013712447</ele>
        <time>2012-02-21T11:02:24Z</time>
      </trkpt>
      <trkpt lat="43.90349" lon="7.50195">
        <ele>706.00000984911</ele>
        <time>2012-02-21T11:02:29Z</time>
      </trkpt>
      <trkpt lat="43.90349" lon="7.50204">
        <ele>697.9999887632</ele>
        <time>2012-02-21T11:02:34Z</time>
      </trkpt>
      <trkpt lat="43.90349" lon="7.50212">
        <ele>696.00022500376</ele>
        <time>2012-02-21T11:02:39Z</time>
      </trkpt>
      <trkpt lat="43.90349" lon="7.50218">
        <ele>699.00017304468</ele>
        <time>2012-02-21T11:02:44Z</time>
      </trkpt>
      <trkpt lat="43.90349" lon="7.50224">
        <ele>703.00009279196</ele>
        <time>2012-02-21T11:02:49Z</time>
      </trkpt>
      <trkpt lat="43.90349" lon="7.5023">
        <ele>705.99999431171</ele>
        <time>2012-02-21T11:02:54Z</time>
      </trkpt>
      <trkpt lat="43.9035" lon="7.50236">
        <ele>704.00002727095</ele>
        <time>2012-02-21T11:02:59Z</time>
      </trkpt>
      <trkpt lat="43.90351" lon="7.50238">
        <ele>696.9999682444</ele>
        <time>2012-02-21T11:03:04Z</time>
      </trkpt>
      <trkpt lat="43.90351" lon="7.50246">
        <ele>695.00007511854</ele>
        <time>2012-02-21T11:03:09Z</time>
      </trkpt>
      <trkpt lat="43.90352" lon="7.50255">
        <ele>703.99993574186</ele>
        <time>2012-02-21T11:03:14Z</time>
      </trkpt>
      <trkpt lat="43.90351" lon="7.50262">
        <ele>706.00005230414</ele>
        <time>2012-02-21T11:03:19Z</time>
      </trkpt>
      <trkpt lat="43.90349" lon="7.50268">
        <ele>696.00014196546</ele>
        <time>2012-02-21T11:03:24Z</time>
      </trkpt>
      <trkpt lat="43.90349" lon="7.50275">
        <ele>695.0001269847</ele>
        <time>2012-02-21T11:03:29Z</time>
      </trkpt>
      <trkpt lat="43.90348" lon="7.50281">
        <ele>694.00023782799</ele>
        <time>2012-02-21T11:03:34Z</time>
      </trkpt>
      <trkpt lat="43.90347" lon="7.50287">
        <ele>691.00017585958</ele>
        <time>2012-02-21T11:03:39Z</time>
      </trkpt>
      <trkpt lat="43.90345" lon="7.50293">
        <ele>692.00011364588</ele>
        <time>2012-02-21T11:03:44Z</time>
      </trkpt>
      <trkpt lat="43.90343" lon="7.50299">
        <ele>696.00012549016</ele>
        <time>2012-02-21T11:03:49Z</time>
      </trkpt>
      <trkpt lat="43.90338" lon="7.50302">
        <ele>699.00010390736</ele>
        <time>2012-02-21T11:03:54Z</time>
      </trkpt>
      <trkpt lat="43.90333" lon="7.50304">
        <ele>694.00009612512</ele>
        <time>2012-02-21T11:03:59Z</time>
      </trkpt>
      <trkpt lat="43.90331" lon="7.50302">
        <ele>693.99996311813</ele>
        <time>2012-02-21T11:04:04Z</time>
      </trkpt>
      <trkpt lat="43.90331" lon="7.50303">
        <ele>684.99981461128</ele>
        <time>2012-02-21T11:04:09Z</time>
      </trkpt>
      <trkpt lat="43.90331" lon="7.50303">
        <ele>687.99984347501</ele>
        <time>2012-02-21T11:04:24Z</time>
      </trkpt>
      <trkpt lat="43.90331" lon="7.50303">
        <ele>713.99999346212</ele>
        <time>2012-02-21T11:04:34Z</time>
      </trkpt>
      <trkpt lat="43.90331" lon="7.50303">
        <ele>671.0001670914</ele>
        <time>2012-02-21T11:04:44Z</time>
      </trkpt>
      <trkpt lat="43.90331" lon="7.50303">
        <ele>689.00035588697</ele>
        <time>2012-02-21T11:04:54Z</time>
      </trkpt>
      <trkpt lat="43.90331" lon="7.50303">
        <ele>678.00036721677</ele>
        <time>2012-02-21T11:05:04Z</time>
      </trkpt>
      <trkpt lat="43.90331" lon="7.50302">
        <ele>691.00018226858</ele>
        <time>2012-02-21T11:07:09Z</time>
      </trkpt>
      <trkpt lat="43.90327" lon="7.50299">
        <ele>691.00008118057</ele>
        <time>2012-02-21T11:07:14Z</time>
      </trkpt>
      <trkpt lat="43.90322" lon="7.50299">
        <ele>695.00012962924</ele>
        <time>2012-02-21T11:07:19Z</time>
      </trkpt>
      <trkpt lat="43.90315" lon="7.50298">
        <ele>692.99975560361</ele>
        <time>2012-02-21T11:07:24Z</time>
      </trkpt>
      <trkpt lat="43.90309" lon="7.50297">
        <ele>698.00034363255</ele>
        <time>2012-02-21T11:07:29Z</time>
      </trkpt>
      <trkpt lat="43.90305" lon="7.50295">
        <ele>703.00024270445</ele>
        <time>2012-02-21T11:07:34Z</time>
      </trkpt>
      <trkpt lat="43.90299" lon="7.50294">
        <ele>700.99999295436</ele>
        <time>2012-02-21T11:07:39Z</time>
      </trkpt>
      <trkpt lat="43.90293" lon="7.50292">
        <ele>698.00012503774</ele>
        <time>2012-02-21T11:07:44Z</time>
      </trkpt>
      <trkpt lat="43.90288" lon="7.5029">
        <ele>695.00031735699</ele>
        <time>2012-02-21T11:07:49Z</time>
      </trkpt>
      <trkpt lat="43.90283" lon="7.50288">
        <ele>692.00015502439</ele>
        <time>2012-02-21T11:07:54Z</time>
      </trkpt>
      <trkpt lat="43.90282" lon="7.50289">
        <ele>701.00023166303</ele>
        <time>2012-02-21T11:07:59Z</time>
      </trkpt>
      <trkpt lat="43.90282" lon="7.50291">
        <ele>700.0000497832</ele>
        <time>2012-02-21T11:08:04Z</time>
      </trkpt>
      <trkpt lat="43.9028" lon="7.5029">
        <ele>684.00003264676</ele>
        <time>2012-02-21T11:08:09Z</time>
      </trkpt>
      <trkpt lat="43.90274" lon="7.50289">
        <ele>681.99991490216</ele>
        <time>2012-02-21T11:08:14Z</time>
      </trkpt>
      <trkpt lat="43.90268" lon="7.50287">
        <ele>679.00004798384</ele>
        <time>2012-02-21T11:08:19Z</time>
      </trkpt>
      <trkpt lat="43.90263" lon="7.50283">
        <ele>682.00037133763</ele>
        <time>2012-02-21T11:08:24Z</time>
      </trkpt>
      <trkpt lat="43.90264" lon="7.50281">
        <ele>679.99986641708</ele>
        <time>2012-02-21T11:08:29Z</time>
      </trkpt>
      <trkpt lat="43.90264" lon="7.50281">
        <ele>680.99972279127</ele>
        <time>2012-02-21T11:08:44Z</time>
      </trkpt>
      <trkpt lat="43.90263" lon="7.50281">
        <ele>681.00008512651</ele>
        <time>2012-02-21T11:09:04Z</time>
      </trkpt>
      <trkpt lat="43.9026" lon="7.50276">
        <ele>679.99998795846</ele>
        <time>2012-02-21T11:09:09Z</time>
      </trkpt>
      <trkpt lat="43.90256" lon="7.50276">
        <ele>678.9997470512</ele>
        <time>2012-02-21T11:09:14Z</time>
      </trkpt>
      <trkpt lat="43.9025" lon="7.50275">
        <ele>677.99967695193</ele>
        <time>2012-02-21T11:09:19Z</time>
      </trkpt>
      <trkpt lat="43.90244" lon="7.50272">
        <ele>679.99991985338</ele>
        <time>2012-02-21T11:09:24Z</time>
      </trkpt>
      <trkpt lat="43.9024" lon="7.50269">
        <ele>687.00003713915</ele>
        <time>2012-02-21T11:09:29Z</time>
      </trkpt>
      <trkpt lat="43.90235" lon="7.50266">
        <ele>686.99998841802</ele>
        <time>2012-02-21T11:09:34Z</time>
      </trkpt>
      <trkpt lat="43.90231" lon="7.50264">
        <ele>684.00022227888</ele>
        <time>2012-02-21T11:09:39Z</time>
      </trkpt>
      <trkpt lat="43.90227" lon="7.50262">
        <ele>683.00019746789</ele>
        <time>2012-02-21T11:09:44Z</time>
      </trkpt>
      <trkpt lat="43.90224" lon="7.50262">
        <ele>684.0002696264</ele>
        <time>2012-02-21T11:09:49Z</time>
      </trkpt>
      <trkpt lat="43.9022" lon="7.50263">
        <ele>679.00031784301</ele>
        <time>2012-02-21T11:09:54Z</time>
      </trkpt>
      <trkpt lat="43.90216" lon="7.50268">
        <ele>690.0000086775</ele>
        <time>2012-02-21T11:09:59Z</time>
      </trkpt>
      <trkpt lat="43.90212" lon="7.50271">
        <ele>690.00027111604</ele>
        <time>2012-02-21T11:10:04Z</time>
      </trkpt>
      <trkpt lat="43.90209" lon="7.50273">
        <ele>682.00018053182</ele>
        <time>2012-02-21T11:10:09Z</time>
      </trkpt>
      <trkpt lat="43.90205" lon="7.50276">
        <ele>685.00010044497</ele>
        <time>2012-02-21T11:10:14Z</time>
      </trkpt>
      <trkpt lat="43.90203" lon="7.50281">
        <ele>686.00016829854</ele>
        <time>2012-02-21T11:10:19Z</time>
      </trkpt>
      <trkpt lat="43.90202" lon="7.50286">
        <ele>684.00049481291</ele>
        <time>2012-02-21T11:10:24Z</time>
      </trkpt>
      <trkpt lat="43.902" lon="7.50289">
        <ele>695.00038987063</ele>
        <time>2012-02-21T11:10:29Z</time>
      </trkpt>
      <trkpt lat="43.90197" lon="7.5029">
        <ele>689.99979207964</ele>
        <time>2012-02-21T11:10:34Z</time>
      </trkpt>
      <trkpt lat="43.9019" lon="7.5029">
        <ele>690.00005888549</ele>
        <time>2012-02-21T11:10:39Z</time>
      </trkpt>
      <trkpt lat="43.90185" lon="7.50289">
        <ele>683.00029138715</ele>
        <time>2012-02-21T11:10:44Z</time>
      </trkpt>
      <trkpt lat="43.9018" lon="7.5029">
        <ele>681.000381873</ele>
        <time>2012-02-21T11:10:49Z</time>
      </trkpt>
      <trkpt lat="43.90176" lon="7.50293">
        <ele>684.00024190159</ele>
        <time>2012-02-21T11:10:54Z</time>
      </trkpt>
      <trkpt lat="43.90173" lon="7.503">
        <ele>681.99980771411</ele>
        <time>2012-02-21T11:10:59Z</time>
      </trkpt>
      <trkpt lat="43.90169" lon="7.50308">
        <ele>681.00011329373</ele>
        <time>2012-02-21T11:11:04Z</time>
      </trkpt>
      <trkpt lat="43.90167" lon="7.50314">
        <ele>687.00013289485</ele>
        <time>2012-02-21T11:11:09Z</time>
      </trkpt>
      <trkpt lat="43.90167" lon="7.50324">
        <ele>676.00012557261</ele>
        <time>2012-02-21T11:11:14Z</time>
      </trkpt>
      <trkpt lat="43.90169" lon="7.50331">
        <ele>671.00012123514</ele>
        <time>2012-02-21T11:11:19Z</time>
      </trkpt>
      <trkpt lat="43.90169" lon="7.50335">
        <ele>669.0006017737</ele>
        <time>2012-02-21T11:11:24Z</time>
      </trkpt>
      <trkpt lat="43.90168" lon="7.50336">
        <ele>684.00060211313</ele>
        <time>2012-02-21T11:11:29Z</time>
      </trkpt>
      <trkpt lat="43.90168" lon="7.50331">
        <ele>686.0003175019</ele>
        <time>2012-02-21T11:11:34Z</time>
      </trkpt>
      <trkpt lat="43.90167" lon="7.50332">
        <ele>680.00069761658</ele>
        <time>2012-02-21T11:11:39Z</time>
      </trkpt>
      <trkpt lat="43.90168" lon="7.50332">
        <ele>680.00005356527</ele>
        <time>2012-02-21T11:11:54Z</time>
      </trkpt>
      <trkpt lat="43.90167" lon="7.50332">
        <ele>676.00001748748</ele>
        <time>2012-02-21T11:12:04Z</time>
      </trkpt>
      <trkpt lat="43.90167" lon="7.50332">
        <ele>687.99997328548</ele>
        <time>2012-02-21T11:13:19Z</time>
      </trkpt>
      <trkpt lat="43.90167" lon="7.50332">
        <ele>676.00011172697</ele>
        <time>2012-02-21T11:13:24Z</time>
      </trkpt>
      <trkpt lat="43.90167" lon="7.50333">
        <ele>665.00003147399</ele>
        <time>2012-02-21T11:14:24Z</time>
      </trkpt>
      <trkpt lat="43.90167" lon="7.50333">
        <ele>670.99999894833</ele>
        <time>2012-02-21T11:14:39Z</time>
      </trkpt>
      <trkpt lat="43.90167" lon="7.50333">
        <ele>671.99996751307</ele>
        <time>2012-02-21T11:14:44Z</time>
      </trkpt>
      <trkpt lat="43.90168" lon="7.50335">
        <ele>666.99993534326</ele>
        <time>2012-02-21T11:14:49Z</time>
      </trkpt>
      <trkpt lat="43.90168" lon="7.50338">
        <ele>665.99907660813</ele>
        <time>2012-02-21T11:14:59Z</time>
      </trkpt>
      <trkpt lat="43.90168" lon="7.50345">
        <ele>668.99877726281</ele>
        <time>2012-02-21T11:15:04Z</time>
      </trkpt>
      <trkpt lat="43.90168" lon="7.50349">
        <ele>677.99946883916</ele>
        <time>2012-02-21T11:15:29Z</time>
      </trkpt>
      <trkpt lat="43.90165" lon="7.50352">
        <ele>682.99870759651</ele>
        <time>2012-02-21T11:16:34Z</time>
      </trkpt>
      <trkpt lat="43.90159" lon="7.50356">
        <ele>679.99993726325</ele>
        <time>2012-02-21T11:16:39Z</time>
      </trkpt>
      <trkpt lat="43.90155" lon="7.50359">
        <ele>674.99980674459</ele>
        <time>2012-02-21T11:16:44Z</time>
      </trkpt>
      <trkpt lat="43.90148" lon="7.50359">
        <ele>676.99995981941</ele>
        <time>2012-02-21T11:16:49Z</time>
      </trkpt>
      <trkpt lat="43.90144" lon="7.50362">
        <ele>674.00027539361</ele>
        <time>2012-02-21T11:16:54Z</time>
      </trkpt>
      <trkpt lat="43.90141" lon="7.50364">
        <ele>676.00031260096</ele>
        <time>2012-02-21T11:16:59Z</time>
      </trkpt>
      <trkpt lat="43.90138" lon="7.50367">
        <ele>676.00049124762</ele>
        <time>2012-02-21T11:17:04Z</time>
      </trkpt>
      <trkpt lat="43.90134" lon="7.50369">
        <ele>673.00059217459</ele>
        <time>2012-02-21T11:17:09Z</time>
      </trkpt>
      <trkpt lat="43.90131" lon="7.50365">
        <ele>671.00029775634</ele>
        <time>2012-02-21T11:17:14Z</time>
      </trkpt>
      <trkpt lat="43.90127" lon="7.50362">
        <ele>672.00020806773</ele>
        <time>2012-02-21T11:17:19Z</time>
      </trkpt>
      <trkpt lat="43.90121" lon="7.50359">
        <ele>671.00017152243</ele>
        <time>2012-02-21T11:17:24Z</time>
      </trkpt>
      <trkpt lat="43.90116" lon="7.50359">
        <ele>665.0001511136</ele>
        <time>2012-02-21T11:17:29Z</time>
      </trkpt>
      <trkpt lat="43.90111" lon="7.50362">
        <ele>663.00049910336</ele>
        <time>2012-02-21T11:17:34Z</time>
      </trkpt>
      <trkpt lat="43.90107" lon="7.50365">
        <ele>656.00035536184</ele>
        <time>2012-02-21T11:17:39Z</time>
      </trkpt>
      <trkpt lat="43.90102" lon="7.50371">
        <ele>663.99998901679</ele>
        <time>2012-02-21T11:17:44Z</time>
      </trkpt>
      <trkpt lat="43.90098" lon="7.50377">
        <ele>665.99976909424</ele>
        <time>2012-02-21T11:17:49Z</time>
      </trkpt>
      <trkpt lat="43.90097" lon="7.50383">
        <ele>668.00014549585</ele>
        <time>2012-02-21T11:17:54Z</time>
      </trkpt>
      <trkpt lat="43.90096" lon="7.5039">
        <ele>665.0002625548</ele>
        <time>2012-02-21T11:17:59Z</time>
      </trkpt>
      <trkpt lat="43.90095" lon="7.50396">
        <ele>665.00026250292</ele>
        <time>2012-02-21T11:18:04Z</time>
      </trkpt>
      <trkpt lat="43.90093" lon="7.50403">
        <ele>658.0002342199</ele>
        <time>2012-02-21T11:18:09Z</time>
      </trkpt>
      <trkpt lat="43.90093" lon="7.5041">
        <ele>658.00024546463</ele>
        <time>2012-02-21T11:18:14Z</time>
      </trkpt>
      <trkpt lat="43.90095" lon="7.50411">
        <ele>656.99990190874</ele>
        <time>2012-02-21T11:18:19Z</time>
      </trkpt>
      <trkpt lat="43.90095" lon="7.50412">
        <ele>665.00013669578</ele>
        <time>2012-02-21T11:18:29Z</time>
      </trkpt>
      <trkpt lat="43.90096" lon="7.50416">
        <ele>662.00002572002</ele>
        <time>2012-02-21T11:18:34Z</time>
      </trkpt>
      <trkpt lat="43.90095" lon="7.50421">
        <ele>666.99998993969</ele>
        <time>2012-02-21T11:18:39Z</time>
      </trkpt>
      <trkpt lat="43.90091" lon="7.50421">
        <ele>664.00016919155</ele>
        <time>2012-02-21T11:18:44Z</time>
      </trkpt>
      <trkpt lat="43.90089" lon="7.50422">
        <ele>652.00084979472</ele>
        <time>2012-02-21T11:18:49Z</time>
      </trkpt>
      <trkpt lat="43.90091" lon="7.50421">
        <ele>648.00050129848</ele>
        <time>2012-02-21T11:18:54Z</time>
      </trkpt>
      <trkpt lat="43.90092" lon="7.50419">
        <ele>647.00041014973</ele>
        <time>2012-02-21T11:18:59Z</time>
      </trkpt>
      <trkpt lat="43.90091" lon="7.50418">
        <ele>657.0003587664</ele>
        <time>2012-02-21T11:19:24Z</time>
      </trkpt>
      <trkpt lat="43.90092" lon="7.50418">
        <ele>662.99993395715</ele>
        <time>2012-02-21T11:19:39Z</time>
      </trkpt>
      <trkpt lat="43.90091" lon="7.5042">
        <ele>660.99998230556</ele>
        <time>2012-02-21T11:19:44Z</time>
      </trkpt>
      <trkpt lat="43.90089" lon="7.50421">
        <ele>666.99981736776</ele>
        <time>2012-02-21T11:19:49Z</time>
      </trkpt>
      <trkpt lat="43.90085" lon="7.50428">
        <ele>663.99978278231</ele>
        <time>2012-02-21T11:19:54Z</time>
      </trkpt>
      <trkpt lat="43.90085" lon="7.50435">
        <ele>664.99988889544</ele>
        <time>2012-02-21T11:19:59Z</time>
      </trkpt>
      <trkpt lat="43.90085" lon="7.50441">
        <ele>660.99990627784</ele>
        <time>2012-02-21T11:20:04Z</time>
      </trkpt>
      <trkpt lat="43.90086" lon="7.50447">
        <ele>661.99987663655</ele>
        <time>2012-02-21T11:20:09Z</time>
      </trkpt>
      <trkpt lat="43.90086" lon="7.50453">
        <ele>663.99990191633</ele>
        <time>2012-02-21T11:20:14Z</time>
      </trkpt>
      <trkpt lat="43.90086" lon="7.5046">
        <ele>660.0000949595</ele>
        <time>2012-02-21T11:20:19Z</time>
      </trkpt>
      <trkpt lat="43.90088" lon="7.50466">
        <ele>661.00023434942</ele>
        <time>2012-02-21T11:20:24Z</time>
      </trkpt>
      <trkpt lat="43.90089" lon="7.5047">
        <ele>662.00023081463</ele>
        <time>2012-02-21T11:20:29Z</time>
      </trkpt>
      <trkpt lat="43.90091" lon="7.50474">
        <ele>663.000160014</ele>
        <time>2012-02-21T11:20:34Z</time>
      </trkpt>
      <trkpt lat="43.90091" lon="7.5048">
        <ele>666.0001826404</ele>
        <time>2012-02-21T11:20:39Z</time>
      </trkpt>
      <trkpt lat="43.90093" lon="7.50485">
        <ele>662.00005631469</ele>
        <time>2012-02-21T11:20:44Z</time>
      </trkpt>
      <trkpt lat="43.90095" lon="7.50486">
        <ele>656.99976217365</ele>
        <time>2012-02-21T11:20:49Z</time>
      </trkpt>
      <trkpt lat="43.90095" lon="7.50486">
        <ele>669.9994449557</ele>
        <time>2012-02-21T11:21:04Z</time>
      </trkpt>
      <trkpt lat="43.90094" lon="7.50485">
        <ele>670.00000855924</ele>
        <time>2012-02-21T11:21:14Z</time>
      </trkpt>
      <trkpt lat="43.90095" lon="7.50489">
        <ele>666.00028213086</ele>
        <time>2012-02-21T11:21:19Z</time>
      </trkpt>
      <trkpt lat="43.90094" lon="7.5049">
        <ele>659.99958940267</ele>
        <time>2012-02-21T11:21:34Z</time>
      </trkpt>
      <trkpt lat="43.90094" lon="7.505">
        <ele>655.99978854594</ele>
        <time>2012-02-21T11:21:39Z</time>
      </trkpt>
      <trkpt lat="43.90095" lon="7.50511">
        <ele>659.9996475341</ele>
        <time>2012-02-21T11:21:44Z</time>
      </trkpt>
      <trkpt lat="43.90096" lon="7.50521">
        <ele>657.00019035755</ele>
        <time>2012-02-21T11:21:49Z</time>
      </trkpt>
      <trkpt lat="43.90097" lon="7.50525">
        <ele>657.00035872399</ele>
        <time>2012-02-21T11:21:54Z</time>
      </trkpt>
      <trkpt lat="43.90096" lon="7.50531">
        <ele>660.00045603121</ele>
        <time>2012-02-21T11:21:59Z</time>
      </trkpt>
      <trkpt lat="43.90097" lon="7.50537">
        <ele>662.00020133431</ele>
        <time>2012-02-21T11:22:04Z</time>
      </trkpt>
      <trkpt lat="43.90098" lon="7.50543">
        <ele>661.00000149981</ele>
        <time>2012-02-21T11:22:09Z</time>
      </trkpt>
      <trkpt lat="43.90098" lon="7.5055">
        <ele>653.00010294521</ele>
        <time>2012-02-21T11:22:14Z</time>
      </trkpt>
      <trkpt lat="43.90098" lon="7.50557">
        <ele>655.00026790279</ele>
        <time>2012-02-21T11:22:19Z</time>
      </trkpt>
      <trkpt lat="43.901" lon="7.50561">
        <ele>659.00036442898</ele>
        <time>2012-02-21T11:22:24Z</time>
      </trkpt>
      <trkpt lat="43.90101" lon="7.50565">
        <ele>656.00006517328</ele>
        <time>2012-02-21T11:22:29Z</time>
      </trkpt>
      <trkpt lat="43.90101" lon="7.50571">
        <ele>655.00007918747</ele>
        <time>2012-02-21T11:22:34Z</time>
      </trkpt>
      <trkpt lat="43.90103" lon="7.50578">
        <ele>657.00003632314</ele>
        <time>2012-02-21T11:22:39Z</time>
      </trkpt>
      <trkpt lat="43.90106" lon="7.50582">
        <ele>658.99973882238</ele>
        <time>2012-02-21T11:22:44Z</time>
      </trkpt>
      <trkpt lat="43.90105" lon="7.50585">
        <ele>666.99998971918</ele>
        <time>2012-02-21T11:22:49Z</time>
      </trkpt>
      <trkpt lat="43.90106" lon="7.5059">
        <ele>662.0001920356</ele>
        <time>2012-02-21T11:22:54Z</time>
      </trkpt>
      <trkpt lat="43.90107" lon="7.50597">
        <ele>660.00013146871</ele>
        <time>2012-02-21T11:22:59Z</time>
      </trkpt>
      <trkpt lat="43.90106" lon="7.50603">
        <ele>660.99993538889</ele>
        <time>2012-02-21T11:23:04Z</time>
      </trkpt>
      <trkpt lat="43.90105" lon="7.50612">
        <ele>658.99984374082</ele>
        <time>2012-02-21T11:23:09Z</time>
      </trkpt>
      <trkpt lat="43.90104" lon="7.50623">
        <ele>656.99993360643</ele>
        <time>2012-02-21T11:23:14Z</time>
      </trkpt>
      <trkpt lat="43.90102" lon="7.50631">
        <ele>662.00008482907</ele>
        <time>2012-02-21T11:23:19Z</time>
      </trkpt>
      <trkpt lat="43.901" lon="7.50638">
        <ele>660.00015019198</ele>
        <time>2012-02-21T11:23:24Z</time>
      </trkpt>
      <trkpt lat="43.90098" lon="7.50643">
        <ele>661.00032076682</ele>
        <time>2012-02-21T11:23:29Z</time>
      </trkpt>
      <trkpt lat="43.90097" lon="7.50648">
        <ele>659.00056233203</ele>
        <time>2012-02-21T11:23:34Z</time>
      </trkpt>
      <trkpt lat="43.90096" lon="7.50652">
        <ele>652.00050235505</ele>
        <time>2012-02-21T11:23:39Z</time>
      </trkpt>
      <trkpt lat="43.90093" lon="7.50658">
        <ele>649.00026405781</ele>
        <time>2012-02-21T11:23:44Z</time>
      </trkpt>
      <trkpt lat="43.90091" lon="7.50664">
        <ele>648.00007870837</ele>
        <time>2012-02-21T11:23:49Z</time>
      </trkpt>
      <trkpt lat="43.90089" lon="7.50669">
        <ele>656.00035366866</ele>
        <time>2012-02-21T11:23:54Z</time>
      </trkpt>
      <trkpt lat="43.90089" lon="7.50673">
        <ele>654.00044112355</ele>
        <time>2012-02-21T11:23:59Z</time>
      </trkpt>
      <trkpt lat="43.90089" lon="7.50678">
        <ele>659.00031387133</ele>
        <time>2012-02-21T11:24:04Z</time>
      </trkpt>
      <trkpt lat="43.90087" lon="7.50684">
        <ele>652.00009639434</ele>
        <time>2012-02-21T11:24:09Z</time>
      </trkpt>
      <trkpt lat="43.90085" lon="7.50691">
        <ele>652.00006224181</ele>
        <time>2012-02-21T11:24:14Z</time>
      </trkpt>
      <trkpt lat="43.90083" lon="7.50698">
        <ele>654.00009299847</ele>
        <time>2012-02-21T11:24:19Z</time>
      </trkpt>
      <trkpt lat="43.9008" lon="7.50705">
        <ele>648.0000595773</ele>
        <time>2012-02-21T11:24:24Z</time>
      </trkpt>
      <trkpt lat="43.9008" lon="7.50711">
        <ele>652.00016746935</ele>
        <time>2012-02-21T11:24:29Z</time>
      </trkpt>
      <trkpt lat="43.90079" lon="7.50718">
        <ele>646.99992811973</ele>
        <time>2012-02-21T11:24:34Z</time>
      </trkpt>
      <trkpt lat="43.90078" lon="7.50727">
        <ele>659.00036346907</ele>
        <time>2012-02-21T11:24:39Z</time>
      </trkpt>
      <trkpt lat="43.90079" lon="7.50732">
        <ele>651.00012284346</ele>
        <time>2012-02-21T11:24:44Z</time>
      </trkpt>
      <trkpt lat="43.90079" lon="7.50739">
        <ele>646.00018106554</ele>
        <time>2012-02-21T11:24:49Z</time>
      </trkpt>
      <trkpt lat="43.90077" lon="7.50744">
        <ele>645.00024163096</ele>
        <time>2012-02-21T11:24:54Z</time>
      </trkpt>
      <trkpt lat="43.90077" lon="7.50749">
        <ele>644.00005582947</ele>
        <time>2012-02-21T11:24:59Z</time>
      </trkpt>
      <trkpt lat="43.90074" lon="7.50756">
        <ele>646.99998298579</ele>
        <time>2012-02-21T11:25:04Z</time>
      </trkpt>
      <trkpt lat="43.90074" lon="7.50757">
        <ele>643.0000442201</ele>
        <time>2012-02-21T11:25:09Z</time>
      </trkpt>
      <trkpt lat="43.90074" lon="7.50754">
        <ele>650.0000224164</ele>
        <time>2012-02-21T11:25:14Z</time>
      </trkpt>
      <trkpt lat="43.90074" lon="7.50754">
        <ele>649.99995803409</ele>
        <time>2012-02-21T11:25:24Z</time>
      </trkpt>
      <trkpt lat="43.90074" lon="7.50754">
        <ele>649.00003038869</ele>
        <time>2012-02-21T11:25:29Z</time>
      </trkpt>
      <trkpt lat="43.90072" lon="7.50754">
        <ele>638.99994282762</ele>
        <time>2012-02-21T11:25:39Z</time>
      </trkpt>
      <trkpt lat="43.9007" lon="7.50756">
        <ele>637.00040038985</ele>
        <time>2012-02-21T11:25:44Z</time>
      </trkpt>
      <trkpt lat="43.90072" lon="7.50755">
        <ele>648.99986916267</ele>
        <time>2012-02-21T11:25:49Z</time>
      </trkpt>
      <trkpt lat="43.90072" lon="7.50756">
        <ele>643.99937398382</ele>
        <time>2012-02-21T11:25:59Z</time>
      </trkpt>
      <trkpt lat="43.90073" lon="7.50762">
        <ele>641.99974038006</ele>
        <time>2012-02-21T11:26:04Z</time>
      </trkpt>
      <trkpt lat="43.90075" lon="7.50765">
        <ele>646.00015802916</ele>
        <time>2012-02-21T11:26:09Z</time>
      </trkpt>
      <trkpt lat="43.90075" lon="7.50764">
        <ele>627.00057735451</ele>
        <time>2012-02-21T11:27:04Z</time>
      </trkpt>
      <trkpt lat="43.90074" lon="7.50763">
        <ele>639.99988373845</ele>
        <time>2012-02-21T11:27:44Z</time>
      </trkpt>
      <trkpt lat="43.90073" lon="7.50763">
        <ele>640.99978777221</ele>
        <time>2012-02-21T11:27:49Z</time>
      </trkpt>
      <trkpt lat="43.90073" lon="7.50764">
        <ele>641.99969859666</ele>
        <time>2012-02-21T11:27:54Z</time>
      </trkpt>
      <trkpt lat="43.90074" lon="7.50774">
        <ele>644.99979546401</ele>
        <time>2012-02-21T11:27:59Z</time>
      </trkpt>
      <trkpt lat="43.90076" lon="7.50782">
        <ele>643.0001980901</ele>
        <time>2012-02-21T11:28:04Z</time>
      </trkpt>
      <trkpt lat="43.90078" lon="7.50788">
        <ele>642.00037675718</ele>
        <time>2012-02-21T11:28:09Z</time>
      </trkpt>
      <trkpt lat="43.9008" lon="7.5079">
        <ele>648.00041075031</ele>
        <time>2012-02-21T11:28:14Z</time>
      </trkpt>
      <trkpt lat="43.90081" lon="7.5079">
        <ele>642.00021185905</ele>
        <time>2012-02-21T11:28:19Z</time>
      </trkpt>
      <trkpt lat="43.90084" lon="7.50797">
        <ele>642.00013019819</ele>
        <time>2012-02-21T11:28:24Z</time>
      </trkpt>
      <trkpt lat="43.90087" lon="7.50804">
        <ele>642.00010488259</ele>
        <time>2012-02-21T11:28:29Z</time>
      </trkpt>
      <trkpt lat="43.9009" lon="7.5081">
        <ele>639.99996938235</ele>
        <time>2012-02-21T11:28:34Z</time>
      </trkpt>
      <trkpt lat="43.90091" lon="7.50816">
        <ele>641.99981669283</ele>
        <time>2012-02-21T11:28:39Z</time>
      </trkpt>
      <trkpt lat="43.90092" lon="7.50823">
        <ele>643.99986161759</ele>
        <time>2012-02-21T11:28:44Z</time>
      </trkpt>
      <trkpt lat="43.90093" lon="7.5083">
        <ele>645.99989339236</ele>
        <time>2012-02-21T11:28:49Z</time>
      </trkpt>
      <trkpt lat="43.90093" lon="7.50837">
        <ele>643.99996555377</ele>
        <time>2012-02-21T11:28:54Z</time>
      </trkpt>
      <trkpt lat="43.90093" lon="7.50846">
        <ele>639.00000649306</ele>
        <time>2012-02-21T11:28:59Z</time>
      </trkpt>
      <trkpt lat="43.90093" lon="7.50854">
        <ele>641.00008157345</ele>
        <time>2012-02-21T11:29:04Z</time>
      </trkpt>
      <trkpt lat="43.90093" lon="7.50862">
        <ele>639.00023035338</ele>
        <time>2012-02-21T11:29:09Z</time>
      </trkpt>
      <trkpt lat="43.90093" lon="7.50868">
        <ele>640.00025191936</ele>
        <time>2012-02-21T11:29:14Z</time>
      </trkpt>
      <trkpt lat="43.90091" lon="7.50873">
        <ele>639.00006043592</ele>
        <time>2012-02-21T11:29:19Z</time>
      </trkpt>
      <trkpt lat="43.9009" lon="7.50881">
        <ele>638.00003952465</ele>
        <time>2012-02-21T11:29:24Z</time>
      </trkpt>
      <trkpt lat="43.90088" lon="7.50886">
        <ele>639.0002830457</ele>
        <time>2012-02-21T11:29:29Z</time>
      </trkpt>
      <trkpt lat="43.90088" lon="7.50893">
        <ele>636.00039603314</ele>
        <time>2012-02-21T11:29:34Z</time>
      </trkpt>
      <trkpt lat="43.90086" lon="7.50899">
        <ele>638.00040899084</ele>
        <time>2012-02-21T11:29:39Z</time>
      </trkpt>
      <trkpt lat="43.90085" lon="7.50905">
        <ele>638.00015053775</ele>
        <time>2012-02-21T11:29:44Z</time>
      </trkpt>
      <trkpt lat="43.90083" lon="7.50913">
        <ele>638.00015610198</ele>
        <time>2012-02-21T11:29:49Z</time>
      </trkpt>
      <trkpt lat="43.90082" lon="7.5092">
        <ele>634.00022850646</ele>
        <time>2012-02-21T11:29:54Z</time>
      </trkpt>
      <trkpt lat="43.90079" lon="7.50927">
        <ele>632.99974557982</ele>
        <time>2012-02-21T11:29:59Z</time>
      </trkpt>
      <trkpt lat="43.90075" lon="7.50934">
        <ele>640.00001309295</ele>
        <time>2012-02-21T11:30:04Z</time>
      </trkpt>
      <trkpt lat="43.90075" lon="7.50937">
        <ele>637.00024701523</ele>
        <time>2012-02-21T11:30:09Z</time>
      </trkpt>
      <trkpt lat="43.90076" lon="7.50941">
        <ele>643.0002503111</ele>
        <time>2012-02-21T11:30:14Z</time>
      </trkpt>
      <trkpt lat="43.90075" lon="7.50939">
        <ele>634.00012154286</ele>
        <time>2012-02-21T11:30:19Z</time>
      </trkpt>
      <trkpt lat="43.90069" lon="7.50933">
        <ele>630.00030705545</ele>
        <time>2012-02-21T11:30:24Z</time>
      </trkpt>
      <trkpt lat="43.90066" lon="7.50928">
        <ele>632.00033123967</ele>
        <time>2012-02-21T11:30:29Z</time>
      </trkpt>
      <trkpt lat="43.90065" lon="7.50926">
        <ele>632.99994959462</ele>
        <time>2012-02-21T11:30:34Z</time>
      </trkpt>
      <trkpt lat="43.90061" lon="7.50923">
        <ele>632.00012170989</ele>
        <time>2012-02-21T11:30:39Z</time>
      </trkpt>
      <trkpt lat="43.90058" lon="7.50921">
        <ele>629.00050613902</ele>
        <time>2012-02-21T11:30:44Z</time>
      </trkpt>
      <trkpt lat="43.90057" lon="7.50921">
        <ele>635.00116909721</ele>
        <time>2012-02-21T11:30:49Z</time>
      </trkpt>
      <trkpt lat="43.90058" lon="7.5092">
        <ele>629.00100267518</ele>
        <time>2012-02-21T11:30:54Z</time>
      </trkpt>
      <trkpt lat="43.90059" lon="7.50919">
        <ele>635.00045262077</ele>
        <time>2012-02-21T11:30:59Z</time>
      </trkpt>
      <trkpt lat="43.9006" lon="7.5092">
        <ele>632.00041017453</ele>
        <time>2012-02-21T11:31:04Z</time>
      </trkpt>
      <trkpt lat="43.90061" lon="7.50919">
        <ele>623.00034070384</ele>
        <time>2012-02-21T11:31:14Z</time>
      </trkpt>
      <trkpt lat="43.90061" lon="7.50919">
        <ele>631.00029292988</ele>
        <time>2012-02-21T11:31:34Z</time>
      </trkpt>
      <trkpt lat="43.90061" lon="7.50919">
        <ele>627.00015924999</ele>
        <time>2012-02-21T11:31:44Z</time>
      </trkpt>
      <trkpt lat="43.90062" lon="7.50918">
        <ele>625.0002019625</ele>
        <time>2012-02-21T11:31:49Z</time>
      </trkpt>
      <trkpt lat="43.90062" lon="7.50916">
        <ele>629.99968570804</ele>
        <time>2012-02-21T11:31:59Z</time>
      </trkpt>
      <trkpt lat="43.90062" lon="7.50915">
        <ele>629.99962092653</ele>
        <time>2012-02-21T11:32:04Z</time>
      </trkpt>
      <trkpt lat="43.90061" lon="7.50917">
        <ele>632.99980261454</ele>
        <time>2012-02-21T11:32:19Z</time>
      </trkpt>
      <trkpt lat="43.90062" lon="7.50917">
        <ele>631.99975046013</ele>
        <time>2012-02-21T11:32:39Z</time>
      </trkpt>
      <trkpt lat="43.90064" lon="7.50921">
        <ele>635.99969181107</ele>
        <time>2012-02-21T11:32:44Z</time>
      </trkpt>
      <trkpt lat="43.90067" lon="7.50925">
        <ele>638.99901204726</ele>
        <time>2012-02-21T11:32:49Z</time>
      </trkpt>
      <trkpt lat="43.90068" lon="7.50928">
        <ele>634.99941198068</ele>
        <time>2012-02-21T11:32:54Z</time>
      </trkpt>
      <trkpt lat="43.90069" lon="7.50934">
        <ele>633.99990737549</ele>
        <time>2012-02-21T11:32:59Z</time>
      </trkpt>
      <trkpt lat="43.90069" lon="7.50935">
        <ele>621.99997341688</ele>
        <time>2012-02-21T11:33:04Z</time>
      </trkpt>
      <trkpt lat="43.90066" lon="7.50931">
        <ele>632.99997530581</ele>
        <time>2012-02-21T11:33:14Z</time>
      </trkpt>
      <trkpt lat="43.90062" lon="7.50927">
        <ele>630.00022497015</ele>
        <time>2012-02-21T11:33:19Z</time>
      </trkpt>
      <trkpt lat="43.90062" lon="7.50926">
        <ele>630.00021475575</ele>
        <time>2012-02-21T11:33:24Z</time>
      </trkpt>
      <trkpt lat="43.90063" lon="7.50924">
        <ele>631.99986342959</ele>
        <time>2012-02-21T11:33:59Z</time>
      </trkpt>
      <trkpt lat="43.90064" lon="7.50928">
        <ele>637.99993803202</ele>
        <time>2012-02-21T11:34:04Z</time>
      </trkpt>
      <trkpt lat="43.90068" lon="7.50933">
        <ele>637.99951303399</ele>
        <time>2012-02-21T11:34:09Z</time>
      </trkpt>
      <trkpt lat="43.90071" lon="7.50938">
        <ele>637.99999040987</ele>
        <time>2012-02-21T11:34:14Z</time>
      </trkpt>
      <trkpt lat="43.90074" lon="7.50947">
        <ele>640.9998125951</ele>
        <time>2012-02-21T11:34:19Z</time>
      </trkpt>
      <trkpt lat="43.90075" lon="7.50958">
        <ele>638.9998491793</ele>
        <time>2012-02-21T11:34:24Z</time>
      </trkpt>
      <trkpt lat="43.90074" lon="7.50969">
        <ele>634.9997492176</ele>
        <time>2012-02-21T11:34:29Z</time>
      </trkpt>
      <trkpt lat="43.90073" lon="7.50979">
        <ele>634.99970743163</ele>
        <time>2012-02-21T11:34:34Z</time>
      </trkpt>
      <trkpt lat="43.90071" lon="7.50987">
        <ele>633.99996866767</ele>
        <time>2012-02-21T11:34:39Z</time>
      </trkpt>
      <trkpt lat="43.90071" lon="7.50996">
        <ele>629.99997382912</ele>
        <time>2012-02-21T11:34:44Z</time>
      </trkpt>
      <trkpt lat="43.90074" lon="7.51003">
        <ele>633.00018258002</ele>
        <time>2012-02-21T11:34:49Z</time>
      </trkpt>
      <trkpt lat="43.90077" lon="7.51009">
        <ele>638.00015328672</ele>
        <time>2012-02-21T11:34:54Z</time>
      </trkpt>
      <trkpt lat="43.9008" lon="7.51016">
        <ele>636.00006875541</ele>
        <time>2012-02-21T11:34:59Z</time>
      </trkpt>
      <trkpt lat="43.90082" lon="7.51023">
        <ele>634.99996416676</ele>
        <time>2012-02-21T11:35:04Z</time>
      </trkpt>
      <trkpt lat="43.90085" lon="7.5103">
        <ele>633.00006720141</ele>
        <time>2012-02-21T11:35:09Z</time>
      </trkpt>
      <trkpt lat="43.90088" lon="7.51036">
        <ele>636.00028419741</ele>
        <time>2012-02-21T11:35:14Z</time>
      </trkpt>
      <trkpt lat="43.90089" lon="7.51042">
        <ele>633.00019346793</ele>
        <time>2012-02-21T11:35:19Z</time>
      </trkpt>
      <trkpt lat="43.9009" lon="7.51044">
        <ele>636.0000075579</ele>
        <time>2012-02-21T11:35:24Z</time>
      </trkpt>
      <trkpt lat="43.90094" lon="7.51052">
        <ele>639.00005131097</ele>
        <time>2012-02-21T11:35:29Z</time>
      </trkpt>
      <trkpt lat="43.90097" lon="7.51059">
        <ele>635.00000841476</ele>
        <time>2012-02-21T11:35:34Z</time>
      </trkpt>
      <trkpt lat="43.90098" lon="7.51064">
        <ele>632.00006130799</ele>
        <time>2012-02-21T11:35:39Z</time>
      </trkpt>
      <trkpt lat="43.90101" lon="7.51072">
        <ele>635.99996211107</ele>
        <time>2012-02-21T11:35:44Z</time>
      </trkpt>
      <trkpt lat="43.90103" lon="7.51079">
        <ele>635.00022145776</ele>
        <time>2012-02-21T11:35:49Z</time>
      </trkpt>
      <trkpt lat="43.90106" lon="7.51085">
        <ele>635.00009376593</ele>
        <time>2012-02-21T11:35:54Z</time>
      </trkpt>
      <trkpt lat="43.90108" lon="7.51094">
        <ele>634.00005353389</ele>
        <time>2012-02-21T11:35:59Z</time>
      </trkpt>
      <trkpt lat="43.9011" lon="7.511">
        <ele>630.00046363363</ele>
        <time>2012-02-21T11:36:04Z</time>
      </trkpt>
      <trkpt lat="43.90111" lon="7.51104">
        <ele>625.00023493636</ele>
        <time>2012-02-21T11:36:09Z</time>
      </trkpt>
      <trkpt lat="43.90113" lon="7.5111">
        <ele>632.00003439646</ele>
        <time>2012-02-21T11:36:14Z</time>
      </trkpt>
      <trkpt lat="43.90114" lon="7.51118">
        <ele>631.00001056978</ele>
        <time>2012-02-21T11:36:19Z</time>
      </trkpt>
      <trkpt lat="43.90115" lon="7.51127">
        <ele>632.99992719456</ele>
        <time>2012-02-21T11:36:24Z</time>
      </trkpt>
      <trkpt lat="43.90116" lon="7.51135">
        <ele>636.00001263206</ele>
        <time>2012-02-21T11:36:29Z</time>
      </trkpt>
      <trkpt lat="43.90117" lon="7.51141">
        <ele>636.00028803941</ele>
        <time>2012-02-21T11:36:34Z</time>
      </trkpt>
      <trkpt lat="43.90118" lon="7.51148">
        <ele>632.00003096477</ele>
        <time>2012-02-21T11:36:39Z</time>
      </trkpt>
      <trkpt lat="43.90118" lon="7.51154">
        <ele>634.00018006436</ele>
        <time>2012-02-21T11:36:44Z</time>
      </trkpt>
      <trkpt lat="43.9012" lon="7.5116">
        <ele>640.0001401008</ele>
        <time>2012-02-21T11:36:49Z</time>
      </trkpt>
      <trkpt lat="43.90121" lon="7.51166">
        <ele>633.00017067515</ele>
        <time>2012-02-21T11:36:54Z</time>
      </trkpt>
      <trkpt lat="43.90121" lon="7.51172">
        <ele>631.00005742427</ele>
        <time>2012-02-21T11:36:59Z</time>
      </trkpt>
      <trkpt lat="43.9012" lon="7.51178">
        <ele>633.9999414323</ele>
        <time>2012-02-21T11:37:04Z</time>
      </trkpt>
      <trkpt lat="43.90119" lon="7.51186">
        <ele>636.99972775074</ele>
        <time>2012-02-21T11:37:09Z</time>
      </trkpt>
      <trkpt lat="43.90117" lon="7.51193">
        <ele>641.9999670096</ele>
        <time>2012-02-21T11:37:14Z</time>
      </trkpt>
      <trkpt lat="43.90114" lon="7.51199">
        <ele>643.00001612893</ele>
        <time>2012-02-21T11:37:19Z</time>
      </trkpt>
      <trkpt lat="43.90111" lon="7.51204">
        <ele>644.0000336943</ele>
        <time>2012-02-21T11:37:24Z</time>
      </trkpt>
      <trkpt lat="43.90107" lon="7.51209">
        <ele>640.00000101835</ele>
        <time>2012-02-21T11:37:29Z</time>
      </trkpt>
      <trkpt lat="43.90105" lon="7.51214">
        <ele>635.99998723575</ele>
        <time>2012-02-21T11:37:34Z</time>
      </trkpt>
      <trkpt lat="43.90102" lon="7.51218">
        <ele>636.00045168446</ele>
        <time>2012-02-21T11:37:39Z</time>
      </trkpt>
      <trkpt lat="43.90101" lon="7.51219">
        <ele>640.00051763956</ele>
        <time>2012-02-21T11:37:44Z</time>
      </trkpt>
      <trkpt lat="43.901" lon="7.51223">
        <ele>636.99971704679</ele>
        <time>2012-02-21T11:37:49Z</time>
      </trkpt>
      <trkpt lat="43.90099" lon="7.51226">
        <ele>637.00045204819</ele>
        <time>2012-02-21T11:37:54Z</time>
      </trkpt>
      <trkpt lat="43.90101" lon="7.51227">
        <ele>635.00008441707</ele>
        <time>2012-02-21T11:37:59Z</time>
      </trkpt>
      <trkpt lat="43.90101" lon="7.51234">
        <ele>633.99996794104</ele>
        <time>2012-02-21T11:38:04Z</time>
      </trkpt>
      <trkpt lat="43.90102" lon="7.51242">
        <ele>633.99993524412</ele>
        <time>2012-02-21T11:38:09Z</time>
      </trkpt>
      <trkpt lat="43.90102" lon="7.51249">
        <ele>632.99984841098</ele>
        <time>2012-02-21T11:38:14Z</time>
      </trkpt>
      <trkpt lat="43.90102" lon="7.51257">
        <ele>633.99994462814</ele>
        <time>2012-02-21T11:38:19Z</time>
      </trkpt>
      <trkpt lat="43.90105" lon="7.51266">
        <ele>633.99999288719</ele>
        <time>2012-02-21T11:38:24Z</time>
      </trkpt>
      <trkpt lat="43.90108" lon="7.51272">
        <ele>641.00013525381</ele>
        <time>2012-02-21T11:38:29Z</time>
      </trkpt>
      <trkpt lat="43.9011" lon="7.51279">
        <ele>636.9999104093</ele>
        <time>2012-02-21T11:38:34Z</time>
      </trkpt>
      <trkpt lat="43.90111" lon="7.51287">
        <ele>635.99976037746</ele>
        <time>2012-02-21T11:38:39Z</time>
      </trkpt>
      <trkpt lat="43.90113" lon="7.51296">
        <ele>634.9998814172</ele>
        <time>2012-02-21T11:38:44Z</time>
      </trkpt>
      <trkpt lat="43.90114" lon="7.51304">
        <ele>636.99991874935</ele>
        <time>2012-02-21T11:38:49Z</time>
      </trkpt>
      <trkpt lat="43.90116" lon="7.5131">
        <ele>636.00012004666</ele>
        <time>2012-02-21T11:38:54Z</time>
      </trkpt>
      <trkpt lat="43.90118" lon="7.51316">
        <ele>640.99998674271</ele>
        <time>2012-02-21T11:38:59Z</time>
      </trkpt>
      <trkpt lat="43.90119" lon="7.51324">
        <ele>648.9997707435</ele>
        <time>2012-02-21T11:39:04Z</time>
      </trkpt>
      <trkpt lat="43.9012" lon="7.5133">
        <ele>651.99998496724</ele>
        <time>2012-02-21T11:39:09Z</time>
      </trkpt>
      <trkpt lat="43.90122" lon="7.51333">
        <ele>650.00007766704</ele>
        <time>2012-02-21T11:39:14Z</time>
      </trkpt>
      <trkpt lat="43.90124" lon="7.5134">
        <ele>650.00003181762</ele>
        <time>2012-02-21T11:39:19Z</time>
      </trkpt>
      <trkpt lat="43.90125" lon="7.51342">
        <ele>650.00018615252</ele>
        <time>2012-02-21T11:39:24Z</time>
      </trkpt>
      <trkpt lat="43.90126" lon="7.51343">
        <ele>652.00009114338</ele>
        <time>2012-02-21T11:39:39Z</time>
      </trkpt>
      <trkpt lat="43.90127" lon="7.51343">
        <ele>651.00015198213</ele>
        <time>2012-02-21T11:39:44Z</time>
      </trkpt>
      <trkpt lat="43.90132" lon="7.51348">
        <ele>656.00020111771</ele>
        <time>2012-02-21T11:39:49Z</time>
      </trkpt>
      <trkpt lat="43.90137" lon="7.51351">
        <ele>652.00026027329</ele>
        <time>2012-02-21T11:39:54Z</time>
      </trkpt>
      <trkpt lat="43.90142" lon="7.51356">
        <ele>649.9999851088</ele>
        <time>2012-02-21T11:39:59Z</time>
      </trkpt>
      <trkpt lat="43.90145" lon="7.51362">
        <ele>648.99981912833</ele>
        <time>2012-02-21T11:40:04Z</time>
      </trkpt>
      <trkpt lat="43.90146" lon="7.5137">
        <ele>645.99980441505</ele>
        <time>2012-02-21T11:40:09Z</time>
      </trkpt>
      <trkpt lat="43.90148" lon="7.51378">
        <ele>643.99974124464</ele>
        <time>2012-02-21T11:40:14Z</time>
      </trkpt>
      <trkpt lat="43.90147" lon="7.5138">
        <ele>640.00008798856</ele>
        <time>2012-02-21T11:40:19Z</time>
      </trkpt>
      <trkpt lat="43.90147" lon="7.51381">
        <ele>640.99989491764</ele>
        <time>2012-02-21T11:40:24Z</time>
      </trkpt>
      <trkpt lat="43.90148" lon="7.51384">
        <ele>645.99978528357</ele>
        <time>2012-02-21T11:40:29Z</time>
      </trkpt>
      <trkpt lat="43.90148" lon="7.5139">
        <ele>640.00011855094</ele>
        <time>2012-02-21T11:40:34Z</time>
      </trkpt>
      <trkpt lat="43.9015" lon="7.51391">
        <ele>648.00023463802</ele>
        <time>2012-02-21T11:40:39Z</time>
      </trkpt>
      <trkpt lat="43.9015" lon="7.51391">
        <ele>650.00020822716</ele>
        <time>2012-02-21T11:40:44Z</time>
      </trkpt>
      <trkpt lat="43.90151" lon="7.51392">
        <ele>646.00011410085</ele>
        <time>2012-02-21T11:40:49Z</time>
      </trkpt>
      <trkpt lat="43.90155" lon="7.51397">
        <ele>647.00003501415</ele>
        <time>2012-02-21T11:40:54Z</time>
      </trkpt>
      <trkpt lat="43.90158" lon="7.514">
        <ele>648.00031070743</ele>
        <time>2012-02-21T11:40:59Z</time>
      </trkpt>
      <trkpt lat="43.9016" lon="7.514">
        <ele>649.00040786941</ele>
        <time>2012-02-21T11:41:04Z</time>
      </trkpt>
      <trkpt lat="43.90161" lon="7.51399">
        <ele>647.00027191972</ele>
        <time>2012-02-21T11:41:09Z</time>
      </trkpt>
      <trkpt lat="43.90161" lon="7.514">
        <ele>648.0001518331</ele>
        <time>2012-02-21T11:41:14Z</time>
      </trkpt>
      <trkpt lat="43.90162" lon="7.514">
        <ele>648.00006858159</ele>
        <time>2012-02-21T11:41:19Z</time>
      </trkpt>
      <trkpt lat="43.90165" lon="7.51401">
        <ele>651.00011796021</ele>
        <time>2012-02-21T11:41:24Z</time>
      </trkpt>
      <trkpt lat="43.90169" lon="7.51403">
        <ele>655.0001469164</ele>
        <time>2012-02-21T11:41:29Z</time>
      </trkpt>
      <trkpt lat="43.90171" lon="7.51403">
        <ele>649.00001700077</ele>
        <time>2012-02-21T11:41:34Z</time>
      </trkpt>
      <trkpt lat="43.90173" lon="7.51403">
        <ele>641.99985044028</ele>
        <time>2012-02-21T11:41:39Z</time>
      </trkpt>
      <trkpt lat="43.90172" lon="7.51404">
        <ele>640.00006183681</ele>
        <time>2012-02-21T11:41:44Z</time>
      </trkpt>
      <trkpt lat="43.90173" lon="7.51404">
        <ele>640.99981584178</ele>
        <time>2012-02-21T11:41:54Z</time>
      </trkpt>
      <trkpt lat="43.90176" lon="7.51405">
        <ele>642.0000106919</ele>
        <time>2012-02-21T11:41:59Z</time>
      </trkpt>
      <trkpt lat="43.90179" lon="7.51405">
        <ele>635.99989926618</ele>
        <time>2012-02-21T11:42:04Z</time>
      </trkpt>
      <trkpt lat="43.90182" lon="7.51404">
        <ele>634.99992154566</ele>
        <time>2012-02-21T11:42:09Z</time>
      </trkpt>
      <trkpt lat="43.90185" lon="7.51404">
        <ele>630.99980182673</ele>
        <time>2012-02-21T11:42:14Z</time>
      </trkpt>
      <trkpt lat="43.90188" lon="7.51404">
        <ele>632.99992635454</ele>
        <time>2012-02-21T11:42:19Z</time>
      </trkpt>
      <trkpt lat="43.90189" lon="7.51401">
        <ele>633.00001110398</ele>
        <time>2012-02-21T11:42:24Z</time>
      </trkpt>
      <trkpt lat="43.90189" lon="7.51402">
        <ele>634.00031188941</ele>
        <time>2012-02-21T11:42:29Z</time>
      </trkpt>
      <trkpt lat="43.90188" lon="7.51402">
        <ele>640.00002562262</ele>
        <time>2012-02-21T11:42:39Z</time>
      </trkpt>
      <trkpt lat="43.90184" lon="7.51402">
        <ele>635.00041631605</ele>
        <time>2012-02-21T11:42:44Z</time>
      </trkpt>
      <trkpt lat="43.90183" lon="7.51403">
        <ele>636.00027413372</ele>
        <time>2012-02-21T11:42:49Z</time>
      </trkpt>
      <trkpt lat="43.90183" lon="7.51406">
        <ele>634.00045081661</ele>
        <time>2012-02-21T11:42:54Z</time>
      </trkpt>
      <trkpt lat="43.90183" lon="7.51407">
        <ele>632.00048893078</ele>
        <time>2012-02-21T11:42:59Z</time>
      </trkpt>
      <trkpt lat="43.90183" lon="7.51408">
        <ele>640.99983338081</ele>
        <time>2012-02-21T11:43:04Z</time>
      </trkpt>
      <trkpt lat="43.90185" lon="7.51414">
        <ele>639.99960150872</ele>
        <time>2012-02-21T11:43:09Z</time>
      </trkpt>
      <trkpt lat="43.90187" lon="7.51423">
        <ele>634.99977369497</ele>
        <time>2012-02-21T11:43:14Z</time>
      </trkpt>
      <trkpt lat="43.90189" lon="7.51429">
        <ele>635.99993932377</ele>
        <time>2012-02-21T11:43:19Z</time>
      </trkpt>
      <trkpt lat="43.9019" lon="7.51434">
        <ele>631.99996827146</ele>
        <time>2012-02-21T11:43:24Z</time>
      </trkpt>
      <trkpt lat="43.90194" lon="7.51436">
        <ele>636.00003003659</ele>
        <time>2012-02-21T11:43:29Z</time>
      </trkpt>
      <trkpt lat="43.90197" lon="7.51439">
        <ele>632.00002186711</ele>
        <time>2012-02-21T11:43:34Z</time>
      </trkpt>
      <trkpt lat="43.90202" lon="7.5144">
        <ele>630.99906195042</ele>
        <time>2012-02-21T11:43:39Z</time>
      </trkpt>
      <trkpt lat="43.90203" lon="7.51444">
        <ele>630.99957284796</ele>
        <time>2012-02-21T11:43:44Z</time>
      </trkpt>
      <trkpt lat="43.90202" lon="7.51446">
        <ele>633.00049548228</ele>
        <time>2012-02-21T11:43:49Z</time>
      </trkpt>
      <trkpt lat="43.90202" lon="7.51447">
        <ele>626.00008270691</ele>
        <time>2012-02-21T11:43:59Z</time>
      </trkpt>
      <trkpt lat="43.90206" lon="7.51453">
        <ele>626.99981928292</ele>
        <time>2012-02-21T11:44:04Z</time>
      </trkpt>
      <trkpt lat="43.90206" lon="7.51454">
        <ele>625.99991764411</ele>
        <time>2012-02-21T11:44:14Z</time>
      </trkpt>
      <trkpt lat="43.90208" lon="7.51454">
        <ele>620.99970301789</ele>
        <time>2012-02-21T11:44:19Z</time>
      </trkpt>
      <trkpt lat="43.9021" lon="7.51457">
        <ele>617.99966797098</ele>
        <time>2012-02-21T11:44:24Z</time>
      </trkpt>
      <trkpt lat="43.9021" lon="7.51461">
        <ele>622.99991635607</ele>
        <time>2012-02-21T11:44:29Z</time>
      </trkpt>
      <trkpt lat="43.9021" lon="7.51466">
        <ele>626.00065934794</ele>
        <time>2012-02-21T11:44:34Z</time>
      </trkpt>
      <trkpt lat="43.90213" lon="7.51467">
        <ele>623.00058852851</ele>
        <time>2012-02-21T11:44:39Z</time>
      </trkpt>
      <trkpt lat="43.90213" lon="7.51468">
        <ele>624.00070666766</ele>
        <time>2012-02-21T11:44:49Z</time>
      </trkpt>
      <trkpt lat="43.90215" lon="7.51469">
        <ele>625.00031375894</ele>
        <time>2012-02-21T11:45:04Z</time>
      </trkpt>
      <trkpt lat="43.90215" lon="7.51469">
        <ele>624.00020126483</ele>
        <time>2012-02-21T11:45:09Z</time>
      </trkpt>
      <trkpt lat="43.90216" lon="7.51469">
        <ele>627.00023886181</ele>
        <time>2012-02-21T11:45:14Z</time>
      </trkpt>
      <trkpt lat="43.90218" lon="7.51472">
        <ele>625.0002794948</ele>
        <time>2012-02-21T11:45:19Z</time>
      </trkpt>
      <trkpt lat="43.90218" lon="7.51472">
        <ele>629.00028147685</ele>
        <time>2012-02-21T11:45:24Z</time>
      </trkpt>
      <trkpt lat="43.90218" lon="7.51473">
        <ele>631.00006538144</ele>
        <time>2012-02-21T11:45:29Z</time>
      </trkpt>
      <trkpt lat="43.90218" lon="7.51473">
        <ele>639.00007976745</ele>
        <time>2012-02-21T11:45:34Z</time>
      </trkpt>
      <trkpt lat="43.90218" lon="7.51473">
        <ele>640.00011988158</ele>
        <time>2012-02-21T11:45:44Z</time>
      </trkpt>
      <trkpt lat="43.90218" lon="7.51472">
        <ele>640.99999333048</ele>
        <time>2012-02-21T11:45:59Z</time>
      </trkpt>
      <trkpt lat="43.90218" lon="7.51472">
        <ele>644.00011501848</ele>
        <time>2012-02-21T11:46:09Z</time>
      </trkpt>
      <trkpt lat="43.90219" lon="7.51472">
        <ele>641.00037700274</ele>
        <time>2012-02-21T11:46:14Z</time>
      </trkpt>
      <trkpt lat="43.90219" lon="7.51472">
        <ele>639.00040065068</ele>
        <time>2012-02-21T11:46:44Z</time>
      </trkpt>
      <trkpt lat="43.90219" lon="7.51472">
        <ele>634.00025823385</ele>
        <time>2012-02-21T11:46:49Z</time>
      </trkpt>
      <trkpt lat="43.90219" lon="7.51472">
        <ele>637.00011597574</ele>
        <time>2012-02-21T11:46:59Z</time>
      </trkpt>
      <trkpt lat="43.90219" lon="7.51472">
        <ele>635.00023873144</ele>
        <time>2012-02-21T11:47:04Z</time>
      </trkpt>
      <trkpt lat="43.90219" lon="7.51472">
        <ele>637.0000936698</ele>
        <time>2012-02-21T11:47:39Z</time>
      </trkpt>
      <trkpt lat="43.90219" lon="7.51472">
        <ele>624.99993527485</ele>
        <time>2012-02-21T11:47:49Z</time>
      </trkpt>
      <trkpt lat="43.9022" lon="7.51474">
        <ele>625.00044233676</ele>
        <time>2012-02-21T11:47:54Z</time>
      </trkpt>
      <trkpt lat="43.90219" lon="7.51473">
        <ele>627.00060766995</ele>
        <time>2012-02-21T11:47:59Z</time>
      </trkpt>
      <trkpt lat="43.9022" lon="7.51471">
        <ele>625.00028107075</ele>
        <time>2012-02-21T11:48:19Z</time>
      </trkpt>
      <trkpt lat="43.90222" lon="7.51474">
        <ele>624.00015629521</ele>
        <time>2012-02-21T11:48:24Z</time>
      </trkpt>
      <trkpt lat="43.90222" lon="7.5148">
        <ele>629.00015921821</ele>
        <time>2012-02-21T11:48:29Z</time>
      </trkpt>
      <trkpt lat="43.90221" lon="7.51483">
        <ele>635.00016276367</ele>
        <time>2012-02-21T11:48:34Z</time>
      </trkpt>
      <trkpt lat="43.90221" lon="7.51483">
        <ele>629.00004501956</ele>
        <time>2012-02-21T11:48:44Z</time>
      </trkpt>
      <trkpt lat="43.90221" lon="7.51484">
        <ele>629.00015188744</ele>
        <time>2012-02-21T11:48:49Z</time>
      </trkpt>
      <trkpt lat="43.90221" lon="7.51484">
        <ele>631.00016959328</ele>
        <time>2012-02-21T11:48:54Z</time>
      </trkpt>
      <trkpt lat="43.90221" lon="7.51484">
        <ele>635.0002699255</ele>
        <time>2012-02-21T11:49:04Z</time>
      </trkpt>
      <trkpt lat="43.9022" lon="7.51485">
        <ele>642.99991086565</ele>
        <time>2012-02-21T11:49:14Z</time>
      </trkpt>
      <trkpt lat="43.90218" lon="7.51487">
        <ele>646.9999329513</ele>
        <time>2012-02-21T11:49:19Z</time>
      </trkpt>
      <trkpt lat="43.90218" lon="7.51491">
        <ele>644.00031641712</ele>
        <time>2012-02-21T11:49:24Z</time>
      </trkpt>
      <trkpt lat="43.9022" lon="7.51496">
        <ele>629.0001434418</ele>
        <time>2012-02-21T11:49:29Z</time>
      </trkpt>
      <trkpt lat="43.90222" lon="7.51503">
        <ele>617.99995398905</ele>
        <time>2012-02-21T11:49:34Z</time>
      </trkpt>
      <trkpt lat="43.90225" lon="7.51508">
        <ele>616.99988816953</ele>
        <time>2012-02-21T11:49:39Z</time>
      </trkpt>
      <trkpt lat="43.90225" lon="7.51514">
        <ele>617.00046316742</ele>
        <time>2012-02-21T11:49:44Z</time>
      </trkpt>
      <trkpt lat="43.90228" lon="7.51515">
        <ele>612.00041780917</ele>
        <time>2012-02-21T11:49:49Z</time>
      </trkpt>
      <trkpt lat="43.90232" lon="7.51517">
        <ele>617.00075331496</ele>
        <time>2012-02-21T11:49:54Z</time>
      </trkpt>
      <trkpt lat="43.90234" lon="7.51518">
        <ele>620.0004816275</ele>
        <time>2012-02-21T11:49:59Z</time>
      </trkpt>
      <trkpt lat="43.90238" lon="7.51522">
        <ele>626.00038028065</ele>
        <time>2012-02-21T11:50:04Z</time>
      </trkpt>
      <trkpt lat="43.90241" lon="7.51527">
        <ele>619.00037481361</ele>
        <time>2012-02-21T11:50:09Z</time>
      </trkpt>
      <trkpt lat="43.90244" lon="7.51531">
        <ele>617.0006175691</ele>
        <time>2012-02-21T11:50:14Z</time>
      </trkpt>
      <trkpt lat="43.90246" lon="7.51533">
        <ele>612.00040552122</ele>
        <time>2012-02-21T11:50:19Z</time>
      </trkpt>
      <trkpt lat="43.90246" lon="7.51533">
        <ele>614.00000822391</ele>
        <time>2012-02-21T11:50:24Z</time>
      </trkpt>
      <trkpt lat="43.90245" lon="7.51533">
        <ele>617.9998890788</ele>
        <time>2012-02-21T11:50:34Z</time>
      </trkpt>
      <trkpt lat="43.90245" lon="7.51532">
        <ele>618.00019464847</ele>
        <time>2012-02-21T11:50:44Z</time>
      </trkpt>
      <trkpt lat="43.90245" lon="7.51532">
        <ele>633.0000423904</ele>
        <time>2012-02-21T11:51:04Z</time>
      </trkpt>
      <trkpt lat="43.90245" lon="7.51532">
        <ele>619.99995128427</ele>
        <time>2012-02-21T11:51:24Z</time>
      </trkpt>
      <trkpt lat="43.90244" lon="7.51533">
        <ele>622.99917419303</ele>
        <time>2012-02-21T11:51:29Z</time>
      </trkpt>
      <trkpt lat="43.90244" lon="7.51534">
        <ele>620.9998087468</ele>
        <time>2012-02-21T11:51:44Z</time>
      </trkpt>
      <trkpt lat="43.90245" lon="7.51533">
        <ele>623.00083965741</ele>
        <time>2012-02-21T11:51:49Z</time>
      </trkpt>
      <trkpt lat="43.90246" lon="7.51535">
        <ele>633.00040715713</ele>
        <time>2012-02-21T11:52:19Z</time>
      </trkpt>
      <trkpt lat="43.90246" lon="7.5154">
        <ele>630.0008432878</ele>
        <time>2012-02-21T11:52:25Z</time>
      </trkpt>
      <trkpt lat="43.90249" lon="7.51543">
        <ele>621.00064960897</ele>
        <time>2012-02-21T11:52:29Z</time>
      </trkpt>
      <trkpt lat="43.90252" lon="7.51544">
        <ele>622.00034297358</ele>
        <time>2012-02-21T11:52:34Z</time>
      </trkpt>
      <trkpt lat="43.90255" lon="7.51542">
        <ele>617.99949036068</ele>
        <time>2012-02-21T11:52:39Z</time>
      </trkpt>
      <trkpt lat="43.90257" lon="7.51542">
        <ele>613.99925677969</ele>
        <time>2012-02-21T11:52:44Z</time>
      </trkpt>
      <trkpt lat="43.90257" lon="7.51547">
        <ele>623.99976889501</ele>
        <time>2012-02-21T11:52:49Z</time>
      </trkpt>
      <trkpt lat="43.9026" lon="7.5155">
        <ele>624.0001176425</ele>
        <time>2012-02-21T11:52:54Z</time>
      </trkpt>
      <trkpt lat="43.90263" lon="7.51551">
        <ele>627.0001468058</ele>
        <time>2012-02-21T11:52:59Z</time>
      </trkpt>
      <trkpt lat="43.90263" lon="7.51547">
        <ele>627.99982602904</ele>
        <time>2012-02-21T11:53:04Z</time>
      </trkpt>
      <trkpt lat="43.90264" lon="7.51545">
        <ele>629.99962570163</ele>
        <time>2012-02-21T11:53:09Z</time>
      </trkpt>
      <trkpt lat="43.90267" lon="7.51544">
        <ele>628.99900985343</ele>
        <time>2012-02-21T11:53:14Z</time>
      </trkpt>
      <trkpt lat="43.9027" lon="7.51546">
        <ele>624.99946650787</ele>
        <time>2012-02-21T11:53:19Z</time>
      </trkpt>
      <trkpt lat="43.90269" lon="7.51542">
        <ele>631.99956045912</ele>
        <time>2012-02-21T11:53:24Z</time>
      </trkpt>
      <trkpt lat="43.90272" lon="7.5154">
        <ele>627.99936021952</ele>
        <time>2012-02-21T11:53:29Z</time>
      </trkpt>
      <trkpt lat="43.90276" lon="7.51542">
        <ele>635.99923840097</ele>
        <time>2012-02-21T11:53:34Z</time>
      </trkpt>
      <trkpt lat="43.90276" lon="7.51545">
        <ele>639.99979093851</ele>
        <time>2012-02-21T11:53:39Z</time>
      </trkpt>
      <trkpt lat="43.90276" lon="7.51545">
        <ele>653.99986162009</ele>
        <time>2012-02-21T11:53:44Z</time>
      </trkpt>
      <trkpt lat="43.90276" lon="7.51546">
        <ele>652.00023868255</ele>
        <time>2012-02-21T11:53:49Z</time>
      </trkpt>
      <trkpt lat="43.90277" lon="7.51548">
        <ele>651.00000709224</ele>
        <time>2012-02-21T11:53:54Z</time>
      </trkpt>
      <trkpt lat="43.90277" lon="7.51547">
        <ele>649.99988642283</ele>
        <time>2012-02-21T11:53:59Z</time>
      </trkpt>
      <trkpt lat="43.90278" lon="7.5155">
        <ele>649.00028465937</ele>
        <time>2012-02-21T11:54:04Z</time>
      </trkpt>
      <trkpt lat="43.90279" lon="7.51551">
        <ele>641.00084904894</ele>
        <time>2012-02-21T11:54:09Z</time>
      </trkpt>
      <trkpt lat="43.90282" lon="7.51553">
        <ele>643.00036709104</ele>
        <time>2012-02-21T11:54:14Z</time>
      </trkpt>
      <trkpt lat="43.90286" lon="7.51556">
        <ele>645.00038215052</ele>
        <time>2012-02-21T11:54:19Z</time>
      </trkpt>
      <trkpt lat="43.90287" lon="7.51562">
        <ele>641.00090914739</ele>
        <time>2012-02-21T11:54:24Z</time>
      </trkpt>
      <trkpt lat="43.90289" lon="7.51564">
        <ele>637.00121983911</ele>
        <time>2012-02-21T11:54:29Z</time>
      </trkpt>
      <trkpt lat="43.9029" lon="7.5157">
        <ele>632.0021001006</ele>
        <time>2012-02-21T11:54:34Z</time>
      </trkpt>
      <trkpt lat="43.90299" lon="7.51575">
        <ele>624</ele>
        <time>2012-02-21T13:19:36Z</time>
      </trkpt>
      <trkpt lat="43.90289" lon="7.51561">
        <ele>661</ele>
        <time>2012-02-21T13:19:41Z</time>
      </trkpt>
      <trkpt lat="43.90293" lon="7.51554">
        <ele>641</ele>
        <time>2012-02-21T13:19:46Z</time>
      </trkpt>
      <trkpt lat="43.90297" lon="7.51559">
        <ele>638</ele>
        <time>2012-02-21T13:20:06Z</time>
      </trkpt>
      <trkpt lat="43.90297" lon="7.51559">
        <ele>634</ele>
        <time>2012-02-21T13:20:11Z</time>
      </trkpt>
      <trkpt lat="43.90296" lon="7.5156">
        <ele>629</ele>
        <time>2012-02-21T13:20:16Z</time>
      </trkpt>
      <trkpt lat="43.90294" lon="7.51561">
        <ele>627</ele>
        <time>2012-02-21T13:20:21Z</time>
      </trkpt>
      <trkpt lat="43.90293" lon="7.51561">
        <ele>624</ele>
        <time>2012-02-21T13:20:26Z</time>
      </trkpt>
      <trkpt lat="43.90293" lon="7.5156">
        <ele>627</ele>
        <time>2012-02-21T13:20:31Z</time>
      </trkpt>
      <trkpt lat="43.90293" lon="7.51559">
        <ele>638</ele>
        <time>2012-02-21T13:20:36Z</time>
      </trkpt>
      <trkpt lat="43.90293" lon="7.51559">
        <ele>634</ele>
        <time>2012-02-21T13:20:41Z</time>
      </trkpt>
      <trkpt lat="43.90293" lon="7.51559">
        <ele>633</ele>
        <time>2012-02-21T13:20:46Z</time>
      </trkpt>
      <trkpt lat="43.90294" lon="7.5156">
        <ele>639</ele>
        <time>2012-02-21T13:20:51Z</time>
      </trkpt>
      <trkpt lat="43.90294" lon="7.5156">
        <ele>635</ele>
        <time>2012-02-21T13:20:56Z</time>
      </trkpt>
      <trkpt lat="43.90294" lon="7.5156">
        <ele>638</ele>
        <time>2012-02-21T13:21:01Z</time>
      </trkpt>
      <trkpt lat="43.90294" lon="7.5156">
        <ele>643</ele>
        <time>2012-02-21T13:21:06Z</time>
      </trkpt>
      <trkpt lat="43.90294" lon="7.5156">
        <ele>641</ele>
        <time>2012-02-21T13:21:11Z</time>
      </trkpt>
      <trkpt lat="43.90294" lon="7.5156">
        <ele>639</ele>
        <time>2012-02-21T13:21:16Z</time>
      </trkpt>
      <trkpt lat="43.90294" lon="7.51561">
        <ele>635</ele>
        <time>2012-02-21T13:21:21Z</time>
      </trkpt>
      <trkpt lat="43.90293" lon="7.51563">
        <ele>634</ele>
        <time>2012-02-21T13:21:26Z</time>
      </trkpt>
      <trkpt lat="43.90293" lon="7.51563">
        <ele>635</ele>
        <time>2012-02-21T13:21:31Z</time>
      </trkpt>
      <trkpt lat="43.90291" lon="7.51563">
        <ele>634</ele>
        <time>2012-02-21T13:21:36Z</time>
      </trkpt>
      <trkpt lat="43.90291" lon="7.51564">
        <ele>634</ele>
        <time>2012-02-21T13:21:41Z</time>
      </trkpt>
      <trkpt lat="43.90291" lon="7.51564">
        <ele>633</ele>
        <time>2012-02-21T13:21:46Z</time>
      </trkpt>
      <trkpt lat="43.90291" lon="7.51565">
        <ele>628</ele>
        <time>2012-02-21T13:21:51Z</time>
      </trkpt>
      <trkpt lat="43.90291" lon="7.51566">
        <ele>634</ele>
        <time>2012-02-21T13:21:56Z</time>
      </trkpt>
      <trkpt lat="43.90292" lon="7.51567">
        <ele>636</ele>
        <time>2012-02-21T13:22:01Z</time>
      </trkpt>
      <trkpt lat="43.90292" lon="7.51567">
        <ele>636</ele>
        <time>2012-02-21T13:22:06Z</time>
      </trkpt>
      <trkpt lat="43.90292" lon="7.5157">
        <ele>632</ele>
        <time>2012-02-21T13:22:11Z</time>
      </trkpt>
      <trkpt lat="43.90298" lon="7.5157">
        <ele>631</ele>
        <time>2012-02-21T13:22:16Z</time>
      </trkpt>
      <trkpt lat="43.90299" lon="7.5157">
        <ele>625</ele>
        <time>2012-02-21T13:22:21Z</time>
      </trkpt>
      <trkpt lat="43.90298" lon="7.51572">
        <ele>624</ele>
        <time>2012-02-21T13:22:26Z</time>
      </trkpt>
      <trkpt lat="43.90295" lon="7.51574">
        <ele>624</ele>
        <time>2012-02-21T13:22:31Z</time>
      </trkpt>
      <trkpt lat="43.90295" lon="7.51574">
        <ele>625</ele>
        <time>2012-02-21T13:22:36Z</time>
      </trkpt>
      <trkpt lat="43.90294" lon="7.51572">
        <ele>623</ele>
        <time>2012-02-21T13:22:41Z</time>
      </trkpt>
      <trkpt lat="43.90294" lon="7.51572">
        <ele>635</ele>
        <time>2012-02-21T13:22:46Z</time>
      </trkpt>
      <trkpt lat="43.90294" lon="7.51571">
        <ele>633</ele>
        <time>2012-02-21T13:22:51Z</time>
      </trkpt>
      <trkpt lat="43.90295" lon="7.51571">
        <ele>632</ele>
        <time>2012-02-21T13:22:56Z</time>
      </trkpt>
      <trkpt lat="43.90293" lon="7.51571">
        <ele>637</ele>
        <time>2012-02-21T13:23:01Z</time>
      </trkpt>
      <trkpt lat="43.90291" lon="7.51569">
        <ele>630.99999999895</ele>
        <time>2012-02-21T13:23:06Z</time>
      </trkpt>
      <trkpt lat="43.90288" lon="7.51568">
        <ele>634.00000094275</ele>
        <time>2012-02-21T13:23:11Z</time>
      </trkpt>
      <trkpt lat="43.90285" lon="7.51567">
        <ele>633.00000326189</ele>
        <time>2012-02-21T13:23:16Z</time>
      </trkpt>
      <trkpt lat="43.90282" lon="7.51568">
        <ele>632.00000377147</ele>
        <time>2012-02-21T13:23:21Z</time>
      </trkpt>
      <trkpt lat="43.90284" lon="7.51569">
        <ele>630.00000121519</ele>
        <time>2012-02-21T13:23:26Z</time>
      </trkpt>
      <trkpt lat="43.90284" lon="7.5157">
        <ele>631.99998301696</ele>
        <time>2012-02-21T13:23:31Z</time>
      </trkpt>
      <trkpt lat="43.90283" lon="7.5157">
        <ele>631.99997935813</ele>
        <time>2012-02-21T13:23:36Z</time>
      </trkpt>
      <trkpt lat="43.90281" lon="7.5157">
        <ele>629.9999805059</ele>
        <time>2012-02-21T13:23:41Z</time>
      </trkpt>
      <trkpt lat="43.90274" lon="7.51568">
        <ele>630.99999133434</ele>
        <time>2012-02-21T13:23:46Z</time>
      </trkpt>
      <trkpt lat="43.90271" lon="7.51561">
        <ele>632.00000301315</ele>
        <time>2012-02-21T13:23:51Z</time>
      </trkpt>
      <trkpt lat="43.90267" lon="7.51564">
        <ele>631.00000126963</ele>
        <time>2012-02-21T13:23:56Z</time>
      </trkpt>
      <trkpt lat="43.90261" lon="7.51563">
        <ele>631.00000304435</ele>
        <time>2012-02-21T13:24:01Z</time>
      </trkpt>
      <trkpt lat="43.90257" lon="7.5156">
        <ele>623.00000781713</ele>
        <time>2012-02-21T13:24:06Z</time>
      </trkpt>
      <trkpt lat="43.90255" lon="7.51554">
        <ele>622.00001859937</ele>
        <time>2012-02-21T13:24:11Z</time>
      </trkpt>
      <trkpt lat="43.90251" lon="7.51554">
        <ele>615.00002996272</ele>
        <time>2012-02-21T13:24:16Z</time>
      </trkpt>
      <trkpt lat="43.90249" lon="7.51555">
        <ele>616.00003382541</ele>
        <time>2012-02-21T13:24:21Z</time>
      </trkpt>
      <trkpt lat="43.90245" lon="7.51552">
        <ele>616.00002484758</ele>
        <time>2012-02-21T13:24:26Z</time>
      </trkpt>
      <trkpt lat="43.90243" lon="7.51546">
        <ele>612.00002489787</ele>
        <time>2012-02-21T13:24:31Z</time>
      </trkpt>
      <trkpt lat="43.90242" lon="7.51543">
        <ele>612.00002854981</ele>
        <time>2012-02-21T13:24:36Z</time>
      </trkpt>
      <trkpt lat="43.9024" lon="7.51538">
        <ele>617.00001470424</ele>
        <time>2012-02-21T13:24:41Z</time>
      </trkpt>
      <trkpt lat="43.90237" lon="7.51534">
        <ele>617.00001022837</ele>
        <time>2012-02-21T13:24:46Z</time>
      </trkpt>
      <trkpt lat="43.90233" lon="7.51531">
        <ele>617.00001277922</ele>
        <time>2012-02-21T13:24:51Z</time>
      </trkpt>
      <trkpt lat="43.90231" lon="7.51524">
        <ele>615.00001175735</ele>
        <time>2012-02-21T13:24:56Z</time>
      </trkpt>
      <trkpt lat="43.90229" lon="7.51517">
        <ele>621.00003723487</ele>
        <time>2012-02-21T13:25:01Z</time>
      </trkpt>
      <trkpt lat="43.90227" lon="7.51512">
        <ele>620.00001726218</ele>
        <time>2012-02-21T13:25:06Z</time>
      </trkpt>
      <trkpt lat="43.90227" lon="7.51504">
        <ele>622.00001219003</ele>
        <time>2012-02-21T13:25:11Z</time>
      </trkpt>
      <trkpt lat="43.90229" lon="7.51495">
        <ele>628.00000197639</ele>
        <time>2012-02-21T13:25:16Z</time>
      </trkpt>
      <trkpt lat="43.90228" lon="7.51485">
        <ele>634.99997022413</ele>
        <time>2012-02-21T13:25:21Z</time>
      </trkpt>
      <trkpt lat="43.90226" lon="7.51475">
        <ele>639.99997848944</ele>
        <time>2012-02-21T13:25:26Z</time>
      </trkpt>
      <trkpt lat="43.90224" lon="7.51468">
        <ele>641.99995891287</ele>
        <time>2012-02-21T13:25:31Z</time>
      </trkpt>
      <trkpt lat="43.90219" lon="7.5146">
        <ele>643.99997148893</ele>
        <time>2012-02-21T13:25:36Z</time>
      </trkpt>
      <trkpt lat="43.90216" lon="7.51456">
        <ele>640.0000446785</ele>
        <time>2012-02-21T13:25:41Z</time>
      </trkpt>
      <trkpt lat="43.90212" lon="7.51454">
        <ele>639.99997414329</ele>
        <time>2012-02-21T13:25:46Z</time>
      </trkpt>
      <trkpt lat="43.90208" lon="7.51452">
        <ele>630.00001582028</ele>
        <time>2012-02-21T13:25:51Z</time>
      </trkpt>
      <trkpt lat="43.90204" lon="7.51452">
        <ele>632.00002017365</ele>
        <time>2012-02-21T13:25:56Z</time>
      </trkpt>
      <trkpt lat="43.90204" lon="7.51451">
        <ele>628.00007095673</ele>
        <time>2012-02-21T13:26:06Z</time>
      </trkpt>
      <trkpt lat="43.90203" lon="7.51447">
        <ele>624.00003357867</ele>
        <time>2012-02-21T13:26:11Z</time>
      </trkpt>
      <trkpt lat="43.90201" lon="7.51442">
        <ele>626.00000912631</ele>
        <time>2012-02-21T13:26:16Z</time>
      </trkpt>
      <trkpt lat="43.902" lon="7.51437">
        <ele>628.99999750034</ele>
        <time>2012-02-21T13:26:21Z</time>
      </trkpt>
      <trkpt lat="43.90198" lon="7.5143">
        <ele>631.99997870462</ele>
        <time>2012-02-21T13:26:26Z</time>
      </trkpt>
      <trkpt lat="43.90195" lon="7.51425">
        <ele>629.99997743931</ele>
        <time>2012-02-21T13:26:31Z</time>
      </trkpt>
      <trkpt lat="43.90191" lon="7.5142">
        <ele>632.99998405898</ele>
        <time>2012-02-21T13:26:36Z</time>
      </trkpt>
      <trkpt lat="43.90188" lon="7.51415">
        <ele>636.9999651519</ele>
        <time>2012-02-21T13:26:41Z</time>
      </trkpt>
      <trkpt lat="43.90184" lon="7.51411">
        <ele>635.99997165313</ele>
        <time>2012-02-21T13:26:46Z</time>
      </trkpt>
      <trkpt lat="43.90182" lon="7.51406">
        <ele>636.00000181711</ele>
        <time>2012-02-21T13:26:51Z</time>
      </trkpt>
      <trkpt lat="43.90178" lon="7.51403">
        <ele>635.99999587289</ele>
        <time>2012-02-21T13:26:56Z</time>
      </trkpt>
      <trkpt lat="43.90175" lon="7.514">
        <ele>635.99997909477</ele>
        <time>2012-02-21T13:27:01Z</time>
      </trkpt>
      <trkpt lat="43.90173" lon="7.51399">
        <ele>639.00002067594</ele>
        <time>2012-02-21T13:27:06Z</time>
      </trkpt>
      <trkpt lat="43.90172" lon="7.51398">
        <ele>637.00000056578</ele>
        <time>2012-02-21T13:27:11Z</time>
      </trkpt>
      <trkpt lat="43.90169" lon="7.51396">
        <ele>637.99999067139</ele>
        <time>2012-02-21T13:27:16Z</time>
      </trkpt>
      <trkpt lat="43.90166" lon="7.51396">
        <ele>638.00000487996</ele>
        <time>2012-02-21T13:27:21Z</time>
      </trkpt>
      <trkpt lat="43.90163" lon="7.51395">
        <ele>637.00001119383</ele>
        <time>2012-02-21T13:27:26Z</time>
      </trkpt>
      <trkpt lat="43.9016" lon="7.51395">
        <ele>641.00001070664</ele>
        <time>2012-02-21T13:27:31Z</time>
      </trkpt>
      <trkpt lat="43.90158" lon="7.51392">
        <ele>640.00001003462</ele>
        <time>2012-02-21T13:27:36Z</time>
      </trkpt>
      <trkpt lat="43.90155" lon="7.51389">
        <ele>642.00000763098</ele>
        <time>2012-02-21T13:27:41Z</time>
      </trkpt>
      <trkpt lat="43.90154" lon="7.51385">
        <ele>647.0000165166</ele>
        <time>2012-02-21T13:27:46Z</time>
      </trkpt>
      <trkpt lat="43.90154" lon="7.51381">
        <ele>647.00001332194</ele>
        <time>2012-02-21T13:27:51Z</time>
      </trkpt>
      <trkpt lat="43.90153" lon="7.51376">
        <ele>648.00001983559</ele>
        <time>2012-02-21T13:27:56Z</time>
      </trkpt>
      <trkpt lat="43.90152" lon="7.51371">
        <ele>645.00001977625</ele>
        <time>2012-02-21T13:28:01Z</time>
      </trkpt>
      <trkpt lat="43.90151" lon="7.51366">
        <ele>645.00001580747</ele>
        <time>2012-02-21T13:28:06Z</time>
      </trkpt>
      <trkpt lat="43.90149" lon="7.51361">
        <ele>637.99999825927</ele>
        <time>2012-02-21T13:28:11Z</time>
      </trkpt>
      <trkpt lat="43.90145" lon="7.51356">
        <ele>641.99999139253</ele>
        <time>2012-02-21T13:28:16Z</time>
      </trkpt>
      <trkpt lat="43.90142" lon="7.51351">
        <ele>641.00000758604</ele>
        <time>2012-02-21T13:28:21Z</time>
      </trkpt>
      <trkpt lat="43.90139" lon="7.51348">
        <ele>640.00001700627</ele>
        <time>2012-02-21T13:28:26Z</time>
      </trkpt>
      <trkpt lat="43.90136" lon="7.51347">
        <ele>639.00003743673</ele>
        <time>2012-02-21T13:28:31Z</time>
      </trkpt>
      <trkpt lat="43.90133" lon="7.51343">
        <ele>638.99998999954</ele>
        <time>2012-02-21T13:28:36Z</time>
      </trkpt>
      <trkpt lat="43.9013" lon="7.51337">
        <ele>641.99999099459</ele>
        <time>2012-02-21T13:28:41Z</time>
      </trkpt>
      <trkpt lat="43.90127" lon="7.5133">
        <ele>642.99998781481</ele>
        <time>2012-02-21T13:28:46Z</time>
      </trkpt>
      <trkpt lat="43.90124" lon="7.51325">
        <ele>646.99999564906</ele>
        <time>2012-02-21T13:28:51Z</time>
      </trkpt>
      <trkpt lat="43.90122" lon="7.51319">
        <ele>642.99998643179</ele>
        <time>2012-02-21T13:28:56Z</time>
      </trkpt>
      <trkpt lat="43.90121" lon="7.51312">
        <ele>641.99998698305</ele>
        <time>2012-02-21T13:29:01Z</time>
      </trkpt>
      <trkpt lat="43.90119" lon="7.51306">
        <ele>642.00002008286</ele>
        <time>2012-02-21T13:29:06Z</time>
      </trkpt>
      <trkpt lat="43.90118" lon="7.513">
        <ele>644.9999878239</ele>
        <time>2012-02-21T13:29:11Z</time>
      </trkpt>
      <trkpt lat="43.90116" lon="7.51292">
        <ele>641.99997061081</ele>
        <time>2012-02-21T13:29:16Z</time>
      </trkpt>
      <trkpt lat="43.90113" lon="7.51284">
        <ele>642.99998682528</ele>
        <time>2012-02-21T13:29:21Z</time>
      </trkpt>
      <trkpt lat="43.9011" lon="7.51278">
        <ele>645.00002054956</ele>
        <time>2012-02-21T13:29:26Z</time>
      </trkpt>
      <trkpt lat="43.90109" lon="7.51278">
        <ele>642.00002676433</ele>
        <time>2012-02-21T13:29:31Z</time>
      </trkpt>
      <trkpt lat="43.90109" lon="7.51272">
        <ele>640.99999759272</ele>
        <time>2012-02-21T13:29:36Z</time>
      </trkpt>
      <trkpt lat="43.90109" lon="7.51263">
        <ele>641.99997692302</ele>
        <time>2012-02-21T13:29:41Z</time>
      </trkpt>
      <trkpt lat="43.90108" lon="7.51254">
        <ele>642.99999852981</ele>
        <time>2012-02-21T13:29:46Z</time>
      </trkpt>
      <trkpt lat="43.90108" lon="7.51245">
        <ele>643.99994254078</ele>
        <time>2012-02-21T13:29:51Z</time>
      </trkpt>
      <trkpt lat="43.90107" lon="7.51236">
        <ele>643.99996758509</ele>
        <time>2012-02-21T13:29:56Z</time>
      </trkpt>
      <trkpt lat="43.90108" lon="7.51228">
        <ele>639.00004561453</ele>
        <time>2012-02-21T13:30:01Z</time>
      </trkpt>
      <trkpt lat="43.90108" lon="7.51223">
        <ele>641.00003246837</ele>
        <time>2012-02-21T13:30:06Z</time>
      </trkpt>
      <trkpt lat="43.90108" lon="7.51217">
        <ele>638.99998918794</ele>
        <time>2012-02-21T13:30:11Z</time>
      </trkpt>
      <trkpt lat="43.9011" lon="7.51213">
        <ele>643.00000502133</ele>
        <time>2012-02-21T13:30:16Z</time>
      </trkpt>
      <trkpt lat="43.90113" lon="7.51208">
        <ele>639.99999572538</ele>
        <time>2012-02-21T13:30:21Z</time>
      </trkpt>
      <trkpt lat="43.90117" lon="7.51203">
        <ele>643.00002634595</ele>
        <time>2012-02-21T13:30:26Z</time>
      </trkpt>
      <trkpt lat="43.90121" lon="7.51197">
        <ele>642.00000230373</ele>
        <time>2012-02-21T13:30:31Z</time>
      </trkpt>
      <trkpt lat="43.90123" lon="7.51189">
        <ele>641.00001663942</ele>
        <time>2012-02-21T13:30:36Z</time>
      </trkpt>
      <trkpt lat="43.90124" lon="7.51183">
        <ele>638.00003009721</ele>
        <time>2012-02-21T13:30:41Z</time>
      </trkpt>
      <trkpt lat="43.90124" lon="7.51175">
        <ele>639.00001554073</ele>
        <time>2012-02-21T13:30:46Z</time>
      </trkpt>
      <trkpt lat="43.90123" lon="7.51167">
        <ele>633.99999018635</ele>
        <time>2012-02-21T13:30:51Z</time>
      </trkpt>
      <trkpt lat="43.90122" lon="7.5116">
        <ele>642.00003201675</ele>
        <time>2012-02-21T13:30:56Z</time>
      </trkpt>
      <trkpt lat="43.90122" lon="7.51153">
        <ele>640.00005117775</ele>
        <time>2012-02-21T13:31:01Z</time>
      </trkpt>
      <trkpt lat="43.90122" lon="7.51147">
        <ele>638.00006869199</ele>
        <time>2012-02-21T13:31:06Z</time>
      </trkpt>
      <trkpt lat="43.90122" lon="7.5114">
        <ele>634.00005991003</ele>
        <time>2012-02-21T13:31:11Z</time>
      </trkpt>
      <trkpt lat="43.90122" lon="7.51134">
        <ele>632.00003050176</ele>
        <time>2012-02-21T13:31:16Z</time>
      </trkpt>
      <trkpt lat="43.90121" lon="7.51126">
        <ele>632.00006852271</ele>
        <time>2012-02-21T13:31:21Z</time>
      </trkpt>
      <trkpt lat="43.9012" lon="7.5112">
        <ele>625.00002853982</ele>
        <time>2012-02-21T13:31:26Z</time>
      </trkpt>
      <trkpt lat="43.90119" lon="7.51112">
        <ele>627.00003409932</ele>
        <time>2012-02-21T13:31:31Z</time>
      </trkpt>
      <trkpt lat="43.90118" lon="7.51105">
        <ele>627.00003135158</ele>
        <time>2012-02-21T13:31:36Z</time>
      </trkpt>
      <trkpt lat="43.90117" lon="7.51097">
        <ele>628.00002228936</ele>
        <time>2012-02-21T13:31:41Z</time>
      </trkpt>
      <trkpt lat="43.90116" lon="7.51091">
        <ele>629.00001729858</ele>
        <time>2012-02-21T13:31:46Z</time>
      </trkpt>
      <trkpt lat="43.90115" lon="7.51083">
        <ele>627.9999834268</ele>
        <time>2012-02-21T13:31:51Z</time>
      </trkpt>
      <trkpt lat="43.90114" lon="7.51074">
        <ele>634.00002142055</ele>
        <time>2012-02-21T13:31:56Z</time>
      </trkpt>
      <trkpt lat="43.90111" lon="7.51068">
        <ele>631.00004352925</ele>
        <time>2012-02-21T13:32:01Z</time>
      </trkpt>
      <trkpt lat="43.90108" lon="7.51059">
        <ele>633.99994635175</ele>
        <time>2012-02-21T13:32:06Z</time>
      </trkpt>
      <trkpt lat="43.90104" lon="7.5105">
        <ele>623.99993988672</ele>
        <time>2012-02-21T13:32:11Z</time>
      </trkpt>
      <trkpt lat="43.90101" lon="7.51045">
        <ele>635.00007415657</ele>
        <time>2012-02-21T13:32:16Z</time>
      </trkpt>
      <trkpt lat="43.90098" lon="7.5104">
        <ele>631.00007413444</ele>
        <time>2012-02-21T13:32:21Z</time>
      </trkpt>
      <trkpt lat="43.90094" lon="7.51034">
        <ele>635.00001132244</ele>
        <time>2012-02-21T13:32:26Z</time>
      </trkpt>
      <trkpt lat="43.90091" lon="7.51027">
        <ele>631.00003702632</ele>
        <time>2012-02-21T13:32:31Z</time>
      </trkpt>
      <trkpt lat="43.90089" lon="7.5102">
        <ele>632.00002700683</ele>
        <time>2012-02-21T13:32:36Z</time>
      </trkpt>
      <trkpt lat="43.90085" lon="7.51013">
        <ele>628.9999560529</ele>
        <time>2012-02-21T13:32:41Z</time>
      </trkpt>
      <trkpt lat="43.90082" lon="7.51005">
        <ele>626.99998717924</ele>
        <time>2012-02-21T13:32:46Z</time>
      </trkpt>
      <trkpt lat="43.90079" lon="7.50998">
        <ele>629.99997743486</ele>
        <time>2012-02-21T13:32:51Z</time>
      </trkpt>
      <trkpt lat="43.90077" lon="7.5099">
        <ele>638.99998962985</ele>
        <time>2012-02-21T13:32:56Z</time>
      </trkpt>
      <trkpt lat="43.90077" lon="7.50981">
        <ele>633.9999834161</ele>
        <time>2012-02-21T13:33:01Z</time>
      </trkpt>
      <trkpt lat="43.90077" lon="7.50973">
        <ele>635.00003131302</ele>
        <time>2012-02-21T13:33:06Z</time>
      </trkpt>
      <trkpt lat="43.90076" lon="7.50967">
        <ele>633.00002298465</ele>
        <time>2012-02-21T13:33:11Z</time>
      </trkpt>
      <trkpt lat="43.90075" lon="7.5096">
        <ele>637.00001848748</ele>
        <time>2012-02-21T13:33:16Z</time>
      </trkpt>
      <trkpt lat="43.90075" lon="7.50954">
        <ele>633.99999053</ele>
        <time>2012-02-21T13:33:21Z</time>
      </trkpt>
      <trkpt lat="43.90076" lon="7.50947">
        <ele>632.00004948841</ele>
        <time>2012-02-21T13:33:26Z</time>
      </trkpt>
      <trkpt lat="43.90077" lon="7.50941">
        <ele>633.00000587573</ele>
        <time>2012-02-21T13:33:31Z</time>
      </trkpt>
      <trkpt lat="43.90077" lon="7.50935">
        <ele>631.00002585973</ele>
        <time>2012-02-21T13:33:36Z</time>
      </trkpt>
      <trkpt lat="43.90078" lon="7.50929">
        <ele>638.99998275607</ele>
        <time>2012-02-21T13:33:41Z</time>
      </trkpt>
      <trkpt lat="43.90081" lon="7.50921">
        <ele>637.99997511324</ele>
        <time>2012-02-21T13:33:46Z</time>
      </trkpt>
      <trkpt lat="43.90082" lon="7.50915">
        <ele>635.00001479769</ele>
        <time>2012-02-21T13:33:51Z</time>
      </trkpt>
      <trkpt lat="43.90085" lon="7.5091">
        <ele>634.00002232003</ele>
        <time>2012-02-21T13:33:56Z</time>
      </trkpt>
      <trkpt lat="43.90086" lon="7.50905">
        <ele>633.0000436089</ele>
        <time>2012-02-21T13:34:01Z</time>
      </trkpt>
      <trkpt lat="43.90088" lon="7.50901">
        <ele>637.0000595092</ele>
        <time>2012-02-21T13:34:06Z</time>
      </trkpt>
      <trkpt lat="43.90088" lon="7.50895">
        <ele>636.00005634496</ele>
        <time>2012-02-21T13:34:11Z</time>
      </trkpt>
      <trkpt lat="43.9009" lon="7.50889">
        <ele>642.00002829074</ele>
        <time>2012-02-21T13:34:16Z</time>
      </trkpt>
      <trkpt lat="43.90092" lon="7.50882">
        <ele>641.99998558885</ele>
        <time>2012-02-21T13:34:21Z</time>
      </trkpt>
      <trkpt lat="43.90094" lon="7.50876">
        <ele>641.00002193394</ele>
        <time>2012-02-21T13:34:26Z</time>
      </trkpt>
      <trkpt lat="43.90095" lon="7.50868">
        <ele>637.99999208858</ele>
        <time>2012-02-21T13:34:31Z</time>
      </trkpt>
      <trkpt lat="43.90096" lon="7.50862">
        <ele>637.00000023313</ele>
        <time>2012-02-21T13:34:36Z</time>
      </trkpt>
      <trkpt lat="43.90097" lon="7.50857">
        <ele>638.00002013453</ele>
        <time>2012-02-21T13:34:41Z</time>
      </trkpt>
      <trkpt lat="43.90098" lon="7.50852">
        <ele>641.00005659442</ele>
        <time>2012-02-21T13:34:46Z</time>
      </trkpt>
      <trkpt lat="43.90098" lon="7.50846">
        <ele>639.99997522811</ele>
        <time>2012-02-21T13:34:51Z</time>
      </trkpt>
      <trkpt lat="43.90098" lon="7.50839">
        <ele>642.99994267754</ele>
        <time>2012-02-21T13:34:56Z</time>
      </trkpt>
      <trkpt lat="43.90097" lon="7.50832">
        <ele>640.00001274237</ele>
        <time>2012-02-21T13:35:01Z</time>
      </trkpt>
      <trkpt lat="43.90095" lon="7.50825">
        <ele>640.99990211517</ele>
        <time>2012-02-21T13:35:06Z</time>
      </trkpt>
      <trkpt lat="43.90092" lon="7.50817">
        <ele>643.99990671206</ele>
        <time>2012-02-21T13:35:11Z</time>
      </trkpt>
      <trkpt lat="43.9009" lon="7.5081">
        <ele>638.99997841934</ele>
        <time>2012-02-21T13:35:16Z</time>
      </trkpt>
      <trkpt lat="43.90088" lon="7.50802">
        <ele>638.99994543661</ele>
        <time>2012-02-21T13:35:21Z</time>
      </trkpt>
      <trkpt lat="43.90086" lon="7.50796">
        <ele>636.99996331632</ele>
        <time>2012-02-21T13:35:26Z</time>
      </trkpt>
      <trkpt lat="43.90084" lon="7.5079">
        <ele>638.99998425583</ele>
        <time>2012-02-21T13:35:31Z</time>
      </trkpt>
      <trkpt lat="43.90083" lon="7.50784">
        <ele>636.0000323571</ele>
        <time>2012-02-21T13:35:36Z</time>
      </trkpt>
      <trkpt lat="43.90081" lon="7.50779">
        <ele>638.00002992066</ele>
        <time>2012-02-21T13:35:41Z</time>
      </trkpt>
      <trkpt lat="43.90079" lon="7.50774">
        <ele>641.00002663603</ele>
        <time>2012-02-21T13:35:46Z</time>
      </trkpt>
      <trkpt lat="43.90076" lon="7.5077">
        <ele>643.00001752015</ele>
        <time>2012-02-21T13:35:51Z</time>
      </trkpt>
      <trkpt lat="43.90074" lon="7.50764">
        <ele>642.99996010909</ele>
        <time>2012-02-21T13:35:56Z</time>
      </trkpt>
      <trkpt lat="43.90073" lon="7.50757">
        <ele>644.99999396454</ele>
        <time>2012-02-21T13:36:01Z</time>
      </trkpt>
      <trkpt lat="43.90072" lon="7.50752">
        <ele>643.99998955896</ele>
        <time>2012-02-21T13:36:06Z</time>
      </trkpt>
      <trkpt lat="43.90071" lon="7.50745">
        <ele>645.99995920304</ele>
        <time>2012-02-21T13:36:11Z</time>
      </trkpt>
      <trkpt lat="43.90069" lon="7.5074">
        <ele>646.00006061076</ele>
        <time>2012-02-21T13:36:16Z</time>
      </trkpt>
      <trkpt lat="43.90069" lon="7.50738">
        <ele>648.99999893326</ele>
        <time>2012-02-21T13:36:21Z</time>
      </trkpt>
      <trkpt lat="43.90068" lon="7.50735">
        <ele>645.00009278371</ele>
        <time>2012-02-21T13:36:26Z</time>
      </trkpt>
      <trkpt lat="43.90068" lon="7.50735">
        <ele>648.00013144092</ele>
        <time>2012-02-21T13:36:31Z</time>
      </trkpt>
      <trkpt lat="43.90068" lon="7.50735">
        <ele>645.00006067149</ele>
        <time>2012-02-21T13:36:36Z</time>
      </trkpt>
      <trkpt lat="43.90069" lon="7.50733">
        <ele>646.00014672279</ele>
        <time>2012-02-21T13:36:41Z</time>
      </trkpt>
      <trkpt lat="43.90067" lon="7.50734">
        <ele>644.00012929219</ele>
        <time>2012-02-21T13:36:46Z</time>
      </trkpt>
      <trkpt lat="43.90066" lon="7.50733">
        <ele>649.00013913048</ele>
        <time>2012-02-21T13:36:51Z</time>
      </trkpt>
      <trkpt lat="43.90067" lon="7.50733">
        <ele>645.00007142984</ele>
        <time>2012-02-21T13:36:56Z</time>
      </trkpt>
      <trkpt lat="43.90067" lon="7.50733">
        <ele>643.99993128199</ele>
        <time>2012-02-21T13:37:16Z</time>
      </trkpt>
      <trkpt lat="43.90067" lon="7.50734">
        <ele>645.9999011785</ele>
        <time>2012-02-21T13:37:21Z</time>
      </trkpt>
      <trkpt lat="43.90068" lon="7.50734">
        <ele>643.9998827839</ele>
        <time>2012-02-21T13:37:41Z</time>
      </trkpt>
      <trkpt lat="43.90068" lon="7.50731">
        <ele>644.99993652313</ele>
        <time>2012-02-21T13:37:46Z</time>
      </trkpt>
      <trkpt lat="43.90069" lon="7.50729">
        <ele>644.00001782561</ele>
        <time>2012-02-21T13:37:51Z</time>
      </trkpt>
      <trkpt lat="43.90067" lon="7.50726">
        <ele>644.00008952424</ele>
        <time>2012-02-21T13:37:56Z</time>
      </trkpt>
      <trkpt lat="43.90067" lon="7.50723">
        <ele>647.00010000937</ele>
        <time>2012-02-21T13:38:01Z</time>
      </trkpt>
      <trkpt lat="43.90067" lon="7.50719">
        <ele>649.00025223399</ele>
        <time>2012-02-21T13:38:06Z</time>
      </trkpt>
      <trkpt lat="43.90068" lon="7.5072">
        <ele>654.00002433318</ele>
        <time>2012-02-21T13:38:11Z</time>
      </trkpt>
      <trkpt lat="43.90065" lon="7.50716">
        <ele>642.99979106669</ele>
        <time>2012-02-21T13:38:16Z</time>
      </trkpt>
      <trkpt lat="43.90063" lon="7.5071">
        <ele>647.00000361687</ele>
        <time>2012-02-21T13:38:21Z</time>
      </trkpt>
      <trkpt lat="43.90062" lon="7.50709">
        <ele>648.99997555026</ele>
        <time>2012-02-21T13:38:26Z</time>
      </trkpt>
      <trkpt lat="43.90062" lon="7.50708">
        <ele>652.99995307441</ele>
        <time>2012-02-21T13:38:31Z</time>
      </trkpt>
      <trkpt lat="43.90062" lon="7.50707">
        <ele>651.99998496961</ele>
        <time>2012-02-21T13:38:41Z</time>
      </trkpt>
      <trkpt lat="43.90062" lon="7.50702">
        <ele>649.99996427134</ele>
        <time>2012-02-21T13:38:46Z</time>
      </trkpt>
      <trkpt lat="43.90062" lon="7.50697">
        <ele>651.00000567352</ele>
        <time>2012-02-21T13:38:51Z</time>
      </trkpt>
      <trkpt lat="43.90062" lon="7.50692">
        <ele>649.00004182433</ele>
        <time>2012-02-21T13:38:56Z</time>
      </trkpt>
      <trkpt lat="43.90063" lon="7.50687">
        <ele>650.00003826945</ele>
        <time>2012-02-21T13:39:01Z</time>
      </trkpt>
      <trkpt lat="43.90063" lon="7.50682">
        <ele>650.00006188743</ele>
        <time>2012-02-21T13:39:06Z</time>
      </trkpt>
      <trkpt lat="43.90063" lon="7.50678">
        <ele>651.00003905155</ele>
        <time>2012-02-21T13:39:11Z</time>
      </trkpt>
      <trkpt lat="43.90063" lon="7.50671">
        <ele>654.99991560287</ele>
        <time>2012-02-21T13:39:16Z</time>
      </trkpt>
      <trkpt lat="43.90063" lon="7.50664">
        <ele>651.99998364505</ele>
        <time>2012-02-21T13:39:21Z</time>
      </trkpt>
      <trkpt lat="43.90062" lon="7.50659">
        <ele>653.00003718059</ele>
        <time>2012-02-21T13:39:26Z</time>
      </trkpt>
      <trkpt lat="43.90062" lon="7.50656">
        <ele>653.00010228389</ele>
        <time>2012-02-21T13:39:31Z</time>
      </trkpt>
      <trkpt lat="43.90062" lon="7.50651">
        <ele>655.00003043609</ele>
        <time>2012-02-21T13:39:36Z</time>
      </trkpt>
      <trkpt lat="43.90062" lon="7.50646">
        <ele>656.99999326847</ele>
        <time>2012-02-21T13:39:41Z</time>
      </trkpt>
      <trkpt lat="43.90061" lon="7.50641">
        <ele>657.00000550976</ele>
        <time>2012-02-21T13:39:46Z</time>
      </trkpt>
      <trkpt lat="43.9006" lon="7.50637">
        <ele>653.00007803311</ele>
        <time>2012-02-21T13:39:51Z</time>
      </trkpt>
      <trkpt lat="43.90062" lon="7.50632">
        <ele>658.0000533004</ele>
        <time>2012-02-21T13:39:56Z</time>
      </trkpt>
      <trkpt lat="43.90062" lon="7.50628">
        <ele>656.00003312759</ele>
        <time>2012-02-21T13:40:01Z</time>
      </trkpt>
      <trkpt lat="43.90061" lon="7.50623">
        <ele>661.99999956931</ele>
        <time>2012-02-21T13:40:06Z</time>
      </trkpt>
      <trkpt lat="43.90061" lon="7.50619">
        <ele>661.00008214238</ele>
        <time>2012-02-21T13:40:11Z</time>
      </trkpt>
      <trkpt lat="43.90061" lon="7.50616">
        <ele>663.00007379356</ele>
        <time>2012-02-21T13:40:16Z</time>
      </trkpt>
      <trkpt lat="43.90062" lon="7.50611">
        <ele>662.99998907864</ele>
        <time>2012-02-21T13:40:21Z</time>
      </trkpt>
      <trkpt lat="43.90063" lon="7.50605">
        <ele>658.00000598359</ele>
        <time>2012-02-21T13:40:26Z</time>
      </trkpt>
      <trkpt lat="43.90064" lon="7.50601">
        <ele>657.00007883679</ele>
        <time>2012-02-21T13:40:31Z</time>
      </trkpt>
      <trkpt lat="43.90065" lon="7.50598">
        <ele>660.00009551425</ele>
        <time>2012-02-21T13:40:36Z</time>
      </trkpt>
      <trkpt lat="43.90065" lon="7.50595">
        <ele>664.00012439953</ele>
        <time>2012-02-21T13:40:41Z</time>
      </trkpt>
      <trkpt lat="43.90065" lon="7.50592">
        <ele>660.00009282589</ele>
        <time>2012-02-21T13:40:46Z</time>
      </trkpt>
      <trkpt lat="43.90064" lon="7.50589">
        <ele>661.00010334631</ele>
        <time>2012-02-21T13:40:51Z</time>
      </trkpt>
      <trkpt lat="43.90065" lon="7.50585">
        <ele>661.0000135732</ele>
        <time>2012-02-21T13:40:56Z</time>
      </trkpt>
      <trkpt lat="43.90064" lon="7.50581">
        <ele>662.00006350172</ele>
        <time>2012-02-21T13:41:01Z</time>
      </trkpt>
      <trkpt lat="43.90063" lon="7.50578">
        <ele>667.00008620808</ele>
        <time>2012-02-21T13:41:06Z</time>
      </trkpt>
      <trkpt lat="43.90063" lon="7.50574">
        <ele>662.00008441488</ele>
        <time>2012-02-21T13:41:11Z</time>
      </trkpt>
      <trkpt lat="43.90061" lon="7.50571">
        <ele>661.00005455805</ele>
        <time>2012-02-21T13:41:16Z</time>
      </trkpt>
      <trkpt lat="43.9006" lon="7.50567">
        <ele>664.0000342221</ele>
        <time>2012-02-21T13:41:21Z</time>
      </trkpt>
      <trkpt lat="43.90059" lon="7.50563">
        <ele>663.00002137809</ele>
        <time>2012-02-21T13:41:26Z</time>
      </trkpt>
      <trkpt lat="43.90059" lon="7.50559">
        <ele>664.00006801446</ele>
        <time>2012-02-21T13:41:31Z</time>
      </trkpt>
      <trkpt lat="43.90059" lon="7.50556">
        <ele>664.00008014705</ele>
        <time>2012-02-21T13:41:36Z</time>
      </trkpt>
      <trkpt lat="43.90058" lon="7.50554">
        <ele>669.00009998934</ele>
        <time>2012-02-21T13:41:41Z</time>
      </trkpt>
      <trkpt lat="43.90058" lon="7.5055">
        <ele>661.00011615011</ele>
        <time>2012-02-21T13:41:46Z</time>
      </trkpt>
      <trkpt lat="43.90059" lon="7.50546">
        <ele>665.00005891908</ele>
        <time>2012-02-21T13:41:51Z</time>
      </trkpt>
      <trkpt lat="43.90059" lon="7.50541">
        <ele>666.99998571851</ele>
        <time>2012-02-21T13:41:56Z</time>
      </trkpt>
      <trkpt lat="43.90058" lon="7.50535">
        <ele>666.99999814814</ele>
        <time>2012-02-21T13:42:01Z</time>
      </trkpt>
      <trkpt lat="43.90058" lon="7.50531">
        <ele>664.00010691073</ele>
        <time>2012-02-21T13:42:06Z</time>
      </trkpt>
      <trkpt lat="43.90057" lon="7.50526">
        <ele>665.99999388938</ele>
        <time>2012-02-21T13:42:11Z</time>
      </trkpt>
      <trkpt lat="43.90056" lon="7.50523">
        <ele>670.0001714896</ele>
        <time>2012-02-21T13:42:16Z</time>
      </trkpt>
      <trkpt lat="43.90056" lon="7.5052">
        <ele>670.00008407124</ele>
        <time>2012-02-21T13:42:21Z</time>
      </trkpt>
      <trkpt lat="43.90056" lon="7.50517">
        <ele>673.00007665368</ele>
        <time>2012-02-21T13:42:26Z</time>
      </trkpt>
      <trkpt lat="43.90055" lon="7.50515">
        <ele>671.00010043551</ele>
        <time>2012-02-21T13:42:31Z</time>
      </trkpt>
      <trkpt lat="43.90055" lon="7.50511">
        <ele>674.00006506477</ele>
        <time>2012-02-21T13:42:36Z</time>
      </trkpt>
      <trkpt lat="43.90054" lon="7.50509">
        <ele>675.00012983694</ele>
        <time>2012-02-21T13:42:41Z</time>
      </trkpt>
      <trkpt lat="43.90054" lon="7.50508">
        <ele>670.00021637985</ele>
        <time>2012-02-21T13:42:46Z</time>
      </trkpt>
      <trkpt lat="43.90054" lon="7.50508">
        <ele>670.00016635101</ele>
        <time>2012-02-21T13:42:51Z</time>
      </trkpt>
      <trkpt lat="43.90054" lon="7.50507">
        <ele>677.00004653995</ele>
        <time>2012-02-21T13:43:16Z</time>
      </trkpt>
      <trkpt lat="43.90054" lon="7.50506">
        <ele>679.99994374936</ele>
        <time>2012-02-21T13:43:21Z</time>
      </trkpt>
      <trkpt lat="43.90053" lon="7.50501">
        <ele>675.99992276691</ele>
        <time>2012-02-21T13:43:26Z</time>
      </trkpt>
      <trkpt lat="43.90052" lon="7.50497">
        <ele>679.00007238118</ele>
        <time>2012-02-21T13:43:31Z</time>
      </trkpt>
      <trkpt lat="43.90052" lon="7.50491">
        <ele>676.9999617859</ele>
        <time>2012-02-21T13:43:36Z</time>
      </trkpt>
      <trkpt lat="43.90052" lon="7.50487">
        <ele>680.00005061227</ele>
        <time>2012-02-21T13:43:41Z</time>
      </trkpt>
      <trkpt lat="43.90051" lon="7.50483">
        <ele>676.00002328802</ele>
        <time>2012-02-21T13:43:46Z</time>
      </trkpt>
      <trkpt lat="43.9005" lon="7.50478">
        <ele>677.00000780772</ele>
        <time>2012-02-21T13:43:51Z</time>
      </trkpt>
      <trkpt lat="43.90049" lon="7.50474">
        <ele>681.00004504285</ele>
        <time>2012-02-21T13:43:56Z</time>
      </trkpt>
      <trkpt lat="43.90049" lon="7.5047">
        <ele>683.00002838576</ele>
        <time>2012-02-21T13:44:01Z</time>
      </trkpt>
      <trkpt lat="43.90051" lon="7.50465">
        <ele>683.00003003953</ele>
        <time>2012-02-21T13:44:06Z</time>
      </trkpt>
      <trkpt lat="43.90052" lon="7.50461">
        <ele>684.00006129149</ele>
        <time>2012-02-21T13:44:11Z</time>
      </trkpt>
      <trkpt lat="43.90054" lon="7.50458">
        <ele>687.0001988463</ele>
        <time>2012-02-21T13:44:16Z</time>
      </trkpt>
      <trkpt lat="43.90055" lon="7.50456">
        <ele>689.00014715204</ele>
        <time>2012-02-21T13:44:21Z</time>
      </trkpt>
      <trkpt lat="43.90056" lon="7.50453">
        <ele>681.00023029459</ele>
        <time>2012-02-21T13:44:26Z</time>
      </trkpt>
      <trkpt lat="43.90056" lon="7.50452">
        <ele>679.00015318551</ele>
        <time>2012-02-21T13:44:31Z</time>
      </trkpt>
      <trkpt lat="43.90056" lon="7.50448">
        <ele>685.99998305643</ele>
        <time>2012-02-21T13:44:36Z</time>
      </trkpt>
      <trkpt lat="43.90056" lon="7.50443">
        <ele>684.9998898702</ele>
        <time>2012-02-21T13:44:41Z</time>
      </trkpt>
      <trkpt lat="43.90056" lon="7.50437">
        <ele>687.00004030212</ele>
        <time>2012-02-21T13:44:46Z</time>
      </trkpt>
      <trkpt lat="43.90056" lon="7.50432">
        <ele>683.00017001754</ele>
        <time>2012-02-21T13:44:51Z</time>
      </trkpt>
      <trkpt lat="43.90055" lon="7.50431">
        <ele>682.00007071908</ele>
        <time>2012-02-21T13:44:56Z</time>
      </trkpt>
      <trkpt lat="43.90053" lon="7.50427">
        <ele>685.00001828257</ele>
        <time>2012-02-21T13:45:01Z</time>
      </trkpt>
      <trkpt lat="43.90054" lon="7.50422">
        <ele>687.00005581759</ele>
        <time>2012-02-21T13:45:06Z</time>
      </trkpt>
      <trkpt lat="43.90052" lon="7.50419">
        <ele>688.00004987686</ele>
        <time>2012-02-21T13:45:11Z</time>
      </trkpt>
      <trkpt lat="43.90051" lon="7.50416">
        <ele>688.00001084943</ele>
        <time>2012-02-21T13:45:16Z</time>
      </trkpt>
      <trkpt lat="43.9005" lon="7.50413">
        <ele>691.00006061702</ele>
        <time>2012-02-21T13:45:21Z</time>
      </trkpt>
      <trkpt lat="43.90052" lon="7.5041">
        <ele>692.00012943051</ele>
        <time>2012-02-21T13:45:26Z</time>
      </trkpt>
      <trkpt lat="43.90052" lon="7.50407">
        <ele>694.00011534994</ele>
        <time>2012-02-21T13:45:31Z</time>
      </trkpt>
      <trkpt lat="43.90052" lon="7.50404">
        <ele>695.00010358205</ele>
        <time>2012-02-21T13:45:36Z</time>
      </trkpt>
      <trkpt lat="43.90053" lon="7.50401">
        <ele>692.00007961113</ele>
        <time>2012-02-21T13:45:41Z</time>
      </trkpt>
      <trkpt lat="43.90052" lon="7.50398">
        <ele>695.00016202548</ele>
        <time>2012-02-21T13:45:46Z</time>
      </trkpt>
      <trkpt lat="43.90053" lon="7.50394">
        <ele>695.99999255126</ele>
        <time>2012-02-21T13:45:51Z</time>
      </trkpt>
      <trkpt lat="43.90054" lon="7.50388">
        <ele>687.99995118202</ele>
        <time>2012-02-21T13:45:56Z</time>
      </trkpt>
      <trkpt lat="43.90056" lon="7.50384">
        <ele>688.99993916206</ele>
        <time>2012-02-21T13:46:01Z</time>
      </trkpt>
      <trkpt lat="43.90056" lon="7.50379">
        <ele>691.00000820639</ele>
        <time>2012-02-21T13:46:06Z</time>
      </trkpt>
      <trkpt lat="43.90058" lon="7.50376">
        <ele>696.00004280816</ele>
        <time>2012-02-21T13:46:11Z</time>
      </trkpt>
      <trkpt lat="43.90058" lon="7.50372">
        <ele>693.00006864717</ele>
        <time>2012-02-21T13:46:16Z</time>
      </trkpt>
      <trkpt lat="43.9006" lon="7.50369">
        <ele>695.00012865352</ele>
        <time>2012-02-21T13:46:21Z</time>
      </trkpt>
      <trkpt lat="43.90061" lon="7.50365">
        <ele>694.00011551351</ele>
        <time>2012-02-21T13:46:26Z</time>
      </trkpt>
      <trkpt lat="43.90063" lon="7.50362">
        <ele>694.99998504111</ele>
        <time>2012-02-21T13:46:31Z</time>
      </trkpt>
      <trkpt lat="43.90065" lon="7.50358">
        <ele>699.000029087</ele>
        <time>2012-02-21T13:46:36Z</time>
      </trkpt>
      <trkpt lat="43.90065" lon="7.50355">
        <ele>697.00016860817</ele>
        <time>2012-02-21T13:46:41Z</time>
      </trkpt>
      <trkpt lat="43.90066" lon="7.50351">
        <ele>699.00006348893</ele>
        <time>2012-02-21T13:46:46Z</time>
      </trkpt>
      <trkpt lat="43.90066" lon="7.50347">
        <ele>701.00004955163</ele>
        <time>2012-02-21T13:46:51Z</time>
      </trkpt>
      <trkpt lat="43.90067" lon="7.50343">
        <ele>697.00008590827</ele>
        <time>2012-02-21T13:46:56Z</time>
      </trkpt>
      <trkpt lat="43.90067" lon="7.50341">
        <ele>700.00013892641</ele>
        <time>2012-02-21T13:47:01Z</time>
      </trkpt>
      <trkpt lat="43.90066" lon="7.50337">
        <ele>700.00018689198</ele>
        <time>2012-02-21T13:47:06Z</time>
      </trkpt>
      <trkpt lat="43.90066" lon="7.50334">
        <ele>699.00010070564</ele>
        <time>2012-02-21T13:47:11Z</time>
      </trkpt>
      <trkpt lat="43.90065" lon="7.5033">
        <ele>698.99998735067</ele>
        <time>2012-02-21T13:47:16Z</time>
      </trkpt>
      <trkpt lat="43.90065" lon="7.50323">
        <ele>701.99982861009</ele>
        <time>2012-02-21T13:47:21Z</time>
      </trkpt>
      <trkpt lat="43.90065" lon="7.50316">
        <ele>702.99990204831</ele>
        <time>2012-02-21T13:47:26Z</time>
      </trkpt>
      <trkpt lat="43.90067" lon="7.50311">
        <ele>700.99993832447</ele>
        <time>2012-02-21T13:47:31Z</time>
      </trkpt>
      <trkpt lat="43.90068" lon="7.50308">
        <ele>698.00003906425</ele>
        <time>2012-02-21T13:47:36Z</time>
      </trkpt>
      <trkpt lat="43.90068" lon="7.50304">
        <ele>699.00002646656</ele>
        <time>2012-02-21T13:47:41Z</time>
      </trkpt>
      <trkpt lat="43.90069" lon="7.50301">
        <ele>696.99993507562</ele>
        <time>2012-02-21T13:47:46Z</time>
      </trkpt>
      <trkpt lat="43.90071" lon="7.50297">
        <ele>699.99997319924</ele>
        <time>2012-02-21T13:47:51Z</time>
      </trkpt>
      <trkpt lat="43.90073" lon="7.50293">
        <ele>704.00001793496</ele>
        <time>2012-02-21T13:47:56Z</time>
      </trkpt>
      <trkpt lat="43.90075" lon="7.5029">
        <ele>704.00002747038</ele>
        <time>2012-02-21T13:48:01Z</time>
      </trkpt>
      <trkpt lat="43.90077" lon="7.50287">
        <ele>697.00000001995</ele>
        <time>2012-02-21T13:48:06Z</time>
      </trkpt>
      <trkpt lat="43.90078" lon="7.50283">
        <ele>703.00018760212</ele>
        <time>2012-02-21T13:48:11Z</time>
      </trkpt>
      <trkpt lat="43.9008" lon="7.50281">
        <ele>704.00003015636</ele>
        <time>2012-02-21T13:48:16Z</time>
      </trkpt>
      <trkpt lat="43.90082" lon="7.50277">
        <ele>702.99997505258</ele>
        <time>2012-02-21T13:48:21Z</time>
      </trkpt>
      <trkpt lat="43.90083" lon="7.50273">
        <ele>703.99997039721</ele>
        <time>2012-02-21T13:48:26Z</time>
      </trkpt>
      <trkpt lat="43.90086" lon="7.50267">
        <ele>706.99989390154</ele>
        <time>2012-02-21T13:48:31Z</time>
      </trkpt>
      <trkpt lat="43.90089" lon="7.50261">
        <ele>700.00005244486</ele>
        <time>2012-02-21T13:48:36Z</time>
      </trkpt>
      <trkpt lat="43.90092" lon="7.50257">
        <ele>704.00004086294</ele>
        <time>2012-02-21T13:48:41Z</time>
      </trkpt>
      <trkpt lat="43.90095" lon="7.50253">
        <ele>697.99997493547</ele>
        <time>2012-02-21T13:48:46Z</time>
      </trkpt>
      <trkpt lat="43.90097" lon="7.5025">
        <ele>705.00011877173</ele>
        <time>2012-02-21T13:48:51Z</time>
      </trkpt>
      <trkpt lat="43.90099" lon="7.50248">
        <ele>708.00006524555</ele>
        <time>2012-02-21T13:48:56Z</time>
      </trkpt>
      <trkpt lat="43.901" lon="7.50247">
        <ele>702.00006554937</ele>
        <time>2012-02-21T13:49:01Z</time>
      </trkpt>
      <trkpt lat="43.901" lon="7.50248">
        <ele>708.00006217243</ele>
        <time>2012-02-21T13:49:41Z</time>
      </trkpt>
      <trkpt lat="43.901" lon="7.50244">
        <ele>695.99997002688</ele>
        <time>2012-02-21T13:50:06Z</time>
      </trkpt>
      <trkpt lat="43.90103" lon="7.50237">
        <ele>697.99997491045</ele>
        <time>2012-02-21T13:50:11Z</time>
      </trkpt>
      <trkpt lat="43.90106" lon="7.50232">
        <ele>704.00006154909</ele>
        <time>2012-02-21T13:50:16Z</time>
      </trkpt>
      <trkpt lat="43.9011" lon="7.50228">
        <ele>705.00001649557</ele>
        <time>2012-02-21T13:50:21Z</time>
      </trkpt>
      <trkpt lat="43.90114" lon="7.50224">
        <ele>704.00008316517</ele>
        <time>2012-02-21T13:50:26Z</time>
      </trkpt>
      <trkpt lat="43.90119" lon="7.50222">
        <ele>704.00006664376</ele>
        <time>2012-02-21T13:50:31Z</time>
      </trkpt>
      <trkpt lat="43.90123" lon="7.50219">
        <ele>708.00005586102</ele>
        <time>2012-02-21T13:50:36Z</time>
      </trkpt>
      <trkpt lat="43.90127" lon="7.50216">
        <ele>707.99997512548</ele>
        <time>2012-02-21T13:50:41Z</time>
      </trkpt>
      <trkpt lat="43.9013" lon="7.50213">
        <ele>711.00009896313</ele>
        <time>2012-02-21T13:50:46Z</time>
      </trkpt>
      <trkpt lat="43.90131" lon="7.50212">
        <ele>715.0001398982</ele>
        <time>2012-02-21T13:50:51Z</time>
      </trkpt>
      <trkpt lat="43.90131" lon="7.50212">
        <ele>715.00015573779</ele>
        <time>2012-02-21T13:50:56Z</time>
      </trkpt>
      <trkpt lat="43.90135" lon="7.50212">
        <ele>714.00027734564</ele>
        <time>2012-02-21T13:51:01Z</time>
      </trkpt>
      <trkpt lat="43.9014" lon="7.50208">
        <ele>715.99999946691</ele>
        <time>2012-02-21T13:51:06Z</time>
      </trkpt>
      <trkpt lat="43.90143" lon="7.50201">
        <ele>712.9999507689</ele>
        <time>2012-02-21T13:51:11Z</time>
      </trkpt>
      <trkpt lat="43.90144" lon="7.50196">
        <ele>713.00011634214</ele>
        <time>2012-02-21T13:51:16Z</time>
      </trkpt>
      <trkpt lat="43.90147" lon="7.50192">
        <ele>709.00005136052</ele>
        <time>2012-02-21T13:51:21Z</time>
      </trkpt>
      <trkpt lat="43.9015" lon="7.50191">
        <ele>709.00001412226</ele>
        <time>2012-02-21T13:51:26Z</time>
      </trkpt>
      <trkpt lat="43.90154" lon="7.50188">
        <ele>709.99994829033</ele>
        <time>2012-02-21T13:51:31Z</time>
      </trkpt>
      <trkpt lat="43.90158" lon="7.50187">
        <ele>712.00000656436</ele>
        <time>2012-02-21T13:51:36Z</time>
      </trkpt>
      <trkpt lat="43.90162" lon="7.50185">
        <ele>707.00006088137</ele>
        <time>2012-02-21T13:51:41Z</time>
      </trkpt>
      <trkpt lat="43.90165" lon="7.50183">
        <ele>710.9999753329</ele>
        <time>2012-02-21T13:51:46Z</time>
      </trkpt>
      <trkpt lat="43.90168" lon="7.5018">
        <ele>707.00002915524</ele>
        <time>2012-02-21T13:51:51Z</time>
      </trkpt>
      <trkpt lat="43.90172" lon="7.50178">
        <ele>711.00000765776</ele>
        <time>2012-02-21T13:51:56Z</time>
      </trkpt>
      <trkpt lat="43.90175" lon="7.50175">
        <ele>715.99990773106</ele>
        <time>2012-02-21T13:52:01Z</time>
      </trkpt>
      <trkpt lat="43.90179" lon="7.50171">
        <ele>715.00000708945</ele>
        <time>2012-02-21T13:52:06Z</time>
      </trkpt>
      <trkpt lat="43.90184" lon="7.50168">
        <ele>711.99999884625</ele>
        <time>2012-02-21T13:52:11Z</time>
      </trkpt>
      <trkpt lat="43.90188" lon="7.50168">
        <ele>716.00004865841</ele>
        <time>2012-02-21T13:52:16Z</time>
      </trkpt>
      <trkpt lat="43.9019" lon="7.50167">
        <ele>713.00001105619</ele>
        <time>2012-02-21T13:52:21Z</time>
      </trkpt>
      <trkpt lat="43.90192" lon="7.50166">
        <ele>716.00007879347</ele>
        <time>2012-02-21T13:52:26Z</time>
      </trkpt>
      <trkpt lat="43.90194" lon="7.50166">
        <ele>721.00012113279</ele>
        <time>2012-02-21T13:52:31Z</time>
      </trkpt>
      <trkpt lat="43.90197" lon="7.50165">
        <ele>721.00002253114</ele>
        <time>2012-02-21T13:52:36Z</time>
      </trkpt>
      <trkpt lat="43.90198" lon="7.50165">
        <ele>719.00005983078</ele>
        <time>2012-02-21T13:52:41Z</time>
      </trkpt>
      <trkpt lat="43.90198" lon="7.50165">
        <ele>721.00006727649</ele>
        <time>2012-02-21T13:52:46Z</time>
      </trkpt>
      <trkpt lat="43.90198" lon="7.50163">
        <ele>717.00000042351</ele>
        <time>2012-02-21T13:52:51Z</time>
      </trkpt>
      <trkpt lat="43.902" lon="7.50161">
        <ele>718.00013900395</ele>
        <time>2012-02-21T13:52:56Z</time>
      </trkpt>
      <trkpt lat="43.90201" lon="7.50161">
        <ele>718.00015285267</ele>
        <time>2012-02-21T13:53:01Z</time>
      </trkpt>
      <trkpt lat="43.902" lon="7.50162">
        <ele>716.00008793767</ele>
        <time>2012-02-21T13:53:31Z</time>
      </trkpt>
      <trkpt lat="43.90197" lon="7.5016">
        <ele>715.00001831824</ele>
        <time>2012-02-21T13:53:36Z</time>
      </trkpt>
      <trkpt lat="43.90194" lon="7.50156">
        <ele>718.00001830102</ele>
        <time>2012-02-21T13:53:41Z</time>
      </trkpt>
      <trkpt lat="43.90192" lon="7.50151">
        <ele>719.00006484136</ele>
        <time>2012-02-21T13:53:46Z</time>
      </trkpt>
      <trkpt lat="43.9019" lon="7.50149">
        <ele>718.00022907577</ele>
        <time>2012-02-21T13:53:51Z</time>
      </trkpt>
      <trkpt lat="43.9019" lon="7.5015">
        <ele>726.00017568093</ele>
        <time>2012-02-21T13:54:51Z</time>
      </trkpt>
      <trkpt lat="43.90188" lon="7.50149">
        <ele>726.00036140548</ele>
        <time>2012-02-21T13:54:56Z</time>
      </trkpt>
      <trkpt lat="43.90188" lon="7.5015">
        <ele>719.00027623387</ele>
        <time>2012-02-21T13:55:26Z</time>
      </trkpt>
      <trkpt lat="43.90191" lon="7.50152">
        <ele>720.00019040835</ele>
        <time>2012-02-21T13:55:31Z</time>
      </trkpt>
      <trkpt lat="43.90192" lon="7.50155">
        <ele>716.99979980549</ele>
        <time>2012-02-21T13:55:36Z</time>
      </trkpt>
      <trkpt lat="43.90192" lon="7.50155">
        <ele>721.99980033338</ele>
        <time>2012-02-21T13:55:41Z</time>
      </trkpt>
      <trkpt lat="43.90193" lon="7.50154">
        <ele>721.99994160659</ele>
        <time>2012-02-21T13:55:46Z</time>
      </trkpt>
      <trkpt lat="43.90196" lon="7.50156">
        <ele>722.99982901882</ele>
        <time>2012-02-21T13:55:51Z</time>
      </trkpt>
      <trkpt lat="43.90197" lon="7.50159">
        <ele>725.99978233287</ele>
        <time>2012-02-21T13:55:56Z</time>
      </trkpt>
      <trkpt lat="43.90196" lon="7.50161">
        <ele>721.99994340323</ele>
        <time>2012-02-21T13:56:01Z</time>
      </trkpt>
      <trkpt lat="43.90195" lon="7.50161">
        <ele>719.99989887184</ele>
        <time>2012-02-21T13:56:06Z</time>
      </trkpt>
      <trkpt lat="43.90195" lon="7.50161">
        <ele>713.99994068196</ele>
        <time>2012-02-21T13:56:11Z</time>
      </trkpt>
      <trkpt lat="43.90196" lon="7.5016">
        <ele>711.99995237465</ele>
        <time>2012-02-21T13:56:21Z</time>
      </trkpt>
      <trkpt lat="43.90196" lon="7.5016">
        <ele>718.99995195524</ele>
        <time>2012-02-21T13:57:21Z</time>
      </trkpt>
      <trkpt lat="43.90196" lon="7.5016">
        <ele>724.99993757624</ele>
        <time>2012-02-21T13:58:11Z</time>
      </trkpt>
      <trkpt lat="43.90195" lon="7.5016">
        <ele>720.9999565487</ele>
        <time>2012-02-21T13:58:16Z</time>
      </trkpt>
      <trkpt lat="43.90195" lon="7.5016">
        <ele>717.99993035806</ele>
        <time>2012-02-21T13:58:36Z</time>
      </trkpt>
      <trkpt lat="43.90195" lon="7.5016">
        <ele>719.99992621015</ele>
        <time>2012-02-21T13:58:41Z</time>
      </trkpt>
      <trkpt lat="43.90197" lon="7.50158">
        <ele>722.00011731055</ele>
        <time>2012-02-21T13:58:46Z</time>
      </trkpt>
      <trkpt lat="43.90198" lon="7.50161">
        <ele>724.00009899577</ele>
        <time>2012-02-21T13:59:06Z</time>
      </trkpt>
      <trkpt lat="43.90204" lon="7.50163">
        <ele>715.00000150911</ele>
        <time>2012-02-21T13:59:11Z</time>
      </trkpt>
      <trkpt lat="43.90209" lon="7.50166">
        <ele>714.99996482007</ele>
        <time>2012-02-21T13:59:16Z</time>
      </trkpt>
      <trkpt lat="43.90211" lon="7.50167">
        <ele>712.99983751019</ele>
        <time>2012-02-21T13:59:21Z</time>
      </trkpt>
      <trkpt lat="43.90212" lon="7.50166">
        <ele>709.99993490295</ele>
        <time>2012-02-21T13:59:26Z</time>
      </trkpt>
      <trkpt lat="43.90212" lon="7.50166">
        <ele>710.00004199142</ele>
        <time>2012-02-21T13:59:31Z</time>
      </trkpt>
      <trkpt lat="43.90213" lon="7.50167">
        <ele>716.00008715077</ele>
        <time>2012-02-21T13:59:36Z</time>
      </trkpt>
      <trkpt lat="43.90214" lon="7.50169">
        <ele>706.9998801505</ele>
        <time>2012-02-21T13:59:41Z</time>
      </trkpt>
      <trkpt lat="43.90214" lon="7.50168">
        <ele>720.99994073363</ele>
        <time>2012-02-21T13:59:51Z</time>
      </trkpt>
      <trkpt lat="43.90217" lon="7.50168">
        <ele>724.00006577726</ele>
        <time>2012-02-21T13:59:56Z</time>
      </trkpt>
      <trkpt lat="43.90223" lon="7.50169">
        <ele>719.0001084875</ele>
        <time>2012-02-21T14:00:01Z</time>
      </trkpt>
      <trkpt lat="43.90227" lon="7.50169">
        <ele>720.00008939371</ele>
        <time>2012-02-21T14:00:06Z</time>
      </trkpt>
      <trkpt lat="43.9023" lon="7.50168">
        <ele>723.99987431077</ele>
        <time>2012-02-21T14:00:11Z</time>
      </trkpt>
      <trkpt lat="43.90232" lon="7.50166">
        <ele>726.99987808692</ele>
        <time>2012-02-21T14:00:16Z</time>
      </trkpt>
      <trkpt lat="43.90235" lon="7.50164">
        <ele>726.99996708776</ele>
        <time>2012-02-21T14:00:21Z</time>
      </trkpt>
      <trkpt lat="43.90238" lon="7.50166">
        <ele>726.9997746387</ele>
        <time>2012-02-21T14:00:26Z</time>
      </trkpt>
      <trkpt lat="43.90239" lon="7.50164">
        <ele>714.99981143433</ele>
        <time>2012-02-21T14:00:41Z</time>
      </trkpt>
      <trkpt lat="43.90241" lon="7.50164">
        <ele>720.99972815344</ele>
        <time>2012-02-21T14:00:46Z</time>
      </trkpt>
      <trkpt lat="43.90243" lon="7.50164">
        <ele>725.99984702744</ele>
        <time>2012-02-21T14:00:51Z</time>
      </trkpt>
      <trkpt lat="43.90242" lon="7.50165">
        <ele>727.99972469943</ele>
        <time>2012-02-21T14:00:56Z</time>
      </trkpt>
      <trkpt lat="43.90243" lon="7.50164">
        <ele>719.99992264696</ele>
        <time>2012-02-21T14:01:01Z</time>
      </trkpt>
      <trkpt lat="43.90248" lon="7.50162">
        <ele>717.00001159048</ele>
        <time>2012-02-21T14:01:06Z</time>
      </trkpt>
      <trkpt lat="43.90249" lon="7.50161">
        <ele>725.00000504306</ele>
        <time>2012-02-21T14:01:11Z</time>
      </trkpt>
      <trkpt lat="43.90253" lon="7.50161">
        <ele>723.00005838877</ele>
        <time>2012-02-21T14:01:16Z</time>
      </trkpt>
      <trkpt lat="43.90257" lon="7.5016">
        <ele>717.99991287275</ele>
        <time>2012-02-21T14:01:21Z</time>
      </trkpt>
      <trkpt lat="43.90263" lon="7.5016">
        <ele>720.00008834076</ele>
        <time>2012-02-21T14:01:26Z</time>
      </trkpt>
      <trkpt lat="43.90269" lon="7.5016">
        <ele>724.00003894178</ele>
        <time>2012-02-21T14:01:31Z</time>
      </trkpt>
      <trkpt lat="43.90276" lon="7.50158">
        <ele>717.99999347482</ele>
        <time>2012-02-21T14:01:36Z</time>
      </trkpt>
      <trkpt lat="43.90283" lon="7.50155">
        <ele>721.00005557122</ele>
        <time>2012-02-21T14:01:41Z</time>
      </trkpt>
      <trkpt lat="43.90288" lon="7.5015">
        <ele>720.00001602466</ele>
        <time>2012-02-21T14:01:46Z</time>
      </trkpt>
      <trkpt lat="43.90291" lon="7.50146">
        <ele>719.00016927073</ele>
        <time>2012-02-21T14:01:51Z</time>
      </trkpt>
      <trkpt lat="43.90293" lon="7.50141">
        <ele>709.00003643713</ele>
        <time>2012-02-21T14:01:56Z</time>
      </trkpt>
      <trkpt lat="43.90297" lon="7.50139">
        <ele>708.00004232193</ele>
        <time>2012-02-21T14:02:01Z</time>
      </trkpt>
      <trkpt lat="43.90301" lon="7.50136">
        <ele>712.00000804643</ele>
        <time>2012-02-21T14:02:06Z</time>
      </trkpt>
      <trkpt lat="43.90307" lon="7.50131">
        <ele>704.99999348497</ele>
        <time>2012-02-21T14:02:11Z</time>
      </trkpt>
      <trkpt lat="43.90311" lon="7.50126">
        <ele>717.00009661321</ele>
        <time>2012-02-21T14:02:16Z</time>
      </trkpt>
      <trkpt lat="43.90315" lon="7.50119">
        <ele>712.00000411466</ele>
        <time>2012-02-21T14:02:21Z</time>
      </trkpt>
      <trkpt lat="43.90316" lon="7.50116">
        <ele>711.00025508275</ele>
        <time>2012-02-21T14:02:26Z</time>
      </trkpt>
      <trkpt lat="43.90318" lon="7.50111">
        <ele>706.99991685444</ele>
        <time>2012-02-21T14:02:31Z</time>
      </trkpt>
      <trkpt lat="43.90321" lon="7.50103">
        <ele>712.99998416738</ele>
        <time>2012-02-21T14:02:36Z</time>
      </trkpt>
      <trkpt lat="43.90323" lon="7.50096">
        <ele>713.00018988843</ele>
        <time>2012-02-21T14:02:41Z</time>
      </trkpt>
      <trkpt lat="43.90326" lon="7.50092">
        <ele>712.00014365904</ele>
        <time>2012-02-21T14:02:46Z</time>
      </trkpt>
      <trkpt lat="43.90331" lon="7.50087">
        <ele>713.00006203634</ele>
        <time>2012-02-21T14:02:51Z</time>
      </trkpt>
      <trkpt lat="43.90335" lon="7.50085">
        <ele>716.00008191183</ele>
        <time>2012-02-21T14:02:56Z</time>
      </trkpt>
      <trkpt lat="43.90338" lon="7.50081">
        <ele>717.00008070665</ele>
        <time>2012-02-21T14:03:01Z</time>
      </trkpt>
      <trkpt lat="43.90341" lon="7.50078">
        <ele>714.00004159904</ele>
        <time>2012-02-21T14:03:06Z</time>
      </trkpt>
      <trkpt lat="43.90343" lon="7.50073">
        <ele>715.00001609828</ele>
        <time>2012-02-21T14:03:11Z</time>
      </trkpt>
      <trkpt lat="43.90345" lon="7.50069">
        <ele>715.0000381377</ele>
        <time>2012-02-21T14:03:16Z</time>
      </trkpt>
      <trkpt lat="43.90347" lon="7.50065">
        <ele>715.00003478993</ele>
        <time>2012-02-21T14:03:21Z</time>
      </trkpt>
      <trkpt lat="43.9035" lon="7.5006">
        <ele>713.99997518414</ele>
        <time>2012-02-21T14:03:26Z</time>
      </trkpt>
      <trkpt lat="43.90354" lon="7.50055">
        <ele>717.00006103004</ele>
        <time>2012-02-21T14:03:31Z</time>
      </trkpt>
      <trkpt lat="43.90356" lon="7.50051">
        <ele>718.99991483299</ele>
        <time>2012-02-21T14:03:36Z</time>
      </trkpt>
      <trkpt lat="43.90358" lon="7.50046">
        <ele>721.00002340278</ele>
        <time>2012-02-21T14:03:41Z</time>
      </trkpt>
      <trkpt lat="43.9036" lon="7.50042">
        <ele>719.00009664662</ele>
        <time>2012-02-21T14:03:46Z</time>
      </trkpt>
      <trkpt lat="43.90362" lon="7.5004">
        <ele>721.0000711509</ele>
        <time>2012-02-21T14:03:51Z</time>
      </trkpt>
      <trkpt lat="43.90363" lon="7.50036">
        <ele>721.00008140384</ele>
        <time>2012-02-21T14:03:56Z</time>
      </trkpt>
      <trkpt lat="43.90364" lon="7.50032">
        <ele>722.00002333085</ele>
        <time>2012-02-21T14:04:01Z</time>
      </trkpt>
      <trkpt lat="43.90366" lon="7.50026">
        <ele>719.00001735518</ele>
        <time>2012-02-21T14:04:06Z</time>
      </trkpt>
      <trkpt lat="43.90368" lon="7.50021">
        <ele>723.0000095421</ele>
        <time>2012-02-21T14:04:11Z</time>
      </trkpt>
      <trkpt lat="43.9037" lon="7.50014">
        <ele>726.00004765181</ele>
        <time>2012-02-21T14:04:16Z</time>
      </trkpt>
      <trkpt lat="43.90369" lon="7.50008">
        <ele>724.99998861141</ele>
        <time>2012-02-21T14:04:21Z</time>
      </trkpt>
      <trkpt lat="43.9037" lon="7.50002">
        <ele>726.00002599373</ele>
        <time>2012-02-21T14:04:26Z</time>
      </trkpt>
      <trkpt lat="43.90371" lon="7.49998">
        <ele>726.00006127961</ele>
        <time>2012-02-21T14:04:31Z</time>
      </trkpt>
      <trkpt lat="43.90374" lon="7.49994">
        <ele>724.00003094806</ele>
        <time>2012-02-21T14:04:36Z</time>
      </trkpt>
      <trkpt lat="43.90376" lon="7.49989">
        <ele>725.99994128035</ele>
        <time>2012-02-21T14:04:41Z</time>
      </trkpt>
      <trkpt lat="43.90379" lon="7.49985">
        <ele>726.9999601943</ele>
        <time>2012-02-21T14:04:46Z</time>
      </trkpt>
      <trkpt lat="43.90381" lon="7.4998">
        <ele>727.99999302178</ele>
        <time>2012-02-21T14:04:51Z</time>
      </trkpt>
      <trkpt lat="43.90384" lon="7.49975">
        <ele>730.99989875998</ele>
        <time>2012-02-21T14:04:56Z</time>
      </trkpt>
      <trkpt lat="43.90387" lon="7.4997">
        <ele>733.00000026878</ele>
        <time>2012-02-21T14:05:01Z</time>
      </trkpt>
      <trkpt lat="43.90388" lon="7.49965">
        <ele>727.99999415745</ele>
        <time>2012-02-21T14:05:06Z</time>
      </trkpt>
      <trkpt lat="43.9039" lon="7.4996">
        <ele>732.0000644229</ele>
        <time>2012-02-21T14:05:11Z</time>
      </trkpt>
      <trkpt lat="43.9039" lon="7.49954">
        <ele>730.99990506686</ele>
        <time>2012-02-21T14:05:16Z</time>
      </trkpt>
      <trkpt lat="43.90392" lon="7.49949">
        <ele>731.9999861435</ele>
        <time>2012-02-21T14:05:21Z</time>
      </trkpt>
      <trkpt lat="43.90394" lon="7.49944">
        <ele>733.00002273248</ele>
        <time>2012-02-21T14:05:26Z</time>
      </trkpt>
      <trkpt lat="43.90397" lon="7.4994">
        <ele>730.00005242264</ele>
        <time>2012-02-21T14:05:31Z</time>
      </trkpt>
      <trkpt lat="43.904" lon="7.49935">
        <ele>735.00001468188</ele>
        <time>2012-02-21T14:05:36Z</time>
      </trkpt>
      <trkpt lat="43.90403" lon="7.49931">
        <ele>731.00009475893</ele>
        <time>2012-02-21T14:05:41Z</time>
      </trkpt>
      <trkpt lat="43.90405" lon="7.49928">
        <ele>731.00020147414</ele>
        <time>2012-02-21T14:05:46Z</time>
      </trkpt>
      <trkpt lat="43.90407" lon="7.49923">
        <ele>725.00006757959</ele>
        <time>2012-02-21T14:05:51Z</time>
      </trkpt>
      <trkpt lat="43.90409" lon="7.49919">
        <ele>733.00003802845</ele>
        <time>2012-02-21T14:05:56Z</time>
      </trkpt>
      <trkpt lat="43.90411" lon="7.49915">
        <ele>729.00000431045</ele>
        <time>2012-02-21T14:06:01Z</time>
      </trkpt>
      <trkpt lat="43.90412" lon="7.49911">
        <ele>732.00001316899</ele>
        <time>2012-02-21T14:06:06Z</time>
      </trkpt>
      <trkpt lat="43.90414" lon="7.49908">
        <ele>730.00001981197</ele>
        <time>2012-02-21T14:06:11Z</time>
      </trkpt>
      <trkpt lat="43.90416" lon="7.49905">
        <ele>738.00005697679</ele>
        <time>2012-02-21T14:06:16Z</time>
      </trkpt>
      <trkpt lat="43.90416" lon="7.49902">
        <ele>737.00010710347</ele>
        <time>2012-02-21T14:06:21Z</time>
      </trkpt>
      <trkpt lat="43.90417" lon="7.49899">
        <ele>738.0000709073</ele>
        <time>2012-02-21T14:06:26Z</time>
      </trkpt>
      <trkpt lat="43.90418" lon="7.49896">
        <ele>741.00007274205</ele>
        <time>2012-02-21T14:06:31Z</time>
      </trkpt>
      <trkpt lat="43.90419" lon="7.49893">
        <ele>739.00010396153</ele>
        <time>2012-02-21T14:06:36Z</time>
      </trkpt>
      <trkpt lat="43.90419" lon="7.49889">
        <ele>736.00010129958</ele>
        <time>2012-02-21T14:06:41Z</time>
      </trkpt>
      <trkpt lat="43.9042" lon="7.49886">
        <ele>739.0000380268</ele>
        <time>2012-02-21T14:06:46Z</time>
      </trkpt>
      <trkpt lat="43.90421" lon="7.49881">
        <ele>738.00008424876</ele>
        <time>2012-02-21T14:06:51Z</time>
      </trkpt>
      <trkpt lat="43.90424" lon="7.49881">
        <ele>728.00007525211</ele>
        <time>2012-02-21T14:06:56Z</time>
      </trkpt>
      <trkpt lat="43.90428" lon="7.49883">
        <ele>730.00000309222</ele>
        <time>2012-02-21T14:07:01Z</time>
      </trkpt>
      <trkpt lat="43.90431" lon="7.49881">
        <ele>732.99989545827</ele>
        <time>2012-02-21T14:07:06Z</time>
      </trkpt>
      <trkpt lat="43.90433" lon="7.49878">
        <ele>735.00002984839</ele>
        <time>2012-02-21T14:07:11Z</time>
      </trkpt>
      <trkpt lat="43.90433" lon="7.49876">
        <ele>742.00036899186</ele>
        <time>2012-02-21T14:07:16Z</time>
      </trkpt>
      <trkpt lat="43.90433" lon="7.49876">
        <ele>743.00039820788</ele>
        <time>2012-02-21T14:07:21Z</time>
      </trkpt>
      <trkpt lat="43.90433" lon="7.49876">
        <ele>742.00045638534</ele>
        <time>2012-02-21T14:09:36Z</time>
      </trkpt>
      <trkpt lat="43.90433" lon="7.49877">
        <ele>737.00045076788</ele>
        <time>2012-02-21T14:10:56Z</time>
      </trkpt>
      <trkpt lat="43.90432" lon="7.49882">
        <ele>740.00023559853</ele>
        <time>2012-02-21T14:11:26Z</time>
      </trkpt>
      <trkpt lat="43.90434" lon="7.49884">
        <ele>739.99998122777</ele>
        <time>2012-02-21T14:11:31Z</time>
      </trkpt>
      <trkpt lat="43.90436" lon="7.49885">
        <ele>735.99994543981</ele>
        <time>2012-02-21T14:11:36Z</time>
      </trkpt>
      <trkpt lat="43.90437" lon="7.49885">
        <ele>730.99993559093</ele>
        <time>2012-02-21T14:11:41Z</time>
      </trkpt>
      <trkpt lat="43.90439" lon="7.49882">
        <ele>732.99989282628</ele>
        <time>2012-02-21T14:11:46Z</time>
      </trkpt>
      <trkpt lat="43.90441" lon="7.49877">
        <ele>734.00007621857</ele>
        <time>2012-02-21T14:11:51Z</time>
      </trkpt>
      <trkpt lat="43.90442" lon="7.49873">
        <ele>737.00002349914</ele>
        <time>2012-02-21T14:11:56Z</time>
      </trkpt>
      <trkpt lat="43.90444" lon="7.49868">
        <ele>738.99993312503</ele>
        <time>2012-02-21T14:12:01Z</time>
      </trkpt>
      <trkpt lat="43.90444" lon="7.49862">
        <ele>743.00006660607</ele>
        <time>2012-02-21T14:12:06Z</time>
      </trkpt>
      <trkpt lat="43.90447" lon="7.49857">
        <ele>735.99997694089</ele>
        <time>2012-02-21T14:12:11Z</time>
      </trkpt>
      <trkpt lat="43.90449" lon="7.49852">
        <ele>739.00007431769</ele>
        <time>2012-02-21T14:12:16Z</time>
      </trkpt>
      <trkpt lat="43.90451" lon="7.49845">
        <ele>741.00000171646</ele>
        <time>2012-02-21T14:12:21Z</time>
      </trkpt>
      <trkpt lat="43.90453" lon="7.49839">
        <ele>741.00011592143</ele>
        <time>2012-02-21T14:12:26Z</time>
      </trkpt>
      <trkpt lat="43.90454" lon="7.49834">
        <ele>744.00001507645</ele>
        <time>2012-02-21T14:12:31Z</time>
      </trkpt>
      <trkpt lat="43.90456" lon="7.4983">
        <ele>739.00007253969</ele>
        <time>2012-02-21T14:12:36Z</time>
      </trkpt>
      <trkpt lat="43.90456" lon="7.49825">
        <ele>742.00012529654</ele>
        <time>2012-02-21T14:12:41Z</time>
      </trkpt>
      <trkpt lat="43.90458" lon="7.49822">
        <ele>740.00001694116</ele>
        <time>2012-02-21T14:12:46Z</time>
      </trkpt>
      <trkpt lat="43.90461" lon="7.49818">
        <ele>747.00001075014</ele>
        <time>2012-02-21T14:12:51Z</time>
      </trkpt>
      <trkpt lat="43.90462" lon="7.49813">
        <ele>744.00003458906</ele>
        <time>2012-02-21T14:12:56Z</time>
      </trkpt>
      <trkpt lat="43.90465" lon="7.49811">
        <ele>746.00011908946</ele>
        <time>2012-02-21T14:13:01Z</time>
      </trkpt>
      <trkpt lat="43.90466" lon="7.49808">
        <ele>742.00009396869</ele>
        <time>2012-02-21T14:13:06Z</time>
      </trkpt>
      <trkpt lat="43.90467" lon="7.49804">
        <ele>743.00004428378</ele>
        <time>2012-02-21T14:13:11Z</time>
      </trkpt>
      <trkpt lat="43.90468" lon="7.498">
        <ele>748.00012150635</ele>
        <time>2012-02-21T14:13:16Z</time>
      </trkpt>
      <trkpt lat="43.9047" lon="7.49798">
        <ele>749.00014509114</ele>
        <time>2012-02-21T14:13:21Z</time>
      </trkpt>
      <trkpt lat="43.90472" lon="7.49795">
        <ele>754.00017217905</ele>
        <time>2012-02-21T14:13:26Z</time>
      </trkpt>
      <trkpt lat="43.90474" lon="7.49791">
        <ele>751.00000428696</ele>
        <time>2012-02-21T14:13:31Z</time>
      </trkpt>
      <trkpt lat="43.90475" lon="7.49785">
        <ele>748.00002245583</ele>
        <time>2012-02-21T14:13:36Z</time>
      </trkpt>
      <trkpt lat="43.90475" lon="7.49781">
        <ele>752.00025996167</ele>
        <time>2012-02-21T14:13:41Z</time>
      </trkpt>
      <trkpt lat="43.90475" lon="7.49782">
        <ele>754.00026395666</ele>
        <time>2012-02-21T14:14:21Z</time>
      </trkpt>
      <trkpt lat="43.90475" lon="7.49784">
        <ele>743.00021352566</ele>
        <time>2012-02-21T14:14:56Z</time>
      </trkpt>
      <trkpt lat="43.90475" lon="7.49785">
        <ele>741.00029536169</ele>
        <time>2012-02-21T14:15:01Z</time>
      </trkpt>
      <trkpt lat="43.90475" lon="7.49785">
        <ele>734.00007994274</ele>
        <time>2012-02-21T14:15:06Z</time>
      </trkpt>
      <trkpt lat="43.90477" lon="7.49783">
        <ele>741.9999443684</ele>
        <time>2012-02-21T14:15:11Z</time>
      </trkpt>
      <trkpt lat="43.90478" lon="7.49778">
        <ele>747.00008299235</ele>
        <time>2012-02-21T14:15:16Z</time>
      </trkpt>
      <trkpt lat="43.90479" lon="7.49775">
        <ele>751.00016188143</ele>
        <time>2012-02-21T14:15:21Z</time>
      </trkpt>
      <trkpt lat="43.90482" lon="7.49773">
        <ele>749.00012251049</ele>
        <time>2012-02-21T14:15:26Z</time>
      </trkpt>
      <trkpt lat="43.90484" lon="7.49771">
        <ele>747.9999210378</ele>
        <time>2012-02-21T14:15:31Z</time>
      </trkpt>
      <trkpt lat="43.90485" lon="7.49767">
        <ele>745.99987027562</ele>
        <time>2012-02-21T14:15:36Z</time>
      </trkpt>
      <trkpt lat="43.90487" lon="7.49763">
        <ele>744.99995830652</ele>
        <time>2012-02-21T14:15:41Z</time>
      </trkpt>
      <trkpt lat="43.90488" lon="7.49759">
        <ele>746.00001692094</ele>
        <time>2012-02-21T14:15:46Z</time>
      </trkpt>
      <trkpt lat="43.90489" lon="7.49757">
        <ele>755.00012969707</ele>
        <time>2012-02-21T14:15:51Z</time>
      </trkpt>
      <trkpt lat="43.9049" lon="7.49754">
        <ele>756.00015106669</ele>
        <time>2012-02-21T14:15:56Z</time>
      </trkpt>
      <trkpt lat="43.9049" lon="7.49751">
        <ele>753.00005619195</ele>
        <time>2012-02-21T14:16:01Z</time>
      </trkpt>
      <trkpt lat="43.9049" lon="7.49747">
        <ele>750.00000406439</ele>
        <time>2012-02-21T14:16:06Z</time>
      </trkpt>
      <trkpt lat="43.9049" lon="7.49744">
        <ele>749.00037969063</ele>
        <time>2012-02-21T14:16:11Z</time>
      </trkpt>
      <trkpt lat="43.9049" lon="7.49745">
        <ele>751.00034261753</ele>
        <time>2012-02-21T14:18:01Z</time>
      </trkpt>
      <trkpt lat="43.9049" lon="7.49745">
        <ele>752.00006832563</ele>
        <time>2012-02-21T14:18:11Z</time>
      </trkpt>
      <trkpt lat="43.90492" lon="7.49744">
        <ele>752.00015382873</ele>
        <time>2012-02-21T14:18:16Z</time>
      </trkpt>
      <trkpt lat="43.90493" lon="7.49743">
        <ele>751.00021927791</ele>
        <time>2012-02-21T14:18:21Z</time>
      </trkpt>
      <trkpt lat="43.90494" lon="7.4974">
        <ele>747.99986816249</ele>
        <time>2012-02-21T14:18:31Z</time>
      </trkpt>
      <trkpt lat="43.90495" lon="7.49734">
        <ele>750.99998173718</ele>
        <time>2012-02-21T14:18:36Z</time>
      </trkpt>
      <trkpt lat="43.90496" lon="7.49729">
        <ele>748.00006305792</ele>
        <time>2012-02-21T14:18:41Z</time>
      </trkpt>
      <trkpt lat="43.90497" lon="7.49726">
        <ele>752.00019728428</ele>
        <time>2012-02-21T14:18:46Z</time>
      </trkpt>
      <trkpt lat="43.90499" lon="7.49723">
        <ele>750.0000424162</ele>
        <time>2012-02-21T14:18:51Z</time>
      </trkpt>
      <trkpt lat="43.905" lon="7.49719">
        <ele>752.00004534274</ele>
        <time>2012-02-21T14:18:56Z</time>
      </trkpt>
      <trkpt lat="43.90501" lon="7.49715">
        <ele>753.00015559206</ele>
        <time>2012-02-21T14:19:01Z</time>
      </trkpt>
      <trkpt lat="43.90502" lon="7.49712">
        <ele>756.00016576711</ele>
        <time>2012-02-21T14:19:06Z</time>
      </trkpt>
      <trkpt lat="43.90502" lon="7.49709">
        <ele>759.00011840361</ele>
        <time>2012-02-21T14:19:11Z</time>
      </trkpt>
      <trkpt lat="43.90503" lon="7.49708">
        <ele>759.99998927295</ele>
        <time>2012-02-21T14:19:16Z</time>
      </trkpt>
      <trkpt lat="43.90504" lon="7.49707">
        <ele>764.9999058241</ele>
        <time>2012-02-21T14:19:21Z</time>
      </trkpt>
      <trkpt lat="43.90507" lon="7.497">
        <ele>754.00010393016</ele>
        <time>2012-02-21T14:19:26Z</time>
      </trkpt>
      <trkpt lat="43.90509" lon="7.49694">
        <ele>757.00012078658</ele>
        <time>2012-02-21T14:19:31Z</time>
      </trkpt>
      <trkpt lat="43.90512" lon="7.49688">
        <ele>754.99989679429</ele>
        <time>2012-02-21T14:19:36Z</time>
      </trkpt>
      <trkpt lat="43.90515" lon="7.49684">
        <ele>756.0000208287</ele>
        <time>2012-02-21T14:19:41Z</time>
      </trkpt>
      <trkpt lat="43.90517" lon="7.49679">
        <ele>757.99999946861</ele>
        <time>2012-02-21T14:19:46Z</time>
      </trkpt>
      <trkpt lat="43.90518" lon="7.49674">
        <ele>754.00011729588</ele>
        <time>2012-02-21T14:19:51Z</time>
      </trkpt>
      <trkpt lat="43.9052" lon="7.4967">
        <ele>754.00012024716</ele>
        <time>2012-02-21T14:19:56Z</time>
      </trkpt>
      <trkpt lat="43.90523" lon="7.49667">
        <ele>755.00009989829</ele>
        <time>2012-02-21T14:20:01Z</time>
      </trkpt>
      <trkpt lat="43.90524" lon="7.49665">
        <ele>758.00009085217</ele>
        <time>2012-02-21T14:20:06Z</time>
      </trkpt>
      <trkpt lat="43.90525" lon="7.49662">
        <ele>755.00002527646</ele>
        <time>2012-02-21T14:20:11Z</time>
      </trkpt>
      <trkpt lat="43.90527" lon="7.49658">
        <ele>754.00006283137</ele>
        <time>2012-02-21T14:20:16Z</time>
      </trkpt>
      <trkpt lat="43.90531" lon="7.49656">
        <ele>751.00000758214</ele>
        <time>2012-02-21T14:20:21Z</time>
      </trkpt>
      <trkpt lat="43.90533" lon="7.49654">
        <ele>758.00003826946</ele>
        <time>2012-02-21T14:20:26Z</time>
      </trkpt>
      <trkpt lat="43.90534" lon="7.49651">
        <ele>758.00001270339</ele>
        <time>2012-02-21T14:20:31Z</time>
      </trkpt>
      <trkpt lat="43.90535" lon="7.49648">
        <ele>760.00011735777</ele>
        <time>2012-02-21T14:20:36Z</time>
      </trkpt>
      <trkpt lat="43.90537" lon="7.49647">
        <ele>757.00009475031</ele>
        <time>2012-02-21T14:20:41Z</time>
      </trkpt>
      <trkpt lat="43.90539" lon="7.49644">
        <ele>764.00027155389</ele>
        <time>2012-02-21T14:20:46Z</time>
      </trkpt>
      <trkpt lat="43.9054" lon="7.49643">
        <ele>763.00011509581</ele>
        <time>2012-02-21T14:20:51Z</time>
      </trkpt>
      <trkpt lat="43.90542" lon="7.4964">
        <ele>761.99997911466</ele>
        <time>2012-02-21T14:20:56Z</time>
      </trkpt>
      <trkpt lat="43.90542" lon="7.49638">
        <ele>759.00007883008</ele>
        <time>2012-02-21T14:21:01Z</time>
      </trkpt>
      <trkpt lat="43.90542" lon="7.49638">
        <ele>759.99987975861</ele>
        <time>2012-02-21T14:21:06Z</time>
      </trkpt>
      <trkpt lat="43.90543" lon="7.49636">
        <ele>759.99992952483</ele>
        <time>2012-02-21T14:21:11Z</time>
      </trkpt>
      <trkpt lat="43.90544" lon="7.49633">
        <ele>761.00008689127</ele>
        <time>2012-02-21T14:21:16Z</time>
      </trkpt>
      <trkpt lat="43.90546" lon="7.49631">
        <ele>765.00009117362</ele>
        <time>2012-02-21T14:21:21Z</time>
      </trkpt>
      <trkpt lat="43.90547" lon="7.49628">
        <ele>760.0001844291</ele>
        <time>2012-02-21T14:21:26Z</time>
      </trkpt>
      <trkpt lat="43.90548" lon="7.49624">
        <ele>760.00011025511</ele>
        <time>2012-02-21T14:21:31Z</time>
      </trkpt>
      <trkpt lat="43.9055" lon="7.49622">
        <ele>770.00010751151</ele>
        <time>2012-02-21T14:21:36Z</time>
      </trkpt>
      <trkpt lat="43.90552" lon="7.4962">
        <ele>764.99996067924</ele>
        <time>2012-02-21T14:21:41Z</time>
      </trkpt>
      <trkpt lat="43.90554" lon="7.49617">
        <ele>767.00001106224</ele>
        <time>2012-02-21T14:21:46Z</time>
      </trkpt>
      <trkpt lat="43.90555" lon="7.49614">
        <ele>766.00019795999</ele>
        <time>2012-02-21T14:21:51Z</time>
      </trkpt>
      <trkpt lat="43.90556" lon="7.49613">
        <ele>772.00020803362</ele>
        <time>2012-02-21T14:21:56Z</time>
      </trkpt>
      <trkpt lat="43.90555" lon="7.49611">
        <ele>769.00024118822</ele>
        <time>2012-02-21T14:22:01Z</time>
      </trkpt>
      <trkpt lat="43.90557" lon="7.49607">
        <ele>768.00002997245</ele>
        <time>2012-02-21T14:22:06Z</time>
      </trkpt>
      <trkpt lat="43.90559" lon="7.49603">
        <ele>767.00013506103</ele>
        <time>2012-02-21T14:22:11Z</time>
      </trkpt>
      <trkpt lat="43.90561" lon="7.496">
        <ele>769.00009555018</ele>
        <time>2012-02-21T14:22:16Z</time>
      </trkpt>
      <trkpt lat="43.90564" lon="7.49597">
        <ele>775.00014834005</ele>
        <time>2012-02-21T14:22:21Z</time>
      </trkpt>
      <trkpt lat="43.90567" lon="7.49595">
        <ele>772.00018647096</ele>
        <time>2012-02-21T14:22:26Z</time>
      </trkpt>
      <trkpt lat="43.90568" lon="7.49592">
        <ele>778.00018240383</ele>
        <time>2012-02-21T14:22:31Z</time>
      </trkpt>
      <trkpt lat="43.90571" lon="7.49589">
        <ele>776.0000276183</ele>
        <time>2012-02-21T14:22:36Z</time>
      </trkpt>
      <trkpt lat="43.90572" lon="7.49584">
        <ele>771.99999452669</ele>
        <time>2012-02-21T14:22:41Z</time>
      </trkpt>
      <trkpt lat="43.90573" lon="7.49579">
        <ele>776.00001782767</ele>
        <time>2012-02-21T14:22:46Z</time>
      </trkpt>
      <trkpt lat="43.90575" lon="7.49576">
        <ele>775.00011866675</ele>
        <time>2012-02-21T14:22:51Z</time>
      </trkpt>
      <trkpt lat="43.90577" lon="7.49573">
        <ele>779.00006511705</ele>
        <time>2012-02-21T14:22:56Z</time>
      </trkpt>
      <trkpt lat="43.90578" lon="7.4957">
        <ele>781.00013629744</ele>
        <time>2012-02-21T14:23:01Z</time>
      </trkpt>
      <trkpt lat="43.90578" lon="7.49567">
        <ele>781.0002029185</ele>
        <time>2012-02-21T14:23:06Z</time>
      </trkpt>
      <trkpt lat="43.90579" lon="7.49564">
        <ele>782.00015709424</ele>
        <time>2012-02-21T14:23:11Z</time>
      </trkpt>
      <trkpt lat="43.9058" lon="7.49561">
        <ele>784.00021859781</ele>
        <time>2012-02-21T14:23:16Z</time>
      </trkpt>
      <trkpt lat="43.9058" lon="7.49561">
        <ele>783.00017423045</ele>
        <time>2012-02-21T14:23:21Z</time>
      </trkpt>
      <trkpt lat="43.90581" lon="7.49559">
        <ele>778.9998663399</ele>
        <time>2012-02-21T14:23:26Z</time>
      </trkpt>
      <trkpt lat="43.90582" lon="7.49553">
        <ele>781.00002662168</ele>
        <time>2012-02-21T14:23:31Z</time>
      </trkpt>
      <trkpt lat="43.90583" lon="7.4955">
        <ele>778.0000728948</ele>
        <time>2012-02-21T14:23:36Z</time>
      </trkpt>
      <trkpt lat="43.90583" lon="7.49545">
        <ele>780.00011683127</ele>
        <time>2012-02-21T14:23:41Z</time>
      </trkpt>
      <trkpt lat="43.90582" lon="7.4954">
        <ele>781.0000465452</ele>
        <time>2012-02-21T14:23:46Z</time>
      </trkpt>
      <trkpt lat="43.90583" lon="7.49535">
        <ele>780.00003481729</ele>
        <time>2012-02-21T14:23:51Z</time>
      </trkpt>
      <trkpt lat="43.90582" lon="7.49532">
        <ele>783.00012304065</ele>
        <time>2012-02-21T14:23:56Z</time>
      </trkpt>
      <trkpt lat="43.90583" lon="7.49528">
        <ele>781.00010782322</ele>
        <time>2012-02-21T14:24:01Z</time>
      </trkpt>
      <trkpt lat="43.90583" lon="7.49525">
        <ele>784.00019638051</ele>
        <time>2012-02-21T14:24:06Z</time>
      </trkpt>
      <trkpt lat="43.90582" lon="7.49521">
        <ele>782.00016872057</ele>
        <time>2012-02-21T14:24:11Z</time>
      </trkpt>
      <trkpt lat="43.90582" lon="7.49517">
        <ele>784.0001729549</ele>
        <time>2012-02-21T14:24:16Z</time>
      </trkpt>
      <trkpt lat="43.90583" lon="7.49514">
        <ele>782.0000717978</ele>
        <time>2012-02-21T14:24:21Z</time>
      </trkpt>
      <trkpt lat="43.90583" lon="7.4951">
        <ele>783.00021313103</ele>
        <time>2012-02-21T14:24:26Z</time>
      </trkpt>
      <trkpt lat="43.90583" lon="7.49507">
        <ele>790.00019014872</ele>
        <time>2012-02-21T14:24:31Z</time>
      </trkpt>
      <trkpt lat="43.90582" lon="7.49503">
        <ele>788.00013342078</ele>
        <time>2012-02-21T14:24:36Z</time>
      </trkpt>
      <trkpt lat="43.90581" lon="7.49499">
        <ele>787.00017358011</ele>
        <time>2012-02-21T14:24:41Z</time>
      </trkpt>
      <trkpt lat="43.90581" lon="7.49495">
        <ele>786.00006180604</ele>
        <time>2012-02-21T14:24:46Z</time>
      </trkpt>
      <trkpt lat="43.90581" lon="7.49491">
        <ele>787.00004379548</ele>
        <time>2012-02-21T14:24:51Z</time>
      </trkpt>
      <trkpt lat="43.90581" lon="7.49487">
        <ele>789.99999925315</ele>
        <time>2012-02-21T14:24:56Z</time>
      </trkpt>
      <trkpt lat="43.90581" lon="7.49483">
        <ele>788.00007387698</ele>
        <time>2012-02-21T14:25:01Z</time>
      </trkpt>
      <trkpt lat="43.90582" lon="7.4948">
        <ele>792.00026693926</ele>
        <time>2012-02-21T14:25:06Z</time>
      </trkpt>
      <trkpt lat="43.90583" lon="7.49479">
        <ele>791.00034378619</ele>
        <time>2012-02-21T14:25:11Z</time>
      </trkpt>
      <trkpt lat="43.90584" lon="7.49477">
        <ele>791.99993044338</ele>
        <time>2012-02-21T14:25:16Z</time>
      </trkpt>
      <trkpt lat="43.90583" lon="7.49473">
        <ele>793.00009368106</ele>
        <time>2012-02-21T14:25:21Z</time>
      </trkpt>
      <trkpt lat="43.90583" lon="7.49469">
        <ele>797.00011299218</ele>
        <time>2012-02-21T14:25:26Z</time>
      </trkpt>
      <trkpt lat="43.90583" lon="7.49466">
        <ele>796.00022211557</ele>
        <time>2012-02-21T14:25:31Z</time>
      </trkpt>
      <trkpt lat="43.90582" lon="7.49462">
        <ele>793.00020570227</ele>
        <time>2012-02-21T14:25:36Z</time>
      </trkpt>
      <trkpt lat="43.90581" lon="7.49459">
        <ele>791.00045458049</ele>
        <time>2012-02-21T14:25:41Z</time>
      </trkpt>
      <trkpt lat="43.90581" lon="7.49457">
        <ele>794.00024778853</ele>
        <time>2012-02-21T14:25:46Z</time>
      </trkpt>
      <trkpt lat="43.9058" lon="7.49454">
        <ele>797.00048637053</ele>
        <time>2012-02-21T14:25:51Z</time>
      </trkpt>
      <trkpt lat="43.90579" lon="7.49452">
        <ele>793.00025152885</ele>
        <time>2012-02-21T14:25:56Z</time>
      </trkpt>
      <trkpt lat="43.90579" lon="7.49449">
        <ele>791.99999197791</ele>
        <time>2012-02-21T14:26:01Z</time>
      </trkpt>
      <trkpt lat="43.90579" lon="7.49445">
        <ele>793.00020662485</ele>
        <time>2012-02-21T14:26:06Z</time>
      </trkpt>
      <trkpt lat="43.90578" lon="7.49444">
        <ele>797.00014053487</ele>
        <time>2012-02-21T14:26:11Z</time>
      </trkpt>
      <trkpt lat="43.90578" lon="7.49442">
        <ele>795.00011215102</ele>
        <time>2012-02-21T14:26:16Z</time>
      </trkpt>
      <trkpt lat="43.90579" lon="7.49439">
        <ele>798.0002152946</ele>
        <time>2012-02-21T14:26:21Z</time>
      </trkpt>
      <trkpt lat="43.9058" lon="7.49436">
        <ele>796.00030791691</ele>
        <time>2012-02-21T14:26:26Z</time>
      </trkpt>
      <trkpt lat="43.90581" lon="7.49434">
        <ele>796.00017337292</ele>
        <time>2012-02-21T14:26:31Z</time>
      </trkpt>
      <trkpt lat="43.90582" lon="7.49431">
        <ele>799.00030431696</ele>
        <time>2012-02-21T14:26:36Z</time>
      </trkpt>
      <trkpt lat="43.90584" lon="7.49428">
        <ele>800.00015204589</ele>
        <time>2012-02-21T14:26:41Z</time>
      </trkpt>
      <trkpt lat="43.90585" lon="7.49425">
        <ele>801.00012761122</ele>
        <time>2012-02-21T14:26:46Z</time>
      </trkpt>
      <trkpt lat="43.90585" lon="7.49421">
        <ele>798.00008071206</ele>
        <time>2012-02-21T14:26:51Z</time>
      </trkpt>
      <trkpt lat="43.90586" lon="7.49418">
        <ele>798.00007580098</ele>
        <time>2012-02-21T14:26:56Z</time>
      </trkpt>
      <trkpt lat="43.90587" lon="7.49413">
        <ele>801.00017806963</ele>
        <time>2012-02-21T14:27:01Z</time>
      </trkpt>
      <trkpt lat="43.90588" lon="7.49411">
        <ele>804.00027131904</ele>
        <time>2012-02-21T14:27:06Z</time>
      </trkpt>
      <trkpt lat="43.90589" lon="7.49409">
        <ele>803.00008210843</ele>
        <time>2012-02-21T14:27:11Z</time>
      </trkpt>
      <trkpt lat="43.90589" lon="7.49405">
        <ele>801.00003371186</ele>
        <time>2012-02-21T14:27:16Z</time>
      </trkpt>
      <trkpt lat="43.9059" lon="7.494">
        <ele>804.99996847483</ele>
        <time>2012-02-21T14:27:21Z</time>
      </trkpt>
      <trkpt lat="43.90592" lon="7.49397">
        <ele>805.00011077001</ele>
        <time>2012-02-21T14:27:26Z</time>
      </trkpt>
      <trkpt lat="43.90593" lon="7.49394">
        <ele>804.00018949394</ele>
        <time>2012-02-21T14:27:31Z</time>
      </trkpt>
      <trkpt lat="43.90594" lon="7.49393">
        <ele>812.00029537369</ele>
        <time>2012-02-21T14:27:36Z</time>
      </trkpt>
      <trkpt lat="43.90594" lon="7.49393">
        <ele>813.0000464377</ele>
        <time>2012-02-21T14:27:41Z</time>
      </trkpt>
      <trkpt lat="43.90595" lon="7.49391">
        <ele>805.999870324</ele>
        <time>2012-02-21T14:27:46Z</time>
      </trkpt>
      <trkpt lat="43.90595" lon="7.49388">
        <ele>806.00023115869</ele>
        <time>2012-02-21T14:27:51Z</time>
      </trkpt>
      <trkpt lat="43.90595" lon="7.49386">
        <ele>805.00044994709</ele>
        <time>2012-02-21T14:27:56Z</time>
      </trkpt>
      <trkpt lat="43.90595" lon="7.49386">
        <ele>802.00014765475</ele>
        <time>2012-02-21T14:28:01Z</time>
      </trkpt>
      <trkpt lat="43.90594" lon="7.49384">
        <ele>801.99986663475</ele>
        <time>2012-02-21T14:28:06Z</time>
      </trkpt>
      <trkpt lat="43.90593" lon="7.4938">
        <ele>806.00033001871</ele>
        <time>2012-02-21T14:28:11Z</time>
      </trkpt>
      <trkpt lat="43.90594" lon="7.49376">
        <ele>802.99996591499</ele>
        <time>2012-02-21T14:28:16Z</time>
      </trkpt>
      <trkpt lat="43.90593" lon="7.49372">
        <ele>801.99989667703</ele>
        <time>2012-02-21T14:28:21Z</time>
      </trkpt>
      <trkpt lat="43.90593" lon="7.4937">
        <ele>807.00017173306</ele>
        <time>2012-02-21T14:28:26Z</time>
      </trkpt>
      <trkpt lat="43.90593" lon="7.49369">
        <ele>804.99992361541</ele>
        <time>2012-02-21T14:28:31Z</time>
      </trkpt>
      <trkpt lat="43.90594" lon="7.49365">
        <ele>805.00001045686</ele>
        <time>2012-02-21T14:28:36Z</time>
      </trkpt>
      <trkpt lat="43.90594" lon="7.49363">
        <ele>807.00038463702</ele>
        <time>2012-02-21T14:28:41Z</time>
      </trkpt>
      <trkpt lat="43.90594" lon="7.49363">
        <ele>813.00055911494</ele>
        <time>2012-02-21T14:28:46Z</time>
      </trkpt>
      <trkpt lat="43.90595" lon="7.49363">
        <ele>817.00024962816</ele>
        <time>2012-02-21T14:28:51Z</time>
      </trkpt>
      <trkpt lat="43.90595" lon="7.49362">
        <ele>806.99999650387</ele>
        <time>2012-02-21T14:28:56Z</time>
      </trkpt>
      <trkpt lat="43.90595" lon="7.49361">
        <ele>808.00028948941</ele>
        <time>2012-02-21T14:29:01Z</time>
      </trkpt>
      <trkpt lat="43.90596" lon="7.49361">
        <ele>811.00023624124</ele>
        <time>2012-02-21T14:29:06Z</time>
      </trkpt>
      <trkpt lat="43.90596" lon="7.49361">
        <ele>802.00022122269</ele>
        <time>2012-02-21T14:29:11Z</time>
      </trkpt>
      <trkpt lat="43.90596" lon="7.49361">
        <ele>801.00017717364</ele>
        <time>2012-02-21T14:29:16Z</time>
      </trkpt>
      <trkpt lat="43.90597" lon="7.49359">
        <ele>805.99990671313</ele>
        <time>2012-02-21T14:29:21Z</time>
      </trkpt>
      <trkpt lat="43.90596" lon="7.49356">
        <ele>803.00017941871</ele>
        <time>2012-02-21T14:29:26Z</time>
      </trkpt>
      <trkpt lat="43.90596" lon="7.49355">
        <ele>800.00018147323</ele>
        <time>2012-02-21T14:29:31Z</time>
      </trkpt>
      <trkpt lat="43.90595" lon="7.49353">
        <ele>805.00015158778</ele>
        <time>2012-02-21T14:29:36Z</time>
      </trkpt>
      <trkpt lat="43.90595" lon="7.49353">
        <ele>802.00005673633</ele>
        <time>2012-02-21T14:29:41Z</time>
      </trkpt>
      <trkpt lat="43.90596" lon="7.49352">
        <ele>806.00005403496</ele>
        <time>2012-02-21T14:29:46Z</time>
      </trkpt>
      <trkpt lat="43.90594" lon="7.49348">
        <ele>804.00000137947</ele>
        <time>2012-02-21T14:29:51Z</time>
      </trkpt>
      <trkpt lat="43.90596" lon="7.49346">
        <ele>814.00030774943</ele>
        <time>2012-02-21T14:29:56Z</time>
      </trkpt>
      <trkpt lat="43.90597" lon="7.49346">
        <ele>814.00039250998</ele>
        <time>2012-02-21T14:30:01Z</time>
      </trkpt>
      <trkpt lat="43.90596" lon="7.49346">
        <ele>813.00010108641</ele>
        <time>2012-02-21T14:30:06Z</time>
      </trkpt>
      <trkpt lat="43.90595" lon="7.49344">
        <ele>812.00014137102</ele>
        <time>2012-02-21T14:30:11Z</time>
      </trkpt>
      <trkpt lat="43.90595" lon="7.49343">
        <ele>809.00015411073</ele>
        <time>2012-02-21T14:30:16Z</time>
      </trkpt>
      <trkpt lat="43.90595" lon="7.49344">
        <ele>811.00013663375</ele>
        <time>2012-02-21T14:30:21Z</time>
      </trkpt>
      <trkpt lat="43.90595" lon="7.49343">
        <ele>811.00008523511</ele>
        <time>2012-02-21T14:30:26Z</time>
      </trkpt>
      <trkpt lat="43.90597" lon="7.49341">
        <ele>808.99996145232</ele>
        <time>2012-02-21T14:30:31Z</time>
      </trkpt>
      <trkpt lat="43.906" lon="7.49338">
        <ele>806.99989772355</ele>
        <time>2012-02-21T14:30:36Z</time>
      </trkpt>
      <trkpt lat="43.90602" lon="7.49336">
        <ele>815.00004475877</ele>
        <time>2012-02-21T14:30:41Z</time>
      </trkpt>
      <trkpt lat="43.90603" lon="7.49334">
        <ele>811.0002267102</ele>
        <time>2012-02-21T14:30:46Z</time>
      </trkpt>
      <trkpt lat="43.90605" lon="7.49333">
        <ele>811.00021237272</ele>
        <time>2012-02-21T14:30:51Z</time>
      </trkpt>
      <trkpt lat="43.90606" lon="7.49331">
        <ele>814.00001567655</ele>
        <time>2012-02-21T14:30:56Z</time>
      </trkpt>
      <trkpt lat="43.90608" lon="7.4933">
        <ele>814.00014344987</ele>
        <time>2012-02-21T14:31:01Z</time>
      </trkpt>
      <trkpt lat="43.90607" lon="7.49329">
        <ele>805.00003592123</ele>
        <time>2012-02-21T14:31:06Z</time>
      </trkpt>
      <trkpt lat="43.90607" lon="7.49329">
        <ele>803.99989644842</ele>
        <time>2012-02-21T14:31:11Z</time>
      </trkpt>
      <trkpt lat="43.90607" lon="7.49327">
        <ele>809.00023961878</ele>
        <time>2012-02-21T14:31:16Z</time>
      </trkpt>
      <trkpt lat="43.90607" lon="7.49327">
        <ele>815.00015137873</ele>
        <time>2012-02-21T14:31:21Z</time>
      </trkpt>
      <trkpt lat="43.90608" lon="7.49325">
        <ele>814.99992551359</ele>
        <time>2012-02-21T14:31:26Z</time>
      </trkpt>
      <trkpt lat="43.90608" lon="7.49322">
        <ele>813.0001459193</ele>
        <time>2012-02-21T14:31:31Z</time>
      </trkpt>
      <trkpt lat="43.90608" lon="7.49321">
        <ele>815.00037151851</ele>
        <time>2012-02-21T14:31:36Z</time>
      </trkpt>
      <trkpt lat="43.90608" lon="7.4932">
        <ele>815.00024860848</ele>
        <time>2012-02-21T14:31:41Z</time>
      </trkpt>
      <trkpt lat="43.90608" lon="7.49316">
        <ele>815.99996109653</ele>
        <time>2012-02-21T14:31:46Z</time>
      </trkpt>
      <trkpt lat="43.90609" lon="7.49315">
        <ele>815.00017213832</ele>
        <time>2012-02-21T14:31:51Z</time>
      </trkpt>
      <trkpt lat="43.90611" lon="7.49311">
        <ele>815.00005198624</ele>
        <time>2012-02-21T14:31:56Z</time>
      </trkpt>
      <trkpt lat="43.90613" lon="7.49309">
        <ele>813.00017498041</ele>
        <time>2012-02-21T14:32:01Z</time>
      </trkpt>
      <trkpt lat="43.90615" lon="7.49307">
        <ele>813.00012662043</ele>
        <time>2012-02-21T14:32:06Z</time>
      </trkpt>
      <trkpt lat="43.90616" lon="7.49306">
        <ele>817.00026650539</ele>
        <time>2012-02-21T14:32:11Z</time>
      </trkpt>
      <trkpt lat="43.90617" lon="7.49303">
        <ele>817.00019699319</ele>
        <time>2012-02-21T14:32:16Z</time>
      </trkpt>
      <trkpt lat="43.90617" lon="7.49301">
        <ele>820.00017049072</ele>
        <time>2012-02-21T14:32:21Z</time>
      </trkpt>
      <trkpt lat="43.90617" lon="7.49298">
        <ele>823.00043645855</ele>
        <time>2012-02-21T14:32:26Z</time>
      </trkpt>
      <trkpt lat="43.90619" lon="7.49296">
        <ele>820.00010685244</ele>
        <time>2012-02-21T14:32:31Z</time>
      </trkpt>
      <trkpt lat="43.90621" lon="7.49291">
        <ele>820.99997611366</ele>
        <time>2012-02-21T14:32:36Z</time>
      </trkpt>
      <trkpt lat="43.90622" lon="7.49289">
        <ele>819.00024151836</ele>
        <time>2012-02-21T14:32:41Z</time>
      </trkpt>
      <trkpt lat="43.90624" lon="7.49287">
        <ele>821.99996069753</ele>
        <time>2012-02-21T14:32:46Z</time>
      </trkpt>
      <trkpt lat="43.90626" lon="7.49282">
        <ele>823.00003085838</ele>
        <time>2012-02-21T14:32:51Z</time>
      </trkpt>
      <trkpt lat="43.90629" lon="7.49279">
        <ele>825.00013550487</ele>
        <time>2012-02-21T14:32:56Z</time>
      </trkpt>
      <trkpt lat="43.9063" lon="7.49277">
        <ele>820.00007741616</ele>
        <time>2012-02-21T14:33:01Z</time>
      </trkpt>
      <trkpt lat="43.90631" lon="7.49275">
        <ele>821.00042381719</ele>
        <time>2012-02-21T14:33:06Z</time>
      </trkpt>
      <trkpt lat="43.90631" lon="7.49275">
        <ele>820.00023072904</ele>
        <time>2012-02-21T14:33:26Z</time>
      </trkpt>
      <trkpt lat="43.90633" lon="7.49273">
        <ele>821.99993703131</ele>
        <time>2012-02-21T14:33:31Z</time>
      </trkpt>
      <trkpt lat="43.90633" lon="7.49271">
        <ele>823.00022454889</ele>
        <time>2012-02-21T14:33:36Z</time>
      </trkpt>
      <trkpt lat="43.90633" lon="7.49271">
        <ele>828.00013876001</ele>
        <time>2012-02-21T14:33:51Z</time>
      </trkpt>
      <trkpt lat="43.90632" lon="7.49272">
        <ele>830.99991091662</ele>
        <time>2012-02-21T14:33:56Z</time>
      </trkpt>
      <trkpt lat="43.90633" lon="7.4927">
        <ele>839.99986629036</ele>
        <time>2012-02-21T14:35:01Z</time>
      </trkpt>
      <trkpt lat="43.90635" lon="7.49271">
        <ele>831.99984453382</ele>
        <time>2012-02-21T14:35:06Z</time>
      </trkpt>
      <trkpt lat="43.90635" lon="7.49271">
        <ele>828.99990077032</ele>
        <time>2012-02-21T14:35:11Z</time>
      </trkpt>
      <trkpt lat="43.90637" lon="7.49272">
        <ele>822.00007845</ele>
        <time>2012-02-21T14:35:16Z</time>
      </trkpt>
      <trkpt lat="43.90639" lon="7.49272">
        <ele>821.00013189574</ele>
        <time>2012-02-21T14:35:21Z</time>
      </trkpt>
      <trkpt lat="43.90641" lon="7.49271">
        <ele>820.00019978835</ele>
        <time>2012-02-21T14:35:26Z</time>
      </trkpt>
      <trkpt lat="43.90642" lon="7.49269">
        <ele>818.00007137556</ele>
        <time>2012-02-21T14:35:31Z</time>
      </trkpt>
      <trkpt lat="43.90646" lon="7.49269">
        <ele>819.00004757903</ele>
        <time>2012-02-21T14:35:36Z</time>
      </trkpt>
      <trkpt lat="43.90649" lon="7.49267">
        <ele>818.00003017214</ele>
        <time>2012-02-21T14:35:41Z</time>
      </trkpt>
      <trkpt lat="43.90652" lon="7.49267">
        <ele>817.00016437586</ele>
        <time>2012-02-21T14:35:46Z</time>
      </trkpt>
      <trkpt lat="43.90656" lon="7.49266">
        <ele>815.00038640427</ele>
        <time>2012-02-21T14:35:51Z</time>
      </trkpt>
      <trkpt lat="43.90657" lon="7.4927">
        <ele>817.00002893062</ele>
        <time>2012-02-21T14:35:56Z</time>
      </trkpt>
      <trkpt lat="43.9066" lon="7.49271">
        <ele>816.00011383488</ele>
        <time>2012-02-21T14:36:01Z</time>
      </trkpt>
      <trkpt lat="43.90661" lon="7.49272">
        <ele>819.99990094854</ele>
        <time>2012-02-21T14:36:06Z</time>
      </trkpt>
      <trkpt lat="43.90664" lon="7.49271">
        <ele>816.0001982295</ele>
        <time>2012-02-21T14:36:11Z</time>
      </trkpt>
      <trkpt lat="43.90666" lon="7.49272">
        <ele>812.99999653899</ele>
        <time>2012-02-21T14:36:16Z</time>
      </trkpt>
      <trkpt lat="43.9067" lon="7.49273">
        <ele>817.99999732357</ele>
        <time>2012-02-21T14:36:21Z</time>
      </trkpt>
      <trkpt lat="43.90676" lon="7.49272">
        <ele>813.00021003956</ele>
        <time>2012-02-21T14:36:26Z</time>
      </trkpt>
      <trkpt lat="43.90681" lon="7.49273">
        <ele>816.00019736125</ele>
        <time>2012-02-21T14:36:31Z</time>
      </trkpt>
      <trkpt lat="43.90684" lon="7.49276">
        <ele>814.00000902046</ele>
        <time>2012-02-21T14:36:36Z</time>
      </trkpt>
      <trkpt lat="43.90687" lon="7.49277">
        <ele>808.99988299402</ele>
        <time>2012-02-21T14:36:41Z</time>
      </trkpt>
      <trkpt lat="43.9069" lon="7.4928">
        <ele>811.9997325512</ele>
        <time>2012-02-21T14:36:46Z</time>
      </trkpt>
      <trkpt lat="43.90693" lon="7.49283">
        <ele>808.99989444982</ele>
        <time>2012-02-21T14:36:51Z</time>
      </trkpt>
      <trkpt lat="43.90695" lon="7.49286">
        <ele>808.9998881541</ele>
        <time>2012-02-21T14:36:56Z</time>
      </trkpt>
      <trkpt lat="43.90699" lon="7.49285">
        <ele>806.9999303559</ele>
        <time>2012-02-21T14:37:01Z</time>
      </trkpt>
      <trkpt lat="43.90701" lon="7.49284">
        <ele>809.00026518811</ele>
        <time>2012-02-21T14:37:06Z</time>
      </trkpt>
      <trkpt lat="43.90703" lon="7.49283">
        <ele>812.00012883004</ele>
        <time>2012-02-21T14:37:11Z</time>
      </trkpt>
      <trkpt lat="43.90706" lon="7.49284">
        <ele>806.00003933902</ele>
        <time>2012-02-21T14:37:16Z</time>
      </trkpt>
      <trkpt lat="43.90709" lon="7.49286">
        <ele>801.99999047817</ele>
        <time>2012-02-21T14:37:21Z</time>
      </trkpt>
      <trkpt lat="43.90712" lon="7.49288">
        <ele>810.99981721793</ele>
        <time>2012-02-21T14:37:26Z</time>
      </trkpt>
      <trkpt lat="43.90716" lon="7.49289">
        <ele>802.99998609958</ele>
        <time>2012-02-21T14:37:31Z</time>
      </trkpt>
      <trkpt lat="43.90718" lon="7.49289">
        <ele>803.00021178844</ele>
        <time>2012-02-21T14:37:36Z</time>
      </trkpt>
      <trkpt lat="43.9072" lon="7.49292">
        <ele>802.99986226912</ele>
        <time>2012-02-21T14:37:41Z</time>
      </trkpt>
      <trkpt lat="43.90722" lon="7.49295">
        <ele>803.99984150298</ele>
        <time>2012-02-21T14:37:46Z</time>
      </trkpt>
      <trkpt lat="43.90725" lon="7.49296">
        <ele>810.00014220125</ele>
        <time>2012-02-21T14:37:51Z</time>
      </trkpt>
      <trkpt lat="43.90729" lon="7.49301">
        <ele>806.00001969176</ele>
        <time>2012-02-21T14:37:56Z</time>
      </trkpt>
      <trkpt lat="43.90732" lon="7.49305">
        <ele>804.99984378802</ele>
        <time>2012-02-21T14:38:01Z</time>
      </trkpt>
      <trkpt lat="43.90735" lon="7.49309">
        <ele>805.99990085026</ele>
        <time>2012-02-21T14:38:06Z</time>
      </trkpt>
      <trkpt lat="43.9074" lon="7.49313">
        <ele>804.00002761874</ele>
        <time>2012-02-21T14:38:11Z</time>
      </trkpt>
      <trkpt lat="43.90744" lon="7.49318">
        <ele>797.00004013536</ele>
        <time>2012-02-21T14:38:16Z</time>
      </trkpt>
      <trkpt lat="43.90749" lon="7.49324">
        <ele>798.99995338684</ele>
        <time>2012-02-21T14:38:21Z</time>
      </trkpt>
      <trkpt lat="43.90753" lon="7.49328">
        <ele>800.99989157025</ele>
        <time>2012-02-21T14:38:26Z</time>
      </trkpt>
      <trkpt lat="43.90759" lon="7.49332">
        <ele>798.99986370936</ele>
        <time>2012-02-21T14:38:31Z</time>
      </trkpt>
      <trkpt lat="43.90764" lon="7.49335">
        <ele>798.99980749401</ele>
        <time>2012-02-21T14:38:36Z</time>
      </trkpt>
      <trkpt lat="43.9077" lon="7.49337">
        <ele>795.99993177726</ele>
        <time>2012-02-21T14:38:41Z</time>
      </trkpt>
      <trkpt lat="43.90775" lon="7.4934">
        <ele>796.99993183253</ele>
        <time>2012-02-21T14:38:46Z</time>
      </trkpt>
      <trkpt lat="43.90779" lon="7.49344">
        <ele>794.99995867157</ele>
        <time>2012-02-21T14:38:51Z</time>
      </trkpt>
      <trkpt lat="43.90784" lon="7.49347">
        <ele>798.00007550917</ele>
        <time>2012-02-21T14:38:56Z</time>
      </trkpt>
      <trkpt lat="43.9079" lon="7.49351">
        <ele>797.99992688517</ele>
        <time>2012-02-21T14:39:01Z</time>
      </trkpt>
      <trkpt lat="43.90796" lon="7.49353">
        <ele>793.00000238737</ele>
        <time>2012-02-21T14:39:06Z</time>
      </trkpt>
      <trkpt lat="43.90802" lon="7.49354">
        <ele>790.9997973307</ele>
        <time>2012-02-21T14:39:11Z</time>
      </trkpt>
      <trkpt lat="43.9081" lon="7.49355">
        <ele>791.9999085496</ele>
        <time>2012-02-21T14:39:16Z</time>
      </trkpt>
      <trkpt lat="43.90815" lon="7.49356">
        <ele>791.99989060598</ele>
        <time>2012-02-21T14:39:21Z</time>
      </trkpt>
      <trkpt lat="43.90815" lon="7.49357">
        <ele>791.9998279338</ele>
        <time>2012-02-21T14:39:26Z</time>
      </trkpt>
      <trkpt lat="43.90816" lon="7.49356">
        <ele>786.99974298622</ele>
        <time>2012-02-21T14:39:31Z</time>
      </trkpt>
      <trkpt lat="43.90822" lon="7.49357">
        <ele>789.99999658404</ele>
        <time>2012-02-21T14:39:36Z</time>
      </trkpt>
      <trkpt lat="43.90827" lon="7.49359">
        <ele>789.00001511325</ele>
        <time>2012-02-21T14:39:41Z</time>
      </trkpt>
      <trkpt lat="43.90831" lon="7.49359">
        <ele>791.00001052556</ele>
        <time>2012-02-21T14:39:46Z</time>
      </trkpt>
      <trkpt lat="43.90835" lon="7.49361">
        <ele>790.0001276122</ele>
        <time>2012-02-21T14:39:51Z</time>
      </trkpt>
      <trkpt lat="43.9084" lon="7.49363">
        <ele>791.00009676865</ele>
        <time>2012-02-21T14:39:56Z</time>
      </trkpt>
      <trkpt lat="43.90846" lon="7.49365">
        <ele>787.00009556393</ele>
        <time>2012-02-21T14:40:01Z</time>
      </trkpt>
      <trkpt lat="43.90852" lon="7.49366">
        <ele>791.00000760257</ele>
        <time>2012-02-21T14:40:06Z</time>
      </trkpt>
      <trkpt lat="43.90858" lon="7.49366">
        <ele>793.00010392099</ele>
        <time>2012-02-21T14:40:11Z</time>
      </trkpt>
      <trkpt lat="43.90863" lon="7.49367">
        <ele>795.00012555631</ele>
        <time>2012-02-21T14:40:16Z</time>
      </trkpt>
      <trkpt lat="43.90867" lon="7.49367">
        <ele>795.00020662719</ele>
        <time>2012-02-21T14:40:21Z</time>
      </trkpt>
      <trkpt lat="43.90873" lon="7.49367">
        <ele>793.00007276062</ele>
        <time>2012-02-21T14:40:26Z</time>
      </trkpt>
      <trkpt lat="43.90878" lon="7.49367">
        <ele>797.00011297558</ele>
        <time>2012-02-21T14:40:31Z</time>
      </trkpt>
      <trkpt lat="43.90883" lon="7.49367">
        <ele>793.00012640326</ele>
        <time>2012-02-21T14:40:36Z</time>
      </trkpt>
      <trkpt lat="43.90888" lon="7.49366">
        <ele>792.00008413857</ele>
        <time>2012-02-21T14:40:41Z</time>
      </trkpt>
      <trkpt lat="43.90894" lon="7.49368">
        <ele>787.00014199915</ele>
        <time>2012-02-21T14:40:46Z</time>
      </trkpt>
      <trkpt lat="43.90899" lon="7.49368">
        <ele>790.00017427566</ele>
        <time>2012-02-21T14:40:51Z</time>
      </trkpt>
      <trkpt lat="43.90904" lon="7.49369">
        <ele>791.00008231894</ele>
        <time>2012-02-21T14:40:56Z</time>
      </trkpt>
      <trkpt lat="43.90909" lon="7.49368">
        <ele>788.99981591199</ele>
        <time>2012-02-21T14:41:01Z</time>
      </trkpt>
      <trkpt lat="43.90915" lon="7.49366">
        <ele>786.99990412736</ele>
        <time>2012-02-21T14:41:06Z</time>
      </trkpt>
      <trkpt lat="43.90923" lon="7.49367">
        <ele>787.99986337908</ele>
        <time>2012-02-21T14:41:11Z</time>
      </trkpt>
      <trkpt lat="43.9093" lon="7.49366">
        <ele>786.99995054897</ele>
        <time>2012-02-21T14:41:16Z</time>
      </trkpt>
      <trkpt lat="43.90935" lon="7.49368">
        <ele>784.00009451434</ele>
        <time>2012-02-21T14:41:21Z</time>
      </trkpt>
      <trkpt lat="43.90939" lon="7.49369">
        <ele>785.00009297269</ele>
        <time>2012-02-21T14:41:26Z</time>
      </trkpt>
      <trkpt lat="43.90944" lon="7.49369">
        <ele>790.00006056665</ele>
        <time>2012-02-21T14:41:31Z</time>
      </trkpt>
      <trkpt lat="43.90949" lon="7.4937">
        <ele>793.00008817024</ele>
        <time>2012-02-21T14:41:36Z</time>
      </trkpt>
      <trkpt lat="43.90953" lon="7.49371">
        <ele>793.0001117415</ele>
        <time>2012-02-21T14:41:41Z</time>
      </trkpt>
      <trkpt lat="43.90957" lon="7.49373">
        <ele>792.00001521882</ele>
        <time>2012-02-21T14:41:46Z</time>
      </trkpt>
      <trkpt lat="43.90963" lon="7.49374">
        <ele>785.99975776051</ele>
        <time>2012-02-21T14:41:51Z</time>
      </trkpt>
      <trkpt lat="43.90969" lon="7.49373">
        <ele>786.99978929137</ele>
        <time>2012-02-21T14:41:56Z</time>
      </trkpt>
      <trkpt lat="43.90974" lon="7.4937">
        <ele>790.99994787664</ele>
        <time>2012-02-21T14:42:01Z</time>
      </trkpt>
      <trkpt lat="43.90979" lon="7.49369">
        <ele>790.00011218656</ele>
        <time>2012-02-21T14:42:06Z</time>
      </trkpt>
      <trkpt lat="43.90984" lon="7.49368">
        <ele>789.00009991997</ele>
        <time>2012-02-21T14:42:11Z</time>
      </trkpt>
      <trkpt lat="43.90988" lon="7.49368">
        <ele>791.00020023381</ele>
        <time>2012-02-21T14:42:16Z</time>
      </trkpt>
      <trkpt lat="43.90992" lon="7.49367">
        <ele>789.00013599101</ele>
        <time>2012-02-21T14:42:21Z</time>
      </trkpt>
      <trkpt lat="43.90997" lon="7.49366">
        <ele>790.0000169939</ele>
        <time>2012-02-21T14:42:26Z</time>
      </trkpt>
      <trkpt lat="43.91001" lon="7.49365">
        <ele>791.00007776897</ele>
        <time>2012-02-21T14:42:31Z</time>
      </trkpt>
      <trkpt lat="43.91005" lon="7.49363">
        <ele>790.00001668649</ele>
        <time>2012-02-21T14:42:36Z</time>
      </trkpt>
      <trkpt lat="43.91011" lon="7.49362">
        <ele>786.99998764049</ele>
        <time>2012-02-21T14:42:41Z</time>
      </trkpt>
      <trkpt lat="43.91016" lon="7.49361">
        <ele>789.00005296425</ele>
        <time>2012-02-21T14:42:46Z</time>
      </trkpt>
      <trkpt lat="43.91021" lon="7.49361">
        <ele>793.00012724696</ele>
        <time>2012-02-21T14:42:51Z</time>
      </trkpt>
      <trkpt lat="43.91026" lon="7.49361">
        <ele>791.00012654762</ele>
        <time>2012-02-21T14:42:56Z</time>
      </trkpt>
      <trkpt lat="43.91031" lon="7.49361">
        <ele>790.99999051607</ele>
        <time>2012-02-21T14:43:01Z</time>
      </trkpt>
      <trkpt lat="43.91035" lon="7.49358">
        <ele>789.99979859894</ele>
        <time>2012-02-21T14:43:06Z</time>
      </trkpt>
      <trkpt lat="43.91039" lon="7.49356">
        <ele>788.99996021795</ele>
        <time>2012-02-21T14:43:11Z</time>
      </trkpt>
      <trkpt lat="43.91044" lon="7.49354">
        <ele>789.99997328533</ele>
        <time>2012-02-21T14:43:16Z</time>
      </trkpt>
      <trkpt lat="43.91048" lon="7.49353">
        <ele>791.99999839395</ele>
        <time>2012-02-21T14:43:21Z</time>
      </trkpt>
      <trkpt lat="43.91053" lon="7.49351">
        <ele>789.00003949119</ele>
        <time>2012-02-21T14:43:26Z</time>
      </trkpt>
      <trkpt lat="43.91058" lon="7.49351">
        <ele>791.00012973896</ele>
        <time>2012-02-21T14:43:31Z</time>
      </trkpt>
      <trkpt lat="43.91062" lon="7.49352">
        <ele>794.00003382896</ele>
        <time>2012-02-21T14:43:36Z</time>
      </trkpt>
      <trkpt lat="43.91067" lon="7.4935">
        <ele>795.99994513926</ele>
        <time>2012-02-21T14:43:41Z</time>
      </trkpt>
      <trkpt lat="43.9107" lon="7.49347">
        <ele>790.99990378938</ele>
        <time>2012-02-21T14:43:46Z</time>
      </trkpt>
      <trkpt lat="43.91075" lon="7.49344">
        <ele>793.99994973073</ele>
        <time>2012-02-21T14:43:51Z</time>
      </trkpt>
      <trkpt lat="43.91079" lon="7.49341">
        <ele>793.00005069007</ele>
        <time>2012-02-21T14:43:56Z</time>
      </trkpt>
      <trkpt lat="43.91082" lon="7.49339">
        <ele>793.00021451232</ele>
        <time>2012-02-21T14:44:01Z</time>
      </trkpt>
      <trkpt lat="43.91085" lon="7.49336">
        <ele>792.00018602574</ele>
        <time>2012-02-21T14:44:06Z</time>
      </trkpt>
      <trkpt lat="43.91087" lon="7.49333">
        <ele>797.00023076116</ele>
        <time>2012-02-21T14:44:11Z</time>
      </trkpt>
      <trkpt lat="43.91089" lon="7.49332">
        <ele>797.00023154042</ele>
        <time>2012-02-21T14:44:16Z</time>
      </trkpt>
      <trkpt lat="43.91091" lon="7.49328">
        <ele>799.0000291098</ele>
        <time>2012-02-21T14:44:21Z</time>
      </trkpt>
      <trkpt lat="43.91092" lon="7.49324">
        <ele>802.00006729199</ele>
        <time>2012-02-21T14:44:26Z</time>
      </trkpt>
      <trkpt lat="43.91092" lon="7.49321">
        <ele>802.00023409287</ele>
        <time>2012-02-21T14:44:31Z</time>
      </trkpt>
      <trkpt lat="43.91093" lon="7.49321">
        <ele>802.00025592537</ele>
        <time>2012-02-21T14:44:36Z</time>
      </trkpt>
      <trkpt lat="43.91093" lon="7.4932">
        <ele>808.99991853696</ele>
        <time>2012-02-21T14:44:56Z</time>
      </trkpt>
      <trkpt lat="43.91095" lon="7.49316">
        <ele>801.99974116797</ele>
        <time>2012-02-21T14:45:01Z</time>
      </trkpt>
      <trkpt lat="43.91097" lon="7.49315">
        <ele>802.00015598551</ele>
        <time>2012-02-21T14:45:06Z</time>
      </trkpt>
      <trkpt lat="43.91094" lon="7.49309">
        <ele>801.99993628546</ele>
        <time>2012-02-21T14:45:21Z</time>
      </trkpt>
      <trkpt lat="43.91091" lon="7.49302">
        <ele>802.99999289777</ele>
        <time>2012-02-21T14:45:26Z</time>
      </trkpt>
      <trkpt lat="43.91089" lon="7.49295">
        <ele>801.99992749235</ele>
        <time>2012-02-21T14:45:31Z</time>
      </trkpt>
      <trkpt lat="43.91086" lon="7.4929">
        <ele>798.00001688253</ele>
        <time>2012-02-21T14:45:36Z</time>
      </trkpt>
      <trkpt lat="43.91083" lon="7.49285">
        <ele>798.99994052269</ele>
        <time>2012-02-21T14:45:41Z</time>
      </trkpt>
      <trkpt lat="43.91081" lon="7.4928">
        <ele>800.99992041631</ele>
        <time>2012-02-21T14:45:46Z</time>
      </trkpt>
      <trkpt lat="43.91081" lon="7.49278">
        <ele>802.00014299003</ele>
        <time>2012-02-21T14:45:51Z</time>
      </trkpt>
      <trkpt lat="43.9108" lon="7.49275">
        <ele>806.00018916883</ele>
        <time>2012-02-21T14:45:56Z</time>
      </trkpt>
      <trkpt lat="43.91077" lon="7.49271">
        <ele>804.00015052124</ele>
        <time>2012-02-21T14:46:01Z</time>
      </trkpt>
      <trkpt lat="43.91074" lon="7.49267">
        <ele>806.00008135962</ele>
        <time>2012-02-21T14:46:06Z</time>
      </trkpt>
      <trkpt lat="43.91072" lon="7.49262">
        <ele>804.99990691272</ele>
        <time>2012-02-21T14:46:11Z</time>
      </trkpt>
      <trkpt lat="43.9107" lon="7.49256">
        <ele>805.99986518663</ele>
        <time>2012-02-21T14:46:16Z</time>
      </trkpt>
      <trkpt lat="43.91069" lon="7.49248">
        <ele>805.99981154458</ele>
        <time>2012-02-21T14:46:21Z</time>
      </trkpt>
      <trkpt lat="43.91067" lon="7.49241">
        <ele>804.99994113493</ele>
        <time>2012-02-21T14:46:26Z</time>
      </trkpt>
      <trkpt lat="43.91064" lon="7.49236">
        <ele>805.99997203458</ele>
        <time>2012-02-21T14:46:31Z</time>
      </trkpt>
      <trkpt lat="43.91063" lon="7.49232">
        <ele>810.00011743363</ele>
        <time>2012-02-21T14:46:36Z</time>
      </trkpt>
      <trkpt lat="43.91062" lon="7.49228">
        <ele>808.00000487047</ele>
        <time>2012-02-21T14:46:41Z</time>
      </trkpt>
      <trkpt lat="43.91061" lon="7.49224">
        <ele>810.00010659191</ele>
        <time>2012-02-21T14:46:46Z</time>
      </trkpt>
      <trkpt lat="43.91059" lon="7.49216">
        <ele>807.99993813656</ele>
        <time>2012-02-21T14:46:51Z</time>
      </trkpt>
      <trkpt lat="43.91057" lon="7.49209">
        <ele>804.99994185208</ele>
        <time>2012-02-21T14:46:56Z</time>
      </trkpt>
      <trkpt lat="43.91056" lon="7.49203">
        <ele>811.99995445804</ele>
        <time>2012-02-21T14:47:01Z</time>
      </trkpt>
      <trkpt lat="43.91056" lon="7.49197">
        <ele>808.999990564</ele>
        <time>2012-02-21T14:47:06Z</time>
      </trkpt>
      <trkpt lat="43.91055" lon="7.49192">
        <ele>811.00007504748</ele>
        <time>2012-02-21T14:47:11Z</time>
      </trkpt>
      <trkpt lat="43.91055" lon="7.49187">
        <ele>811.00010102473</ele>
        <time>2012-02-21T14:47:16Z</time>
      </trkpt>
      <trkpt lat="43.91055" lon="7.49182">
        <ele>808.00012677965</ele>
        <time>2012-02-21T14:47:21Z</time>
      </trkpt>
      <trkpt lat="43.91054" lon="7.49176">
        <ele>817.00004132236</ele>
        <time>2012-02-21T14:47:26Z</time>
      </trkpt>
      <trkpt lat="43.91054" lon="7.49171">
        <ele>818.00013185983</ele>
        <time>2012-02-21T14:47:31Z</time>
      </trkpt>
      <trkpt lat="43.91055" lon="7.49166">
        <ele>819.00017045681</ele>
        <time>2012-02-21T14:47:36Z</time>
      </trkpt>
      <trkpt lat="43.91056" lon="7.49162">
        <ele>818.99999529572</ele>
        <time>2012-02-21T14:47:41Z</time>
      </trkpt>
      <trkpt lat="43.91057" lon="7.49156">
        <ele>822.99996540105</ele>
        <time>2012-02-21T14:47:46Z</time>
      </trkpt>
      <trkpt lat="43.91059" lon="7.4915">
        <ele>820.00001685916</ele>
        <time>2012-02-21T14:47:51Z</time>
      </trkpt>
      <trkpt lat="43.91062" lon="7.49147">
        <ele>821.00009470161</ele>
        <time>2012-02-21T14:47:56Z</time>
      </trkpt>
      <trkpt lat="43.91065" lon="7.49145">
        <ele>819.00028914432</ele>
        <time>2012-02-21T14:48:01Z</time>
      </trkpt>
      <trkpt lat="43.91068" lon="7.49143">
        <ele>816.00030364878</ele>
        <time>2012-02-21T14:48:06Z</time>
      </trkpt>
      <trkpt lat="43.91071" lon="7.49142">
        <ele>812.00018059107</ele>
        <time>2012-02-21T14:48:11Z</time>
      </trkpt>
      <trkpt lat="43.91074" lon="7.49139">
        <ele>815.00008761187</ele>
        <time>2012-02-21T14:48:16Z</time>
      </trkpt>
      <trkpt lat="43.91077" lon="7.49136">
        <ele>813.99990017934</ele>
        <time>2012-02-21T14:48:21Z</time>
      </trkpt>
      <trkpt lat="43.91082" lon="7.49133">
        <ele>816.00004849429</ele>
        <time>2012-02-21T14:48:26Z</time>
      </trkpt>
      <trkpt lat="43.91085" lon="7.49131">
        <ele>820.00006332955</ele>
        <time>2012-02-21T14:48:31Z</time>
      </trkpt>
      <trkpt lat="43.91089" lon="7.4913">
        <ele>823.00005391922</ele>
        <time>2012-02-21T14:48:36Z</time>
      </trkpt>
      <trkpt lat="43.91093" lon="7.49128">
        <ele>825.00004451264</ele>
        <time>2012-02-21T14:48:41Z</time>
      </trkpt>
      <trkpt lat="43.91095" lon="7.49125">
        <ele>824.00025890971</ele>
        <time>2012-02-21T14:48:46Z</time>
      </trkpt>
      <trkpt lat="43.91098" lon="7.49123">
        <ele>824.00010846317</ele>
        <time>2012-02-21T14:48:51Z</time>
      </trkpt>
      <trkpt lat="43.91102" lon="7.4912">
        <ele>828.00006976275</ele>
        <time>2012-02-21T14:48:56Z</time>
      </trkpt>
      <trkpt lat="43.91105" lon="7.49118">
        <ele>832.00015719764</ele>
        <time>2012-02-21T14:49:01Z</time>
      </trkpt>
      <trkpt lat="43.91108" lon="7.49115">
        <ele>828.99998860298</ele>
        <time>2012-02-21T14:49:06Z</time>
      </trkpt>
      <trkpt lat="43.91111" lon="7.49111">
        <ele>830.0001651465</ele>
        <time>2012-02-21T14:49:11Z</time>
      </trkpt>
      <trkpt lat="43.91113" lon="7.49108">
        <ele>827.00007559894</ele>
        <time>2012-02-21T14:49:16Z</time>
      </trkpt>
      <trkpt lat="43.91117" lon="7.49105">
        <ele>829.00004630272</ele>
        <time>2012-02-21T14:49:21Z</time>
      </trkpt>
      <trkpt lat="43.91119" lon="7.49101">
        <ele>827.00014297392</ele>
        <time>2012-02-21T14:49:26Z</time>
      </trkpt>
      <trkpt lat="43.91123" lon="7.49098">
        <ele>828.99997840916</ele>
        <time>2012-02-21T14:49:31Z</time>
      </trkpt>
      <trkpt lat="43.91126" lon="7.49093">
        <ele>828.99997203655</ele>
        <time>2012-02-21T14:49:36Z</time>
      </trkpt>
      <trkpt lat="43.91127" lon="7.49088">
        <ele>825.00010243654</ele>
        <time>2012-02-21T14:49:41Z</time>
      </trkpt>
      <trkpt lat="43.91128" lon="7.49082">
        <ele>827.00002357489</ele>
        <time>2012-02-21T14:49:46Z</time>
      </trkpt>
      <trkpt lat="43.91129" lon="7.49077">
        <ele>827.00007432554</ele>
        <time>2012-02-21T14:49:51Z</time>
      </trkpt>
      <trkpt lat="43.91131" lon="7.49072">
        <ele>827.99991493645</ele>
        <time>2012-02-21T14:49:56Z</time>
      </trkpt>
      <trkpt lat="43.91133" lon="7.49066">
        <ele>826.99986452088</ele>
        <time>2012-02-21T14:50:01Z</time>
      </trkpt>
      <trkpt lat="43.91136" lon="7.49061">
        <ele>829.00018380144</ele>
        <time>2012-02-21T14:50:06Z</time>
      </trkpt>
      <trkpt lat="43.91138" lon="7.49057">
        <ele>830.00009680917</ele>
        <time>2012-02-21T14:50:11Z</time>
      </trkpt>
      <trkpt lat="43.9114" lon="7.49053">
        <ele>830.00005986199</ele>
        <time>2012-02-21T14:50:16Z</time>
      </trkpt>
      <trkpt lat="43.91143" lon="7.4905">
        <ele>827.99995905275</ele>
        <time>2012-02-21T14:50:21Z</time>
      </trkpt>
      <trkpt lat="43.91147" lon="7.49047">
        <ele>828.00006087401</ele>
        <time>2012-02-21T14:50:26Z</time>
      </trkpt>
      <trkpt lat="43.91151" lon="7.49045">
        <ele>826.00003374393</ele>
        <time>2012-02-21T14:50:31Z</time>
      </trkpt>
      <trkpt lat="43.91156" lon="7.49044">
        <ele>827.9999623661</ele>
        <time>2012-02-21T14:50:36Z</time>
      </trkpt>
      <trkpt lat="43.9116" lon="7.49044">
        <ele>826.99992929129</ele>
        <time>2012-02-21T14:50:41Z</time>
      </trkpt>
      <trkpt lat="43.91163" lon="7.49043">
        <ele>825.00003260211</ele>
        <time>2012-02-21T14:50:46Z</time>
      </trkpt>
      <trkpt lat="43.91167" lon="7.49044">
        <ele>820.00012097963</ele>
        <time>2012-02-21T14:50:51Z</time>
      </trkpt>
      <trkpt lat="43.91171" lon="7.49046">
        <ele>819.99994734959</ele>
        <time>2012-02-21T14:50:56Z</time>
      </trkpt>
      <trkpt lat="43.91175" lon="7.49047">
        <ele>816.99985401878</ele>
        <time>2012-02-21T14:51:01Z</time>
      </trkpt>
      <trkpt lat="43.9118" lon="7.49049">
        <ele>819.99989968342</ele>
        <time>2012-02-21T14:51:06Z</time>
      </trkpt>
      <trkpt lat="43.91185" lon="7.4905">
        <ele>821.00017078199</ele>
        <time>2012-02-21T14:51:11Z</time>
      </trkpt>
      <trkpt lat="43.91188" lon="7.49051">
        <ele>823.00002046211</ele>
        <time>2012-02-21T14:51:16Z</time>
      </trkpt>
      <trkpt lat="43.9119" lon="7.49051">
        <ele>828.00003135686</ele>
        <time>2012-02-21T14:51:21Z</time>
      </trkpt>
      <trkpt lat="43.91193" lon="7.49052">
        <ele>830.00003471914</ele>
        <time>2012-02-21T14:51:26Z</time>
      </trkpt>
      <trkpt lat="43.91197" lon="7.49054">
        <ele>822.00004132648</ele>
        <time>2012-02-21T14:51:31Z</time>
      </trkpt>
      <trkpt lat="43.912" lon="7.49055">
        <ele>821.0001332092</ele>
        <time>2012-02-21T14:51:36Z</time>
      </trkpt>
      <trkpt lat="43.91201" lon="7.49056">
        <ele>822.00012289976</ele>
        <time>2012-02-21T14:51:41Z</time>
      </trkpt>
      <trkpt lat="43.91203" lon="7.49057">
        <ele>827.00004778838</ele>
        <time>2012-02-21T14:51:46Z</time>
      </trkpt>
      <trkpt lat="43.91208" lon="7.49058">
        <ele>827.99989158536</ele>
        <time>2012-02-21T14:51:51Z</time>
      </trkpt>
      <trkpt lat="43.91213" lon="7.49059">
        <ele>828.9999230696</ele>
        <time>2012-02-21T14:51:56Z</time>
      </trkpt>
      <trkpt lat="43.91216" lon="7.49061">
        <ele>834.00007625818</ele>
        <time>2012-02-21T14:52:01Z</time>
      </trkpt>
      <trkpt lat="43.9122" lon="7.49062">
        <ele>829.00003376455</ele>
        <time>2012-02-21T14:52:06Z</time>
      </trkpt>
      <trkpt lat="43.91225" lon="7.49064">
        <ele>827.00007204623</ele>
        <time>2012-02-21T14:52:11Z</time>
      </trkpt>
      <trkpt lat="43.91229" lon="7.49066">
        <ele>828.00008303532</ele>
        <time>2012-02-21T14:52:16Z</time>
      </trkpt>
      <trkpt lat="43.91234" lon="7.49069">
        <ele>828.99997894151</ele>
        <time>2012-02-21T14:52:21Z</time>
      </trkpt>
      <trkpt lat="43.91239" lon="7.4907">
        <ele>829.99995139781</ele>
        <time>2012-02-21T14:52:26Z</time>
      </trkpt>
      <trkpt lat="43.91243" lon="7.49073">
        <ele>829.00009107027</ele>
        <time>2012-02-21T14:52:31Z</time>
      </trkpt>
      <trkpt lat="43.91246" lon="7.49075">
        <ele>831.99999567441</ele>
        <time>2012-02-21T14:52:36Z</time>
      </trkpt>
      <trkpt lat="43.9125" lon="7.49077">
        <ele>832.00010003464</ele>
        <time>2012-02-21T14:52:41Z</time>
      </trkpt>
      <trkpt lat="43.91252" lon="7.49081">
        <ele>838.99994506723</ele>
        <time>2012-02-21T14:52:46Z</time>
      </trkpt>
      <trkpt lat="43.91256" lon="7.49082">
        <ele>840.99996920701</ele>
        <time>2012-02-21T14:52:51Z</time>
      </trkpt>
      <trkpt lat="43.9126" lon="7.49086">
        <ele>839.00012198752</ele>
        <time>2012-02-21T14:52:56Z</time>
      </trkpt>
      <trkpt lat="43.91262" lon="7.4909">
        <ele>842.99997690892</ele>
        <time>2012-02-21T14:53:01Z</time>
      </trkpt>
      <trkpt lat="43.91266" lon="7.49093">
        <ele>839.00001525384</ele>
        <time>2012-02-21T14:53:06Z</time>
      </trkpt>
      <trkpt lat="43.91269" lon="7.49098">
        <ele>841.99992361157</ele>
        <time>2012-02-21T14:53:11Z</time>
      </trkpt>
      <trkpt lat="43.91273" lon="7.49099">
        <ele>844.0000211751</ele>
        <time>2012-02-21T14:53:16Z</time>
      </trkpt>
      <trkpt lat="43.91276" lon="7.49101">
        <ele>842.99987674739</ele>
        <time>2012-02-21T14:53:21Z</time>
      </trkpt>
      <trkpt lat="43.9128" lon="7.49102">
        <ele>836.99984044326</ele>
        <time>2012-02-21T14:53:26Z</time>
      </trkpt>
      <trkpt lat="43.91284" lon="7.49104">
        <ele>833.99981233752</ele>
        <time>2012-02-21T14:53:31Z</time>
      </trkpt>
      <trkpt lat="43.91288" lon="7.49107">
        <ele>838.99993341504</ele>
        <time>2012-02-21T14:53:36Z</time>
      </trkpt>
      <trkpt lat="43.91291" lon="7.49111">
        <ele>837.00001898899</ele>
        <time>2012-02-21T14:53:41Z</time>
      </trkpt>
      <trkpt lat="43.91294" lon="7.49115">
        <ele>839.0000218616</ele>
        <time>2012-02-21T14:53:46Z</time>
      </trkpt>
      <trkpt lat="43.91298" lon="7.49119">
        <ele>838.99986003462</ele>
        <time>2012-02-21T14:53:51Z</time>
      </trkpt>
      <trkpt lat="43.91303" lon="7.49122">
        <ele>836.99988231264</ele>
        <time>2012-02-21T14:53:56Z</time>
      </trkpt>
      <trkpt lat="43.91307" lon="7.49125">
        <ele>835.99981327209</ele>
        <time>2012-02-21T14:54:01Z</time>
      </trkpt>
      <trkpt lat="43.9131" lon="7.49129">
        <ele>836.99998796135</ele>
        <time>2012-02-21T14:54:06Z</time>
      </trkpt>
      <trkpt lat="43.91313" lon="7.49131">
        <ele>834.99997448104</ele>
        <time>2012-02-21T14:54:11Z</time>
      </trkpt>
      <trkpt lat="43.91316" lon="7.49134">
        <ele>837.9998725375</ele>
        <time>2012-02-21T14:54:16Z</time>
      </trkpt>
      <trkpt lat="43.9132" lon="7.49136">
        <ele>841.99988018971</ele>
        <time>2012-02-21T14:54:21Z</time>
      </trkpt>
      <trkpt lat="43.91324" lon="7.49139">
        <ele>835.9999997219</ele>
        <time>2012-02-21T14:54:26Z</time>
      </trkpt>
      <trkpt lat="43.91329" lon="7.49143">
        <ele>832.99994934906</ele>
        <time>2012-02-21T14:54:31Z</time>
      </trkpt>
      <trkpt lat="43.91333" lon="7.49147">
        <ele>842.99995657681</ele>
        <time>2012-02-21T14:54:36Z</time>
      </trkpt>
      <trkpt lat="43.91337" lon="7.4915">
        <ele>841.99992679381</ele>
        <time>2012-02-21T14:54:41Z</time>
      </trkpt>
      <trkpt lat="43.91341" lon="7.49151">
        <ele>845.99985605233</ele>
        <time>2012-02-21T14:54:46Z</time>
      </trkpt>
      <trkpt lat="43.91345" lon="7.49153">
        <ele>842.99981756773</ele>
        <time>2012-02-21T14:54:51Z</time>
      </trkpt>
      <trkpt lat="43.91349" lon="7.49155">
        <ele>844.00004441778</ele>
        <time>2012-02-21T14:54:56Z</time>
      </trkpt>
      <trkpt lat="43.91352" lon="7.49159">
        <ele>842.00019326787</ele>
        <time>2012-02-21T14:55:01Z</time>
      </trkpt>
      <trkpt lat="43.91355" lon="7.49164">
        <ele>843.00012254373</ele>
        <time>2012-02-21T14:55:06Z</time>
      </trkpt>
      <trkpt lat="43.91358" lon="7.49168">
        <ele>846.00002588818</ele>
        <time>2012-02-21T14:55:11Z</time>
      </trkpt>
      <trkpt lat="43.91362" lon="7.49169">
        <ele>846.99987453013</ele>
        <time>2012-02-21T14:55:16Z</time>
      </trkpt>
      <trkpt lat="43.91366" lon="7.4917">
        <ele>844.00008784236</ele>
        <time>2012-02-21T14:55:21Z</time>
      </trkpt>
      <trkpt lat="43.91369" lon="7.49172">
        <ele>842.00014671749</ele>
        <time>2012-02-21T14:55:26Z</time>
      </trkpt>
      <trkpt lat="43.9137" lon="7.49175">
        <ele>845.000077301</ele>
        <time>2012-02-21T14:55:31Z</time>
      </trkpt>
      <trkpt lat="43.91373" lon="7.49177">
        <ele>843.00002934984</ele>
        <time>2012-02-21T14:55:36Z</time>
      </trkpt>
      <trkpt lat="43.91377" lon="7.4918">
        <ele>836.99988869684</ele>
        <time>2012-02-21T14:55:41Z</time>
      </trkpt>
      <trkpt lat="43.91382" lon="7.49183">
        <ele>835.99974951899</ele>
        <time>2012-02-21T14:55:46Z</time>
      </trkpt>
      <trkpt lat="43.91387" lon="7.49185">
        <ele>837.99984007381</ele>
        <time>2012-02-21T14:55:51Z</time>
      </trkpt>
      <trkpt lat="43.9139" lon="7.4919">
        <ele>836.99992575123</ele>
        <time>2012-02-21T14:55:56Z</time>
      </trkpt>
      <trkpt lat="43.91393" lon="7.49188">
        <ele>837.00005655714</ele>
        <time>2012-02-21T14:56:01Z</time>
      </trkpt>
      <trkpt lat="43.91393" lon="7.49188">
        <ele>837.00027189652</ele>
        <time>2012-02-21T14:56:06Z</time>
      </trkpt>
      <trkpt lat="43.91393" lon="7.4919">
        <ele>840.99997981893</ele>
        <time>2012-02-21T14:56:26Z</time>
      </trkpt>
      <trkpt lat="43.91392" lon="7.49189">
        <ele>847.00004328809</ele>
        <time>2012-02-21T14:56:46Z</time>
      </trkpt>
      <trkpt lat="43.91392" lon="7.49189">
        <ele>846.00007403309</ele>
        <time>2012-02-21T14:56:51Z</time>
      </trkpt>
      <trkpt lat="43.91391" lon="7.49191">
        <ele>843.00016502266</ele>
        <time>2012-02-21T14:57:11Z</time>
      </trkpt>
      <trkpt lat="43.91392" lon="7.49191">
        <ele>837.00027533487</ele>
        <time>2012-02-21T14:57:16Z</time>
      </trkpt>
      <trkpt lat="43.91393" lon="7.49189">
        <ele>838.00070376458</ele>
        <time>2012-02-21T14:57:21Z</time>
      </trkpt>
      <trkpt lat="43.91393" lon="7.49189">
        <ele>837.00059379217</ele>
        <time>2012-02-21T14:57:46Z</time>
      </trkpt>
      <trkpt lat="43.91392" lon="7.49191">
        <ele>844.0004626273</ele>
        <time>2012-02-21T14:58:01Z</time>
      </trkpt>
      <trkpt lat="43.91392" lon="7.49193">
        <ele>842.00028692027</ele>
        <time>2012-02-21T14:58:06Z</time>
      </trkpt>
      <trkpt lat="43.91392" lon="7.49192">
        <ele>836.00032979596</ele>
        <time>2012-02-21T14:58:11Z</time>
      </trkpt>
      <trkpt lat="43.91392" lon="7.4919">
        <ele>838.99984788411</ele>
        <time>2012-02-21T14:58:21Z</time>
      </trkpt>
      <trkpt lat="43.91391" lon="7.4919">
        <ele>844.00007986405</ele>
        <time>2012-02-21T14:58:51Z</time>
      </trkpt>
      <trkpt lat="43.9139" lon="7.4919">
        <ele>837.9999649094</ele>
        <time>2012-02-21T14:58:56Z</time>
      </trkpt>
      <trkpt lat="43.91392" lon="7.4919">
        <ele>837.99992113791</ele>
        <time>2012-02-21T14:59:01Z</time>
      </trkpt>
      <trkpt lat="43.91397" lon="7.49193">
        <ele>843.00002822797</ele>
        <time>2012-02-21T14:59:06Z</time>
      </trkpt>
      <trkpt lat="43.91403" lon="7.49196">
        <ele>847.99993432674</ele>
        <time>2012-02-21T14:59:11Z</time>
      </trkpt>
      <trkpt lat="43.9141" lon="7.49199">
        <ele>844.00001282568</ele>
        <time>2012-02-21T14:59:16Z</time>
      </trkpt>
      <trkpt lat="43.91417" lon="7.49201">
        <ele>846.00001123771</ele>
        <time>2012-02-21T14:59:21Z</time>
      </trkpt>
      <trkpt lat="43.91422" lon="7.49206">
        <ele>839.0002180007</ele>
        <time>2012-02-21T14:59:26Z</time>
      </trkpt>
      <trkpt lat="43.91427" lon="7.49212">
        <ele>837.00010802548</ele>
        <time>2012-02-21T14:59:31Z</time>
      </trkpt>
      <trkpt lat="43.91432" lon="7.49218">
        <ele>836.99991294065</ele>
        <time>2012-02-21T14:59:36Z</time>
      </trkpt>
      <trkpt lat="43.91437" lon="7.49222">
        <ele>837.99977174301</ele>
        <time>2012-02-21T14:59:41Z</time>
      </trkpt>
      <trkpt lat="43.91441" lon="7.49227">
        <ele>839.99974411806</ele>
        <time>2012-02-21T14:59:46Z</time>
      </trkpt>
      <trkpt lat="43.91444" lon="7.49232">
        <ele>833.9999074537</ele>
        <time>2012-02-21T14:59:51Z</time>
      </trkpt>
      <trkpt lat="43.91448" lon="7.49238">
        <ele>834.99997888001</ele>
        <time>2012-02-21T14:59:56Z</time>
      </trkpt>
      <trkpt lat="43.91453" lon="7.49242">
        <ele>833.9999662761</ele>
        <time>2012-02-21T15:00:01Z</time>
      </trkpt>
      <trkpt lat="43.91457" lon="7.49245">
        <ele>838.99997252035</ele>
        <time>2012-02-21T15:00:06Z</time>
      </trkpt>
      <trkpt lat="43.91461" lon="7.49246">
        <ele>832.9999984723</ele>
        <time>2012-02-21T15:00:11Z</time>
      </trkpt>
      <trkpt lat="43.91467" lon="7.49248">
        <ele>837.00001573203</ele>
        <time>2012-02-21T15:00:16Z</time>
      </trkpt>
      <trkpt lat="43.91472" lon="7.4925">
        <ele>837.00014845049</ele>
        <time>2012-02-21T15:00:21Z</time>
      </trkpt>
      <trkpt lat="43.91478" lon="7.49251">
        <ele>840.99997995504</ele>
        <time>2012-02-21T15:00:26Z</time>
      </trkpt>
      <trkpt lat="43.91482" lon="7.49252">
        <ele>838.00000700605</ele>
        <time>2012-02-21T15:00:31Z</time>
      </trkpt>
      <trkpt lat="43.91487" lon="7.49252">
        <ele>839.00003398769</ele>
        <time>2012-02-21T15:00:36Z</time>
      </trkpt>
      <trkpt lat="43.91492" lon="7.49252">
        <ele>838.99991918416</ele>
        <time>2012-02-21T15:00:41Z</time>
      </trkpt>
      <trkpt lat="43.91498" lon="7.49251">
        <ele>840.00003110849</ele>
        <time>2012-02-21T15:00:46Z</time>
      </trkpt>
      <trkpt lat="43.91503" lon="7.49254">
        <ele>835.00000893633</ele>
        <time>2012-02-21T15:00:51Z</time>
      </trkpt>
      <trkpt lat="43.91508" lon="7.49255">
        <ele>836.00004211949</ele>
        <time>2012-02-21T15:00:56Z</time>
      </trkpt>
      <trkpt lat="43.91513" lon="7.49257">
        <ele>838.99996041631</ele>
        <time>2012-02-21T15:01:01Z</time>
      </trkpt>
      <trkpt lat="43.91519" lon="7.49257">
        <ele>836.00001521226</ele>
        <time>2012-02-21T15:01:06Z</time>
      </trkpt>
      <trkpt lat="43.91524" lon="7.49258">
        <ele>836.99999094695</ele>
        <time>2012-02-21T15:01:11Z</time>
      </trkpt>
      <trkpt lat="43.9153" lon="7.49259">
        <ele>836.99991891773</ele>
        <time>2012-02-21T15:01:16Z</time>
      </trkpt>
      <trkpt lat="43.91536" lon="7.49259">
        <ele>839.99986999186</ele>
        <time>2012-02-21T15:01:21Z</time>
      </trkpt>
      <trkpt lat="43.91542" lon="7.4926">
        <ele>842.00006105566</ele>
        <time>2012-02-21T15:01:26Z</time>
      </trkpt>
      <trkpt lat="43.91547" lon="7.49262">
        <ele>837.00017148835</ele>
        <time>2012-02-21T15:01:31Z</time>
      </trkpt>
      <trkpt lat="43.91553" lon="7.49263">
        <ele>840.00003391125</ele>
        <time>2012-02-21T15:01:36Z</time>
      </trkpt>
      <trkpt lat="43.91557" lon="7.49265">
        <ele>840.00006655242</ele>
        <time>2012-02-21T15:01:41Z</time>
      </trkpt>
      <trkpt lat="43.91562" lon="7.49267">
        <ele>842.99999738436</ele>
        <time>2012-02-21T15:01:46Z</time>
      </trkpt>
      <trkpt lat="43.91566" lon="7.49268">
        <ele>845.00010853803</ele>
        <time>2012-02-21T15:01:51Z</time>
      </trkpt>
      <trkpt lat="43.9157" lon="7.49271">
        <ele>841.99999688436</ele>
        <time>2012-02-21T15:01:56Z</time>
      </trkpt>
      <trkpt lat="43.91576" lon="7.49271">
        <ele>840.99976815762</ele>
        <time>2012-02-21T15:02:01Z</time>
      </trkpt>
      <trkpt lat="43.91581" lon="7.49273">
        <ele>840.00013515999</ele>
        <time>2012-02-21T15:02:06Z</time>
      </trkpt>
      <trkpt lat="43.91586" lon="7.49275">
        <ele>839.99988296915</ele>
        <time>2012-02-21T15:02:11Z</time>
      </trkpt>
      <trkpt lat="43.9159" lon="7.49276">
        <ele>837.99999893024</ele>
        <time>2012-02-21T15:02:16Z</time>
      </trkpt>
      <trkpt lat="43.91594" lon="7.49276">
        <ele>847.99998253679</ele>
        <time>2012-02-21T15:02:21Z</time>
      </trkpt>
      <trkpt lat="43.91598" lon="7.49276">
        <ele>844.99989819876</ele>
        <time>2012-02-21T15:02:26Z</time>
      </trkpt>
      <trkpt lat="43.91603" lon="7.49276">
        <ele>844.00005681252</ele>
        <time>2012-02-21T15:02:31Z</time>
      </trkpt>
      <trkpt lat="43.91608" lon="7.49277">
        <ele>845.00002957319</ele>
        <time>2012-02-21T15:02:36Z</time>
      </trkpt>
      <trkpt lat="43.91612" lon="7.49276">
        <ele>846.00006209371</ele>
        <time>2012-02-21T15:02:41Z</time>
      </trkpt>
      <trkpt lat="43.91615" lon="7.49275">
        <ele>848.00000259696</ele>
        <time>2012-02-21T15:02:46Z</time>
      </trkpt>
      <trkpt lat="43.91619" lon="7.49273">
        <ele>848.00008719279</ele>
        <time>2012-02-21T15:02:51Z</time>
      </trkpt>
      <trkpt lat="43.91623" lon="7.49272">
        <ele>849.00023611993</ele>
        <time>2012-02-21T15:02:56Z</time>
      </trkpt>
      <trkpt lat="43.91626" lon="7.49271">
        <ele>852.00031157055</ele>
        <time>2012-02-21T15:03:01Z</time>
      </trkpt>
      <trkpt lat="43.9163" lon="7.4927">
        <ele>845.99994488136</ele>
        <time>2012-02-21T15:03:06Z</time>
      </trkpt>
      <trkpt lat="43.91634" lon="7.49268">
        <ele>849.00006985709</ele>
        <time>2012-02-21T15:03:11Z</time>
      </trkpt>
      <trkpt lat="43.91638" lon="7.49267">
        <ele>851.99998236444</ele>
        <time>2012-02-21T15:03:16Z</time>
      </trkpt>
      <trkpt lat="43.91643" lon="7.49265">
        <ele>849.99993958763</ele>
        <time>2012-02-21T15:03:21Z</time>
      </trkpt>
      <trkpt lat="43.91648" lon="7.49264">
        <ele>854.00003057812</ele>
        <time>2012-02-21T15:03:26Z</time>
      </trkpt>
      <trkpt lat="43.91652" lon="7.49263">
        <ele>849.99993466486</ele>
        <time>2012-02-21T15:03:31Z</time>
      </trkpt>
      <trkpt lat="43.91658" lon="7.49261">
        <ele>849.00003774189</ele>
        <time>2012-02-21T15:03:36Z</time>
      </trkpt>
      <trkpt lat="43.91661" lon="7.49259">
        <ele>849.00017949038</ele>
        <time>2012-02-21T15:03:41Z</time>
      </trkpt>
      <trkpt lat="43.91665" lon="7.49257">
        <ele>848.00000855208</ele>
        <time>2012-02-21T15:03:46Z</time>
      </trkpt>
      <trkpt lat="43.91669" lon="7.49256">
        <ele>849.00007772451</ele>
        <time>2012-02-21T15:03:51Z</time>
      </trkpt>
      <trkpt lat="43.91673" lon="7.49255">
        <ele>854.00016395395</ele>
        <time>2012-02-21T15:03:56Z</time>
      </trkpt>
      <trkpt lat="43.91677" lon="7.49253">
        <ele>852.00021791978</ele>
        <time>2012-02-21T15:04:01Z</time>
      </trkpt>
      <trkpt lat="43.91681" lon="7.49251">
        <ele>855.00024857124</ele>
        <time>2012-02-21T15:04:06Z</time>
      </trkpt>
      <trkpt lat="43.91686" lon="7.4925">
        <ele>850.99991078537</ele>
        <time>2012-02-21T15:04:11Z</time>
      </trkpt>
      <trkpt lat="43.9169" lon="7.49246">
        <ele>849.99992835242</ele>
        <time>2012-02-21T15:04:16Z</time>
      </trkpt>
      <trkpt lat="43.91693" lon="7.49243">
        <ele>858.0002151542</ele>
        <time>2012-02-21T15:04:21Z</time>
      </trkpt>
      <trkpt lat="43.91695" lon="7.49241">
        <ele>859.00032480093</ele>
        <time>2012-02-21T15:04:26Z</time>
      </trkpt>
      <trkpt lat="43.91698" lon="7.49239">
        <ele>858.00010595994</ele>
        <time>2012-02-21T15:04:31Z</time>
      </trkpt>
      <trkpt lat="43.91702" lon="7.49235">
        <ele>855.00009528179</ele>
        <time>2012-02-21T15:04:36Z</time>
      </trkpt>
      <trkpt lat="43.91705" lon="7.49231">
        <ele>857.99997339824</ele>
        <time>2012-02-21T15:04:41Z</time>
      </trkpt>
      <trkpt lat="43.91709" lon="7.49228">
        <ele>857.99999302308</ele>
        <time>2012-02-21T15:04:46Z</time>
      </trkpt>
      <trkpt lat="43.91714" lon="7.49224">
        <ele>852.99971122997</ele>
        <time>2012-02-21T15:04:51Z</time>
      </trkpt>
      <trkpt lat="43.91718" lon="7.49221">
        <ele>855.99996153112</ele>
        <time>2012-02-21T15:04:56Z</time>
      </trkpt>
      <trkpt lat="43.91722" lon="7.49218">
        <ele>858.00001884806</ele>
        <time>2012-02-21T15:05:01Z</time>
      </trkpt>
      <trkpt lat="43.91725" lon="7.49214">
        <ele>859.00007533502</ele>
        <time>2012-02-21T15:05:06Z</time>
      </trkpt>
      <trkpt lat="43.91726" lon="7.49215">
        <ele>856.00021170144</ele>
        <time>2012-02-21T15:05:11Z</time>
      </trkpt>
      <trkpt lat="43.91725" lon="7.49215">
        <ele>858.99990925365</ele>
        <time>2012-02-21T15:05:16Z</time>
      </trkpt>
      <trkpt lat="43.91724" lon="7.49217">
        <ele>864.99998156635</ele>
        <time>2012-02-21T15:05:41Z</time>
      </trkpt>
      <trkpt lat="43.91723" lon="7.4922">
        <ele>859.99965457445</ele>
        <time>2012-02-21T15:05:46Z</time>
      </trkpt>
      <trkpt lat="43.91722" lon="7.4922">
        <ele>858.99959837041</ele>
        <time>2012-02-21T15:05:51Z</time>
      </trkpt>
      <trkpt lat="43.91722" lon="7.49219">
        <ele>857.99983743122</ele>
        <time>2012-02-21T15:05:56Z</time>
      </trkpt>
      <trkpt lat="43.9172" lon="7.49223">
        <ele>861.00014813984</ele>
        <time>2012-02-21T15:06:01Z</time>
      </trkpt>
      <trkpt lat="43.91716" lon="7.49226">
        <ele>861.99986352661</ele>
        <time>2012-02-21T15:06:06Z</time>
      </trkpt>
      <trkpt lat="43.91715" lon="7.49226">
        <ele>864.9997293255</ele>
        <time>2012-02-21T15:06:11Z</time>
      </trkpt>
      <trkpt lat="43.91715" lon="7.49226">
        <ele>861.99980270227</ele>
        <time>2012-02-21T15:06:36Z</time>
      </trkpt>
      <trkpt lat="43.91717" lon="7.49226">
        <ele>861.00011794782</ele>
        <time>2012-02-21T15:06:41Z</time>
      </trkpt>
      <trkpt lat="43.91718" lon="7.49223">
        <ele>862.00020647465</ele>
        <time>2012-02-21T15:06:46Z</time>
      </trkpt>
      <trkpt lat="43.9172" lon="7.49221">
        <ele>860.0000979614</ele>
        <time>2012-02-21T15:06:51Z</time>
      </trkpt>
      <trkpt lat="43.91723" lon="7.49218">
        <ele>861.00002141739</ele>
        <time>2012-02-21T15:06:56Z</time>
      </trkpt>
      <trkpt lat="43.91725" lon="7.49215">
        <ele>865.00022240103</ele>
        <time>2012-02-21T15:07:01Z</time>
      </trkpt>
      <trkpt lat="43.91725" lon="7.49216">
        <ele>862.99996620962</ele>
        <time>2012-02-21T15:07:06Z</time>
      </trkpt>
      <trkpt lat="43.91727" lon="7.49213">
        <ele>860.99939648624</ele>
        <time>2012-02-21T15:07:11Z</time>
      </trkpt>
      <trkpt lat="43.91731" lon="7.49209">
        <ele>861.00014609587</ele>
        <time>2012-02-21T15:07:16Z</time>
      </trkpt>
      <trkpt lat="43.91733" lon="7.49208">
        <ele>866.00064299535</ele>
        <time>2012-02-21T15:07:21Z</time>
      </trkpt>
      <trkpt lat="43.91736" lon="7.49206">
        <ele>865.00021067785</ele>
        <time>2012-02-21T15:07:26Z</time>
      </trkpt>
      <trkpt lat="43.91739" lon="7.49205">
        <ele>863.00007802371</ele>
        <time>2012-02-21T15:07:31Z</time>
      </trkpt>
      <trkpt lat="43.91745" lon="7.49203">
        <ele>864.99976328494</ele>
        <time>2012-02-21T15:07:36Z</time>
      </trkpt>
      <trkpt lat="43.91751" lon="7.49202">
        <ele>863.99987319363</ele>
        <time>2012-02-21T15:07:41Z</time>
      </trkpt>
      <trkpt lat="43.91756" lon="7.492">
        <ele>863.99996515006</ele>
        <time>2012-02-21T15:07:46Z</time>
      </trkpt>
      <trkpt lat="43.91761" lon="7.49199">
        <ele>861.99993879305</ele>
        <time>2012-02-21T15:07:51Z</time>
      </trkpt>
      <trkpt lat="43.91765" lon="7.49197">
        <ele>855.99992125106</ele>
        <time>2012-02-21T15:07:56Z</time>
      </trkpt>
      <trkpt lat="43.91769" lon="7.49197">
        <ele>858.99986412095</ele>
        <time>2012-02-21T15:08:01Z</time>
      </trkpt>
      <trkpt lat="43.91773" lon="7.49195">
        <ele>861.00013182123</ele>
        <time>2012-02-21T15:08:06Z</time>
      </trkpt>
      <trkpt lat="43.91777" lon="7.49194">
        <ele>863.99990144638</ele>
        <time>2012-02-21T15:08:11Z</time>
      </trkpt>
      <trkpt lat="43.91783" lon="7.49193">
        <ele>867.00000133798</ele>
        <time>2012-02-21T15:08:16Z</time>
      </trkpt>
      <trkpt lat="43.91787" lon="7.49193">
        <ele>863.00013378262</ele>
        <time>2012-02-21T15:08:21Z</time>
      </trkpt>
      <trkpt lat="43.9179" lon="7.49191">
        <ele>866.00017238164</ele>
        <time>2012-02-21T15:08:26Z</time>
      </trkpt>
      <trkpt lat="43.91794" lon="7.49189">
        <ele>869.99998919463</ele>
        <time>2012-02-21T15:08:31Z</time>
      </trkpt>
      <trkpt lat="43.91797" lon="7.49188">
        <ele>869.00014398606</ele>
        <time>2012-02-21T15:08:36Z</time>
      </trkpt>
      <trkpt lat="43.918" lon="7.49186">
        <ele>867.00009258672</ele>
        <time>2012-02-21T15:08:41Z</time>
      </trkpt>
      <trkpt lat="43.91804" lon="7.49185">
        <ele>870.00012490969</ele>
        <time>2012-02-21T15:08:46Z</time>
      </trkpt>
      <trkpt lat="43.91807" lon="7.49185">
        <ele>868.00024775702</ele>
        <time>2012-02-21T15:08:51Z</time>
      </trkpt>
      <trkpt lat="43.9181" lon="7.49185">
        <ele>869.00020583852</ele>
        <time>2012-02-21T15:08:56Z</time>
      </trkpt>
      <trkpt lat="43.91812" lon="7.49186">
        <ele>873.00017144287</ele>
        <time>2012-02-21T15:09:01Z</time>
      </trkpt>
      <trkpt lat="43.91817" lon="7.49186">
        <ele>874.00017471859</ele>
        <time>2012-02-21T15:09:06Z</time>
      </trkpt>
      <trkpt lat="43.91821" lon="7.49187">
        <ele>874.00005965641</ele>
        <time>2012-02-21T15:09:11Z</time>
      </trkpt>
      <trkpt lat="43.91825" lon="7.49186">
        <ele>876.00000353799</ele>
        <time>2012-02-21T15:09:16Z</time>
      </trkpt>
      <trkpt lat="43.91828" lon="7.49187">
        <ele>873.99997299864</ele>
        <time>2012-02-21T15:09:21Z</time>
      </trkpt>
      <trkpt lat="43.91831" lon="7.49187">
        <ele>874.9997630262</ele>
        <time>2012-02-21T15:09:26Z</time>
      </trkpt>
      <trkpt lat="43.91835" lon="7.49188">
        <ele>869.99986012991</ele>
        <time>2012-02-21T15:09:31Z</time>
      </trkpt>
      <trkpt lat="43.91839" lon="7.49187">
        <ele>870.00001475089</ele>
        <time>2012-02-21T15:09:36Z</time>
      </trkpt>
      <trkpt lat="43.91843" lon="7.49186">
        <ele>874.999929768</ele>
        <time>2012-02-21T15:09:41Z</time>
      </trkpt>
      <trkpt lat="43.91846" lon="7.49187">
        <ele>874.00024823575</ele>
        <time>2012-02-21T15:09:46Z</time>
      </trkpt>
      <trkpt lat="43.91849" lon="7.49187">
        <ele>873.99980252395</ele>
        <time>2012-02-21T15:09:51Z</time>
      </trkpt>
      <trkpt lat="43.91854" lon="7.49186">
        <ele>871.99991381229</ele>
        <time>2012-02-21T15:09:56Z</time>
      </trkpt>
      <trkpt lat="43.91856" lon="7.49183">
        <ele>873.99990941437</ele>
        <time>2012-02-21T15:10:01Z</time>
      </trkpt>
      <trkpt lat="43.91858" lon="7.49179">
        <ele>877.99986362269</ele>
        <time>2012-02-21T15:10:06Z</time>
      </trkpt>
      <trkpt lat="43.91856" lon="7.49175">
        <ele>876.99985911845</ele>
        <time>2012-02-21T15:10:11Z</time>
      </trkpt>
      <trkpt lat="43.91853" lon="7.49173">
        <ele>877.999926271</ele>
        <time>2012-02-21T15:10:16Z</time>
      </trkpt>
      <trkpt lat="43.9185" lon="7.49173">
        <ele>881.9998035873</ele>
        <time>2012-02-21T15:10:21Z</time>
      </trkpt>
      <trkpt lat="43.91847" lon="7.49172">
        <ele>881.99978873432</ele>
        <time>2012-02-21T15:10:26Z</time>
      </trkpt>
      <trkpt lat="43.91844" lon="7.4917">
        <ele>881.99994812009</ele>
        <time>2012-02-21T15:10:31Z</time>
      </trkpt>
      <trkpt lat="43.9184" lon="7.49168">
        <ele>884.00011719407</ele>
        <time>2012-02-21T15:10:36Z</time>
      </trkpt>
      <trkpt lat="43.91837" lon="7.49166">
        <ele>880.00006492148</ele>
        <time>2012-02-21T15:10:41Z</time>
      </trkpt>
      <trkpt lat="43.91833" lon="7.49163">
        <ele>882.00001257372</ele>
        <time>2012-02-21T15:10:46Z</time>
      </trkpt>
      <trkpt lat="43.9183" lon="7.49161">
        <ele>881.00021803643</ele>
        <time>2012-02-21T15:10:51Z</time>
      </trkpt>
      <trkpt lat="43.91827" lon="7.49157">
        <ele>882.00004973577</ele>
        <time>2012-02-21T15:10:56Z</time>
      </trkpt>
      <trkpt lat="43.91824" lon="7.49152">
        <ele>880.99980011386</ele>
        <time>2012-02-21T15:11:01Z</time>
      </trkpt>
      <trkpt lat="43.91822" lon="7.49146">
        <ele>876.99989441088</ele>
        <time>2012-02-21T15:11:06Z</time>
      </trkpt>
      <trkpt lat="43.91819" lon="7.49141">
        <ele>882.00004328804</ele>
        <time>2012-02-21T15:11:11Z</time>
      </trkpt>
      <trkpt lat="43.91817" lon="7.49137">
        <ele>884.00007328377</ele>
        <time>2012-02-21T15:11:16Z</time>
      </trkpt>
      <trkpt lat="43.91813" lon="7.49136">
        <ele>887.00013682724</ele>
        <time>2012-02-21T15:11:21Z</time>
      </trkpt>
      <trkpt lat="43.91809" lon="7.49135">
        <ele>887.99996460987</ele>
        <time>2012-02-21T15:11:26Z</time>
      </trkpt>
      <trkpt lat="43.91806" lon="7.49135">
        <ele>888.99987725096</ele>
        <time>2012-02-21T15:11:31Z</time>
      </trkpt>
      <trkpt lat="43.91801" lon="7.49135">
        <ele>887.999947122</ele>
        <time>2012-02-21T15:11:36Z</time>
      </trkpt>
      <trkpt lat="43.91797" lon="7.49134">
        <ele>883.99997264795</ele>
        <time>2012-02-21T15:11:41Z</time>
      </trkpt>
      <trkpt lat="43.91794" lon="7.49132">
        <ele>886.99985847384</ele>
        <time>2012-02-21T15:11:46Z</time>
      </trkpt>
      <trkpt lat="43.9179" lon="7.49131">
        <ele>886.99994549579</ele>
        <time>2012-02-21T15:11:51Z</time>
      </trkpt>
      <trkpt lat="43.91786" lon="7.4913">
        <ele>886.99993337853</ele>
        <time>2012-02-21T15:11:56Z</time>
      </trkpt>
      <trkpt lat="43.91781" lon="7.49128">
        <ele>889.00000047715</ele>
        <time>2012-02-21T15:12:01Z</time>
      </trkpt>
      <trkpt lat="43.91778" lon="7.49126">
        <ele>893.99992018865</ele>
        <time>2012-02-21T15:12:06Z</time>
      </trkpt>
      <trkpt lat="43.91774" lon="7.49126">
        <ele>891.00019533443</ele>
        <time>2012-02-21T15:12:11Z</time>
      </trkpt>
      <trkpt lat="43.91769" lon="7.49125">
        <ele>889.99987157525</ele>
        <time>2012-02-21T15:12:16Z</time>
      </trkpt>
      <trkpt lat="43.91766" lon="7.49124">
        <ele>893.99977326346</ele>
        <time>2012-02-21T15:12:21Z</time>
      </trkpt>
      <trkpt lat="43.91763" lon="7.49123">
        <ele>891.99986145832</ele>
        <time>2012-02-21T15:12:26Z</time>
      </trkpt>
      <trkpt lat="43.9176" lon="7.49123">
        <ele>890.99986615258</ele>
        <time>2012-02-21T15:12:31Z</time>
      </trkpt>
      <trkpt lat="43.91756" lon="7.49122">
        <ele>887.00007653128</ele>
        <time>2012-02-21T15:12:36Z</time>
      </trkpt>
      <trkpt lat="43.91752" lon="7.4912">
        <ele>892.00010477062</ele>
        <time>2012-02-21T15:12:41Z</time>
      </trkpt>
      <trkpt lat="43.91748" lon="7.49117">
        <ele>888.99997769374</ele>
        <time>2012-02-21T15:12:46Z</time>
      </trkpt>
      <trkpt lat="43.91745" lon="7.49113">
        <ele>891.00010136091</ele>
        <time>2012-02-21T15:12:51Z</time>
      </trkpt>
      <trkpt lat="43.91743" lon="7.49109">
        <ele>895.0001696704</ele>
        <time>2012-02-21T15:12:56Z</time>
      </trkpt>
      <trkpt lat="43.91741" lon="7.49104">
        <ele>887.99968817837</ele>
        <time>2012-02-21T15:13:01Z</time>
      </trkpt>
      <trkpt lat="43.91739" lon="7.49097">
        <ele>886.9996876083</ele>
        <time>2012-02-21T15:13:06Z</time>
      </trkpt>
      <trkpt lat="43.91737" lon="7.4909">
        <ele>891.99986021599</ele>
        <time>2012-02-21T15:13:11Z</time>
      </trkpt>
      <trkpt lat="43.91735" lon="7.49083">
        <ele>888.9998138482</ele>
        <time>2012-02-21T15:13:16Z</time>
      </trkpt>
      <trkpt lat="43.91734" lon="7.49078">
        <ele>886.99991643269</ele>
        <time>2012-02-21T15:13:21Z</time>
      </trkpt>
      <trkpt lat="43.91733" lon="7.49072">
        <ele>893.99987232935</ele>
        <time>2012-02-21T15:13:26Z</time>
      </trkpt>
      <trkpt lat="43.91733" lon="7.49066">
        <ele>893.99990307437</ele>
        <time>2012-02-21T15:13:31Z</time>
      </trkpt>
      <trkpt lat="43.91732" lon="7.49061">
        <ele>896.0000556463</ele>
        <time>2012-02-21T15:13:36Z</time>
      </trkpt>
      <trkpt lat="43.9173" lon="7.49056">
        <ele>895.0000242435</ele>
        <time>2012-02-21T15:13:41Z</time>
      </trkpt>
      <trkpt lat="43.9173" lon="7.49052">
        <ele>896.99987977782</ele>
        <time>2012-02-21T15:13:46Z</time>
      </trkpt>
      <trkpt lat="43.9173" lon="7.49047">
        <ele>897.99994842269</ele>
        <time>2012-02-21T15:13:51Z</time>
      </trkpt>
      <trkpt lat="43.9173" lon="7.49042">
        <ele>896.00000010001</ele>
        <time>2012-02-21T15:13:56Z</time>
      </trkpt>
      <trkpt lat="43.91728" lon="7.49035">
        <ele>899.99992557527</ele>
        <time>2012-02-21T15:14:01Z</time>
      </trkpt>
      <trkpt lat="43.91728" lon="7.49029">
        <ele>899.99989633484</ele>
        <time>2012-02-21T15:14:06Z</time>
      </trkpt>
      <trkpt lat="43.9173" lon="7.49022">
        <ele>900.00006156659</ele>
        <time>2012-02-21T15:14:11Z</time>
      </trkpt>
      <trkpt lat="43.91732" lon="7.49019">
        <ele>896.00043314747</ele>
        <time>2012-02-21T15:14:16Z</time>
      </trkpt>
      <trkpt lat="43.91734" lon="7.49015">
        <ele>894.00011226247</ele>
        <time>2012-02-21T15:14:21Z</time>
      </trkpt>
      <trkpt lat="43.91738" lon="7.49011">
        <ele>897.99988228965</ele>
        <time>2012-02-21T15:14:26Z</time>
      </trkpt>
      <trkpt lat="43.91742" lon="7.49006">
        <ele>900.99937647006</ele>
        <time>2012-02-21T15:14:31Z</time>
      </trkpt>
      <trkpt lat="43.91748" lon="7.49001">
        <ele>894.00004048298</ele>
        <time>2012-02-21T15:14:36Z</time>
      </trkpt>
      <trkpt lat="43.9175" lon="7.48998">
        <ele>897.00015528828</ele>
        <time>2012-02-21T15:14:41Z</time>
      </trkpt>
      <trkpt lat="43.91755" lon="7.48996">
        <ele>896.99999145997</ele>
        <time>2012-02-21T15:14:46Z</time>
      </trkpt>
      <trkpt lat="43.91759" lon="7.48996">
        <ele>900.0001745323</ele>
        <time>2012-02-21T15:14:51Z</time>
      </trkpt>
      <trkpt lat="43.91763" lon="7.48996">
        <ele>902.0002602408</ele>
        <time>2012-02-21T15:14:56Z</time>
      </trkpt>
      <trkpt lat="43.91768" lon="7.48998">
        <ele>898.0000029805</ele>
        <time>2012-02-21T15:15:01Z</time>
      </trkpt>
      <trkpt lat="43.91773" lon="7.48998">
        <ele>898.00009011818</ele>
        <time>2012-02-21T15:15:06Z</time>
      </trkpt>
      <trkpt lat="43.91776" lon="7.48998">
        <ele>897.00007079855</ele>
        <time>2012-02-21T15:15:11Z</time>
      </trkpt>
      <trkpt lat="43.91777" lon="7.49">
        <ele>898.99944985525</ele>
        <time>2012-02-21T15:15:16Z</time>
      </trkpt>
      <trkpt lat="43.91781" lon="7.48999">
        <ele>901.99985186594</ele>
        <time>2012-02-21T15:15:21Z</time>
      </trkpt>
      <trkpt lat="43.91786" lon="7.48998">
        <ele>902.99986915638</ele>
        <time>2012-02-21T15:15:26Z</time>
      </trkpt>
      <trkpt lat="43.91791" lon="7.48998">
        <ele>899.9998074384</ele>
        <time>2012-02-21T15:15:31Z</time>
      </trkpt>
      <trkpt lat="43.91794" lon="7.48997">
        <ele>903.0004275851</ele>
        <time>2012-02-21T15:15:36Z</time>
      </trkpt>
      <trkpt lat="43.91795" lon="7.48999">
        <ele>902.00022696529</ele>
        <time>2012-02-21T15:15:41Z</time>
      </trkpt>
      <trkpt lat="43.91798" lon="7.49">
        <ele>900.00003101717</ele>
        <time>2012-02-21T15:15:46Z</time>
      </trkpt>
      <trkpt lat="43.91804" lon="7.49">
        <ele>903.99988376602</ele>
        <time>2012-02-21T15:15:51Z</time>
      </trkpt>
      <trkpt lat="43.91808" lon="7.48999">
        <ele>903.99982495854</ele>
        <time>2012-02-21T15:15:56Z</time>
      </trkpt>
      <trkpt lat="43.91813" lon="7.48999">
        <ele>900.99987620323</ele>
        <time>2012-02-21T15:16:01Z</time>
      </trkpt>
      <trkpt lat="43.91816" lon="7.49">
        <ele>901.00025994977</ele>
        <time>2012-02-21T15:16:06Z</time>
      </trkpt>
      <trkpt lat="43.91818" lon="7.49002">
        <ele>905.00025582865</ele>
        <time>2012-02-21T15:16:11Z</time>
      </trkpt>
      <trkpt lat="43.9182" lon="7.49004">
        <ele>907.99976440061</ele>
        <time>2012-02-21T15:16:16Z</time>
      </trkpt>
      <trkpt lat="43.91824" lon="7.49004">
        <ele>907.99942407587</ele>
        <time>2012-02-21T15:16:21Z</time>
      </trkpt>
      <trkpt lat="43.9183" lon="7.49002">
        <ele>905.99967434997</ele>
        <time>2012-02-21T15:16:26Z</time>
      </trkpt>
      <trkpt lat="43.91836" lon="7.49">
        <ele>905.99985062142</ele>
        <time>2012-02-21T15:16:31Z</time>
      </trkpt>
      <trkpt lat="43.91838" lon="7.48997">
        <ele>908.0000223729</ele>
        <time>2012-02-21T15:16:36Z</time>
      </trkpt>
      <trkpt lat="43.91841" lon="7.48994">
        <ele>910.0000892813</ele>
        <time>2012-02-21T15:16:41Z</time>
      </trkpt>
      <trkpt lat="43.91844" lon="7.48992">
        <ele>911.00025182435</ele>
        <time>2012-02-21T15:16:46Z</time>
      </trkpt>
      <trkpt lat="43.91847" lon="7.48993">
        <ele>914.00016339</ele>
        <time>2012-02-21T15:16:51Z</time>
      </trkpt>
      <trkpt lat="43.91851" lon="7.48991">
        <ele>918.00003643502</ele>
        <time>2012-02-21T15:16:56Z</time>
      </trkpt>
      <trkpt lat="43.91854" lon="7.48989">
        <ele>912.0002183629</ele>
        <time>2012-02-21T15:17:01Z</time>
      </trkpt>
      <trkpt lat="43.91858" lon="7.48989">
        <ele>907.00011995053</ele>
        <time>2012-02-21T15:17:06Z</time>
      </trkpt>
      <trkpt lat="43.9186" lon="7.48988">
        <ele>903.00050266195</ele>
        <time>2012-02-21T15:17:11Z</time>
      </trkpt>
      <trkpt lat="43.91861" lon="7.48988">
        <ele>903.00057728353</ele>
        <time>2012-02-21T15:17:16Z</time>
      </trkpt>
      <trkpt lat="43.91861" lon="7.48988">
        <ele>897.0006103684</ele>
        <time>2012-02-21T15:17:21Z</time>
      </trkpt>
      <trkpt lat="43.91861" lon="7.48988">
        <ele>901.99978284348</ele>
        <time>2012-02-21T15:17:26Z</time>
      </trkpt>
      <trkpt lat="43.91863" lon="7.48988">
        <ele>900.99972054656</ele>
        <time>2012-02-21T15:17:31Z</time>
      </trkpt>
      <trkpt lat="43.91865" lon="7.48988">
        <ele>906.99984413405</ele>
        <time>2012-02-21T15:17:36Z</time>
      </trkpt>
      <trkpt lat="43.91869" lon="7.48987">
        <ele>907.99985684189</ele>
        <time>2012-02-21T15:17:41Z</time>
      </trkpt>
      <trkpt lat="43.91874" lon="7.48985">
        <ele>905.99996156196</ele>
        <time>2012-02-21T15:17:46Z</time>
      </trkpt>
      <trkpt lat="43.91878" lon="7.48982">
        <ele>909.99979993352</ele>
        <time>2012-02-21T15:17:51Z</time>
      </trkpt>
      <trkpt lat="43.91881" lon="7.48979">
        <ele>907.0001485188</ele>
        <time>2012-02-21T15:17:56Z</time>
      </trkpt>
      <trkpt lat="43.91884" lon="7.48977">
        <ele>916.00034017239</ele>
        <time>2012-02-21T15:18:01Z</time>
      </trkpt>
      <trkpt lat="43.91887" lon="7.48975">
        <ele>918.00010878319</ele>
        <time>2012-02-21T15:18:06Z</time>
      </trkpt>
      <trkpt lat="43.9189" lon="7.48972">
        <ele>914.99991210917</ele>
        <time>2012-02-21T15:18:11Z</time>
      </trkpt>
      <trkpt lat="43.91893" lon="7.48968">
        <ele>912.9995949706</ele>
        <time>2012-02-21T15:18:16Z</time>
      </trkpt>
      <trkpt lat="43.91897" lon="7.48963">
        <ele>912.99990026895</ele>
        <time>2012-02-21T15:18:21Z</time>
      </trkpt>
      <trkpt lat="43.91899" lon="7.48959">
        <ele>911.00027918958</ele>
        <time>2012-02-21T15:18:26Z</time>
      </trkpt>
      <trkpt lat="43.919" lon="7.48956">
        <ele>914.00025595797</ele>
        <time>2012-02-21T15:18:31Z</time>
      </trkpt>
      <trkpt lat="43.91902" lon="7.48953">
        <ele>910.00002711325</ele>
        <time>2012-02-21T15:18:36Z</time>
      </trkpt>
      <trkpt lat="43.91905" lon="7.4895">
        <ele>910.99997722123</ele>
        <time>2012-02-21T15:18:41Z</time>
      </trkpt>
      <trkpt lat="43.91908" lon="7.48947">
        <ele>913.00009925622</ele>
        <time>2012-02-21T15:18:46Z</time>
      </trkpt>
      <trkpt lat="43.9191" lon="7.48945">
        <ele>914.9997355078</ele>
        <time>2012-02-21T15:18:51Z</time>
      </trkpt>
      <trkpt lat="43.91913" lon="7.4894">
        <ele>919.99986079337</ele>
        <time>2012-02-21T15:18:56Z</time>
      </trkpt>
      <trkpt lat="43.91916" lon="7.48937">
        <ele>917.00013502301</ele>
        <time>2012-02-21T15:19:01Z</time>
      </trkpt>
      <trkpt lat="43.91921" lon="7.48935">
        <ele>919.99994878473</ele>
        <time>2012-02-21T15:19:06Z</time>
      </trkpt>
      <trkpt lat="43.91924" lon="7.48934">
        <ele>921.00041092709</ele>
        <time>2012-02-21T15:19:11Z</time>
      </trkpt>
      <trkpt lat="43.91928" lon="7.48934">
        <ele>914.00010964233</ele>
        <time>2012-02-21T15:19:16Z</time>
      </trkpt>
      <trkpt lat="43.91935" lon="7.48932">
        <ele>918.99968055714</ele>
        <time>2012-02-21T15:19:21Z</time>
      </trkpt>
      <trkpt lat="43.91939" lon="7.48929">
        <ele>923.99995704434</ele>
        <time>2012-02-21T15:19:26Z</time>
      </trkpt>
      <trkpt lat="43.9194" lon="7.48926">
        <ele>923.00012106473</ele>
        <time>2012-02-21T15:19:31Z</time>
      </trkpt>
      <trkpt lat="43.91942" lon="7.48925">
        <ele>915.9998157028</ele>
        <time>2012-02-21T15:19:36Z</time>
      </trkpt>
      <trkpt lat="43.91948" lon="7.48923">
        <ele>913.99998606941</ele>
        <time>2012-02-21T15:19:41Z</time>
      </trkpt>
      <trkpt lat="43.91953" lon="7.4892">
        <ele>916.99976501964</ele>
        <time>2012-02-21T15:19:46Z</time>
      </trkpt>
      <trkpt lat="43.91957" lon="7.48917">
        <ele>918.99994319317</ele>
        <time>2012-02-21T15:19:51Z</time>
      </trkpt>
      <trkpt lat="43.91962" lon="7.48914">
        <ele>925.00010904064</ele>
        <time>2012-02-21T15:19:56Z</time>
      </trkpt>
      <trkpt lat="43.91967" lon="7.48909">
        <ele>918.99977019712</ele>
        <time>2012-02-21T15:20:01Z</time>
      </trkpt>
      <trkpt lat="43.9197" lon="7.48905">
        <ele>916.00017586484</ele>
        <time>2012-02-21T15:20:06Z</time>
      </trkpt>
      <trkpt lat="43.91973" lon="7.48902">
        <ele>914.00016615386</ele>
        <time>2012-02-21T15:20:11Z</time>
      </trkpt>
      <trkpt lat="43.91977" lon="7.48898">
        <ele>917.00013987769</ele>
        <time>2012-02-21T15:20:16Z</time>
      </trkpt>
      <trkpt lat="43.91979" lon="7.48895">
        <ele>912.00050235495</ele>
        <time>2012-02-21T15:20:21Z</time>
      </trkpt>
      <trkpt lat="43.91982" lon="7.48889">
        <ele>912.99994076095</ele>
        <time>2012-02-21T15:20:26Z</time>
      </trkpt>
      <trkpt lat="43.91985" lon="7.48884">
        <ele>919.99988932078</ele>
        <time>2012-02-21T15:20:31Z</time>
      </trkpt>
      <trkpt lat="43.91986" lon="7.48877">
        <ele>923.00008789163</ele>
        <time>2012-02-21T15:20:36Z</time>
      </trkpt>
      <trkpt lat="43.91986" lon="7.48871">
        <ele>923.99989029569</ele>
        <time>2012-02-21T15:20:41Z</time>
      </trkpt>
      <trkpt lat="43.91985" lon="7.48865">
        <ele>921.00012270526</ele>
        <time>2012-02-21T15:20:46Z</time>
      </trkpt>
      <trkpt lat="43.91984" lon="7.48858">
        <ele>920.0000453057</ele>
        <time>2012-02-21T15:20:51Z</time>
      </trkpt>
      <trkpt lat="43.91982" lon="7.48851">
        <ele>924.00002548418</ele>
        <time>2012-02-21T15:20:56Z</time>
      </trkpt>
      <trkpt lat="43.91981" lon="7.48844">
        <ele>918.0000711932</ele>
        <time>2012-02-21T15:21:01Z</time>
      </trkpt>
      <trkpt lat="43.9198" lon="7.48837">
        <ele>923.00005732908</ele>
        <time>2012-02-21T15:21:06Z</time>
      </trkpt>
      <trkpt lat="43.91979" lon="7.4883">
        <ele>919.99991289763</ele>
        <time>2012-02-21T15:21:11Z</time>
      </trkpt>
      <trkpt lat="43.91979" lon="7.48823">
        <ele>921.00005679339</ele>
        <time>2012-02-21T15:21:16Z</time>
      </trkpt>
      <trkpt lat="43.91977" lon="7.48816">
        <ele>918.99986825364</ele>
        <time>2012-02-21T15:21:21Z</time>
      </trkpt>
      <trkpt lat="43.91976" lon="7.4881">
        <ele>918.99978921993</ele>
        <time>2012-02-21T15:21:26Z</time>
      </trkpt>
      <trkpt lat="43.91975" lon="7.48804">
        <ele>920.99999089867</ele>
        <time>2012-02-21T15:21:31Z</time>
      </trkpt>
      <trkpt lat="43.91973" lon="7.48799">
        <ele>920.00024378096</ele>
        <time>2012-02-21T15:21:36Z</time>
      </trkpt>
      <trkpt lat="43.9197" lon="7.48794">
        <ele>925.00025330244</ele>
        <time>2012-02-21T15:21:41Z</time>
      </trkpt>
      <trkpt lat="43.91968" lon="7.4879">
        <ele>922.00004183418</ele>
        <time>2012-02-21T15:21:46Z</time>
      </trkpt>
      <trkpt lat="43.91968" lon="7.48784">
        <ele>920.99997887407</ele>
        <time>2012-02-21T15:21:51Z</time>
      </trkpt>
      <trkpt lat="43.91967" lon="7.48778">
        <ele>922.00016477744</ele>
        <time>2012-02-21T15:21:56Z</time>
      </trkpt>
      <trkpt lat="43.91968" lon="7.48772">
        <ele>920.00008407194</ele>
        <time>2012-02-21T15:22:01Z</time>
      </trkpt>
      <trkpt lat="43.9197" lon="7.48766">
        <ele>919.00008860767</ele>
        <time>2012-02-21T15:22:06Z</time>
      </trkpt>
      <trkpt lat="43.91973" lon="7.4876">
        <ele>927.99997060906</ele>
        <time>2012-02-21T15:22:11Z</time>
      </trkpt>
      <trkpt lat="43.91977" lon="7.48755">
        <ele>919.99990504447</ele>
        <time>2012-02-21T15:22:16Z</time>
      </trkpt>
      <trkpt lat="43.9198" lon="7.4875">
        <ele>924.00008365187</ele>
        <time>2012-02-21T15:22:21Z</time>
      </trkpt>
      <trkpt lat="43.91984" lon="7.48746">
        <ele>921.00010937157</ele>
        <time>2012-02-21T15:22:26Z</time>
      </trkpt>
      <trkpt lat="43.91988" lon="7.48744">
        <ele>925.00017474149</ele>
        <time>2012-02-21T15:22:31Z</time>
      </trkpt>
      <trkpt lat="43.91994" lon="7.48742">
        <ele>926.99982738675</ele>
        <time>2012-02-21T15:22:36Z</time>
      </trkpt>
      <trkpt lat="43.91998" lon="7.48742">
        <ele>928.0001370822</ele>
        <time>2012-02-21T15:22:41Z</time>
      </trkpt>
      <trkpt lat="43.92003" lon="7.48742">
        <ele>925.99989502286</ele>
        <time>2012-02-21T15:22:46Z</time>
      </trkpt>
      <trkpt lat="43.92009" lon="7.48745">
        <ele>927.99982693292</ele>
        <time>2012-02-21T15:22:51Z</time>
      </trkpt>
      <trkpt lat="43.92015" lon="7.48749">
        <ele>929.0000491738</ele>
        <time>2012-02-21T15:22:56Z</time>
      </trkpt>
      <trkpt lat="43.92019" lon="7.48751">
        <ele>927.00003045584</ele>
        <time>2012-02-21T15:23:01Z</time>
      </trkpt>
      <trkpt lat="43.92023" lon="7.48752">
        <ele>925.00041727937</ele>
        <time>2012-02-21T15:23:06Z</time>
      </trkpt>
      <trkpt lat="43.92025" lon="7.48754">
        <ele>932.00016890237</ele>
        <time>2012-02-21T15:23:11Z</time>
      </trkpt>
      <trkpt lat="43.92029" lon="7.48756">
        <ele>929.00002481096</ele>
        <time>2012-02-21T15:23:16Z</time>
      </trkpt>
      <trkpt lat="43.92033" lon="7.48759">
        <ele>929.00015182337</ele>
        <time>2012-02-21T15:23:21Z</time>
      </trkpt>
      <trkpt lat="43.92036" lon="7.48762">
        <ele>939.00004956069</ele>
        <time>2012-02-21T15:23:26Z</time>
      </trkpt>
      <trkpt lat="43.9204" lon="7.48765">
        <ele>941.99989769426</ele>
        <time>2012-02-21T15:23:31Z</time>
      </trkpt>
      <trkpt lat="43.92045" lon="7.48765">
        <ele>945.99980243375</ele>
        <time>2012-02-21T15:23:36Z</time>
      </trkpt>
      <trkpt lat="43.92051" lon="7.48767">
        <ele>942.00001359554</ele>
        <time>2012-02-21T15:23:41Z</time>
      </trkpt>
      <trkpt lat="43.92055" lon="7.48772">
        <ele>940.00023919544</ele>
        <time>2012-02-21T15:23:46Z</time>
      </trkpt>
      <trkpt lat="43.92058" lon="7.48775">
        <ele>942.00035164854</ele>
        <time>2012-02-21T15:23:51Z</time>
      </trkpt>
      <trkpt lat="43.92062" lon="7.48779">
        <ele>938.00016954303</ele>
        <time>2012-02-21T15:23:56Z</time>
      </trkpt>
      <trkpt lat="43.92067" lon="7.48782">
        <ele>939.00006067884</ele>
        <time>2012-02-21T15:24:01Z</time>
      </trkpt>
      <trkpt lat="43.92071" lon="7.48785">
        <ele>939.00022931217</ele>
        <time>2012-02-21T15:24:06Z</time>
      </trkpt>
      <trkpt lat="43.92076" lon="7.48789">
        <ele>937.00013583941</ele>
        <time>2012-02-21T15:24:11Z</time>
      </trkpt>
      <trkpt lat="43.9208" lon="7.48791">
        <ele>942.99995748949</ele>
        <time>2012-02-21T15:24:16Z</time>
      </trkpt>
      <trkpt lat="43.92085" lon="7.48792">
        <ele>942.99971633797</ele>
        <time>2012-02-21T15:24:21Z</time>
      </trkpt>
      <trkpt lat="43.9209" lon="7.48795">
        <ele>943.00019728589</ele>
        <time>2012-02-21T15:24:26Z</time>
      </trkpt>
      <trkpt lat="43.92093" lon="7.48797">
        <ele>945.00053720933</ele>
        <time>2012-02-21T15:24:31Z</time>
      </trkpt>
      <trkpt lat="43.92097" lon="7.48799">
        <ele>944.00028778835</ele>
        <time>2012-02-21T15:24:36Z</time>
      </trkpt>
      <trkpt lat="43.921" lon="7.48803">
        <ele>941.00039105184</ele>
        <time>2012-02-21T15:24:41Z</time>
      </trkpt>
      <trkpt lat="43.92103" lon="7.48807">
        <ele>943.00044717686</ele>
        <time>2012-02-21T15:24:46Z</time>
      </trkpt>
      <trkpt lat="43.92105" lon="7.4881">
        <ele>942.00028475861</ele>
        <time>2012-02-21T15:24:51Z</time>
      </trkpt>
      <trkpt lat="43.92109" lon="7.48813">
        <ele>943.99996406103</ele>
        <time>2012-02-21T15:24:56Z</time>
      </trkpt>
      <trkpt lat="43.92113" lon="7.48814">
        <ele>939.00003440068</ele>
        <time>2012-02-21T15:25:01Z</time>
      </trkpt>
      <trkpt lat="43.92118" lon="7.48816">
        <ele>943.0001419404</ele>
        <time>2012-02-21T15:25:06Z</time>
      </trkpt>
      <trkpt lat="43.92122" lon="7.48817">
        <ele>947.00003668208</ele>
        <time>2012-02-21T15:25:11Z</time>
      </trkpt>
      <trkpt lat="43.92124" lon="7.48816">
        <ele>950.0002407836</ele>
        <time>2012-02-21T15:25:16Z</time>
      </trkpt>
      <trkpt lat="43.92128" lon="7.48818">
        <ele>940.99983900812</ele>
        <time>2012-02-21T15:25:21Z</time>
      </trkpt>
      <trkpt lat="43.92133" lon="7.48819">
        <ele>942.00013271954</ele>
        <time>2012-02-21T15:25:26Z</time>
      </trkpt>
      <trkpt lat="43.92136" lon="7.48821">
        <ele>942.00102048808</ele>
        <time>2012-02-21T15:25:31Z</time>
      </trkpt>
      <trkpt lat="43.9214" lon="7.48824">
        <ele>948.00026984286</ele>
        <time>2012-02-21T15:25:36Z</time>
      </trkpt>
      <trkpt lat="43.92145" lon="7.48827">
        <ele>946.99997114015</ele>
        <time>2012-02-21T15:25:41Z</time>
      </trkpt>
      <trkpt lat="43.92149" lon="7.48829">
        <ele>951.00027594225</ele>
        <time>2012-02-21T15:25:46Z</time>
      </trkpt>
      <trkpt lat="43.92152" lon="7.48829">
        <ele>951.00040942917</ele>
        <time>2012-02-21T15:25:51Z</time>
      </trkpt>
      <trkpt lat="43.92156" lon="7.48832">
        <ele>944.00007621435</ele>
        <time>2012-02-21T15:25:56Z</time>
      </trkpt>
      <trkpt lat="43.9216" lon="7.48833">
        <ele>944.00004028843</ele>
        <time>2012-02-21T15:26:01Z</time>
      </trkpt>
      <trkpt lat="43.92163" lon="7.48835">
        <ele>946.00012676708</ele>
        <time>2012-02-21T15:26:06Z</time>
      </trkpt>
      <trkpt lat="43.92168" lon="7.48837">
        <ele>942.00000477091</ele>
        <time>2012-02-21T15:26:11Z</time>
      </trkpt>
      <trkpt lat="43.92172" lon="7.48842">
        <ele>945.00024990203</ele>
        <time>2012-02-21T15:26:16Z</time>
      </trkpt>
      <trkpt lat="43.92175" lon="7.48845">
        <ele>951.00023024742</ele>
        <time>2012-02-21T15:26:21Z</time>
      </trkpt>
      <trkpt lat="43.92178" lon="7.48848">
        <ele>947.00017856328</ele>
        <time>2012-02-21T15:26:26Z</time>
      </trkpt>
      <trkpt lat="43.92181" lon="7.48853">
        <ele>945.99992634182</ele>
        <time>2012-02-21T15:26:31Z</time>
      </trkpt>
      <trkpt lat="43.92186" lon="7.48854">
        <ele>941.00028699137</ele>
        <time>2012-02-21T15:26:36Z</time>
      </trkpt>
      <trkpt lat="43.92189" lon="7.48855">
        <ele>942.00015183619</ele>
        <time>2012-02-21T15:26:41Z</time>
      </trkpt>
      <trkpt lat="43.92192" lon="7.48858">
        <ele>942.99990861446</ele>
        <time>2012-02-21T15:26:46Z</time>
      </trkpt>
      <trkpt lat="43.92195" lon="7.48859">
        <ele>937.00006741094</ele>
        <time>2012-02-21T15:26:51Z</time>
      </trkpt>
      <trkpt lat="43.92199" lon="7.4886">
        <ele>939.00021057996</ele>
        <time>2012-02-21T15:26:56Z</time>
      </trkpt>
      <trkpt lat="43.92203" lon="7.48862">
        <ele>935.00025500329</ele>
        <time>2012-02-21T15:27:01Z</time>
      </trkpt>
      <trkpt lat="43.92207" lon="7.48865">
        <ele>931.0003221509</ele>
        <time>2012-02-21T15:27:06Z</time>
      </trkpt>
      <trkpt lat="43.9221" lon="7.48869">
        <ele>931.00017704829</ele>
        <time>2012-02-21T15:27:11Z</time>
      </trkpt>
      <trkpt lat="43.92213" lon="7.48872">
        <ele>935.00010831981</ele>
        <time>2012-02-21T15:27:16Z</time>
      </trkpt>
      <trkpt lat="43.92217" lon="7.48875">
        <ele>935.99978921066</ele>
        <time>2012-02-21T15:27:21Z</time>
      </trkpt>
      <trkpt lat="43.92223" lon="7.48879">
        <ele>937.99974862029</ele>
        <time>2012-02-21T15:27:26Z</time>
      </trkpt>
      <trkpt lat="43.92227" lon="7.48882">
        <ele>940.99980790629</ele>
        <time>2012-02-21T15:27:31Z</time>
      </trkpt>
      <trkpt lat="43.92233" lon="7.48882">
        <ele>943.99951326613</ele>
        <time>2012-02-21T15:27:36Z</time>
      </trkpt>
      <trkpt lat="43.92238" lon="7.48882">
        <ele>937.99998722893</ele>
        <time>2012-02-21T15:27:41Z</time>
      </trkpt>
      <trkpt lat="43.9224" lon="7.48882">
        <ele>940.00019897099</ele>
        <time>2012-02-21T15:27:46Z</time>
      </trkpt>
      <trkpt lat="43.92244" lon="7.48884">
        <ele>940.00002953284</ele>
        <time>2012-02-21T15:27:51Z</time>
      </trkpt>
      <trkpt lat="43.92249" lon="7.48885">
        <ele>941.0001477663</ele>
        <time>2012-02-21T15:27:56Z</time>
      </trkpt>
      <trkpt lat="43.92254" lon="7.48886">
        <ele>937.00001943664</ele>
        <time>2012-02-21T15:28:01Z</time>
      </trkpt>
      <trkpt lat="43.92258" lon="7.48886">
        <ele>937.00008094852</ele>
        <time>2012-02-21T15:28:06Z</time>
      </trkpt>
      <trkpt lat="43.92263" lon="7.48887">
        <ele>933.99999636543</ele>
        <time>2012-02-21T15:28:11Z</time>
      </trkpt>
      <trkpt lat="43.92267" lon="7.48888">
        <ele>939.0000318144</ele>
        <time>2012-02-21T15:28:16Z</time>
      </trkpt>
      <trkpt lat="43.92273" lon="7.48888">
        <ele>939.99996969785</ele>
        <time>2012-02-21T15:28:21Z</time>
      </trkpt>
      <trkpt lat="43.92277" lon="7.48888">
        <ele>939.99982012045</ele>
        <time>2012-02-21T15:28:26Z</time>
      </trkpt>
      <trkpt lat="43.92281" lon="7.48887">
        <ele>948.00008334377</ele>
        <time>2012-02-21T15:28:31Z</time>
      </trkpt>
      <trkpt lat="43.92285" lon="7.48887">
        <ele>945.99988038704</ele>
        <time>2012-02-21T15:28:36Z</time>
      </trkpt>
      <trkpt lat="43.9229" lon="7.48887">
        <ele>949.9998246838</ele>
        <time>2012-02-21T15:28:41Z</time>
      </trkpt>
      <trkpt lat="43.92295" lon="7.48884">
        <ele>953.00006472248</ele>
        <time>2012-02-21T15:28:46Z</time>
      </trkpt>
      <trkpt lat="43.923" lon="7.48884">
        <ele>948.0000163882</ele>
        <time>2012-02-21T15:28:51Z</time>
      </trkpt>
      <trkpt lat="43.92304" lon="7.48884">
        <ele>939.00030839353</ele>
        <time>2012-02-21T15:28:56Z</time>
      </trkpt>
      <trkpt lat="43.92309" lon="7.48884">
        <ele>938.00008044519</ele>
        <time>2012-02-21T15:29:01Z</time>
      </trkpt>
      <trkpt lat="43.92315" lon="7.48884">
        <ele>943.0000072345</ele>
        <time>2012-02-21T15:29:06Z</time>
      </trkpt>
      <trkpt lat="43.9232" lon="7.48883">
        <ele>947.99986607463</ele>
        <time>2012-02-21T15:29:11Z</time>
      </trkpt>
      <trkpt lat="43.92325" lon="7.48882">
        <ele>946.00028529439</ele>
        <time>2012-02-21T15:29:16Z</time>
      </trkpt>
      <trkpt lat="43.92329" lon="7.48881">
        <ele>939.00013683085</ele>
        <time>2012-02-21T15:29:21Z</time>
      </trkpt>
      <trkpt lat="43.92334" lon="7.48878">
        <ele>945.99999722601</ele>
        <time>2012-02-21T15:29:26Z</time>
      </trkpt>
      <trkpt lat="43.92338" lon="7.48876">
        <ele>943.99999574076</ele>
        <time>2012-02-21T15:29:31Z</time>
      </trkpt>
      <trkpt lat="43.92342" lon="7.48872">
        <ele>944.9998802665</ele>
        <time>2012-02-21T15:29:36Z</time>
      </trkpt>
      <trkpt lat="43.92347" lon="7.4887">
        <ele>947.00006616301</ele>
        <time>2012-02-21T15:29:41Z</time>
      </trkpt>
      <trkpt lat="43.92352" lon="7.48868">
        <ele>949.99989033643</ele>
        <time>2012-02-21T15:29:46Z</time>
      </trkpt>
      <trkpt lat="43.92357" lon="7.48864">
        <ele>946.00013616628</ele>
        <time>2012-02-21T15:29:51Z</time>
      </trkpt>
      <trkpt lat="43.92361" lon="7.48863">
        <ele>943.00042712684</ele>
        <time>2012-02-21T15:29:56Z</time>
      </trkpt>
      <trkpt lat="43.92365" lon="7.48861">
        <ele>947.00039917588</ele>
        <time>2012-02-21T15:30:01Z</time>
      </trkpt>
      <trkpt lat="43.92369" lon="7.48858">
        <ele>947.00051873606</ele>
        <time>2012-02-21T15:30:06Z</time>
      </trkpt>
      <trkpt lat="43.92373" lon="7.48856">
        <ele>941.00072415436</ele>
        <time>2012-02-21T15:30:11Z</time>
      </trkpt>
      <trkpt lat="43.92375" lon="7.48851">
        <ele>940.00035824111</ele>
        <time>2012-02-21T15:30:16Z</time>
      </trkpt>
      <trkpt lat="43.92378" lon="7.48844">
        <ele>944.99980880159</ele>
        <time>2012-02-21T15:30:21Z</time>
      </trkpt>
      <trkpt lat="43.92379" lon="7.48836">
        <ele>949.99980642045</ele>
        <time>2012-02-21T15:30:26Z</time>
      </trkpt>
      <trkpt lat="43.92378" lon="7.48829">
        <ele>951.99975709738</ele>
        <time>2012-02-21T15:30:31Z</time>
      </trkpt>
      <trkpt lat="43.92377" lon="7.48821">
        <ele>960.00006261309</ele>
        <time>2012-02-21T15:30:36Z</time>
      </trkpt>
      <trkpt lat="43.92374" lon="7.48816">
        <ele>952.00013068849</ele>
        <time>2012-02-21T15:30:41Z</time>
      </trkpt>
      <trkpt lat="43.9237" lon="7.4881">
        <ele>957.99989419678</ele>
        <time>2012-02-21T15:30:46Z</time>
      </trkpt>
      <trkpt lat="43.92367" lon="7.48803">
        <ele>955.99987008835</ele>
        <time>2012-02-21T15:30:51Z</time>
      </trkpt>
      <trkpt lat="43.92366" lon="7.48795">
        <ele>957.99982849689</ele>
        <time>2012-02-21T15:30:56Z</time>
      </trkpt>
      <trkpt lat="43.92366" lon="7.48788">
        <ele>959.00021114913</ele>
        <time>2012-02-21T15:31:01Z</time>
      </trkpt>
      <trkpt lat="43.92366" lon="7.4878">
        <ele>959.00019426211</ele>
        <time>2012-02-21T15:31:06Z</time>
      </trkpt>
      <trkpt lat="43.92364" lon="7.48772">
        <ele>957.99993911168</ele>
        <time>2012-02-21T15:31:11Z</time>
      </trkpt>
      <trkpt lat="43.92362" lon="7.48766">
        <ele>958.99988880124</ele>
        <time>2012-02-21T15:31:16Z</time>
      </trkpt>
      <trkpt lat="43.9236" lon="7.4876">
        <ele>959.9999223735</ele>
        <time>2012-02-21T15:31:21Z</time>
      </trkpt>
      <trkpt lat="43.92356" lon="7.48756">
        <ele>956.99967877139</ele>
        <time>2012-02-21T15:31:26Z</time>
      </trkpt>
      <trkpt lat="43.92352" lon="7.48751">
        <ele>954.00005140502</ele>
        <time>2012-02-21T15:31:31Z</time>
      </trkpt>
      <trkpt lat="43.92347" lon="7.48744">
        <ele>952.99989649593</ele>
        <time>2012-02-21T15:31:36Z</time>
      </trkpt>
      <trkpt lat="43.92345" lon="7.48737">
        <ele>951.0001792141</ele>
        <time>2012-02-21T15:31:41Z</time>
      </trkpt>
      <trkpt lat="43.92343" lon="7.48731">
        <ele>956.00009961165</ele>
        <time>2012-02-21T15:31:46Z</time>
      </trkpt>
      <trkpt lat="43.92344" lon="7.48726">
        <ele>953.00051679388</ele>
        <time>2012-02-21T15:31:51Z</time>
      </trkpt>
      <trkpt lat="43.92347" lon="7.4872">
        <ele>950.0002412693</ele>
        <time>2012-02-21T15:31:56Z</time>
      </trkpt>
      <trkpt lat="43.92348" lon="7.48713">
        <ele>946.99983314471</ele>
        <time>2012-02-21T15:32:01Z</time>
      </trkpt>
      <trkpt lat="43.9235" lon="7.48703">
        <ele>947.99949266177</ele>
        <time>2012-02-21T15:32:06Z</time>
      </trkpt>
      <trkpt lat="43.9235" lon="7.48695">
        <ele>960.99966918303</ele>
        <time>2012-02-21T15:32:11Z</time>
      </trkpt>
      <trkpt lat="43.92348" lon="7.4869">
        <ele>958.99987472632</ele>
        <time>2012-02-21T15:32:16Z</time>
      </trkpt>
      <trkpt lat="43.92346" lon="7.48684">
        <ele>961.99982354402</ele>
        <time>2012-02-21T15:32:21Z</time>
      </trkpt>
      <trkpt lat="43.92342" lon="7.48678">
        <ele>960.00007468178</ele>
        <time>2012-02-21T15:32:26Z</time>
      </trkpt>
      <trkpt lat="43.92337" lon="7.48672">
        <ele>956.00005763654</ele>
        <time>2012-02-21T15:32:31Z</time>
      </trkpt>
      <trkpt lat="43.92333" lon="7.48667">
        <ele>960.99989122735</ele>
        <time>2012-02-21T15:32:36Z</time>
      </trkpt>
      <trkpt lat="43.9233" lon="7.48663">
        <ele>960.99996783589</ele>
        <time>2012-02-21T15:32:41Z</time>
      </trkpt>
      <trkpt lat="43.9233" lon="7.4866">
        <ele>968.00077812704</ele>
        <time>2012-02-21T15:32:46Z</time>
      </trkpt>
      <trkpt lat="43.92329" lon="7.48659">
        <ele>971.00019962488</ele>
        <time>2012-02-21T15:32:51Z</time>
      </trkpt>
      <trkpt lat="43.92326" lon="7.48653">
        <ele>962.9996039553</ele>
        <time>2012-02-21T15:32:56Z</time>
      </trkpt>
      <trkpt lat="43.92324" lon="7.48647">
        <ele>962.00025141447</ele>
        <time>2012-02-21T15:33:01Z</time>
      </trkpt>
      <trkpt lat="43.92321" lon="7.48642">
        <ele>961.00036301466</ele>
        <time>2012-02-21T15:33:06Z</time>
      </trkpt>
      <trkpt lat="43.92319" lon="7.48636">
        <ele>963.00003132457</ele>
        <time>2012-02-21T15:33:11Z</time>
      </trkpt>
      <trkpt lat="43.92319" lon="7.4863">
        <ele>967.99988576785</ele>
        <time>2012-02-21T15:33:16Z</time>
      </trkpt>
      <trkpt lat="43.92317" lon="7.48623">
        <ele>965.00014474643</ele>
        <time>2012-02-21T15:33:21Z</time>
      </trkpt>
      <trkpt lat="43.92317" lon="7.48617">
        <ele>966.00025422686</ele>
        <time>2012-02-21T15:33:26Z</time>
      </trkpt>
      <trkpt lat="43.92318" lon="7.48613">
        <ele>964.00057009542</ele>
        <time>2012-02-21T15:33:31Z</time>
      </trkpt>
      <trkpt lat="43.92319" lon="7.48612">
        <ele>964.00069727805</ele>
        <time>2012-02-21T15:33:36Z</time>
      </trkpt>
      <trkpt lat="43.92319" lon="7.48612">
        <ele>963.00059520869</ele>
        <time>2012-02-21T15:34:06Z</time>
      </trkpt>
      <trkpt lat="43.92319" lon="7.48612">
        <ele>961.00047495406</ele>
        <time>2012-02-21T15:34:31Z</time>
      </trkpt>
      <trkpt lat="43.92319" lon="7.48613">
        <ele>964.00043808056</ele>
        <time>2012-02-21T15:34:36Z</time>
      </trkpt>
      <trkpt lat="43.92319" lon="7.48613">
        <ele>963.00019050158</ele>
        <time>2012-02-21T15:35:01Z</time>
      </trkpt>
      <trkpt lat="43.9232" lon="7.48612">
        <ele>962.999912232</ele>
        <time>2012-02-21T15:35:11Z</time>
      </trkpt>
      <trkpt lat="43.9232" lon="7.48612">
        <ele>965.99979324568</ele>
        <time>2012-02-21T15:35:16Z</time>
      </trkpt>
      <trkpt lat="43.9232" lon="7.48612">
        <ele>965.99965900044</ele>
        <time>2012-02-21T15:35:21Z</time>
      </trkpt>
      <trkpt lat="43.9232" lon="7.48611">
        <ele>961.99970392705</ele>
        <time>2012-02-21T15:35:41Z</time>
      </trkpt>
      <trkpt lat="43.9232" lon="7.4861">
        <ele>954.9999254861</ele>
        <time>2012-02-21T15:35:51Z</time>
      </trkpt>
      <trkpt lat="43.9232" lon="7.4861">
        <ele>967.00030841549</ele>
        <time>2012-02-21T15:35:56Z</time>
      </trkpt>
      <trkpt lat="43.92319" lon="7.4861">
        <ele>962.00029115894</ele>
        <time>2012-02-21T15:36:01Z</time>
      </trkpt>
      <trkpt lat="43.92319" lon="7.48609">
        <ele>968.00012548068</ele>
        <time>2012-02-21T15:36:06Z</time>
      </trkpt>
      <trkpt lat="43.92317" lon="7.4861">
        <ele>969.00052875019</ele>
        <time>2012-02-21T15:36:11Z</time>
      </trkpt>
      <trkpt lat="43.92317" lon="7.4861">
        <ele>972.00068174743</ele>
        <time>2012-02-21T15:36:16Z</time>
      </trkpt>
      <trkpt lat="43.92317" lon="7.4861">
        <ele>961.99967772112</ele>
        <time>2012-02-21T15:36:21Z</time>
      </trkpt>
      <trkpt lat="43.92317" lon="7.48609">
        <ele>960.99968422573</ele>
        <time>2012-02-21T15:36:26Z</time>
      </trkpt>
      <trkpt lat="43.92318" lon="7.48609">
        <ele>961.99970773218</ele>
        <time>2012-02-21T15:36:31Z</time>
      </trkpt>
      <trkpt lat="43.92318" lon="7.48608">
        <ele>962.99964446811</ele>
        <time>2012-02-21T15:36:36Z</time>
      </trkpt>
      <trkpt lat="43.92319" lon="7.48608">
        <ele>966.99935104069</ele>
        <time>2012-02-21T15:36:41Z</time>
      </trkpt>
      <trkpt lat="43.9232" lon="7.48608">
        <ele>957.99907141766</ele>
        <time>2012-02-21T15:37:06Z</time>
      </trkpt>
      <trkpt lat="43.92322" lon="7.48607">
        <ele>957.99840655982</ele>
        <time>2012-02-21T15:37:26Z</time>
      </trkpt>
      <trkpt lat="43.92324" lon="7.48605">
        <ele>961.999371215</ele>
        <time>2012-02-21T15:37:46Z</time>
      </trkpt>
      <trkpt lat="43.92324" lon="7.48605">
        <ele>959.9997099927</ele>
        <time>2012-02-21T15:37:51Z</time>
      </trkpt>
      <trkpt lat="43.92324" lon="7.48605">
        <ele>960.99961241842</ele>
        <time>2012-02-21T15:37:56Z</time>
      </trkpt>
      <trkpt lat="43.92325" lon="7.48605">
        <ele>967.99991223916</ele>
        <time>2012-02-21T15:38:01Z</time>
      </trkpt>
      <trkpt lat="43.92325" lon="7.48604">
        <ele>961.00025193749</ele>
        <time>2012-02-21T15:38:11Z</time>
      </trkpt>
      <trkpt lat="43.92324" lon="7.48604">
        <ele>963.0003048398</ele>
        <time>2012-02-21T15:38:16Z</time>
      </trkpt>
      <trkpt lat="43.92324" lon="7.48604">
        <ele>961.99993788607</ele>
        <time>2012-02-21T15:38:21Z</time>
      </trkpt>
      <trkpt lat="43.92325" lon="7.48603">
        <ele>953.99977238228</ele>
        <time>2012-02-21T15:38:26Z</time>
      </trkpt>
      <trkpt lat="43.92325" lon="7.48603">
        <ele>958.99992690374</ele>
        <time>2012-02-21T15:38:31Z</time>
      </trkpt>
      <trkpt lat="43.92327" lon="7.48601">
        <ele>947.99519855742</ele>
        <time>2012-02-21T15:38:36Z</time>
      </trkpt>
      <trkpt lat="43.92327" lon="7.486">
        <ele>946.99607369849</ele>
        <time>2012-02-21T15:38:41Z</time>
      </trkpt>
      <trkpt lat="43.9233" lon="7.48598">
        <ele>958.99752160315</ele>
        <time>2012-02-21T15:38:46Z</time>
      </trkpt>
      <trkpt lat="43.92331" lon="7.48596">
        <ele>959.99862375222</ele>
        <time>2012-02-21T15:38:51Z</time>
      </trkpt>
      <trkpt lat="43.92331" lon="7.48596">
        <ele>957.99920576017</ele>
        <time>2012-02-21T15:38:56Z</time>
      </trkpt>
      <trkpt lat="43.92329" lon="7.48596">
        <ele>961.00079109219</ele>
        <time>2012-02-21T15:39:01Z</time>
      </trkpt>
      <trkpt lat="43.9233" lon="7.48596">
        <ele>979.00148975376</ele>
        <time>2012-02-21T15:39:11Z</time>
      </trkpt>
      <trkpt lat="43.9233" lon="7.48596">
        <ele>975.00134171648</ele>
        <time>2012-02-21T15:39:16Z</time>
      </trkpt>
    </trkseg>
  </trk>
</gpx>